<?xml version="1.0" encoding="UTF-8" standalone="no" ?>
<gpx xmlns="http://www.topografix.com/GPX/1/1" xmlns:xsi="http://www.w3.org/2001/XMLSchema-instance" xsi:schemaLocation="http://www.topografix.com/GPX/1/1 http://www.topografix.com/GPX/1/1/gpx.xsd" version="1.1" creator="VisuGPX - https://www.visugpx.com">
  <metadata>
    <name>Juziers - De la vallée de La Seine à La Montcient</name>
  </metadata>
  <trk>
    <name><![CDATA[Parcours du 22/09/2022 16h50]]></name>
    <trkseg>
      <trkpt lat="48.99226" lon="1.84612">
        <ele>50.5</ele>
        <time>2022-09-22T06:55:08Z</time>
      </trkpt>
      <trkpt lat="48.99231" lon="1.84609">
        <ele>50.3</ele>
        <time>2022-09-22T06:55:16Z</time>
      </trkpt>
      <trkpt lat="48.99235" lon="1.84609">
        <ele>50.9</ele>
        <time>2022-09-22T06:55:21Z</time>
      </trkpt>
      <trkpt lat="48.99237" lon="1.84601">
        <ele>50.4</ele>
        <time>2022-09-22T06:55:31Z</time>
      </trkpt>
      <trkpt lat="48.99237" lon="1.84591">
        <ele>50</ele>
        <time>2022-09-22T06:55:37Z</time>
      </trkpt>
      <trkpt lat="48.99235" lon="1.84584">
        <ele>50</ele>
        <time>2022-09-22T06:55:50Z</time>
      </trkpt>
      <trkpt lat="48.99238" lon="1.84577">
        <ele>49.6</ele>
        <time>2022-09-22T06:55:56Z</time>
      </trkpt>
      <trkpt lat="48.99243" lon="1.8458">
        <ele>49.8</ele>
        <time>2022-09-22T06:56:00Z</time>
      </trkpt>
      <trkpt lat="48.99249" lon="1.84582">
        <ele>49.8</ele>
        <time>2022-09-22T06:56:05Z</time>
      </trkpt>
      <trkpt lat="48.99253" lon="1.8458">
        <ele>49.9</ele>
        <time>2022-09-22T06:56:14Z</time>
      </trkpt>
      <trkpt lat="48.99259" lon="1.8458">
        <ele>49.7</ele>
        <time>2022-09-22T06:56:20Z</time>
      </trkpt>
      <trkpt lat="48.99263" lon="1.84577">
        <ele>49.3</ele>
        <time>2022-09-22T06:56:23Z</time>
      </trkpt>
      <trkpt lat="48.99268" lon="1.84571">
        <ele>48.7</ele>
        <time>2022-09-22T06:56:27Z</time>
      </trkpt>
      <trkpt lat="48.99271" lon="1.84567">
        <ele>48.3</ele>
        <time>2022-09-22T06:56:32Z</time>
      </trkpt>
      <trkpt lat="48.99275" lon="1.84562">
        <ele>47.5</ele>
        <time>2022-09-22T06:56:38Z</time>
      </trkpt>
      <trkpt lat="48.99279" lon="1.84558">
        <ele>47.4</ele>
        <time>2022-09-22T06:56:42Z</time>
      </trkpt>
      <trkpt lat="48.9928" lon="1.8455">
        <ele>47.4</ele>
        <time>2022-09-22T06:56:50Z</time>
      </trkpt>
      <trkpt lat="48.99285" lon="1.84548">
        <ele>46.9</ele>
        <time>2022-09-22T06:56:54Z</time>
      </trkpt>
      <trkpt lat="48.99291" lon="1.84549">
        <ele>46.3</ele>
        <time>2022-09-22T06:56:56Z</time>
      </trkpt>
      <trkpt lat="48.99296" lon="1.84551">
        <ele>46.8</ele>
        <time>2022-09-22T06:57:01Z</time>
      </trkpt>
      <trkpt lat="48.99298" lon="1.8456">
        <ele>47</ele>
        <time>2022-09-22T06:57:06Z</time>
      </trkpt>
      <trkpt lat="48.99302" lon="1.84566">
        <ele>46.9</ele>
        <time>2022-09-22T06:57:09Z</time>
      </trkpt>
      <trkpt lat="48.99304" lon="1.84573">
        <ele>47.2</ele>
        <time>2022-09-22T06:57:12Z</time>
      </trkpt>
      <trkpt lat="48.99307" lon="1.84581">
        <ele>48</ele>
        <time>2022-09-22T06:57:16Z</time>
      </trkpt>
      <trkpt lat="48.9931" lon="1.84587">
        <ele>48.2</ele>
        <time>2022-09-22T06:57:20Z</time>
      </trkpt>
      <trkpt lat="48.99313" lon="1.84593">
        <ele>48.5</ele>
        <time>2022-09-22T06:57:23Z</time>
      </trkpt>
      <trkpt lat="48.99318" lon="1.84597">
        <ele>48.9</ele>
        <time>2022-09-22T06:57:28Z</time>
      </trkpt>
      <trkpt lat="48.99323" lon="1.84593">
        <ele>49.1</ele>
        <time>2022-09-22T06:57:32Z</time>
      </trkpt>
      <trkpt lat="48.99326" lon="1.84588">
        <ele>49.2</ele>
        <time>2022-09-22T06:57:35Z</time>
      </trkpt>
      <trkpt lat="48.99331" lon="1.84583">
        <ele>49.4</ele>
        <time>2022-09-22T06:57:39Z</time>
      </trkpt>
      <trkpt lat="48.99335" lon="1.84578">
        <ele>49.8</ele>
        <time>2022-09-22T06:57:44Z</time>
      </trkpt>
      <trkpt lat="48.99339" lon="1.84574">
        <ele>49.9</ele>
        <time>2022-09-22T06:57:47Z</time>
      </trkpt>
      <trkpt lat="48.99344" lon="1.8457">
        <ele>50.5</ele>
        <time>2022-09-22T06:57:52Z</time>
      </trkpt>
      <trkpt lat="48.99348" lon="1.84566">
        <ele>50.8</ele>
        <time>2022-09-22T06:57:56Z</time>
      </trkpt>
      <trkpt lat="48.99349" lon="1.84558">
        <ele>51.2</ele>
        <time>2022-09-22T06:58:02Z</time>
      </trkpt>
      <trkpt lat="48.99355" lon="1.84556">
        <ele>51.6</ele>
        <time>2022-09-22T06:58:05Z</time>
      </trkpt>
      <trkpt lat="48.9936" lon="1.84555">
        <ele>52.2</ele>
        <time>2022-09-22T06:58:08Z</time>
      </trkpt>
      <trkpt lat="48.99365" lon="1.84555">
        <ele>52.8</ele>
        <time>2022-09-22T06:58:11Z</time>
      </trkpt>
      <trkpt lat="48.99371" lon="1.84553">
        <ele>53.2</ele>
        <time>2022-09-22T06:58:16Z</time>
      </trkpt>
      <trkpt lat="48.99375" lon="1.84549">
        <ele>53.6</ele>
        <time>2022-09-22T06:58:20Z</time>
      </trkpt>
      <trkpt lat="48.99381" lon="1.84548">
        <ele>54</ele>
        <time>2022-09-22T06:58:26Z</time>
      </trkpt>
      <trkpt lat="48.99385" lon="1.84546">
        <ele>54.1</ele>
        <time>2022-09-22T06:58:31Z</time>
      </trkpt>
      <trkpt lat="48.99391" lon="1.84542">
        <ele>54.6</ele>
        <time>2022-09-22T06:58:36Z</time>
      </trkpt>
      <trkpt lat="48.99396" lon="1.8454">
        <ele>55.2</ele>
        <time>2022-09-22T06:58:40Z</time>
      </trkpt>
      <trkpt lat="48.994" lon="1.84538">
        <ele>56.5</ele>
        <time>2022-09-22T06:58:45Z</time>
      </trkpt>
      <trkpt lat="48.99405" lon="1.84536">
        <ele>57.3</ele>
        <time>2022-09-22T06:58:49Z</time>
      </trkpt>
      <trkpt lat="48.9941" lon="1.84535">
        <ele>58.8</ele>
        <time>2022-09-22T06:58:54Z</time>
      </trkpt>
      <trkpt lat="48.99416" lon="1.84534">
        <ele>59.7</ele>
        <time>2022-09-22T06:58:59Z</time>
      </trkpt>
      <trkpt lat="48.9942" lon="1.84537">
        <ele>60.2</ele>
        <time>2022-09-22T06:59:05Z</time>
      </trkpt>
      <trkpt lat="48.99425" lon="1.84542">
        <ele>60.6</ele>
        <time>2022-09-22T06:59:09Z</time>
      </trkpt>
      <trkpt lat="48.99429" lon="1.84546">
        <ele>61.4</ele>
        <time>2022-09-22T06:59:13Z</time>
      </trkpt>
      <trkpt lat="48.99433" lon="1.8455">
        <ele>63</ele>
        <time>2022-09-22T06:59:17Z</time>
      </trkpt>
      <trkpt lat="48.99438" lon="1.84552">
        <ele>63.2</ele>
        <time>2022-09-22T06:59:21Z</time>
      </trkpt>
      <trkpt lat="48.99443" lon="1.84555">
        <ele>64.3</ele>
        <time>2022-09-22T06:59:25Z</time>
      </trkpt>
      <trkpt lat="48.99448" lon="1.84558">
        <ele>64.6</ele>
        <time>2022-09-22T06:59:29Z</time>
      </trkpt>
      <trkpt lat="48.99453" lon="1.84559">
        <ele>65.5</ele>
        <time>2022-09-22T06:59:33Z</time>
      </trkpt>
      <trkpt lat="48.99458" lon="1.84561">
        <ele>65.7</ele>
        <time>2022-09-22T06:59:37Z</time>
      </trkpt>
      <trkpt lat="48.99463" lon="1.84565">
        <ele>65.8</ele>
        <time>2022-09-22T06:59:42Z</time>
      </trkpt>
      <trkpt lat="48.99467" lon="1.84568">
        <ele>66</ele>
        <time>2022-09-22T06:59:46Z</time>
      </trkpt>
      <trkpt lat="48.99472" lon="1.8457">
        <ele>66.5</ele>
        <time>2022-09-22T06:59:49Z</time>
      </trkpt>
      <trkpt lat="48.99477" lon="1.84572">
        <ele>66.7</ele>
        <time>2022-09-22T06:59:53Z</time>
      </trkpt>
      <trkpt lat="48.99482" lon="1.84576">
        <ele>66.9</ele>
        <time>2022-09-22T06:59:57Z</time>
      </trkpt>
      <trkpt lat="48.99487" lon="1.8458">
        <ele>66.9</ele>
        <time>2022-09-22T07:00:01Z</time>
      </trkpt>
      <trkpt lat="48.99492" lon="1.84584">
        <ele>67.1</ele>
        <time>2022-09-22T07:00:05Z</time>
      </trkpt>
      <trkpt lat="48.99496" lon="1.84588">
        <ele>67.4</ele>
        <time>2022-09-22T07:00:09Z</time>
      </trkpt>
      <trkpt lat="48.995" lon="1.84593">
        <ele>67.7</ele>
        <time>2022-09-22T07:00:13Z</time>
      </trkpt>
      <trkpt lat="48.99505" lon="1.84596">
        <ele>67.9</ele>
        <time>2022-09-22T07:00:18Z</time>
      </trkpt>
      <trkpt lat="48.9951" lon="1.846">
        <ele>68</ele>
        <time>2022-09-22T07:00:22Z</time>
      </trkpt>
      <trkpt lat="48.99514" lon="1.84605">
        <ele>67.9</ele>
        <time>2022-09-22T07:00:26Z</time>
      </trkpt>
      <trkpt lat="48.99519" lon="1.8461">
        <ele>67.8</ele>
        <time>2022-09-22T07:00:31Z</time>
      </trkpt>
      <trkpt lat="48.99523" lon="1.84614">
        <ele>67.8</ele>
        <time>2022-09-22T07:00:34Z</time>
      </trkpt>
      <trkpt lat="48.99528" lon="1.84619">
        <ele>67.6</ele>
        <time>2022-09-22T07:00:39Z</time>
      </trkpt>
      <trkpt lat="48.99532" lon="1.84623">
        <ele>67.6</ele>
        <time>2022-09-22T07:00:43Z</time>
      </trkpt>
      <trkpt lat="48.99537" lon="1.84629">
        <ele>67.6</ele>
        <time>2022-09-22T07:00:47Z</time>
      </trkpt>
      <trkpt lat="48.99541" lon="1.84633">
        <ele>67.7</ele>
        <time>2022-09-22T07:00:51Z</time>
      </trkpt>
      <trkpt lat="48.99546" lon="1.84637">
        <ele>67.8</ele>
        <time>2022-09-22T07:00:55Z</time>
      </trkpt>
      <trkpt lat="48.99549" lon="1.84642">
        <ele>67.9</ele>
        <time>2022-09-22T07:00:58Z</time>
      </trkpt>
      <trkpt lat="48.99552" lon="1.84648">
        <ele>68.1</ele>
        <time>2022-09-22T07:01:03Z</time>
      </trkpt>
      <trkpt lat="48.99556" lon="1.84652">
        <ele>68.5</ele>
        <time>2022-09-22T07:01:06Z</time>
      </trkpt>
      <trkpt lat="48.99561" lon="1.84657">
        <ele>68.7</ele>
        <time>2022-09-22T07:01:11Z</time>
      </trkpt>
      <trkpt lat="48.99564" lon="1.84662">
        <ele>68.8</ele>
        <time>2022-09-22T07:01:14Z</time>
      </trkpt>
      <trkpt lat="48.99567" lon="1.84668">
        <ele>69</ele>
        <time>2022-09-22T07:01:18Z</time>
      </trkpt>
      <trkpt lat="48.9957" lon="1.84673">
        <ele>69.6</ele>
        <time>2022-09-22T07:01:21Z</time>
      </trkpt>
      <trkpt lat="48.99574" lon="1.84678">
        <ele>69.8</ele>
        <time>2022-09-22T07:01:25Z</time>
      </trkpt>
      <trkpt lat="48.99578" lon="1.84683">
        <ele>70.2</ele>
        <time>2022-09-22T07:01:30Z</time>
      </trkpt>
      <trkpt lat="48.99582" lon="1.84686">
        <ele>70.3</ele>
        <time>2022-09-22T07:01:34Z</time>
      </trkpt>
      <trkpt lat="48.99586" lon="1.84691">
        <ele>70.7</ele>
        <time>2022-09-22T07:01:39Z</time>
      </trkpt>
      <trkpt lat="48.99591" lon="1.84697">
        <ele>70.9</ele>
        <time>2022-09-22T07:01:43Z</time>
      </trkpt>
      <trkpt lat="48.99595" lon="1.847">
        <ele>71.2</ele>
        <time>2022-09-22T07:01:47Z</time>
      </trkpt>
      <trkpt lat="48.996" lon="1.84704">
        <ele>71.3</ele>
        <time>2022-09-22T07:01:51Z</time>
      </trkpt>
      <trkpt lat="48.99604" lon="1.84708">
        <ele>71.6</ele>
        <time>2022-09-22T07:01:56Z</time>
      </trkpt>
      <trkpt lat="48.99608" lon="1.84712">
        <ele>71.9</ele>
        <time>2022-09-22T07:01:59Z</time>
      </trkpt>
      <trkpt lat="48.99613" lon="1.84716">
        <ele>72.2</ele>
        <time>2022-09-22T07:02:03Z</time>
      </trkpt>
      <trkpt lat="48.99618" lon="1.8472">
        <ele>72.3</ele>
        <time>2022-09-22T07:02:08Z</time>
      </trkpt>
      <trkpt lat="48.99622" lon="1.84725">
        <ele>72.2</ele>
        <time>2022-09-22T07:02:12Z</time>
      </trkpt>
      <trkpt lat="48.99626" lon="1.84729">
        <ele>72.5</ele>
        <time>2022-09-22T07:02:16Z</time>
      </trkpt>
      <trkpt lat="48.9963" lon="1.84731">
        <ele>72.5</ele>
        <time>2022-09-22T07:02:20Z</time>
      </trkpt>
      <trkpt lat="48.99635" lon="1.84733">
        <ele>72.6</ele>
        <time>2022-09-22T07:02:24Z</time>
      </trkpt>
      <trkpt lat="48.9964" lon="1.84735">
        <ele>72.6</ele>
        <time>2022-09-22T07:02:29Z</time>
      </trkpt>
      <trkpt lat="48.99645" lon="1.84737">
        <ele>73</ele>
        <time>2022-09-22T07:02:33Z</time>
      </trkpt>
      <trkpt lat="48.9965" lon="1.84739">
        <ele>73.2</ele>
        <time>2022-09-22T07:02:36Z</time>
      </trkpt>
      <trkpt lat="48.99655" lon="1.84743">
        <ele>73.9</ele>
        <time>2022-09-22T07:02:40Z</time>
      </trkpt>
      <trkpt lat="48.9966" lon="1.84747">
        <ele>74.5</ele>
        <time>2022-09-22T07:02:45Z</time>
      </trkpt>
      <trkpt lat="48.99665" lon="1.84749">
        <ele>75.8</ele>
        <time>2022-09-22T07:02:49Z</time>
      </trkpt>
      <trkpt lat="48.99671" lon="1.8475">
        <ele>76.5</ele>
        <time>2022-09-22T07:02:54Z</time>
      </trkpt>
      <trkpt lat="48.99677" lon="1.84751">
        <ele>77.7</ele>
        <time>2022-09-22T07:02:58Z</time>
      </trkpt>
      <trkpt lat="48.99682" lon="1.84754">
        <ele>78.3</ele>
        <time>2022-09-22T07:03:03Z</time>
      </trkpt>
      <trkpt lat="48.99686" lon="1.84757">
        <ele>79.5</ele>
        <time>2022-09-22T07:03:07Z</time>
      </trkpt>
      <trkpt lat="48.99689" lon="1.84761">
        <ele>79.7</ele>
        <time>2022-09-22T07:03:11Z</time>
      </trkpt>
      <trkpt lat="48.99694" lon="1.84765">
        <ele>80.1</ele>
        <time>2022-09-22T07:03:15Z</time>
      </trkpt>
      <trkpt lat="48.99699" lon="1.84767">
        <ele>80.3</ele>
        <time>2022-09-22T07:03:19Z</time>
      </trkpt>
      <trkpt lat="48.99704" lon="1.8477">
        <ele>79.9</ele>
        <time>2022-09-22T07:03:23Z</time>
      </trkpt>
      <trkpt lat="48.99708" lon="1.84773">
        <ele>79.9</ele>
        <time>2022-09-22T07:03:27Z</time>
      </trkpt>
      <trkpt lat="48.99713" lon="1.84778">
        <ele>80</ele>
        <time>2022-09-22T07:03:31Z</time>
      </trkpt>
      <trkpt lat="48.99717" lon="1.84782">
        <ele>80.9</ele>
        <time>2022-09-22T07:03:35Z</time>
      </trkpt>
      <trkpt lat="48.99722" lon="1.84786">
        <ele>81.3</ele>
        <time>2022-09-22T07:03:39Z</time>
      </trkpt>
      <trkpt lat="48.99726" lon="1.84788">
        <ele>81.6</ele>
        <time>2022-09-22T07:03:43Z</time>
      </trkpt>
      <trkpt lat="48.9973" lon="1.84791">
        <ele>82.3</ele>
        <time>2022-09-22T07:03:47Z</time>
      </trkpt>
      <trkpt lat="48.99734" lon="1.84795">
        <ele>82.9</ele>
        <time>2022-09-22T07:03:51Z</time>
      </trkpt>
      <trkpt lat="48.99738" lon="1.84799">
        <ele>84.8</ele>
        <time>2022-09-22T07:03:55Z</time>
      </trkpt>
      <trkpt lat="48.99743" lon="1.84802">
        <ele>85.9</ele>
        <time>2022-09-22T07:03:59Z</time>
      </trkpt>
      <trkpt lat="48.99748" lon="1.84804">
        <ele>87.2</ele>
        <time>2022-09-22T07:04:03Z</time>
      </trkpt>
      <trkpt lat="48.99753" lon="1.84807">
        <ele>88.5</ele>
        <time>2022-09-22T07:04:07Z</time>
      </trkpt>
      <trkpt lat="48.99758" lon="1.84809">
        <ele>88.4</ele>
        <time>2022-09-22T07:04:11Z</time>
      </trkpt>
      <trkpt lat="48.99763" lon="1.84812">
        <ele>89.1</ele>
        <time>2022-09-22T07:04:15Z</time>
      </trkpt>
      <trkpt lat="48.99768" lon="1.84815">
        <ele>89.6</ele>
        <time>2022-09-22T07:04:20Z</time>
      </trkpt>
      <trkpt lat="48.99773" lon="1.84819">
        <ele>90.2</ele>
        <time>2022-09-22T07:04:24Z</time>
      </trkpt>
      <trkpt lat="48.99777" lon="1.84822">
        <ele>90.6</ele>
        <time>2022-09-22T07:04:28Z</time>
      </trkpt>
      <trkpt lat="48.99782" lon="1.84825">
        <ele>90.6</ele>
        <time>2022-09-22T07:04:31Z</time>
      </trkpt>
      <trkpt lat="48.99787" lon="1.84828">
        <ele>90.9</ele>
        <time>2022-09-22T07:04:36Z</time>
      </trkpt>
      <trkpt lat="48.99792" lon="1.8483">
        <ele>91.3</ele>
        <time>2022-09-22T07:04:40Z</time>
      </trkpt>
      <trkpt lat="48.99796" lon="1.84833">
        <ele>91.8</ele>
        <time>2022-09-22T07:04:43Z</time>
      </trkpt>
      <trkpt lat="48.998" lon="1.84836">
        <ele>91.6</ele>
        <time>2022-09-22T07:04:46Z</time>
      </trkpt>
      <trkpt lat="48.99805" lon="1.84839">
        <ele>91.9</ele>
        <time>2022-09-22T07:04:51Z</time>
      </trkpt>
      <trkpt lat="48.99809" lon="1.84844">
        <ele>92.4</ele>
        <time>2022-09-22T07:04:55Z</time>
      </trkpt>
      <trkpt lat="48.99814" lon="1.84849">
        <ele>93.2</ele>
        <time>2022-09-22T07:04:59Z</time>
      </trkpt>
      <trkpt lat="48.99818" lon="1.84855">
        <ele>93.7</ele>
        <time>2022-09-22T07:05:03Z</time>
      </trkpt>
      <trkpt lat="48.99823" lon="1.84859">
        <ele>93.8</ele>
        <time>2022-09-22T07:05:08Z</time>
      </trkpt>
      <trkpt lat="48.99827" lon="1.84865">
        <ele>93.8</ele>
        <time>2022-09-22T07:05:12Z</time>
      </trkpt>
      <trkpt lat="48.99832" lon="1.84871">
        <ele>93.8</ele>
        <time>2022-09-22T07:05:17Z</time>
      </trkpt>
      <trkpt lat="48.99837" lon="1.84875">
        <ele>93.8</ele>
        <time>2022-09-22T07:05:22Z</time>
      </trkpt>
      <trkpt lat="48.99841" lon="1.84879">
        <ele>93.9</ele>
        <time>2022-09-22T07:05:25Z</time>
      </trkpt>
      <trkpt lat="48.99845" lon="1.84884">
        <ele>94.2</ele>
        <time>2022-09-22T07:05:29Z</time>
      </trkpt>
      <trkpt lat="48.99849" lon="1.84889">
        <ele>94.4</ele>
        <time>2022-09-22T07:05:34Z</time>
      </trkpt>
      <trkpt lat="48.99854" lon="1.84894">
        <ele>94.6</ele>
        <time>2022-09-22T07:05:38Z</time>
      </trkpt>
      <trkpt lat="48.99858" lon="1.84898">
        <ele>94.7</ele>
        <time>2022-09-22T07:05:42Z</time>
      </trkpt>
      <trkpt lat="48.99861" lon="1.84903">
        <ele>94.7</ele>
        <time>2022-09-22T07:05:46Z</time>
      </trkpt>
      <trkpt lat="48.99865" lon="1.84908">
        <ele>95.1</ele>
        <time>2022-09-22T07:05:52Z</time>
      </trkpt>
      <trkpt lat="48.99868" lon="1.84913">
        <ele>95.5</ele>
        <time>2022-09-22T07:05:55Z</time>
      </trkpt>
      <trkpt lat="48.99872" lon="1.84919">
        <ele>95.6</ele>
        <time>2022-09-22T07:06:00Z</time>
      </trkpt>
      <trkpt lat="48.99877" lon="1.84924">
        <ele>96</ele>
        <time>2022-09-22T07:06:04Z</time>
      </trkpt>
      <trkpt lat="48.99881" lon="1.84929">
        <ele>96.2</ele>
        <time>2022-09-22T07:06:09Z</time>
      </trkpt>
      <trkpt lat="48.99884" lon="1.84935">
        <ele>96.2</ele>
        <time>2022-09-22T07:06:13Z</time>
      </trkpt>
      <trkpt lat="48.99889" lon="1.84935">
        <ele>96.1</ele>
        <time>2022-09-22T07:06:20Z</time>
      </trkpt>
      <trkpt lat="48.99893" lon="1.84944">
        <ele>96.3</ele>
        <time>2022-09-22T07:06:24Z</time>
      </trkpt>
      <trkpt lat="48.99896" lon="1.8495">
        <ele>96.7</ele>
        <time>2022-09-22T07:06:28Z</time>
      </trkpt>
      <trkpt lat="48.999" lon="1.84954">
        <ele>97</ele>
        <time>2022-09-22T07:06:33Z</time>
      </trkpt>
      <trkpt lat="48.99904" lon="1.84958">
        <ele>97.1</ele>
        <time>2022-09-22T07:06:37Z</time>
      </trkpt>
      <trkpt lat="48.99908" lon="1.84962">
        <ele>97.5</ele>
        <time>2022-09-22T07:06:41Z</time>
      </trkpt>
      <trkpt lat="48.99913" lon="1.84964">
        <ele>97.8</ele>
        <time>2022-09-22T07:06:47Z</time>
      </trkpt>
      <trkpt lat="48.99918" lon="1.84968">
        <ele>98.1</ele>
        <time>2022-09-22T07:06:52Z</time>
      </trkpt>
      <trkpt lat="48.99922" lon="1.84973">
        <ele>98.5</ele>
        <time>2022-09-22T07:06:57Z</time>
      </trkpt>
      <trkpt lat="48.99927" lon="1.84976">
        <ele>98.7</ele>
        <time>2022-09-22T07:07:02Z</time>
      </trkpt>
      <trkpt lat="48.99932" lon="1.8498">
        <ele>99.2</ele>
        <time>2022-09-22T07:07:06Z</time>
      </trkpt>
      <trkpt lat="48.99938" lon="1.84979">
        <ele>99.7</ele>
        <time>2022-09-22T07:07:15Z</time>
      </trkpt>
      <trkpt lat="48.99941" lon="1.84983">
        <ele>100.2</ele>
        <time>2022-09-22T07:07:17Z</time>
      </trkpt>
      <trkpt lat="48.99945" lon="1.84989">
        <ele>100.9</ele>
        <time>2022-09-22T07:07:20Z</time>
      </trkpt>
      <trkpt lat="48.9995" lon="1.84991">
        <ele>101.4</ele>
        <time>2022-09-22T07:07:25Z</time>
      </trkpt>
      <trkpt lat="48.99956" lon="1.84994">
        <ele>101.9</ele>
        <time>2022-09-22T07:07:29Z</time>
      </trkpt>
      <trkpt lat="48.99961" lon="1.84998">
        <ele>102</ele>
        <time>2022-09-22T07:07:34Z</time>
      </trkpt>
      <trkpt lat="48.99966" lon="1.84999">
        <ele>102.4</ele>
        <time>2022-09-22T07:07:38Z</time>
      </trkpt>
      <trkpt lat="48.99971" lon="1.85001">
        <ele>103.3</ele>
        <time>2022-09-22T07:07:42Z</time>
      </trkpt>
      <trkpt lat="48.99976" lon="1.85004">
        <ele>103.6</ele>
        <time>2022-09-22T07:07:46Z</time>
      </trkpt>
      <trkpt lat="48.99982" lon="1.85007">
        <ele>104.6</ele>
        <time>2022-09-22T07:07:51Z</time>
      </trkpt>
      <trkpt lat="48.99986" lon="1.85008">
        <ele>105.2</ele>
        <time>2022-09-22T07:07:55Z</time>
      </trkpt>
      <trkpt lat="48.99991" lon="1.8501">
        <ele>105.6</ele>
        <time>2022-09-22T07:07:59Z</time>
      </trkpt>
      <trkpt lat="48.99996" lon="1.85014">
        <ele>106.3</ele>
        <time>2022-09-22T07:08:03Z</time>
      </trkpt>
      <trkpt lat="49" lon="1.85018">
        <ele>107.5</ele>
        <time>2022-09-22T07:08:08Z</time>
      </trkpt>
      <trkpt lat="49.00005" lon="1.85022">
        <ele>107.9</ele>
        <time>2022-09-22T07:08:12Z</time>
      </trkpt>
      <trkpt lat="49.0001" lon="1.85026">
        <ele>108.6</ele>
        <time>2022-09-22T07:08:17Z</time>
      </trkpt>
      <trkpt lat="49.00014" lon="1.8503">
        <ele>109</ele>
        <time>2022-09-22T07:08:21Z</time>
      </trkpt>
      <trkpt lat="49.00017" lon="1.85035">
        <ele>109.7</ele>
        <time>2022-09-22T07:08:26Z</time>
      </trkpt>
      <trkpt lat="49.00021" lon="1.85039">
        <ele>109.8</ele>
        <time>2022-09-22T07:08:30Z</time>
      </trkpt>
      <trkpt lat="49.00026" lon="1.85043">
        <ele>110.2</ele>
        <time>2022-09-22T07:08:34Z</time>
      </trkpt>
      <trkpt lat="49.0003" lon="1.85047">
        <ele>110.3</ele>
        <time>2022-09-22T07:08:38Z</time>
      </trkpt>
      <trkpt lat="49.00034" lon="1.85051">
        <ele>110.4</ele>
        <time>2022-09-22T07:08:42Z</time>
      </trkpt>
      <trkpt lat="49.00038" lon="1.85055">
        <ele>110.6</ele>
        <time>2022-09-22T07:08:47Z</time>
      </trkpt>
      <trkpt lat="49.00043" lon="1.8506">
        <ele>110.4</ele>
        <time>2022-09-22T07:08:51Z</time>
      </trkpt>
      <trkpt lat="49.00047" lon="1.85065">
        <ele>110.2</ele>
        <time>2022-09-22T07:08:56Z</time>
      </trkpt>
      <trkpt lat="49.0005" lon="1.85073">
        <ele>110.2</ele>
        <time>2022-09-22T07:09:00Z</time>
      </trkpt>
      <trkpt lat="49.00052" lon="1.85078">
        <ele>109.8</ele>
        <time>2022-09-22T07:09:04Z</time>
      </trkpt>
      <trkpt lat="49.00055" lon="1.85084">
        <ele>109.5</ele>
        <time>2022-09-22T07:09:07Z</time>
      </trkpt>
      <trkpt lat="49.00057" lon="1.85094">
        <ele>109.2</ele>
        <time>2022-09-22T07:09:12Z</time>
      </trkpt>
      <trkpt lat="49.00059" lon="1.85102">
        <ele>109.3</ele>
        <time>2022-09-22T07:09:16Z</time>
      </trkpt>
      <trkpt lat="49.00061" lon="1.85108">
        <ele>109.3</ele>
        <time>2022-09-22T07:09:20Z</time>
      </trkpt>
      <trkpt lat="49.00063" lon="1.85101">
        <ele>109.3</ele>
        <time>2022-09-22T07:09:36Z</time>
      </trkpt>
      <trkpt lat="49.00067" lon="1.85096">
        <ele>109</ele>
        <time>2022-09-22T07:09:47Z</time>
      </trkpt>
      <trkpt lat="49.00071" lon="1.85095">
        <ele>108.8</ele>
        <time>2022-09-22T07:11:10Z</time>
      </trkpt>
      <trkpt lat="49.00077" lon="1.85089">
        <ele>108.7</ele>
        <time>2022-09-22T07:11:13Z</time>
      </trkpt>
      <trkpt lat="49.00082" lon="1.85084">
        <ele>108.8</ele>
        <time>2022-09-22T07:11:17Z</time>
      </trkpt>
      <trkpt lat="49.00085" lon="1.8508">
        <ele>108.9</ele>
        <time>2022-09-22T07:11:20Z</time>
      </trkpt>
      <trkpt lat="49.00088" lon="1.85074">
        <ele>109.2</ele>
        <time>2022-09-22T07:11:23Z</time>
      </trkpt>
      <trkpt lat="49.00086" lon="1.85064">
        <ele>109.8</ele>
        <time>2022-09-22T07:11:26Z</time>
      </trkpt>
      <trkpt lat="49.00087" lon="1.85056">
        <ele>109.6</ele>
        <time>2022-09-22T07:11:30Z</time>
      </trkpt>
      <trkpt lat="49.00092" lon="1.85054">
        <ele>109.6</ele>
        <time>2022-09-22T07:11:34Z</time>
      </trkpt>
      <trkpt lat="49.00097" lon="1.85051">
        <ele>110.1</ele>
        <time>2022-09-22T07:11:37Z</time>
      </trkpt>
      <trkpt lat="49.00102" lon="1.85048">
        <ele>110.8</ele>
        <time>2022-09-22T07:11:42Z</time>
      </trkpt>
      <trkpt lat="49.00107" lon="1.85051">
        <ele>111.4</ele>
        <time>2022-09-22T07:11:47Z</time>
      </trkpt>
      <trkpt lat="49.00111" lon="1.85055">
        <ele>111.3</ele>
        <time>2022-09-22T07:11:51Z</time>
      </trkpt>
      <trkpt lat="49.00115" lon="1.85058">
        <ele>111.4</ele>
        <time>2022-09-22T07:11:56Z</time>
      </trkpt>
      <trkpt lat="49.00119" lon="1.85061">
        <ele>112</ele>
        <time>2022-09-22T07:12:00Z</time>
      </trkpt>
      <trkpt lat="49.00123" lon="1.85065">
        <ele>112.4</ele>
        <time>2022-09-22T07:12:05Z</time>
      </trkpt>
      <trkpt lat="49.00128" lon="1.85067">
        <ele>112.8</ele>
        <time>2022-09-22T07:12:11Z</time>
      </trkpt>
      <trkpt lat="49.00133" lon="1.8507">
        <ele>113.4</ele>
        <time>2022-09-22T07:12:17Z</time>
      </trkpt>
      <trkpt lat="49.00138" lon="1.85074">
        <ele>113.8</ele>
        <time>2022-09-22T07:12:22Z</time>
      </trkpt>
      <trkpt lat="49.00143" lon="1.85079">
        <ele>113.9</ele>
        <time>2022-09-22T07:12:27Z</time>
      </trkpt>
      <trkpt lat="49.00147" lon="1.85084">
        <ele>114.6</ele>
        <time>2022-09-22T07:12:32Z</time>
      </trkpt>
      <trkpt lat="49.00152" lon="1.85086">
        <ele>116.1</ele>
        <time>2022-09-22T07:12:36Z</time>
      </trkpt>
      <trkpt lat="49.00157" lon="1.85088">
        <ele>117</ele>
        <time>2022-09-22T07:12:42Z</time>
      </trkpt>
      <trkpt lat="49.00161" lon="1.85091">
        <ele>118.4</ele>
        <time>2022-09-22T07:12:47Z</time>
      </trkpt>
      <trkpt lat="49.00166" lon="1.85096">
        <ele>119.5</ele>
        <time>2022-09-22T07:12:53Z</time>
      </trkpt>
      <trkpt lat="49.00169" lon="1.85101">
        <ele>120.4</ele>
        <time>2022-09-22T07:12:57Z</time>
      </trkpt>
      <trkpt lat="49.00172" lon="1.85107">
        <ele>120.8</ele>
        <time>2022-09-22T07:13:02Z</time>
      </trkpt>
      <trkpt lat="49.00176" lon="1.85113">
        <ele>120.8</ele>
        <time>2022-09-22T07:13:08Z</time>
      </trkpt>
      <trkpt lat="49.0018" lon="1.85118">
        <ele>121.3</ele>
        <time>2022-09-22T07:13:13Z</time>
      </trkpt>
      <trkpt lat="49.00183" lon="1.85123">
        <ele>123.2</ele>
        <time>2022-09-22T07:13:18Z</time>
      </trkpt>
      <trkpt lat="49.00187" lon="1.85128">
        <ele>123.1</ele>
        <time>2022-09-22T07:13:24Z</time>
      </trkpt>
      <trkpt lat="49.00191" lon="1.85133">
        <ele>124.5</ele>
        <time>2022-09-22T07:13:29Z</time>
      </trkpt>
      <trkpt lat="49.00194" lon="1.85138">
        <ele>124.6</ele>
        <time>2022-09-22T07:13:34Z</time>
      </trkpt>
      <trkpt lat="49.00197" lon="1.85144">
        <ele>125.4</ele>
        <time>2022-09-22T07:13:39Z</time>
      </trkpt>
      <trkpt lat="49.00202" lon="1.85148">
        <ele>125.7</ele>
        <time>2022-09-22T07:13:44Z</time>
      </trkpt>
      <trkpt lat="49.00206" lon="1.85153">
        <ele>126.5</ele>
        <time>2022-09-22T07:13:50Z</time>
      </trkpt>
      <trkpt lat="49.00209" lon="1.8516">
        <ele>127.1</ele>
        <time>2022-09-22T07:13:55Z</time>
      </trkpt>
      <trkpt lat="49.00211" lon="1.85168">
        <ele>127</ele>
        <time>2022-09-22T07:13:59Z</time>
      </trkpt>
      <trkpt lat="49.00215" lon="1.85173">
        <ele>126.8</ele>
        <time>2022-09-22T07:14:04Z</time>
      </trkpt>
      <trkpt lat="49.00219" lon="1.85178">
        <ele>127.4</ele>
        <time>2022-09-22T07:14:08Z</time>
      </trkpt>
      <trkpt lat="49.00223" lon="1.85182">
        <ele>128.5</ele>
        <time>2022-09-22T07:14:12Z</time>
      </trkpt>
      <trkpt lat="49.00226" lon="1.85188">
        <ele>128.9</ele>
        <time>2022-09-22T07:14:18Z</time>
      </trkpt>
      <trkpt lat="49.00229" lon="1.85194">
        <ele>128.9</ele>
        <time>2022-09-22T07:14:22Z</time>
      </trkpt>
      <trkpt lat="49.0023" lon="1.85201">
        <ele>129.2</ele>
        <time>2022-09-22T07:14:26Z</time>
      </trkpt>
      <trkpt lat="49.00233" lon="1.85208">
        <ele>129.4</ele>
        <time>2022-09-22T07:14:31Z</time>
      </trkpt>
      <trkpt lat="49.00236" lon="1.85214">
        <ele>129.8</ele>
        <time>2022-09-22T07:14:34Z</time>
      </trkpt>
      <trkpt lat="49.0024" lon="1.85219">
        <ele>129.6</ele>
        <time>2022-09-22T07:14:38Z</time>
      </trkpt>
      <trkpt lat="49.00245" lon="1.85222">
        <ele>130.2</ele>
        <time>2022-09-22T07:14:43Z</time>
      </trkpt>
      <trkpt lat="49.00249" lon="1.85226">
        <ele>130.4</ele>
        <time>2022-09-22T07:14:48Z</time>
      </trkpt>
      <trkpt lat="49.00254" lon="1.8523">
        <ele>130.9</ele>
        <time>2022-09-22T07:14:52Z</time>
      </trkpt>
      <trkpt lat="49.00258" lon="1.85235">
        <ele>131.8</ele>
        <time>2022-09-22T07:14:56Z</time>
      </trkpt>
      <trkpt lat="49.00262" lon="1.85239">
        <ele>132.4</ele>
        <time>2022-09-22T07:15:00Z</time>
      </trkpt>
      <trkpt lat="49.00265" lon="1.85245">
        <ele>133.7</ele>
        <time>2022-09-22T07:15:04Z</time>
      </trkpt>
      <trkpt lat="49.00269" lon="1.8525">
        <ele>134.3</ele>
        <time>2022-09-22T07:15:08Z</time>
      </trkpt>
      <trkpt lat="49.00272" lon="1.85257">
        <ele>134.8</ele>
        <time>2022-09-22T07:15:13Z</time>
      </trkpt>
      <trkpt lat="49.00275" lon="1.85263">
        <ele>134.9</ele>
        <time>2022-09-22T07:15:17Z</time>
      </trkpt>
      <trkpt lat="49.00278" lon="1.8527">
        <ele>135.1</ele>
        <time>2022-09-22T07:15:22Z</time>
      </trkpt>
      <trkpt lat="49.00282" lon="1.85275">
        <ele>135.1</ele>
        <time>2022-09-22T07:15:26Z</time>
      </trkpt>
      <trkpt lat="49.00287" lon="1.85277">
        <ele>135.5</ele>
        <time>2022-09-22T07:15:31Z</time>
      </trkpt>
      <trkpt lat="49.00291" lon="1.85274">
        <ele>136.6</ele>
        <time>2022-09-22T07:15:34Z</time>
      </trkpt>
      <trkpt lat="49.00296" lon="1.8527">
        <ele>136.6</ele>
        <time>2022-09-22T07:15:38Z</time>
      </trkpt>
      <trkpt lat="49.00301" lon="1.85268">
        <ele>137.6</ele>
        <time>2022-09-22T07:15:42Z</time>
      </trkpt>
      <trkpt lat="49.00306" lon="1.85267">
        <ele>138.5</ele>
        <time>2022-09-22T07:15:46Z</time>
      </trkpt>
      <trkpt lat="49.0031" lon="1.85265">
        <ele>139.3</ele>
        <time>2022-09-22T07:15:49Z</time>
      </trkpt>
      <trkpt lat="49.00316" lon="1.85263">
        <ele>141.4</ele>
        <time>2022-09-22T07:15:54Z</time>
      </trkpt>
      <trkpt lat="49.00321" lon="1.85262">
        <ele>141.6</ele>
        <time>2022-09-22T07:15:58Z</time>
      </trkpt>
      <trkpt lat="49.00326" lon="1.8526">
        <ele>142.6</ele>
        <time>2022-09-22T07:16:03Z</time>
      </trkpt>
      <trkpt lat="49.00332" lon="1.8526">
        <ele>143.1</ele>
        <time>2022-09-22T07:16:07Z</time>
      </trkpt>
      <trkpt lat="49.00337" lon="1.85261">
        <ele>143.2</ele>
        <time>2022-09-22T07:16:12Z</time>
      </trkpt>
      <trkpt lat="49.00342" lon="1.85262">
        <ele>143.8</ele>
        <time>2022-09-22T07:16:16Z</time>
      </trkpt>
      <trkpt lat="49.00347" lon="1.85264">
        <ele>144.2</ele>
        <time>2022-09-22T07:16:21Z</time>
      </trkpt>
      <trkpt lat="49.00352" lon="1.85265">
        <ele>144.7</ele>
        <time>2022-09-22T07:16:25Z</time>
      </trkpt>
      <trkpt lat="49.00357" lon="1.85265">
        <ele>144.9</ele>
        <time>2022-09-22T07:16:30Z</time>
      </trkpt>
      <trkpt lat="49.00362" lon="1.85267">
        <ele>145.4</ele>
        <time>2022-09-22T07:16:34Z</time>
      </trkpt>
      <trkpt lat="49.00367" lon="1.85267">
        <ele>146.2</ele>
        <time>2022-09-22T07:16:39Z</time>
      </trkpt>
      <trkpt lat="49.00372" lon="1.85266">
        <ele>147.6</ele>
        <time>2022-09-22T07:16:43Z</time>
      </trkpt>
      <trkpt lat="49.00377" lon="1.85265">
        <ele>148.5</ele>
        <time>2022-09-22T07:16:48Z</time>
      </trkpt>
      <trkpt lat="49.00382" lon="1.85266">
        <ele>149.6</ele>
        <time>2022-09-22T07:16:52Z</time>
      </trkpt>
      <trkpt lat="49.00387" lon="1.85266">
        <ele>150</ele>
        <time>2022-09-22T07:16:56Z</time>
      </trkpt>
      <trkpt lat="49.00393" lon="1.85266">
        <ele>149.9</ele>
        <time>2022-09-22T07:17:00Z</time>
      </trkpt>
      <trkpt lat="49.00395" lon="1.85259">
        <ele>150.5</ele>
        <time>2022-09-22T07:17:06Z</time>
      </trkpt>
      <trkpt lat="49.004" lon="1.85261">
        <ele>151.1</ele>
        <time>2022-09-22T07:17:09Z</time>
      </trkpt>
      <trkpt lat="49.00405" lon="1.85263">
        <ele>151.3</ele>
        <time>2022-09-22T07:17:12Z</time>
      </trkpt>
      <trkpt lat="49.00409" lon="1.85265">
        <ele>151.9</ele>
        <time>2022-09-22T07:17:17Z</time>
      </trkpt>
      <trkpt lat="49.00414" lon="1.8527">
        <ele>153.5</ele>
        <time>2022-09-22T07:17:21Z</time>
      </trkpt>
      <trkpt lat="49.00419" lon="1.85268">
        <ele>154.2</ele>
        <time>2022-09-22T07:17:26Z</time>
      </trkpt>
      <trkpt lat="49.00424" lon="1.85264">
        <ele>154.4</ele>
        <time>2022-09-22T07:17:30Z</time>
      </trkpt>
      <trkpt lat="49.00429" lon="1.85261">
        <ele>155.4</ele>
        <time>2022-09-22T07:17:34Z</time>
      </trkpt>
      <trkpt lat="49.00434" lon="1.85261">
        <ele>155.5</ele>
        <time>2022-09-22T07:17:39Z</time>
      </trkpt>
      <trkpt lat="49.00438" lon="1.85261">
        <ele>155.5</ele>
        <time>2022-09-22T07:17:42Z</time>
      </trkpt>
      <trkpt lat="49.00444" lon="1.85257">
        <ele>155.3</ele>
        <time>2022-09-22T07:17:47Z</time>
      </trkpt>
      <trkpt lat="49.00449" lon="1.85256">
        <ele>155.2</ele>
        <time>2022-09-22T07:17:52Z</time>
      </trkpt>
      <trkpt lat="49.00453" lon="1.85254">
        <ele>155.3</ele>
        <time>2022-09-22T07:17:56Z</time>
      </trkpt>
      <trkpt lat="49.00458" lon="1.85254">
        <ele>154.8</ele>
        <time>2022-09-22T07:17:59Z</time>
      </trkpt>
      <trkpt lat="49.00463" lon="1.85253">
        <ele>154</ele>
        <time>2022-09-22T07:18:04Z</time>
      </trkpt>
      <trkpt lat="49.00469" lon="1.8525">
        <ele>153.8</ele>
        <time>2022-09-22T07:18:08Z</time>
      </trkpt>
      <trkpt lat="49.00474" lon="1.85248">
        <ele>153.6</ele>
        <time>2022-09-22T07:18:13Z</time>
      </trkpt>
      <trkpt lat="49.0048" lon="1.85248">
        <ele>153.6</ele>
        <time>2022-09-22T07:18:17Z</time>
      </trkpt>
      <trkpt lat="49.00484" lon="1.85252">
        <ele>153.4</ele>
        <time>2022-09-22T07:18:22Z</time>
      </trkpt>
      <trkpt lat="49.00488" lon="1.85258">
        <ele>152.7</ele>
        <time>2022-09-22T07:18:26Z</time>
      </trkpt>
      <trkpt lat="49.00492" lon="1.85264">
        <ele>152.7</ele>
        <time>2022-09-22T07:18:32Z</time>
      </trkpt>
      <trkpt lat="49.00495" lon="1.85271">
        <ele>154</ele>
        <time>2022-09-22T07:18:37Z</time>
      </trkpt>
      <trkpt lat="49.005" lon="1.85275">
        <ele>155.6</ele>
        <time>2022-09-22T07:18:42Z</time>
      </trkpt>
      <trkpt lat="49.00505" lon="1.85277">
        <ele>156.1</ele>
        <time>2022-09-22T07:18:47Z</time>
      </trkpt>
      <trkpt lat="49.0051" lon="1.85276">
        <ele>156.2</ele>
        <time>2022-09-22T07:18:53Z</time>
      </trkpt>
      <trkpt lat="49.00515" lon="1.85275">
        <ele>155.6</ele>
        <time>2022-09-22T07:18:58Z</time>
      </trkpt>
      <trkpt lat="49.0052" lon="1.85274">
        <ele>155.7</ele>
        <time>2022-09-22T07:19:02Z</time>
      </trkpt>
      <trkpt lat="49.00525" lon="1.85272">
        <ele>155.5</ele>
        <time>2022-09-22T07:19:07Z</time>
      </trkpt>
      <trkpt lat="49.0053" lon="1.8527">
        <ele>155.2</ele>
        <time>2022-09-22T07:19:11Z</time>
      </trkpt>
      <trkpt lat="49.00535" lon="1.8527">
        <ele>155.2</ele>
        <time>2022-09-22T07:19:15Z</time>
      </trkpt>
      <trkpt lat="49.0054" lon="1.85271">
        <ele>155.5</ele>
        <time>2022-09-22T07:19:19Z</time>
      </trkpt>
      <trkpt lat="49.00545" lon="1.85272">
        <ele>155.6</ele>
        <time>2022-09-22T07:19:24Z</time>
      </trkpt>
      <trkpt lat="49.00551" lon="1.85273">
        <ele>155.7</ele>
        <time>2022-09-22T07:19:28Z</time>
      </trkpt>
      <trkpt lat="49.00555" lon="1.85273">
        <ele>155.2</ele>
        <time>2022-09-22T07:19:32Z</time>
      </trkpt>
      <trkpt lat="49.0056" lon="1.85273">
        <ele>155.1</ele>
        <time>2022-09-22T07:19:35Z</time>
      </trkpt>
      <trkpt lat="49.00565" lon="1.85276">
        <ele>154.9</ele>
        <time>2022-09-22T07:19:39Z</time>
      </trkpt>
      <trkpt lat="49.0057" lon="1.85279">
        <ele>154.8</ele>
        <time>2022-09-22T07:19:43Z</time>
      </trkpt>
      <trkpt lat="49.00575" lon="1.85282">
        <ele>154.7</ele>
        <time>2022-09-22T07:19:47Z</time>
      </trkpt>
      <trkpt lat="49.0058" lon="1.85285">
        <ele>154.6</ele>
        <time>2022-09-22T07:19:51Z</time>
      </trkpt>
      <trkpt lat="49.00584" lon="1.85288">
        <ele>154.3</ele>
        <time>2022-09-22T07:19:55Z</time>
      </trkpt>
      <trkpt lat="49.00589" lon="1.85292">
        <ele>153.1</ele>
        <time>2022-09-22T07:20:00Z</time>
      </trkpt>
      <trkpt lat="49.00594" lon="1.85295">
        <ele>151.7</ele>
        <time>2022-09-22T07:20:04Z</time>
      </trkpt>
      <trkpt lat="49.00598" lon="1.85298">
        <ele>150.4</ele>
        <time>2022-09-22T07:20:08Z</time>
      </trkpt>
      <trkpt lat="49.00603" lon="1.85301">
        <ele>149.7</ele>
        <time>2022-09-22T07:20:11Z</time>
      </trkpt>
      <trkpt lat="49.00609" lon="1.85303">
        <ele>149</ele>
        <time>2022-09-22T07:20:15Z</time>
      </trkpt>
      <trkpt lat="49.00616" lon="1.85308">
        <ele>148.8</ele>
        <time>2022-09-22T07:20:22Z</time>
      </trkpt>
      <trkpt lat="49.0062" lon="1.85311">
        <ele>148.5</ele>
        <time>2022-09-22T07:20:26Z</time>
      </trkpt>
      <trkpt lat="49.00624" lon="1.85314">
        <ele>148.1</ele>
        <time>2022-09-22T07:20:29Z</time>
      </trkpt>
      <trkpt lat="49.00629" lon="1.85317">
        <ele>148.2</ele>
        <time>2022-09-22T07:20:32Z</time>
      </trkpt>
      <trkpt lat="49.00635" lon="1.85321">
        <ele>148.2</ele>
        <time>2022-09-22T07:20:37Z</time>
      </trkpt>
      <trkpt lat="49.0064" lon="1.85322">
        <ele>148</ele>
        <time>2022-09-22T07:20:41Z</time>
      </trkpt>
      <trkpt lat="49.00644" lon="1.85325">
        <ele>148.1</ele>
        <time>2022-09-22T07:20:45Z</time>
      </trkpt>
      <trkpt lat="49.00649" lon="1.85327">
        <ele>148.3</ele>
        <time>2022-09-22T07:20:48Z</time>
      </trkpt>
      <trkpt lat="49.00653" lon="1.85331">
        <ele>148.3</ele>
        <time>2022-09-22T07:20:52Z</time>
      </trkpt>
      <trkpt lat="49.00659" lon="1.85334">
        <ele>148.6</ele>
        <time>2022-09-22T07:20:57Z</time>
      </trkpt>
      <trkpt lat="49.00663" lon="1.85337">
        <ele>149.2</ele>
        <time>2022-09-22T07:21:01Z</time>
      </trkpt>
      <trkpt lat="49.00668" lon="1.8534">
        <ele>149.4</ele>
        <time>2022-09-22T07:21:05Z</time>
      </trkpt>
      <trkpt lat="49.00673" lon="1.85343">
        <ele>149.8</ele>
        <time>2022-09-22T07:21:09Z</time>
      </trkpt>
      <trkpt lat="49.00678" lon="1.85345">
        <ele>150.2</ele>
        <time>2022-09-22T07:21:13Z</time>
      </trkpt>
      <trkpt lat="49.00684" lon="1.85346">
        <ele>150.7</ele>
        <time>2022-09-22T07:21:17Z</time>
      </trkpt>
      <trkpt lat="49.00689" lon="1.85345">
        <ele>151</ele>
        <time>2022-09-22T07:21:21Z</time>
      </trkpt>
      <trkpt lat="49.00695" lon="1.85347">
        <ele>151.2</ele>
        <time>2022-09-22T07:21:28Z</time>
      </trkpt>
      <trkpt lat="49.007" lon="1.85351">
        <ele>150.8</ele>
        <time>2022-09-22T07:21:33Z</time>
      </trkpt>
      <trkpt lat="49.00705" lon="1.85354">
        <ele>150.9</ele>
        <time>2022-09-22T07:21:36Z</time>
      </trkpt>
      <trkpt lat="49.0071" lon="1.85357">
        <ele>150.8</ele>
        <time>2022-09-22T07:21:39Z</time>
      </trkpt>
      <trkpt lat="49.00714" lon="1.85359">
        <ele>150.7</ele>
        <time>2022-09-22T07:21:43Z</time>
      </trkpt>
      <trkpt lat="49.0072" lon="1.85358">
        <ele>150.6</ele>
        <time>2022-09-22T07:21:47Z</time>
      </trkpt>
      <trkpt lat="49.00726" lon="1.85354">
        <ele>150.4</ele>
        <time>2022-09-22T07:21:52Z</time>
      </trkpt>
      <trkpt lat="49.00732" lon="1.85349">
        <ele>150.3</ele>
        <time>2022-09-22T07:21:58Z</time>
      </trkpt>
      <trkpt lat="49.00737" lon="1.85347">
        <ele>149.8</ele>
        <time>2022-09-22T07:22:00Z</time>
      </trkpt>
      <trkpt lat="49.00743" lon="1.85345">
        <ele>149.7</ele>
        <time>2022-09-22T07:22:04Z</time>
      </trkpt>
      <trkpt lat="49.00748" lon="1.85343">
        <ele>149.3</ele>
        <time>2022-09-22T07:22:08Z</time>
      </trkpt>
      <trkpt lat="49.00753" lon="1.85342">
        <ele>148.9</ele>
        <time>2022-09-22T07:22:12Z</time>
      </trkpt>
      <trkpt lat="49.00758" lon="1.85336">
        <ele>147.5</ele>
        <time>2022-09-22T07:22:14Z</time>
      </trkpt>
      <trkpt lat="49.00761" lon="1.8533">
        <ele>147.3</ele>
        <time>2022-09-22T07:22:19Z</time>
      </trkpt>
      <trkpt lat="49.00764" lon="1.85324">
        <ele>147.1</ele>
        <time>2022-09-22T07:22:23Z</time>
      </trkpt>
      <trkpt lat="49.00769" lon="1.85321">
        <ele>146.9</ele>
        <time>2022-09-22T07:22:27Z</time>
      </trkpt>
      <trkpt lat="49.00773" lon="1.85318">
        <ele>146.5</ele>
        <time>2022-09-22T07:22:30Z</time>
      </trkpt>
      <trkpt lat="49.00777" lon="1.85314">
        <ele>146.2</ele>
        <time>2022-09-22T07:22:34Z</time>
      </trkpt>
      <trkpt lat="49.00781" lon="1.85309">
        <ele>145.9</ele>
        <time>2022-09-22T07:22:38Z</time>
      </trkpt>
      <trkpt lat="49.00787" lon="1.85306">
        <ele>145.6</ele>
        <time>2022-09-22T07:22:43Z</time>
      </trkpt>
      <trkpt lat="49.00792" lon="1.85302">
        <ele>145</ele>
        <time>2022-09-22T07:22:47Z</time>
      </trkpt>
      <trkpt lat="49.00796" lon="1.85299">
        <ele>145</ele>
        <time>2022-09-22T07:22:52Z</time>
      </trkpt>
      <trkpt lat="49.008" lon="1.85295">
        <ele>144.7</ele>
        <time>2022-09-22T07:22:55Z</time>
      </trkpt>
      <trkpt lat="49.00805" lon="1.85292">
        <ele>144.5</ele>
        <time>2022-09-22T07:23:00Z</time>
      </trkpt>
      <trkpt lat="49.0081" lon="1.85289">
        <ele>144.1</ele>
        <time>2022-09-22T07:23:03Z</time>
      </trkpt>
      <trkpt lat="49.00815" lon="1.85288">
        <ele>143.7</ele>
        <time>2022-09-22T07:23:06Z</time>
      </trkpt>
      <trkpt lat="49.00819" lon="1.85286">
        <ele>143.8</ele>
        <time>2022-09-22T07:23:10Z</time>
      </trkpt>
      <trkpt lat="49.00825" lon="1.85284">
        <ele>144.2</ele>
        <time>2022-09-22T07:23:13Z</time>
      </trkpt>
      <trkpt lat="49.00829" lon="1.85283">
        <ele>144.4</ele>
        <time>2022-09-22T07:23:16Z</time>
      </trkpt>
      <trkpt lat="49.00834" lon="1.85281">
        <ele>144.1</ele>
        <time>2022-09-22T07:23:20Z</time>
      </trkpt>
      <trkpt lat="49.0084" lon="1.85279">
        <ele>144.3</ele>
        <time>2022-09-22T07:23:24Z</time>
      </trkpt>
      <trkpt lat="49.00845" lon="1.85277">
        <ele>144.9</ele>
        <time>2022-09-22T07:23:28Z</time>
      </trkpt>
      <trkpt lat="49.0085" lon="1.85276">
        <ele>144.7</ele>
        <time>2022-09-22T07:23:32Z</time>
      </trkpt>
      <trkpt lat="49.00855" lon="1.85277">
        <ele>145.8</ele>
        <time>2022-09-22T07:23:36Z</time>
      </trkpt>
      <trkpt lat="49.00858" lon="1.85283">
        <ele>146.6</ele>
        <time>2022-09-22T07:23:40Z</time>
      </trkpt>
      <trkpt lat="49.00858" lon="1.8529">
        <ele>146.4</ele>
        <time>2022-09-22T07:23:43Z</time>
      </trkpt>
      <trkpt lat="49.00857" lon="1.85299">
        <ele>146</ele>
        <time>2022-09-22T07:23:48Z</time>
      </trkpt>
      <trkpt lat="49.00855" lon="1.85308">
        <ele>146</ele>
        <time>2022-09-22T07:23:53Z</time>
      </trkpt>
      <trkpt lat="49.00854" lon="1.85316">
        <ele>146</ele>
        <time>2022-09-22T07:23:57Z</time>
      </trkpt>
      <trkpt lat="49.00853" lon="1.85324">
        <ele>145.4</ele>
        <time>2022-09-22T07:24:01Z</time>
      </trkpt>
      <trkpt lat="49.00854" lon="1.85332">
        <ele>145.6</ele>
        <time>2022-09-22T07:24:05Z</time>
      </trkpt>
      <trkpt lat="49.00855" lon="1.8534">
        <ele>144.9</ele>
        <time>2022-09-22T07:24:09Z</time>
      </trkpt>
      <trkpt lat="49.00856" lon="1.85349">
        <ele>143</ele>
        <time>2022-09-22T07:24:13Z</time>
      </trkpt>
      <trkpt lat="49.00859" lon="1.85358">
        <ele>142.2</ele>
        <time>2022-09-22T07:24:18Z</time>
      </trkpt>
      <trkpt lat="49.0086" lon="1.85366">
        <ele>141.5</ele>
        <time>2022-09-22T07:24:23Z</time>
      </trkpt>
      <trkpt lat="49.00862" lon="1.85374">
        <ele>140.9</ele>
        <time>2022-09-22T07:24:28Z</time>
      </trkpt>
      <trkpt lat="49.00863" lon="1.85382">
        <ele>140.7</ele>
        <time>2022-09-22T07:24:32Z</time>
      </trkpt>
      <trkpt lat="49.00864" lon="1.8539">
        <ele>140.6</ele>
        <time>2022-09-22T07:24:37Z</time>
      </trkpt>
      <trkpt lat="49.00864" lon="1.85399">
        <ele>140.4</ele>
        <time>2022-09-22T07:24:43Z</time>
      </trkpt>
      <trkpt lat="49.00864" lon="1.85408">
        <ele>140.4</ele>
        <time>2022-09-22T07:24:48Z</time>
      </trkpt>
      <trkpt lat="49.00866" lon="1.85417">
        <ele>140.1</ele>
        <time>2022-09-22T07:24:52Z</time>
      </trkpt>
      <trkpt lat="49.00868" lon="1.85424">
        <ele>139.7</ele>
        <time>2022-09-22T07:24:56Z</time>
      </trkpt>
      <trkpt lat="49.0087" lon="1.85432">
        <ele>139.4</ele>
        <time>2022-09-22T07:25:00Z</time>
      </trkpt>
      <trkpt lat="49.00871" lon="1.85439">
        <ele>139.4</ele>
        <time>2022-09-22T07:25:04Z</time>
      </trkpt>
      <trkpt lat="49.00873" lon="1.85448">
        <ele>139.2</ele>
        <time>2022-09-22T07:25:08Z</time>
      </trkpt>
      <trkpt lat="49.00876" lon="1.85457">
        <ele>139</ele>
        <time>2022-09-22T07:25:13Z</time>
      </trkpt>
      <trkpt lat="49.00878" lon="1.85464">
        <ele>139.2</ele>
        <time>2022-09-22T07:25:17Z</time>
      </trkpt>
      <trkpt lat="49.00881" lon="1.85471">
        <ele>139.1</ele>
        <time>2022-09-22T07:25:21Z</time>
      </trkpt>
      <trkpt lat="49.00883" lon="1.85479">
        <ele>139.1</ele>
        <time>2022-09-22T07:25:25Z</time>
      </trkpt>
      <trkpt lat="49.00885" lon="1.85486">
        <ele>139.1</ele>
        <time>2022-09-22T07:25:29Z</time>
      </trkpt>
      <trkpt lat="49.00887" lon="1.85494">
        <ele>139.1</ele>
        <time>2022-09-22T07:25:33Z</time>
      </trkpt>
      <trkpt lat="49.0089" lon="1.85501">
        <ele>139.4</ele>
        <time>2022-09-22T07:25:37Z</time>
      </trkpt>
      <trkpt lat="49.00891" lon="1.85508">
        <ele>139.5</ele>
        <time>2022-09-22T07:25:41Z</time>
      </trkpt>
      <trkpt lat="49.00892" lon="1.85517">
        <ele>139.5</ele>
        <time>2022-09-22T07:25:45Z</time>
      </trkpt>
      <trkpt lat="49.00893" lon="1.85528">
        <ele>140.1</ele>
        <time>2022-09-22T07:25:49Z</time>
      </trkpt>
      <trkpt lat="49.00895" lon="1.85538">
        <ele>140.8</ele>
        <time>2022-09-22T07:25:52Z</time>
      </trkpt>
      <trkpt lat="49.00897" lon="1.85546">
        <ele>141.4</ele>
        <time>2022-09-22T07:25:56Z</time>
      </trkpt>
      <trkpt lat="49.00898" lon="1.85553">
        <ele>142.4</ele>
        <time>2022-09-22T07:25:59Z</time>
      </trkpt>
      <trkpt lat="49.00899" lon="1.85561">
        <ele>143.8</ele>
        <time>2022-09-22T07:26:02Z</time>
      </trkpt>
      <trkpt lat="49.009" lon="1.85568">
        <ele>144.7</ele>
        <time>2022-09-22T07:26:05Z</time>
      </trkpt>
      <trkpt lat="49.009" lon="1.85577">
        <ele>144.6</ele>
        <time>2022-09-22T07:26:09Z</time>
      </trkpt>
      <trkpt lat="49.00901" lon="1.85584">
        <ele>144.3</ele>
        <time>2022-09-22T07:26:12Z</time>
      </trkpt>
      <trkpt lat="49.00902" lon="1.85591">
        <ele>144.1</ele>
        <time>2022-09-22T07:26:15Z</time>
      </trkpt>
      <trkpt lat="49.00903" lon="1.85599">
        <ele>144</ele>
        <time>2022-09-22T07:26:19Z</time>
      </trkpt>
      <trkpt lat="49.00905" lon="1.85605">
        <ele>143.7</ele>
        <time>2022-09-22T07:26:22Z</time>
      </trkpt>
      <trkpt lat="49.00906" lon="1.85612">
        <ele>143.4</ele>
        <time>2022-09-22T07:26:26Z</time>
      </trkpt>
      <trkpt lat="49.00907" lon="1.85621">
        <ele>142.3</ele>
        <time>2022-09-22T07:26:30Z</time>
      </trkpt>
      <trkpt lat="49.00909" lon="1.85628">
        <ele>141.7</ele>
        <time>2022-09-22T07:26:34Z</time>
      </trkpt>
      <trkpt lat="49.0091" lon="1.85636">
        <ele>140.6</ele>
        <time>2022-09-22T07:26:38Z</time>
      </trkpt>
      <trkpt lat="49.00912" lon="1.85644">
        <ele>141</ele>
        <time>2022-09-22T07:26:42Z</time>
      </trkpt>
      <trkpt lat="49.00913" lon="1.85652">
        <ele>141.1</ele>
        <time>2022-09-22T07:26:46Z</time>
      </trkpt>
      <trkpt lat="49.00915" lon="1.8566">
        <ele>140.7</ele>
        <time>2022-09-22T07:26:50Z</time>
      </trkpt>
      <trkpt lat="49.00916" lon="1.85667">
        <ele>140.4</ele>
        <time>2022-09-22T07:26:54Z</time>
      </trkpt>
      <trkpt lat="49.00917" lon="1.85675">
        <ele>140.3</ele>
        <time>2022-09-22T07:26:58Z</time>
      </trkpt>
      <trkpt lat="49.00918" lon="1.85683">
        <ele>139.9</ele>
        <time>2022-09-22T07:27:02Z</time>
      </trkpt>
      <trkpt lat="49.00918" lon="1.85691">
        <ele>139.5</ele>
        <time>2022-09-22T07:27:06Z</time>
      </trkpt>
      <trkpt lat="49.0092" lon="1.85698">
        <ele>139.5</ele>
        <time>2022-09-22T07:27:10Z</time>
      </trkpt>
      <trkpt lat="49.00922" lon="1.85706">
        <ele>139.7</ele>
        <time>2022-09-22T07:27:14Z</time>
      </trkpt>
      <trkpt lat="49.00925" lon="1.85713">
        <ele>139.3</ele>
        <time>2022-09-22T07:27:18Z</time>
      </trkpt>
      <trkpt lat="49.00928" lon="1.85719">
        <ele>139.3</ele>
        <time>2022-09-22T07:27:22Z</time>
      </trkpt>
      <trkpt lat="49.0093" lon="1.85726">
        <ele>139</ele>
        <time>2022-09-22T07:27:27Z</time>
      </trkpt>
      <trkpt lat="49.00932" lon="1.85734">
        <ele>139.3</ele>
        <time>2022-09-22T07:27:31Z</time>
      </trkpt>
      <trkpt lat="49.00933" lon="1.85743">
        <ele>139.3</ele>
        <time>2022-09-22T07:27:36Z</time>
      </trkpt>
      <trkpt lat="49.00935" lon="1.8575">
        <ele>139.3</ele>
        <time>2022-09-22T07:27:40Z</time>
      </trkpt>
      <trkpt lat="49.00938" lon="1.85757">
        <ele>139.2</ele>
        <time>2022-09-22T07:27:44Z</time>
      </trkpt>
      <trkpt lat="49.0094" lon="1.85763">
        <ele>139.5</ele>
        <time>2022-09-22T07:27:48Z</time>
      </trkpt>
      <trkpt lat="49.00942" lon="1.85769">
        <ele>139.8</ele>
        <time>2022-09-22T07:27:52Z</time>
      </trkpt>
      <trkpt lat="49.00944" lon="1.85776">
        <ele>140.2</ele>
        <time>2022-09-22T07:27:56Z</time>
      </trkpt>
      <trkpt lat="49.00945" lon="1.85783">
        <ele>140.3</ele>
        <time>2022-09-22T07:28:00Z</time>
      </trkpt>
      <trkpt lat="49.00947" lon="1.8579">
        <ele>140.3</ele>
        <time>2022-09-22T07:28:04Z</time>
      </trkpt>
      <trkpt lat="49.00947" lon="1.85799">
        <ele>140.3</ele>
        <time>2022-09-22T07:28:08Z</time>
      </trkpt>
      <trkpt lat="49.00948" lon="1.85807">
        <ele>140.2</ele>
        <time>2022-09-22T07:28:12Z</time>
      </trkpt>
      <trkpt lat="49.00948" lon="1.85814">
        <ele>140.1</ele>
        <time>2022-09-22T07:28:16Z</time>
      </trkpt>
      <trkpt lat="49.00948" lon="1.85821">
        <ele>140.1</ele>
        <time>2022-09-22T07:28:21Z</time>
      </trkpt>
      <trkpt lat="49.00949" lon="1.85829">
        <ele>139.8</ele>
        <time>2022-09-22T07:28:25Z</time>
      </trkpt>
      <trkpt lat="49.00949" lon="1.85837">
        <ele>139.3</ele>
        <time>2022-09-22T07:28:29Z</time>
      </trkpt>
      <trkpt lat="49.00949" lon="1.85845">
        <ele>139.1</ele>
        <time>2022-09-22T07:28:33Z</time>
      </trkpt>
      <trkpt lat="49.00949" lon="1.85853">
        <ele>139.4</ele>
        <time>2022-09-22T07:28:37Z</time>
      </trkpt>
      <trkpt lat="49.00949" lon="1.8586">
        <ele>139.3</ele>
        <time>2022-09-22T07:28:40Z</time>
      </trkpt>
      <trkpt lat="49.00949" lon="1.85868">
        <ele>139.4</ele>
        <time>2022-09-22T07:28:43Z</time>
      </trkpt>
      <trkpt lat="49.0095" lon="1.85877">
        <ele>139.3</ele>
        <time>2022-09-22T07:28:47Z</time>
      </trkpt>
      <trkpt lat="49.00951" lon="1.85886">
        <ele>139.4</ele>
        <time>2022-09-22T07:28:51Z</time>
      </trkpt>
      <trkpt lat="49.00951" lon="1.85894">
        <ele>139.5</ele>
        <time>2022-09-22T07:28:55Z</time>
      </trkpt>
      <trkpt lat="49.00951" lon="1.85903">
        <ele>139.7</ele>
        <time>2022-09-22T07:28:59Z</time>
      </trkpt>
      <trkpt lat="49.00951" lon="1.85912">
        <ele>139.9</ele>
        <time>2022-09-22T07:29:03Z</time>
      </trkpt>
      <trkpt lat="49.00952" lon="1.8592">
        <ele>140.1</ele>
        <time>2022-09-22T07:29:07Z</time>
      </trkpt>
      <trkpt lat="49.00953" lon="1.85928">
        <ele>140.5</ele>
        <time>2022-09-22T07:29:11Z</time>
      </trkpt>
      <trkpt lat="49.00955" lon="1.85936">
        <ele>140.6</ele>
        <time>2022-09-22T07:29:15Z</time>
      </trkpt>
      <trkpt lat="49.00956" lon="1.85943">
        <ele>140.8</ele>
        <time>2022-09-22T07:29:19Z</time>
      </trkpt>
      <trkpt lat="49.00957" lon="1.85951">
        <ele>141.4</ele>
        <time>2022-09-22T07:29:23Z</time>
      </trkpt>
      <trkpt lat="49.00958" lon="1.85958">
        <ele>141.5</ele>
        <time>2022-09-22T07:29:27Z</time>
      </trkpt>
      <trkpt lat="49.00959" lon="1.85965">
        <ele>141.7</ele>
        <time>2022-09-22T07:29:30Z</time>
      </trkpt>
      <trkpt lat="49.0096" lon="1.85975">
        <ele>141.4</ele>
        <time>2022-09-22T07:29:35Z</time>
      </trkpt>
      <trkpt lat="49.00961" lon="1.85985">
        <ele>141.1</ele>
        <time>2022-09-22T07:29:40Z</time>
      </trkpt>
      <trkpt lat="49.00962" lon="1.85995">
        <ele>141.4</ele>
        <time>2022-09-22T07:29:45Z</time>
      </trkpt>
      <trkpt lat="49.00963" lon="1.86005">
        <ele>141.3</ele>
        <time>2022-09-22T07:29:50Z</time>
      </trkpt>
      <trkpt lat="49.00965" lon="1.86013">
        <ele>140.4</ele>
        <time>2022-09-22T07:29:55Z</time>
      </trkpt>
      <trkpt lat="49.00966" lon="1.86021">
        <ele>140.1</ele>
        <time>2022-09-22T07:29:59Z</time>
      </trkpt>
      <trkpt lat="49.00968" lon="1.8603">
        <ele>139.5</ele>
        <time>2022-09-22T07:30:03Z</time>
      </trkpt>
      <trkpt lat="49.00968" lon="1.86038">
        <ele>139.1</ele>
        <time>2022-09-22T07:30:07Z</time>
      </trkpt>
      <trkpt lat="49.00968" lon="1.86045">
        <ele>139.1</ele>
        <time>2022-09-22T07:30:10Z</time>
      </trkpt>
      <trkpt lat="49.00969" lon="1.86055">
        <ele>138.8</ele>
        <time>2022-09-22T07:30:16Z</time>
      </trkpt>
      <trkpt lat="49.00972" lon="1.86064">
        <ele>138.4</ele>
        <time>2022-09-22T07:30:20Z</time>
      </trkpt>
      <trkpt lat="49.00973" lon="1.86071">
        <ele>137.9</ele>
        <time>2022-09-22T07:30:25Z</time>
      </trkpt>
      <trkpt lat="49.00974" lon="1.86079">
        <ele>138.2</ele>
        <time>2022-09-22T07:30:29Z</time>
      </trkpt>
      <trkpt lat="49.00975" lon="1.86088">
        <ele>137.9</ele>
        <time>2022-09-22T07:30:33Z</time>
      </trkpt>
      <trkpt lat="49.00975" lon="1.86095">
        <ele>137</ele>
        <time>2022-09-22T07:30:37Z</time>
      </trkpt>
      <trkpt lat="49.00975" lon="1.86102">
        <ele>135.9</ele>
        <time>2022-09-22T07:30:40Z</time>
      </trkpt>
      <trkpt lat="49.00976" lon="1.8611">
        <ele>134.7</ele>
        <time>2022-09-22T07:30:45Z</time>
      </trkpt>
      <trkpt lat="49.00977" lon="1.86117">
        <ele>134.1</ele>
        <time>2022-09-22T07:30:48Z</time>
      </trkpt>
      <trkpt lat="49.00978" lon="1.86125">
        <ele>133.5</ele>
        <time>2022-09-22T07:30:52Z</time>
      </trkpt>
      <trkpt lat="49.00979" lon="1.86132">
        <ele>133.3</ele>
        <time>2022-09-22T07:30:56Z</time>
      </trkpt>
      <trkpt lat="49.0098" lon="1.86139">
        <ele>132.9</ele>
        <time>2022-09-22T07:31:00Z</time>
      </trkpt>
      <trkpt lat="49.00981" lon="1.86147">
        <ele>132.6</ele>
        <time>2022-09-22T07:31:04Z</time>
      </trkpt>
      <trkpt lat="49.00982" lon="1.86155">
        <ele>132.3</ele>
        <time>2022-09-22T07:31:08Z</time>
      </trkpt>
      <trkpt lat="49.00982" lon="1.86164">
        <ele>132.3</ele>
        <time>2022-09-22T07:31:12Z</time>
      </trkpt>
      <trkpt lat="49.00982" lon="1.86171">
        <ele>132.2</ele>
        <time>2022-09-22T07:31:16Z</time>
      </trkpt>
      <trkpt lat="49.00981" lon="1.86178">
        <ele>132.1</ele>
        <time>2022-09-22T07:31:19Z</time>
      </trkpt>
      <trkpt lat="49.00981" lon="1.86186">
        <ele>132.2</ele>
        <time>2022-09-22T07:31:23Z</time>
      </trkpt>
      <trkpt lat="49.0098" lon="1.86193">
        <ele>132.2</ele>
        <time>2022-09-22T07:31:26Z</time>
      </trkpt>
      <trkpt lat="49.0098" lon="1.862">
        <ele>132.3</ele>
        <time>2022-09-22T07:31:29Z</time>
      </trkpt>
      <trkpt lat="49.00979" lon="1.86209">
        <ele>132.5</ele>
        <time>2022-09-22T07:31:34Z</time>
      </trkpt>
      <trkpt lat="49.00979" lon="1.86216">
        <ele>132.6</ele>
        <time>2022-09-22T07:31:37Z</time>
      </trkpt>
      <trkpt lat="49.00979" lon="1.86223">
        <ele>132.8</ele>
        <time>2022-09-22T07:31:41Z</time>
      </trkpt>
      <trkpt lat="49.00979" lon="1.8623">
        <ele>133.1</ele>
        <time>2022-09-22T07:31:44Z</time>
      </trkpt>
      <trkpt lat="49.00979" lon="1.86237">
        <ele>133.6</ele>
        <time>2022-09-22T07:31:47Z</time>
      </trkpt>
      <trkpt lat="49.00979" lon="1.86245">
        <ele>133.6</ele>
        <time>2022-09-22T07:31:51Z</time>
      </trkpt>
      <trkpt lat="49.00978" lon="1.86253">
        <ele>134.1</ele>
        <time>2022-09-22T07:31:55Z</time>
      </trkpt>
      <trkpt lat="49.00978" lon="1.86261">
        <ele>135</ele>
        <time>2022-09-22T07:31:59Z</time>
      </trkpt>
      <trkpt lat="49.00978" lon="1.86269">
        <ele>135.1</ele>
        <time>2022-09-22T07:32:03Z</time>
      </trkpt>
      <trkpt lat="49.00977" lon="1.86278">
        <ele>135.5</ele>
        <time>2022-09-22T07:32:07Z</time>
      </trkpt>
      <trkpt lat="49.00977" lon="1.86286">
        <ele>136.3</ele>
        <time>2022-09-22T07:32:11Z</time>
      </trkpt>
      <trkpt lat="49.00977" lon="1.86294">
        <ele>136.4</ele>
        <time>2022-09-22T07:32:15Z</time>
      </trkpt>
      <trkpt lat="49.00977" lon="1.86302">
        <ele>136.5</ele>
        <time>2022-09-22T07:32:19Z</time>
      </trkpt>
      <trkpt lat="49.00976" lon="1.8631">
        <ele>136.6</ele>
        <time>2022-09-22T07:32:23Z</time>
      </trkpt>
      <trkpt lat="49.00976" lon="1.86318">
        <ele>136.7</ele>
        <time>2022-09-22T07:32:27Z</time>
      </trkpt>
      <trkpt lat="49.00976" lon="1.86325">
        <ele>136.9</ele>
        <time>2022-09-22T07:32:31Z</time>
      </trkpt>
      <trkpt lat="49.00975" lon="1.86334">
        <ele>137.1</ele>
        <time>2022-09-22T07:32:35Z</time>
      </trkpt>
      <trkpt lat="49.00976" lon="1.86342">
        <ele>137.1</ele>
        <time>2022-09-22T07:32:39Z</time>
      </trkpt>
      <trkpt lat="49.00976" lon="1.8635">
        <ele>137.2</ele>
        <time>2022-09-22T07:32:44Z</time>
      </trkpt>
      <trkpt lat="49.00975" lon="1.86358">
        <ele>137.4</ele>
        <time>2022-09-22T07:32:48Z</time>
      </trkpt>
      <trkpt lat="49.00975" lon="1.86367">
        <ele>137.6</ele>
        <time>2022-09-22T07:32:52Z</time>
      </trkpt>
      <trkpt lat="49.00974" lon="1.86376">
        <ele>137.7</ele>
        <time>2022-09-22T07:32:56Z</time>
      </trkpt>
      <trkpt lat="49.00974" lon="1.86384">
        <ele>137.8</ele>
        <time>2022-09-22T07:33:00Z</time>
      </trkpt>
      <trkpt lat="49.00974" lon="1.86392">
        <ele>137.7</ele>
        <time>2022-09-22T07:33:04Z</time>
      </trkpt>
      <trkpt lat="49.00973" lon="1.86401">
        <ele>137.5</ele>
        <time>2022-09-22T07:33:08Z</time>
      </trkpt>
      <trkpt lat="49.00972" lon="1.86409">
        <ele>137.6</ele>
        <time>2022-09-22T07:33:12Z</time>
      </trkpt>
      <trkpt lat="49.00972" lon="1.86417">
        <ele>137.5</ele>
        <time>2022-09-22T07:33:16Z</time>
      </trkpt>
      <trkpt lat="49.00971" lon="1.86425">
        <ele>137.5</ele>
        <time>2022-09-22T07:33:20Z</time>
      </trkpt>
      <trkpt lat="49.0097" lon="1.86433">
        <ele>137.6</ele>
        <time>2022-09-22T07:33:24Z</time>
      </trkpt>
      <trkpt lat="49.00969" lon="1.8644">
        <ele>137.7</ele>
        <time>2022-09-22T07:33:28Z</time>
      </trkpt>
      <trkpt lat="49.0097" lon="1.86449">
        <ele>137.6</ele>
        <time>2022-09-22T07:33:34Z</time>
      </trkpt>
      <trkpt lat="49.00973" lon="1.86455">
        <ele>137.6</ele>
        <time>2022-09-22T07:33:49Z</time>
      </trkpt>
      <trkpt lat="49.00977" lon="1.86457">
        <ele>137.6</ele>
        <time>2022-09-22T07:33:53Z</time>
      </trkpt>
      <trkpt lat="49.00981" lon="1.86452">
        <ele>137.5</ele>
        <time>2022-09-22T07:33:56Z</time>
      </trkpt>
      <trkpt lat="49.00984" lon="1.86447">
        <ele>137.6</ele>
        <time>2022-09-22T07:34:00Z</time>
      </trkpt>
      <trkpt lat="49.00988" lon="1.86441">
        <ele>137.5</ele>
        <time>2022-09-22T07:34:05Z</time>
      </trkpt>
      <trkpt lat="49.00992" lon="1.86434">
        <ele>137.3</ele>
        <time>2022-09-22T07:34:09Z</time>
      </trkpt>
      <trkpt lat="49.00996" lon="1.86429">
        <ele>137.2</ele>
        <time>2022-09-22T07:34:14Z</time>
      </trkpt>
      <trkpt lat="49.00999" lon="1.86423">
        <ele>137</ele>
        <time>2022-09-22T07:34:17Z</time>
      </trkpt>
      <trkpt lat="49.01003" lon="1.86418">
        <ele>136.8</ele>
        <time>2022-09-22T07:34:21Z</time>
      </trkpt>
      <trkpt lat="49.01007" lon="1.86411">
        <ele>136.6</ele>
        <time>2022-09-22T07:34:25Z</time>
      </trkpt>
      <trkpt lat="49.01011" lon="1.86408">
        <ele>136.4</ele>
        <time>2022-09-22T07:34:30Z</time>
      </trkpt>
      <trkpt lat="49.01015" lon="1.86402">
        <ele>136.4</ele>
        <time>2022-09-22T07:34:35Z</time>
      </trkpt>
      <trkpt lat="49.01019" lon="1.86398">
        <ele>136.5</ele>
        <time>2022-09-22T07:34:39Z</time>
      </trkpt>
      <trkpt lat="49.01023" lon="1.86392">
        <ele>136.4</ele>
        <time>2022-09-22T07:34:43Z</time>
      </trkpt>
      <trkpt lat="49.01026" lon="1.86385">
        <ele>136.7</ele>
        <time>2022-09-22T07:34:47Z</time>
      </trkpt>
      <trkpt lat="49.0103" lon="1.86379">
        <ele>136.9</ele>
        <time>2022-09-22T07:34:52Z</time>
      </trkpt>
      <trkpt lat="49.01033" lon="1.86373">
        <ele>137.3</ele>
        <time>2022-09-22T07:34:56Z</time>
      </trkpt>
      <trkpt lat="49.01035" lon="1.86367">
        <ele>138.5</ele>
        <time>2022-09-22T07:35:03Z</time>
      </trkpt>
      <trkpt lat="49.0104" lon="1.86362">
        <ele>138.5</ele>
        <time>2022-09-22T07:35:07Z</time>
      </trkpt>
      <trkpt lat="49.01044" lon="1.86359">
        <ele>138.4</ele>
        <time>2022-09-22T07:35:10Z</time>
      </trkpt>
      <trkpt lat="49.01048" lon="1.86354">
        <ele>138.3</ele>
        <time>2022-09-22T07:35:14Z</time>
      </trkpt>
      <trkpt lat="49.01052" lon="1.86349">
        <ele>138.5</ele>
        <time>2022-09-22T07:35:18Z</time>
      </trkpt>
      <trkpt lat="49.01056" lon="1.86343">
        <ele>138.6</ele>
        <time>2022-09-22T07:35:23Z</time>
      </trkpt>
      <trkpt lat="49.0106" lon="1.86337">
        <ele>138.5</ele>
        <time>2022-09-22T07:35:28Z</time>
      </trkpt>
      <trkpt lat="49.01063" lon="1.86331">
        <ele>138.4</ele>
        <time>2022-09-22T07:35:33Z</time>
      </trkpt>
      <trkpt lat="49.01066" lon="1.86324">
        <ele>137.9</ele>
        <time>2022-09-22T07:35:37Z</time>
      </trkpt>
      <trkpt lat="49.01069" lon="1.86318">
        <ele>137.9</ele>
        <time>2022-09-22T07:35:41Z</time>
      </trkpt>
      <trkpt lat="49.01072" lon="1.86313">
        <ele>137.7</ele>
        <time>2022-09-22T07:35:44Z</time>
      </trkpt>
      <trkpt lat="49.01075" lon="1.86307">
        <ele>137.5</ele>
        <time>2022-09-22T07:35:48Z</time>
      </trkpt>
      <trkpt lat="49.01079" lon="1.86301">
        <ele>137.2</ele>
        <time>2022-09-22T07:35:51Z</time>
      </trkpt>
      <trkpt lat="49.01082" lon="1.86293">
        <ele>137.7</ele>
        <time>2022-09-22T07:35:56Z</time>
      </trkpt>
      <trkpt lat="49.01086" lon="1.86287">
        <ele>137.8</ele>
        <time>2022-09-22T07:36:00Z</time>
      </trkpt>
      <trkpt lat="49.01087" lon="1.86281">
        <ele>137.4</ele>
        <time>2022-09-22T07:36:04Z</time>
      </trkpt>
      <trkpt lat="49.0109" lon="1.86274">
        <ele>137.9</ele>
        <time>2022-09-22T07:36:08Z</time>
      </trkpt>
      <trkpt lat="49.01092" lon="1.86268">
        <ele>138.1</ele>
        <time>2022-09-22T07:36:12Z</time>
      </trkpt>
      <trkpt lat="49.01095" lon="1.86262">
        <ele>137.8</ele>
        <time>2022-09-22T07:36:16Z</time>
      </trkpt>
      <trkpt lat="49.01099" lon="1.86255">
        <ele>137.7</ele>
        <time>2022-09-22T07:36:21Z</time>
      </trkpt>
      <trkpt lat="49.01101" lon="1.86249">
        <ele>137.3</ele>
        <time>2022-09-22T07:36:25Z</time>
      </trkpt>
      <trkpt lat="49.01104" lon="1.86244">
        <ele>137.2</ele>
        <time>2022-09-22T07:36:29Z</time>
      </trkpt>
      <trkpt lat="49.01108" lon="1.86238">
        <ele>136.8</ele>
        <time>2022-09-22T07:36:33Z</time>
      </trkpt>
      <trkpt lat="49.01113" lon="1.86234">
        <ele>136.3</ele>
        <time>2022-09-22T07:36:37Z</time>
      </trkpt>
      <trkpt lat="49.01116" lon="1.86228">
        <ele>135.7</ele>
        <time>2022-09-22T07:36:41Z</time>
      </trkpt>
      <trkpt lat="49.01119" lon="1.86222">
        <ele>135.2</ele>
        <time>2022-09-22T07:36:45Z</time>
      </trkpt>
      <trkpt lat="49.01122" lon="1.86214">
        <ele>134.7</ele>
        <time>2022-09-22T07:36:49Z</time>
      </trkpt>
      <trkpt lat="49.01124" lon="1.86207">
        <ele>134.2</ele>
        <time>2022-09-22T07:36:53Z</time>
      </trkpt>
      <trkpt lat="49.01127" lon="1.862">
        <ele>134.2</ele>
        <time>2022-09-22T07:36:57Z</time>
      </trkpt>
      <trkpt lat="49.0113" lon="1.86195">
        <ele>134</ele>
        <time>2022-09-22T07:37:00Z</time>
      </trkpt>
      <trkpt lat="49.01132" lon="1.86186">
        <ele>133.5</ele>
        <time>2022-09-22T07:37:05Z</time>
      </trkpt>
      <trkpt lat="49.01135" lon="1.86178">
        <ele>132.5</ele>
        <time>2022-09-22T07:37:10Z</time>
      </trkpt>
      <trkpt lat="49.01139" lon="1.8617">
        <ele>132.4</ele>
        <time>2022-09-22T07:37:15Z</time>
      </trkpt>
      <trkpt lat="49.01143" lon="1.86163">
        <ele>132</ele>
        <time>2022-09-22T07:37:20Z</time>
      </trkpt>
      <trkpt lat="49.01148" lon="1.86155">
        <ele>131.9</ele>
        <time>2022-09-22T07:37:25Z</time>
      </trkpt>
      <trkpt lat="49.01152" lon="1.86149">
        <ele>132</ele>
        <time>2022-09-22T07:37:31Z</time>
      </trkpt>
      <trkpt lat="49.01157" lon="1.86143">
        <ele>131.8</ele>
        <time>2022-09-22T07:37:35Z</time>
      </trkpt>
      <trkpt lat="49.01161" lon="1.86139">
        <ele>132</ele>
        <time>2022-09-22T07:37:40Z</time>
      </trkpt>
      <trkpt lat="49.01166" lon="1.86134">
        <ele>132.1</ele>
        <time>2022-09-22T07:37:44Z</time>
      </trkpt>
      <trkpt lat="49.01169" lon="1.86129">
        <ele>132.3</ele>
        <time>2022-09-22T07:37:48Z</time>
      </trkpt>
      <trkpt lat="49.01173" lon="1.86124">
        <ele>132.5</ele>
        <time>2022-09-22T07:37:53Z</time>
      </trkpt>
      <trkpt lat="49.01179" lon="1.86121">
        <ele>132.3</ele>
        <time>2022-09-22T07:37:57Z</time>
      </trkpt>
      <trkpt lat="49.01183" lon="1.86117">
        <ele>132.2</ele>
        <time>2022-09-22T07:38:01Z</time>
      </trkpt>
      <trkpt lat="49.01188" lon="1.86113">
        <ele>132.4</ele>
        <time>2022-09-22T07:38:06Z</time>
      </trkpt>
      <trkpt lat="49.01193" lon="1.86107">
        <ele>131.9</ele>
        <time>2022-09-22T07:38:11Z</time>
      </trkpt>
      <trkpt lat="49.01197" lon="1.86101">
        <ele>131.7</ele>
        <time>2022-09-22T07:38:15Z</time>
      </trkpt>
      <trkpt lat="49.01202" lon="1.86098">
        <ele>131.2</ele>
        <time>2022-09-22T07:38:20Z</time>
      </trkpt>
      <trkpt lat="49.01207" lon="1.86094">
        <ele>130.1</ele>
        <time>2022-09-22T07:38:24Z</time>
      </trkpt>
      <trkpt lat="49.01212" lon="1.8609">
        <ele>129.3</ele>
        <time>2022-09-22T07:38:28Z</time>
      </trkpt>
      <trkpt lat="49.01216" lon="1.86088">
        <ele>128.9</ele>
        <time>2022-09-22T07:38:32Z</time>
      </trkpt>
      <trkpt lat="49.01221" lon="1.86086">
        <ele>128.8</ele>
        <time>2022-09-22T07:38:37Z</time>
      </trkpt>
      <trkpt lat="49.01227" lon="1.86083">
        <ele>128.6</ele>
        <time>2022-09-22T07:38:41Z</time>
      </trkpt>
      <trkpt lat="49.01231" lon="1.86084">
        <ele>128.1</ele>
        <time>2022-09-22T07:38:48Z</time>
      </trkpt>
      <trkpt lat="49.01235" lon="1.86079">
        <ele>128.2</ele>
        <time>2022-09-22T07:38:52Z</time>
      </trkpt>
      <trkpt lat="49.01238" lon="1.86073">
        <ele>128.2</ele>
        <time>2022-09-22T07:38:56Z</time>
      </trkpt>
      <trkpt lat="49.01242" lon="1.86067">
        <ele>128.1</ele>
        <time>2022-09-22T07:39:00Z</time>
      </trkpt>
      <trkpt lat="49.01244" lon="1.86061">
        <ele>127.9</ele>
        <time>2022-09-22T07:39:05Z</time>
      </trkpt>
      <trkpt lat="49.01247" lon="1.86055">
        <ele>127.3</ele>
        <time>2022-09-22T07:39:09Z</time>
      </trkpt>
      <trkpt lat="49.01249" lon="1.86049">
        <ele>127.3</ele>
        <time>2022-09-22T07:39:14Z</time>
      </trkpt>
      <trkpt lat="49.01252" lon="1.86043">
        <ele>127.3</ele>
        <time>2022-09-22T07:39:18Z</time>
      </trkpt>
      <trkpt lat="49.01254" lon="1.86036">
        <ele>126.9</ele>
        <time>2022-09-22T07:39:23Z</time>
      </trkpt>
      <trkpt lat="49.01256" lon="1.86029">
        <ele>125.1</ele>
        <time>2022-09-22T07:39:27Z</time>
      </trkpt>
      <trkpt lat="49.01258" lon="1.86022">
        <ele>123.7</ele>
        <time>2022-09-22T07:39:32Z</time>
      </trkpt>
      <trkpt lat="49.01261" lon="1.86016">
        <ele>123.5</ele>
        <time>2022-09-22T07:39:37Z</time>
      </trkpt>
      <trkpt lat="49.01265" lon="1.86011">
        <ele>122.4</ele>
        <time>2022-09-22T07:39:41Z</time>
      </trkpt>
      <trkpt lat="49.01269" lon="1.86004">
        <ele>121.3</ele>
        <time>2022-09-22T07:39:46Z</time>
      </trkpt>
      <trkpt lat="49.01274" lon="1.86">
        <ele>119.6</ele>
        <time>2022-09-22T07:39:51Z</time>
      </trkpt>
      <trkpt lat="49.01278" lon="1.85994">
        <ele>118.8</ele>
        <time>2022-09-22T07:39:56Z</time>
      </trkpt>
      <trkpt lat="49.01282" lon="1.85989">
        <ele>118.1</ele>
        <time>2022-09-22T07:40:00Z</time>
      </trkpt>
      <trkpt lat="49.01284" lon="1.85983">
        <ele>118</ele>
        <time>2022-09-22T07:40:04Z</time>
      </trkpt>
      <trkpt lat="49.01286" lon="1.85976">
        <ele>117.8</ele>
        <time>2022-09-22T07:40:07Z</time>
      </trkpt>
      <trkpt lat="49.01289" lon="1.85969">
        <ele>117.7</ele>
        <time>2022-09-22T07:40:11Z</time>
      </trkpt>
      <trkpt lat="49.01293" lon="1.85964">
        <ele>117.7</ele>
        <time>2022-09-22T07:40:16Z</time>
      </trkpt>
      <trkpt lat="49.01296" lon="1.85958">
        <ele>117.5</ele>
        <time>2022-09-22T07:40:21Z</time>
      </trkpt>
      <trkpt lat="49.01301" lon="1.85951">
        <ele>117.7</ele>
        <time>2022-09-22T07:40:26Z</time>
      </trkpt>
      <trkpt lat="49.01305" lon="1.85945">
        <ele>117.3</ele>
        <time>2022-09-22T07:40:31Z</time>
      </trkpt>
      <trkpt lat="49.01309" lon="1.85938">
        <ele>116.8</ele>
        <time>2022-09-22T07:40:37Z</time>
      </trkpt>
      <trkpt lat="49.01314" lon="1.85932">
        <ele>116.6</ele>
        <time>2022-09-22T07:40:41Z</time>
      </trkpt>
      <trkpt lat="49.01318" lon="1.85926">
        <ele>115.7</ele>
        <time>2022-09-22T07:40:46Z</time>
      </trkpt>
      <trkpt lat="49.01322" lon="1.8592">
        <ele>115.4</ele>
        <time>2022-09-22T07:40:51Z</time>
      </trkpt>
      <trkpt lat="49.01326" lon="1.85913">
        <ele>115</ele>
        <time>2022-09-22T07:40:56Z</time>
      </trkpt>
      <trkpt lat="49.01331" lon="1.85907">
        <ele>115.1</ele>
        <time>2022-09-22T07:41:02Z</time>
      </trkpt>
      <trkpt lat="49.01336" lon="1.85902">
        <ele>115.2</ele>
        <time>2022-09-22T07:41:06Z</time>
      </trkpt>
      <trkpt lat="49.01341" lon="1.85896">
        <ele>115</ele>
        <time>2022-09-22T07:41:11Z</time>
      </trkpt>
      <trkpt lat="49.01347" lon="1.85891">
        <ele>115.3</ele>
        <time>2022-09-22T07:41:16Z</time>
      </trkpt>
      <trkpt lat="49.01352" lon="1.85887">
        <ele>115.5</ele>
        <time>2022-09-22T07:41:21Z</time>
      </trkpt>
      <trkpt lat="49.01358" lon="1.85884">
        <ele>115.1</ele>
        <time>2022-09-22T07:41:26Z</time>
      </trkpt>
      <trkpt lat="49.01364" lon="1.85881">
        <ele>114.8</ele>
        <time>2022-09-22T07:41:31Z</time>
      </trkpt>
      <trkpt lat="49.01368" lon="1.85878">
        <ele>114.8</ele>
        <time>2022-09-22T07:41:35Z</time>
      </trkpt>
      <trkpt lat="49.01373" lon="1.85874">
        <ele>115.1</ele>
        <time>2022-09-22T07:41:40Z</time>
      </trkpt>
      <trkpt lat="49.01377" lon="1.85873">
        <ele>115.2</ele>
        <time>2022-09-22T07:41:44Z</time>
      </trkpt>
      <trkpt lat="49.01382" lon="1.85871">
        <ele>115.1</ele>
        <time>2022-09-22T07:41:48Z</time>
      </trkpt>
      <trkpt lat="49.01387" lon="1.85869">
        <ele>114.5</ele>
        <time>2022-09-22T07:41:53Z</time>
      </trkpt>
      <trkpt lat="49.01392" lon="1.85867">
        <ele>114.2</ele>
        <time>2022-09-22T07:41:58Z</time>
      </trkpt>
      <trkpt lat="49.01397" lon="1.85865">
        <ele>113.6</ele>
        <time>2022-09-22T07:42:02Z</time>
      </trkpt>
      <trkpt lat="49.01401" lon="1.85861">
        <ele>112.7</ele>
        <time>2022-09-22T07:42:06Z</time>
      </trkpt>
      <trkpt lat="49.01404" lon="1.85855">
        <ele>112.1</ele>
        <time>2022-09-22T07:42:11Z</time>
      </trkpt>
      <trkpt lat="49.01408" lon="1.85848">
        <ele>112.2</ele>
        <time>2022-09-22T07:42:17Z</time>
      </trkpt>
      <trkpt lat="49.01412" lon="1.85842">
        <ele>110.8</ele>
        <time>2022-09-22T07:42:22Z</time>
      </trkpt>
      <trkpt lat="49.01415" lon="1.85836">
        <ele>110.2</ele>
        <time>2022-09-22T07:42:28Z</time>
      </trkpt>
      <trkpt lat="49.01418" lon="1.85829">
        <ele>109.9</ele>
        <time>2022-09-22T07:43:05Z</time>
      </trkpt>
      <trkpt lat="49.01421" lon="1.85823">
        <ele>109.3</ele>
        <time>2022-09-22T07:43:08Z</time>
      </trkpt>
      <trkpt lat="49.01423" lon="1.85815">
        <ele>109.4</ele>
        <time>2022-09-22T07:43:11Z</time>
      </trkpt>
      <trkpt lat="49.01426" lon="1.85809">
        <ele>108.6</ele>
        <time>2022-09-22T07:43:14Z</time>
      </trkpt>
      <trkpt lat="49.0143" lon="1.85805">
        <ele>108.4</ele>
        <time>2022-09-22T07:43:17Z</time>
      </trkpt>
      <trkpt lat="49.01434" lon="1.85799">
        <ele>107.3</ele>
        <time>2022-09-22T07:43:21Z</time>
      </trkpt>
      <trkpt lat="49.01438" lon="1.85796">
        <ele>106.5</ele>
        <time>2022-09-22T07:43:26Z</time>
      </trkpt>
      <trkpt lat="49.01443" lon="1.85791">
        <ele>105.9</ele>
        <time>2022-09-22T07:43:30Z</time>
      </trkpt>
      <trkpt lat="49.01447" lon="1.85787">
        <ele>106</ele>
        <time>2022-09-22T07:43:34Z</time>
      </trkpt>
      <trkpt lat="49.01451" lon="1.85782">
        <ele>106.1</ele>
        <time>2022-09-22T07:43:39Z</time>
      </trkpt>
      <trkpt lat="49.01455" lon="1.85777">
        <ele>106.4</ele>
        <time>2022-09-22T07:44:00Z</time>
      </trkpt>
      <trkpt lat="49.0146" lon="1.85777">
        <ele>106</ele>
        <time>2022-09-22T07:44:05Z</time>
      </trkpt>
      <trkpt lat="49.01466" lon="1.85778">
        <ele>106.7</ele>
        <time>2022-09-22T07:44:09Z</time>
      </trkpt>
      <trkpt lat="49.01471" lon="1.85777">
        <ele>107.6</ele>
        <time>2022-09-22T07:44:14Z</time>
      </trkpt>
      <trkpt lat="49.01476" lon="1.85776">
        <ele>108.4</ele>
        <time>2022-09-22T07:44:17Z</time>
      </trkpt>
      <trkpt lat="49.01481" lon="1.85774">
        <ele>111.3</ele>
        <time>2022-09-22T07:44:20Z</time>
      </trkpt>
      <trkpt lat="49.01486" lon="1.85771">
        <ele>111.7</ele>
        <time>2022-09-22T07:44:25Z</time>
      </trkpt>
      <trkpt lat="49.01491" lon="1.85775">
        <ele>113.4</ele>
        <time>2022-09-22T07:44:30Z</time>
      </trkpt>
      <trkpt lat="49.01496" lon="1.85773">
        <ele>114.5</ele>
        <time>2022-09-22T07:44:35Z</time>
      </trkpt>
      <trkpt lat="49.01501" lon="1.85769">
        <ele>115</ele>
        <time>2022-09-22T07:44:39Z</time>
      </trkpt>
      <trkpt lat="49.01504" lon="1.85764">
        <ele>115.2</ele>
        <time>2022-09-22T07:44:43Z</time>
      </trkpt>
      <trkpt lat="49.01509" lon="1.8576">
        <ele>115.2</ele>
        <time>2022-09-22T07:44:47Z</time>
      </trkpt>
      <trkpt lat="49.01513" lon="1.85755">
        <ele>115.3</ele>
        <time>2022-09-22T07:44:51Z</time>
      </trkpt>
      <trkpt lat="49.01517" lon="1.85751">
        <ele>115.2</ele>
        <time>2022-09-22T07:44:55Z</time>
      </trkpt>
      <trkpt lat="49.01522" lon="1.85748">
        <ele>115.3</ele>
        <time>2022-09-22T07:44:58Z</time>
      </trkpt>
      <trkpt lat="49.01526" lon="1.85744">
        <ele>115.6</ele>
        <time>2022-09-22T07:45:02Z</time>
      </trkpt>
      <trkpt lat="49.0153" lon="1.8574">
        <ele>115.8</ele>
        <time>2022-09-22T07:45:05Z</time>
      </trkpt>
      <trkpt lat="49.01534" lon="1.85736">
        <ele>116</ele>
        <time>2022-09-22T07:45:08Z</time>
      </trkpt>
      <trkpt lat="49.01539" lon="1.8573">
        <ele>115.8</ele>
        <time>2022-09-22T07:45:12Z</time>
      </trkpt>
      <trkpt lat="49.01542" lon="1.85726">
        <ele>115.6</ele>
        <time>2022-09-22T07:45:17Z</time>
      </trkpt>
      <trkpt lat="49.01547" lon="1.85721">
        <ele>115.3</ele>
        <time>2022-09-22T07:45:20Z</time>
      </trkpt>
      <trkpt lat="49.01551" lon="1.85717">
        <ele>115.8</ele>
        <time>2022-09-22T07:45:23Z</time>
      </trkpt>
      <trkpt lat="49.01557" lon="1.85713">
        <ele>115.7</ele>
        <time>2022-09-22T07:45:27Z</time>
      </trkpt>
      <trkpt lat="49.01562" lon="1.85711">
        <ele>115.4</ele>
        <time>2022-09-22T07:45:31Z</time>
      </trkpt>
      <trkpt lat="49.01567" lon="1.8571">
        <ele>115.3</ele>
        <time>2022-09-22T07:45:34Z</time>
      </trkpt>
      <trkpt lat="49.01572" lon="1.85708">
        <ele>115.1</ele>
        <time>2022-09-22T07:45:37Z</time>
      </trkpt>
      <trkpt lat="49.01579" lon="1.85707">
        <ele>114.5</ele>
        <time>2022-09-22T07:45:42Z</time>
      </trkpt>
      <trkpt lat="49.01584" lon="1.85705">
        <ele>114.3</ele>
        <time>2022-09-22T07:45:46Z</time>
      </trkpt>
      <trkpt lat="49.01588" lon="1.85703">
        <ele>114</ele>
        <time>2022-09-22T07:45:49Z</time>
      </trkpt>
      <trkpt lat="49.01593" lon="1.85699">
        <ele>113.8</ele>
        <time>2022-09-22T07:45:53Z</time>
      </trkpt>
      <trkpt lat="49.016" lon="1.85697">
        <ele>113.5</ele>
        <time>2022-09-22T07:45:57Z</time>
      </trkpt>
      <trkpt lat="49.01605" lon="1.85695">
        <ele>113.3</ele>
        <time>2022-09-22T07:46:01Z</time>
      </trkpt>
      <trkpt lat="49.01611" lon="1.85692">
        <ele>113.1</ele>
        <time>2022-09-22T07:46:05Z</time>
      </trkpt>
      <trkpt lat="49.01615" lon="1.8569">
        <ele>112.8</ele>
        <time>2022-09-22T07:46:07Z</time>
      </trkpt>
      <trkpt lat="49.0162" lon="1.85686">
        <ele>112.3</ele>
        <time>2022-09-22T07:46:25Z</time>
      </trkpt>
      <trkpt lat="49.01625" lon="1.85687">
        <ele>112.6</ele>
        <time>2022-09-22T07:46:41Z</time>
      </trkpt>
      <trkpt lat="49.0163" lon="1.85686">
        <ele>111</ele>
        <time>2022-09-22T07:46:44Z</time>
      </trkpt>
      <trkpt lat="49.01635" lon="1.85684">
        <ele>110</ele>
        <time>2022-09-22T07:46:48Z</time>
      </trkpt>
      <trkpt lat="49.01641" lon="1.85681">
        <ele>109.3</ele>
        <time>2022-09-22T07:46:52Z</time>
      </trkpt>
      <trkpt lat="49.01646" lon="1.85679">
        <ele>108.6</ele>
        <time>2022-09-22T07:46:57Z</time>
      </trkpt>
      <trkpt lat="49.01651" lon="1.85678">
        <ele>108.4</ele>
        <time>2022-09-22T07:47:00Z</time>
      </trkpt>
      <trkpt lat="49.01657" lon="1.85676">
        <ele>108.2</ele>
        <time>2022-09-22T07:47:05Z</time>
      </trkpt>
      <trkpt lat="49.01662" lon="1.85674">
        <ele>108.5</ele>
        <time>2022-09-22T07:47:08Z</time>
      </trkpt>
      <trkpt lat="49.01666" lon="1.85671">
        <ele>108.4</ele>
        <time>2022-09-22T07:47:11Z</time>
      </trkpt>
      <trkpt lat="49.0167" lon="1.85666">
        <ele>108.5</ele>
        <time>2022-09-22T07:47:15Z</time>
      </trkpt>
      <trkpt lat="49.01678" lon="1.85666">
        <ele>108.5</ele>
        <time>2022-09-22T07:47:21Z</time>
      </trkpt>
      <trkpt lat="49.01682" lon="1.85667">
        <ele>108.5</ele>
        <time>2022-09-22T07:47:24Z</time>
      </trkpt>
      <trkpt lat="49.01689" lon="1.85662">
        <ele>108.4</ele>
        <time>2022-09-22T07:47:30Z</time>
      </trkpt>
      <trkpt lat="49.01694" lon="1.85661">
        <ele>108.4</ele>
        <time>2022-09-22T07:47:34Z</time>
      </trkpt>
      <trkpt lat="49.01699" lon="1.8566">
        <ele>108.2</ele>
        <time>2022-09-22T07:47:37Z</time>
      </trkpt>
      <trkpt lat="49.01705" lon="1.85659">
        <ele>108.3</ele>
        <time>2022-09-22T07:47:41Z</time>
      </trkpt>
      <trkpt lat="49.0171" lon="1.85658">
        <ele>108.5</ele>
        <time>2022-09-22T07:47:45Z</time>
      </trkpt>
      <trkpt lat="49.01715" lon="1.85656">
        <ele>108.5</ele>
        <time>2022-09-22T07:47:48Z</time>
      </trkpt>
      <trkpt lat="49.01719" lon="1.85654">
        <ele>108.5</ele>
        <time>2022-09-22T07:47:51Z</time>
      </trkpt>
      <trkpt lat="49.01726" lon="1.85653">
        <ele>109.1</ele>
        <time>2022-09-22T07:47:56Z</time>
      </trkpt>
      <trkpt lat="49.01733" lon="1.85651">
        <ele>109</ele>
        <time>2022-09-22T07:48:01Z</time>
      </trkpt>
      <trkpt lat="49.01738" lon="1.85649">
        <ele>109</ele>
        <time>2022-09-22T07:48:05Z</time>
      </trkpt>
      <trkpt lat="49.01742" lon="1.85647">
        <ele>109.7</ele>
        <time>2022-09-22T07:48:09Z</time>
      </trkpt>
      <trkpt lat="49.01746" lon="1.85645">
        <ele>110</ele>
        <time>2022-09-22T07:48:12Z</time>
      </trkpt>
      <trkpt lat="49.01752" lon="1.85642">
        <ele>109.5</ele>
        <time>2022-09-22T07:48:17Z</time>
      </trkpt>
      <trkpt lat="49.01759" lon="1.85642">
        <ele>109.3</ele>
        <time>2022-09-22T07:48:21Z</time>
      </trkpt>
      <trkpt lat="49.01763" lon="1.85642">
        <ele>109</ele>
        <time>2022-09-22T07:48:26Z</time>
      </trkpt>
      <trkpt lat="49.01769" lon="1.85641">
        <ele>108.6</ele>
        <time>2022-09-22T07:48:30Z</time>
      </trkpt>
      <trkpt lat="49.01773" lon="1.85637">
        <ele>108.5</ele>
        <time>2022-09-22T07:48:36Z</time>
      </trkpt>
      <trkpt lat="49.01778" lon="1.85636">
        <ele>108.9</ele>
        <time>2022-09-22T07:48:39Z</time>
      </trkpt>
      <trkpt lat="49.01783" lon="1.85635">
        <ele>108.8</ele>
        <time>2022-09-22T07:48:42Z</time>
      </trkpt>
      <trkpt lat="49.01788" lon="1.85634">
        <ele>109.5</ele>
        <time>2022-09-22T07:48:46Z</time>
      </trkpt>
      <trkpt lat="49.01793" lon="1.85632">
        <ele>109.6</ele>
        <time>2022-09-22T07:48:49Z</time>
      </trkpt>
      <trkpt lat="49.01798" lon="1.85631">
        <ele>109.7</ele>
        <time>2022-09-22T07:48:53Z</time>
      </trkpt>
      <trkpt lat="49.01804" lon="1.85628">
        <ele>111</ele>
        <time>2022-09-22T07:48:57Z</time>
      </trkpt>
      <trkpt lat="49.0181" lon="1.85627">
        <ele>111.4</ele>
        <time>2022-09-22T07:49:02Z</time>
      </trkpt>
      <trkpt lat="49.01817" lon="1.85625">
        <ele>111.4</ele>
        <time>2022-09-22T07:49:06Z</time>
      </trkpt>
      <trkpt lat="49.01823" lon="1.85625">
        <ele>111.5</ele>
        <time>2022-09-22T07:49:11Z</time>
      </trkpt>
      <trkpt lat="49.01828" lon="1.85624">
        <ele>111.2</ele>
        <time>2022-09-22T07:49:14Z</time>
      </trkpt>
      <trkpt lat="49.01832" lon="1.85622">
        <ele>111.2</ele>
        <time>2022-09-22T07:49:17Z</time>
      </trkpt>
      <trkpt lat="49.01838" lon="1.85618">
        <ele>111</ele>
        <time>2022-09-22T07:49:21Z</time>
      </trkpt>
      <trkpt lat="49.01844" lon="1.85614">
        <ele>111</ele>
        <time>2022-09-22T07:49:26Z</time>
      </trkpt>
      <trkpt lat="49.01849" lon="1.85609">
        <ele>110.3</ele>
        <time>2022-09-22T07:49:32Z</time>
      </trkpt>
      <trkpt lat="49.01854" lon="1.85606">
        <ele>109.7</ele>
        <time>2022-09-22T07:49:35Z</time>
      </trkpt>
      <trkpt lat="49.01858" lon="1.85601">
        <ele>109.1</ele>
        <time>2022-09-22T07:49:39Z</time>
      </trkpt>
      <trkpt lat="49.01863" lon="1.85598">
        <ele>108.6</ele>
        <time>2022-09-22T07:49:43Z</time>
      </trkpt>
      <trkpt lat="49.01867" lon="1.85594">
        <ele>107.9</ele>
        <time>2022-09-22T07:49:47Z</time>
      </trkpt>
      <trkpt lat="49.01871" lon="1.8559">
        <ele>107.4</ele>
        <time>2022-09-22T07:49:50Z</time>
      </trkpt>
      <trkpt lat="49.01875" lon="1.85586">
        <ele>107.1</ele>
        <time>2022-09-22T07:49:54Z</time>
      </trkpt>
      <trkpt lat="49.0188" lon="1.85581">
        <ele>107</ele>
        <time>2022-09-22T07:49:58Z</time>
      </trkpt>
      <trkpt lat="49.01885" lon="1.85577">
        <ele>106.8</ele>
        <time>2022-09-22T07:50:02Z</time>
      </trkpt>
      <trkpt lat="49.0189" lon="1.85572">
        <ele>106.7</ele>
        <time>2022-09-22T07:50:06Z</time>
      </trkpt>
      <trkpt lat="49.01894" lon="1.85566">
        <ele>106.7</ele>
        <time>2022-09-22T07:50:11Z</time>
      </trkpt>
      <trkpt lat="49.01899" lon="1.8556">
        <ele>106.7</ele>
        <time>2022-09-22T07:50:15Z</time>
      </trkpt>
      <trkpt lat="49.01904" lon="1.85556">
        <ele>106.7</ele>
        <time>2022-09-22T07:50:19Z</time>
      </trkpt>
      <trkpt lat="49.01907" lon="1.8555">
        <ele>106.6</ele>
        <time>2022-09-22T07:50:24Z</time>
      </trkpt>
      <trkpt lat="49.01911" lon="1.85545">
        <ele>106.5</ele>
        <time>2022-09-22T07:50:27Z</time>
      </trkpt>
      <trkpt lat="49.01914" lon="1.85539">
        <ele>106.5</ele>
        <time>2022-09-22T07:50:31Z</time>
      </trkpt>
      <trkpt lat="49.01918" lon="1.85533">
        <ele>106.5</ele>
        <time>2022-09-22T07:50:35Z</time>
      </trkpt>
      <trkpt lat="49.01922" lon="1.85528">
        <ele>106.5</ele>
        <time>2022-09-22T07:50:39Z</time>
      </trkpt>
      <trkpt lat="49.01927" lon="1.85521">
        <ele>106.5</ele>
        <time>2022-09-22T07:50:43Z</time>
      </trkpt>
      <trkpt lat="49.0193" lon="1.85516">
        <ele>106.6</ele>
        <time>2022-09-22T07:50:47Z</time>
      </trkpt>
      <trkpt lat="49.01934" lon="1.85511">
        <ele>106.5</ele>
        <time>2022-09-22T07:50:50Z</time>
      </trkpt>
      <trkpt lat="49.01937" lon="1.85506">
        <ele>106.4</ele>
        <time>2022-09-22T07:50:53Z</time>
      </trkpt>
      <trkpt lat="49.01941" lon="1.85498">
        <ele>106.4</ele>
        <time>2022-09-22T07:50:58Z</time>
      </trkpt>
      <trkpt lat="49.01944" lon="1.85493">
        <ele>106.3</ele>
        <time>2022-09-22T07:51:01Z</time>
      </trkpt>
      <trkpt lat="49.01948" lon="1.85487">
        <ele>106.3</ele>
        <time>2022-09-22T07:51:05Z</time>
      </trkpt>
      <trkpt lat="49.01953" lon="1.85481">
        <ele>106.2</ele>
        <time>2022-09-22T07:51:09Z</time>
      </trkpt>
      <trkpt lat="49.01956" lon="1.85475">
        <ele>106.1</ele>
        <time>2022-09-22T07:51:13Z</time>
      </trkpt>
      <trkpt lat="49.0196" lon="1.85469">
        <ele>106</ele>
        <time>2022-09-22T07:51:18Z</time>
      </trkpt>
      <trkpt lat="49.01963" lon="1.85461">
        <ele>105.8</ele>
        <time>2022-09-22T07:51:22Z</time>
      </trkpt>
      <trkpt lat="49.01967" lon="1.85455">
        <ele>105.5</ele>
        <time>2022-09-22T07:51:26Z</time>
      </trkpt>
      <trkpt lat="49.0197" lon="1.8545">
        <ele>105.7</ele>
        <time>2022-09-22T07:51:29Z</time>
      </trkpt>
      <trkpt lat="49.01974" lon="1.85445">
        <ele>105.7</ele>
        <time>2022-09-22T07:51:32Z</time>
      </trkpt>
      <trkpt lat="49.01978" lon="1.85441">
        <ele>105.8</ele>
        <time>2022-09-22T07:51:36Z</time>
      </trkpt>
      <trkpt lat="49.01982" lon="1.85435">
        <ele>106.1</ele>
        <time>2022-09-22T07:51:40Z</time>
      </trkpt>
      <trkpt lat="49.01986" lon="1.85431">
        <ele>106.1</ele>
        <time>2022-09-22T07:51:44Z</time>
      </trkpt>
      <trkpt lat="49.01991" lon="1.85427">
        <ele>106.4</ele>
        <time>2022-09-22T07:51:49Z</time>
      </trkpt>
      <trkpt lat="49.01995" lon="1.85424">
        <ele>106.7</ele>
        <time>2022-09-22T07:51:52Z</time>
      </trkpt>
      <trkpt lat="49.02" lon="1.85422">
        <ele>107.2</ele>
        <time>2022-09-22T07:51:55Z</time>
      </trkpt>
      <trkpt lat="49.02005" lon="1.85421">
        <ele>107.6</ele>
        <time>2022-09-22T07:51:59Z</time>
      </trkpt>
      <trkpt lat="49.0201" lon="1.8542">
        <ele>108.1</ele>
        <time>2022-09-22T07:52:02Z</time>
      </trkpt>
      <trkpt lat="49.02015" lon="1.8542">
        <ele>108.1</ele>
        <time>2022-09-22T07:52:06Z</time>
      </trkpt>
      <trkpt lat="49.02021" lon="1.8542">
        <ele>108.1</ele>
        <time>2022-09-22T07:52:10Z</time>
      </trkpt>
      <trkpt lat="49.02027" lon="1.85419">
        <ele>108.2</ele>
        <time>2022-09-22T07:52:14Z</time>
      </trkpt>
      <trkpt lat="49.02032" lon="1.85418">
        <ele>108.3</ele>
        <time>2022-09-22T07:52:18Z</time>
      </trkpt>
      <trkpt lat="49.02038" lon="1.85417">
        <ele>108.2</ele>
        <time>2022-09-22T07:52:22Z</time>
      </trkpt>
      <trkpt lat="49.02043" lon="1.85416">
        <ele>108.2</ele>
        <time>2022-09-22T07:52:26Z</time>
      </trkpt>
      <trkpt lat="49.02048" lon="1.85416">
        <ele>108.2</ele>
        <time>2022-09-22T07:52:30Z</time>
      </trkpt>
      <trkpt lat="49.02054" lon="1.85415">
        <ele>108.2</ele>
        <time>2022-09-22T07:52:34Z</time>
      </trkpt>
      <trkpt lat="49.02059" lon="1.85414">
        <ele>108.2</ele>
        <time>2022-09-22T07:52:38Z</time>
      </trkpt>
      <trkpt lat="49.02064" lon="1.85413">
        <ele>108.3</ele>
        <time>2022-09-22T07:52:42Z</time>
      </trkpt>
      <trkpt lat="49.02069" lon="1.85412">
        <ele>108.4</ele>
        <time>2022-09-22T07:52:45Z</time>
      </trkpt>
      <trkpt lat="49.02075" lon="1.8541">
        <ele>108.6</ele>
        <time>2022-09-22T07:52:49Z</time>
      </trkpt>
      <trkpt lat="49.0208" lon="1.85408">
        <ele>108.8</ele>
        <time>2022-09-22T07:52:53Z</time>
      </trkpt>
      <trkpt lat="49.02085" lon="1.85407">
        <ele>108.7</ele>
        <time>2022-09-22T07:52:57Z</time>
      </trkpt>
      <trkpt lat="49.02091" lon="1.85405">
        <ele>108.9</ele>
        <time>2022-09-22T07:53:01Z</time>
      </trkpt>
      <trkpt lat="49.02095" lon="1.85403">
        <ele>108.9</ele>
        <time>2022-09-22T07:53:04Z</time>
      </trkpt>
      <trkpt lat="49.021" lon="1.854">
        <ele>109.1</ele>
        <time>2022-09-22T07:53:08Z</time>
      </trkpt>
      <trkpt lat="49.02105" lon="1.85398">
        <ele>109</ele>
        <time>2022-09-22T07:53:11Z</time>
      </trkpt>
      <trkpt lat="49.0211" lon="1.85396">
        <ele>109</ele>
        <time>2022-09-22T07:53:14Z</time>
      </trkpt>
      <trkpt lat="49.02115" lon="1.85394">
        <ele>109</ele>
        <time>2022-09-22T07:53:18Z</time>
      </trkpt>
      <trkpt lat="49.02119" lon="1.85391">
        <ele>109</ele>
        <time>2022-09-22T07:53:21Z</time>
      </trkpt>
      <trkpt lat="49.02124" lon="1.85389">
        <ele>108.8</ele>
        <time>2022-09-22T07:53:25Z</time>
      </trkpt>
      <trkpt lat="49.02129" lon="1.85387">
        <ele>108.6</ele>
        <time>2022-09-22T07:53:28Z</time>
      </trkpt>
      <trkpt lat="49.02136" lon="1.85385">
        <ele>108.8</ele>
        <time>2022-09-22T07:53:34Z</time>
      </trkpt>
      <trkpt lat="49.02142" lon="1.85383">
        <ele>108.8</ele>
        <time>2022-09-22T07:53:38Z</time>
      </trkpt>
      <trkpt lat="49.02147" lon="1.85378">
        <ele>108.9</ele>
        <time>2022-09-22T07:53:43Z</time>
      </trkpt>
      <trkpt lat="49.02151" lon="1.85375">
        <ele>109</ele>
        <time>2022-09-22T07:53:46Z</time>
      </trkpt>
      <trkpt lat="49.02155" lon="1.85371">
        <ele>109.2</ele>
        <time>2022-09-22T07:53:50Z</time>
      </trkpt>
      <trkpt lat="49.0216" lon="1.85367">
        <ele>109.2</ele>
        <time>2022-09-22T07:53:54Z</time>
      </trkpt>
      <trkpt lat="49.02164" lon="1.85363">
        <ele>109.1</ele>
        <time>2022-09-22T07:53:58Z</time>
      </trkpt>
      <trkpt lat="49.02169" lon="1.85359">
        <ele>109.1</ele>
        <time>2022-09-22T07:54:02Z</time>
      </trkpt>
      <trkpt lat="49.02173" lon="1.85354">
        <ele>108.8</ele>
        <time>2022-09-22T07:54:06Z</time>
      </trkpt>
      <trkpt lat="49.02177" lon="1.85349">
        <ele>108.6</ele>
        <time>2022-09-22T07:54:10Z</time>
      </trkpt>
      <trkpt lat="49.02181" lon="1.85345">
        <ele>108</ele>
        <time>2022-09-22T07:54:14Z</time>
      </trkpt>
      <trkpt lat="49.02185" lon="1.85341">
        <ele>106.9</ele>
        <time>2022-09-22T07:54:18Z</time>
      </trkpt>
      <trkpt lat="49.02189" lon="1.85335">
        <ele>105.2</ele>
        <time>2022-09-22T07:54:22Z</time>
      </trkpt>
      <trkpt lat="49.02194" lon="1.85332">
        <ele>104.4</ele>
        <time>2022-09-22T07:54:26Z</time>
      </trkpt>
      <trkpt lat="49.02198" lon="1.85329">
        <ele>104.2</ele>
        <time>2022-09-22T07:54:29Z</time>
      </trkpt>
      <trkpt lat="49.02203" lon="1.85324">
        <ele>103.2</ele>
        <time>2022-09-22T07:54:34Z</time>
      </trkpt>
      <trkpt lat="49.02207" lon="1.8532">
        <ele>103.1</ele>
        <time>2022-09-22T07:54:38Z</time>
      </trkpt>
      <trkpt lat="49.02212" lon="1.85315">
        <ele>102.4</ele>
        <time>2022-09-22T07:54:43Z</time>
      </trkpt>
      <trkpt lat="49.02217" lon="1.8531">
        <ele>102.2</ele>
        <time>2022-09-22T07:54:47Z</time>
      </trkpt>
      <trkpt lat="49.02221" lon="1.85306">
        <ele>101.8</ele>
        <time>2022-09-22T07:54:51Z</time>
      </trkpt>
      <trkpt lat="49.02226" lon="1.85302">
        <ele>102</ele>
        <time>2022-09-22T07:54:54Z</time>
      </trkpt>
      <trkpt lat="49.0223" lon="1.85297">
        <ele>102</ele>
        <time>2022-09-22T07:54:58Z</time>
      </trkpt>
      <trkpt lat="49.02234" lon="1.85294">
        <ele>102.2</ele>
        <time>2022-09-22T07:55:02Z</time>
      </trkpt>
      <trkpt lat="49.02238" lon="1.8529">
        <ele>102.1</ele>
        <time>2022-09-22T07:55:05Z</time>
      </trkpt>
      <trkpt lat="49.02243" lon="1.85286">
        <ele>102.1</ele>
        <time>2022-09-22T07:55:09Z</time>
      </trkpt>
      <trkpt lat="49.02246" lon="1.85282">
        <ele>102.2</ele>
        <time>2022-09-22T07:55:12Z</time>
      </trkpt>
      <trkpt lat="49.02251" lon="1.85276">
        <ele>102.6</ele>
        <time>2022-09-22T07:55:17Z</time>
      </trkpt>
      <trkpt lat="49.02254" lon="1.8527">
        <ele>103</ele>
        <time>2022-09-22T07:55:21Z</time>
      </trkpt>
      <trkpt lat="49.02259" lon="1.85266">
        <ele>103.3</ele>
        <time>2022-09-22T07:55:27Z</time>
      </trkpt>
      <trkpt lat="49.02263" lon="1.85263">
        <ele>103.5</ele>
        <time>2022-09-22T07:55:31Z</time>
      </trkpt>
      <trkpt lat="49.02268" lon="1.85261">
        <ele>103.8</ele>
        <time>2022-09-22T07:55:37Z</time>
      </trkpt>
      <trkpt lat="49.02273" lon="1.85255">
        <ele>104.5</ele>
        <time>2022-09-22T07:55:42Z</time>
      </trkpt>
      <trkpt lat="49.02278" lon="1.85251">
        <ele>104.2</ele>
        <time>2022-09-22T07:55:46Z</time>
      </trkpt>
      <trkpt lat="49.02282" lon="1.85246">
        <ele>104.2</ele>
        <time>2022-09-22T07:55:51Z</time>
      </trkpt>
      <trkpt lat="49.02287" lon="1.85241">
        <ele>104</ele>
        <time>2022-09-22T07:55:57Z</time>
      </trkpt>
      <trkpt lat="49.02291" lon="1.85235">
        <ele>104.3</ele>
        <time>2022-09-22T07:56:01Z</time>
      </trkpt>
      <trkpt lat="49.02296" lon="1.85231">
        <ele>104.1</ele>
        <time>2022-09-22T07:56:06Z</time>
      </trkpt>
      <trkpt lat="49.02301" lon="1.85226">
        <ele>103.3</ele>
        <time>2022-09-22T07:56:10Z</time>
      </trkpt>
      <trkpt lat="49.02306" lon="1.85222">
        <ele>102.7</ele>
        <time>2022-09-22T07:56:15Z</time>
      </trkpt>
      <trkpt lat="49.0231" lon="1.85218">
        <ele>102.2</ele>
        <time>2022-09-22T07:56:19Z</time>
      </trkpt>
      <trkpt lat="49.02315" lon="1.85214">
        <ele>102.2</ele>
        <time>2022-09-22T07:56:23Z</time>
      </trkpt>
      <trkpt lat="49.02319" lon="1.85211">
        <ele>101.8</ele>
        <time>2022-09-22T07:56:27Z</time>
      </trkpt>
      <trkpt lat="49.02323" lon="1.85206">
        <ele>101.2</ele>
        <time>2022-09-22T07:56:31Z</time>
      </trkpt>
      <trkpt lat="49.02326" lon="1.85201">
        <ele>100.7</ele>
        <time>2022-09-22T07:56:35Z</time>
      </trkpt>
      <trkpt lat="49.02331" lon="1.85197">
        <ele>100.9</ele>
        <time>2022-09-22T07:56:40Z</time>
      </trkpt>
      <trkpt lat="49.02336" lon="1.85193">
        <ele>100.6</ele>
        <time>2022-09-22T07:56:44Z</time>
      </trkpt>
      <trkpt lat="49.0234" lon="1.8519">
        <ele>100.2</ele>
        <time>2022-09-22T07:56:47Z</time>
      </trkpt>
      <trkpt lat="49.02344" lon="1.85184">
        <ele>99.6</ele>
        <time>2022-09-22T07:56:51Z</time>
      </trkpt>
      <trkpt lat="49.02349" lon="1.8518">
        <ele>99</ele>
        <time>2022-09-22T07:56:55Z</time>
      </trkpt>
      <trkpt lat="49.02353" lon="1.85178">
        <ele>99.1</ele>
        <time>2022-09-22T07:56:58Z</time>
      </trkpt>
      <trkpt lat="49.02358" lon="1.85176">
        <ele>98.2</ele>
        <time>2022-09-22T07:57:02Z</time>
      </trkpt>
      <trkpt lat="49.02364" lon="1.85176">
        <ele>96.8</ele>
        <time>2022-09-22T07:57:07Z</time>
      </trkpt>
      <trkpt lat="49.02369" lon="1.85175">
        <ele>95.8</ele>
        <time>2022-09-22T07:57:11Z</time>
      </trkpt>
      <trkpt lat="49.02373" lon="1.85177">
        <ele>94.3</ele>
        <time>2022-09-22T07:57:16Z</time>
      </trkpt>
      <trkpt lat="49.02379" lon="1.85175">
        <ele>92.1</ele>
        <time>2022-09-22T07:57:20Z</time>
      </trkpt>
      <trkpt lat="49.02383" lon="1.85175">
        <ele>90.8</ele>
        <time>2022-09-22T07:57:23Z</time>
      </trkpt>
      <trkpt lat="49.02388" lon="1.85174">
        <ele>89.8</ele>
        <time>2022-09-22T07:57:27Z</time>
      </trkpt>
      <trkpt lat="49.02393" lon="1.85174">
        <ele>89.8</ele>
        <time>2022-09-22T07:57:31Z</time>
      </trkpt>
      <trkpt lat="49.02398" lon="1.85177">
        <ele>89.7</ele>
        <time>2022-09-22T07:57:35Z</time>
      </trkpt>
      <trkpt lat="49.02403" lon="1.85179">
        <ele>89.7</ele>
        <time>2022-09-22T07:57:40Z</time>
      </trkpt>
      <trkpt lat="49.02409" lon="1.85178">
        <ele>89</ele>
        <time>2022-09-22T07:57:45Z</time>
      </trkpt>
      <trkpt lat="49.02414" lon="1.85175">
        <ele>88.8</ele>
        <time>2022-09-22T07:57:49Z</time>
      </trkpt>
      <trkpt lat="49.02418" lon="1.85172">
        <ele>87.6</ele>
        <time>2022-09-22T07:57:53Z</time>
      </trkpt>
      <trkpt lat="49.02424" lon="1.85172">
        <ele>87.5</ele>
        <time>2022-09-22T07:58:02Z</time>
      </trkpt>
      <trkpt lat="49.02429" lon="1.85172">
        <ele>87.1</ele>
        <time>2022-09-22T07:58:07Z</time>
      </trkpt>
      <trkpt lat="49.02436" lon="1.85174">
        <ele>85.5</ele>
        <time>2022-09-22T07:58:14Z</time>
      </trkpt>
      <trkpt lat="49.02435" lon="1.8518">
        <ele>84.1</ele>
        <time>2022-09-22T07:58:23Z</time>
      </trkpt>
      <trkpt lat="49.02429" lon="1.85181">
        <ele>82.8</ele>
        <time>2022-09-22T07:58:27Z</time>
      </trkpt>
      <trkpt lat="49.02431" lon="1.85175">
        <ele>81.7</ele>
        <time>2022-09-22T07:59:13Z</time>
      </trkpt>
      <trkpt lat="49.02436" lon="1.85173">
        <ele>80.7</ele>
        <time>2022-09-22T07:59:17Z</time>
      </trkpt>
      <trkpt lat="49.02441" lon="1.8517">
        <ele>80.6</ele>
        <time>2022-09-22T07:59:23Z</time>
      </trkpt>
      <trkpt lat="49.02446" lon="1.85168">
        <ele>79.2</ele>
        <time>2022-09-22T07:59:27Z</time>
      </trkpt>
      <trkpt lat="49.02452" lon="1.85166">
        <ele>79.3</ele>
        <time>2022-09-22T07:59:31Z</time>
      </trkpt>
      <trkpt lat="49.02458" lon="1.85167">
        <ele>77.4</ele>
        <time>2022-09-22T07:59:35Z</time>
      </trkpt>
      <trkpt lat="49.02463" lon="1.85167">
        <ele>75.7</ele>
        <time>2022-09-22T07:59:40Z</time>
      </trkpt>
      <trkpt lat="49.02468" lon="1.85165">
        <ele>75.9</ele>
        <time>2022-09-22T07:59:46Z</time>
      </trkpt>
      <trkpt lat="49.02473" lon="1.85165">
        <ele>74.6</ele>
        <time>2022-09-22T07:59:51Z</time>
      </trkpt>
      <trkpt lat="49.02478" lon="1.85162">
        <ele>74.2</ele>
        <time>2022-09-22T07:59:55Z</time>
      </trkpt>
      <trkpt lat="49.02483" lon="1.85156">
        <ele>73.5</ele>
        <time>2022-09-22T08:00:00Z</time>
      </trkpt>
      <trkpt lat="49.02486" lon="1.85151">
        <ele>73.3</ele>
        <time>2022-09-22T08:00:05Z</time>
      </trkpt>
      <trkpt lat="49.0249" lon="1.85145">
        <ele>72.8</ele>
        <time>2022-09-22T08:00:11Z</time>
      </trkpt>
      <trkpt lat="49.02494" lon="1.85141">
        <ele>72.2</ele>
        <time>2022-09-22T08:00:14Z</time>
      </trkpt>
      <trkpt lat="49.02499" lon="1.85136">
        <ele>71.8</ele>
        <time>2022-09-22T08:00:18Z</time>
      </trkpt>
      <trkpt lat="49.02502" lon="1.85129">
        <ele>71.7</ele>
        <time>2022-09-22T08:00:22Z</time>
      </trkpt>
      <trkpt lat="49.02505" lon="1.85124">
        <ele>71.5</ele>
        <time>2022-09-22T08:00:26Z</time>
      </trkpt>
      <trkpt lat="49.02511" lon="1.85119">
        <ele>70.8</ele>
        <time>2022-09-22T08:00:31Z</time>
      </trkpt>
      <trkpt lat="49.02514" lon="1.85113">
        <ele>70.1</ele>
        <time>2022-09-22T08:00:37Z</time>
      </trkpt>
      <trkpt lat="49.02518" lon="1.85109">
        <ele>70</ele>
        <time>2022-09-22T08:00:41Z</time>
      </trkpt>
      <trkpt lat="49.02521" lon="1.85103">
        <ele>68.4</ele>
        <time>2022-09-22T08:00:45Z</time>
      </trkpt>
      <trkpt lat="49.02524" lon="1.85096">
        <ele>68.5</ele>
        <time>2022-09-22T08:00:49Z</time>
      </trkpt>
      <trkpt lat="49.02526" lon="1.85089">
        <ele>68.2</ele>
        <time>2022-09-22T08:00:53Z</time>
      </trkpt>
      <trkpt lat="49.02529" lon="1.85083">
        <ele>68.2</ele>
        <time>2022-09-22T08:00:56Z</time>
      </trkpt>
      <trkpt lat="49.02531" lon="1.85075">
        <ele>68.1</ele>
        <time>2022-09-22T08:01:00Z</time>
      </trkpt>
      <trkpt lat="49.02526" lon="1.85077">
        <ele>67.7</ele>
        <time>2022-09-22T08:01:13Z</time>
      </trkpt>
      <trkpt lat="49.02528" lon="1.85068">
        <ele>67.8</ele>
        <time>2022-09-22T08:01:37Z</time>
      </trkpt>
      <trkpt lat="49.02531" lon="1.85063">
        <ele>68</ele>
        <time>2022-09-22T08:01:40Z</time>
      </trkpt>
      <trkpt lat="49.02534" lon="1.85058">
        <ele>68</ele>
        <time>2022-09-22T08:01:47Z</time>
      </trkpt>
      <trkpt lat="49.02537" lon="1.85052">
        <ele>68.2</ele>
        <time>2022-09-22T08:02:00Z</time>
      </trkpt>
      <trkpt lat="49.02535" lon="1.85045">
        <ele>68.2</ele>
        <time>2022-09-22T08:02:47Z</time>
      </trkpt>
      <trkpt lat="49.02536" lon="1.85038">
        <ele>68.2</ele>
        <time>2022-09-22T08:02:53Z</time>
      </trkpt>
      <trkpt lat="49.02539" lon="1.85033">
        <ele>68.2</ele>
        <time>2022-09-22T08:03:22Z</time>
      </trkpt>
      <trkpt lat="49.02539" lon="1.85025">
        <ele>67.9</ele>
        <time>2022-09-22T08:03:29Z</time>
      </trkpt>
      <trkpt lat="49.02539" lon="1.85018">
        <ele>67.9</ele>
        <time>2022-09-22T08:03:34Z</time>
      </trkpt>
      <trkpt lat="49.02539" lon="1.85011">
        <ele>67.9</ele>
        <time>2022-09-22T08:03:40Z</time>
      </trkpt>
      <trkpt lat="49.02538" lon="1.85003">
        <ele>67.4</ele>
        <time>2022-09-22T08:03:46Z</time>
      </trkpt>
      <trkpt lat="49.02537" lon="1.84995">
        <ele>66.8</ele>
        <time>2022-09-22T08:03:52Z</time>
      </trkpt>
      <trkpt lat="49.02538" lon="1.84988">
        <ele>66.7</ele>
        <time>2022-09-22T08:03:57Z</time>
      </trkpt>
      <trkpt lat="49.02539" lon="1.84981">
        <ele>66.3</ele>
        <time>2022-09-22T08:04:02Z</time>
      </trkpt>
      <trkpt lat="49.02542" lon="1.84974">
        <ele>66</ele>
        <time>2022-09-22T08:04:08Z</time>
      </trkpt>
      <trkpt lat="49.02545" lon="1.84968">
        <ele>66.2</ele>
        <time>2022-09-22T08:04:13Z</time>
      </trkpt>
      <trkpt lat="49.02549" lon="1.84962">
        <ele>66.3</ele>
        <time>2022-09-22T08:04:18Z</time>
      </trkpt>
      <trkpt lat="49.02553" lon="1.84958">
        <ele>66.3</ele>
        <time>2022-09-22T08:04:23Z</time>
      </trkpt>
      <trkpt lat="49.02557" lon="1.84958">
        <ele>66.2</ele>
        <time>2022-09-22T08:04:28Z</time>
      </trkpt>
      <trkpt lat="49.02563" lon="1.84958">
        <ele>66.9</ele>
        <time>2022-09-22T08:04:32Z</time>
      </trkpt>
      <trkpt lat="49.02568" lon="1.84958">
        <ele>67.3</ele>
        <time>2022-09-22T08:04:40Z</time>
      </trkpt>
      <trkpt lat="49.02572" lon="1.84956">
        <ele>68.6</ele>
        <time>2022-09-22T08:04:45Z</time>
      </trkpt>
      <trkpt lat="49.02576" lon="1.84952">
        <ele>69.4</ele>
        <time>2022-09-22T08:04:54Z</time>
      </trkpt>
      <trkpt lat="49.02581" lon="1.84953">
        <ele>69.7</ele>
        <time>2022-09-22T08:04:58Z</time>
      </trkpt>
      <trkpt lat="49.02586" lon="1.84953">
        <ele>70.1</ele>
        <time>2022-09-22T08:05:04Z</time>
      </trkpt>
      <trkpt lat="49.02591" lon="1.84951">
        <ele>70.8</ele>
        <time>2022-09-22T08:05:09Z</time>
      </trkpt>
      <trkpt lat="49.02595" lon="1.84949">
        <ele>71.4</ele>
        <time>2022-09-22T08:05:16Z</time>
      </trkpt>
      <trkpt lat="49.0259" lon="1.84954">
        <ele>71.8</ele>
        <time>2022-09-22T08:05:28Z</time>
      </trkpt>
      <trkpt lat="49.02587" lon="1.8496">
        <ele>71.8</ele>
        <time>2022-09-22T08:05:32Z</time>
      </trkpt>
      <trkpt lat="49.02582" lon="1.8496">
        <ele>72.1</ele>
        <time>2022-09-22T08:05:35Z</time>
      </trkpt>
      <trkpt lat="49.02577" lon="1.84956">
        <ele>72.2</ele>
        <time>2022-09-22T08:05:38Z</time>
      </trkpt>
      <trkpt lat="49.02574" lon="1.84951">
        <ele>71.7</ele>
        <time>2022-09-22T08:05:41Z</time>
      </trkpt>
      <trkpt lat="49.02576" lon="1.84944">
        <ele>72</ele>
        <time>2022-09-22T08:05:50Z</time>
      </trkpt>
      <trkpt lat="49.02579" lon="1.84936">
        <ele>72.3</ele>
        <time>2022-09-22T08:05:55Z</time>
      </trkpt>
      <trkpt lat="49.0258" lon="1.84928">
        <ele>72.3</ele>
        <time>2022-09-22T08:06:01Z</time>
      </trkpt>
      <trkpt lat="49.02578" lon="1.84921">
        <ele>72.6</ele>
        <time>2022-09-22T08:06:09Z</time>
      </trkpt>
      <trkpt lat="49.02578" lon="1.84913">
        <ele>72.2</ele>
        <time>2022-09-22T08:06:22Z</time>
      </trkpt>
      <trkpt lat="49.02579" lon="1.84906">
        <ele>72.1</ele>
        <time>2022-09-22T08:06:27Z</time>
      </trkpt>
      <trkpt lat="49.02584" lon="1.84903">
        <ele>72.1</ele>
        <time>2022-09-22T08:06:34Z</time>
      </trkpt>
      <trkpt lat="49.02589" lon="1.849">
        <ele>71.7</ele>
        <time>2022-09-22T08:06:41Z</time>
      </trkpt>
      <trkpt lat="49.02592" lon="1.84905">
        <ele>72.6</ele>
        <time>2022-09-22T08:06:57Z</time>
      </trkpt>
      <trkpt lat="49.02593" lon="1.84912">
        <ele>72.6</ele>
        <time>2022-09-22T08:07:02Z</time>
      </trkpt>
      <trkpt lat="49.02588" lon="1.84913">
        <ele>72.9</ele>
        <time>2022-09-22T08:07:30Z</time>
      </trkpt>
      <trkpt lat="49.02583" lon="1.84913">
        <ele>72.8</ele>
        <time>2022-09-22T08:07:35Z</time>
      </trkpt>
      <trkpt lat="49.02578" lon="1.84913">
        <ele>72.8</ele>
        <time>2022-09-22T08:07:38Z</time>
      </trkpt>
      <trkpt lat="49.02573" lon="1.84912">
        <ele>72.9</ele>
        <time>2022-09-22T08:07:41Z</time>
      </trkpt>
      <trkpt lat="49.02568" lon="1.84918">
        <ele>73.2</ele>
        <time>2022-09-22T08:07:47Z</time>
      </trkpt>
      <trkpt lat="49.02566" lon="1.84926">
        <ele>73.5</ele>
        <time>2022-09-22T08:07:51Z</time>
      </trkpt>
      <trkpt lat="49.02567" lon="1.84934">
        <ele>73.9</ele>
        <time>2022-09-22T08:07:55Z</time>
      </trkpt>
      <trkpt lat="49.02568" lon="1.84941">
        <ele>75.7</ele>
        <time>2022-09-22T08:07:59Z</time>
      </trkpt>
      <trkpt lat="49.02568" lon="1.84949">
        <ele>75.6</ele>
        <time>2022-09-22T08:08:03Z</time>
      </trkpt>
      <trkpt lat="49.02566" lon="1.84956">
        <ele>74.1</ele>
        <time>2022-09-22T08:08:09Z</time>
      </trkpt>
      <trkpt lat="49.0256" lon="1.84958">
        <ele>73.8</ele>
        <time>2022-09-22T08:08:13Z</time>
      </trkpt>
      <trkpt lat="49.02556" lon="1.84957">
        <ele>74</ele>
        <time>2022-09-22T08:08:17Z</time>
      </trkpt>
      <trkpt lat="49.0255" lon="1.84957">
        <ele>73.8</ele>
        <time>2022-09-22T08:08:21Z</time>
      </trkpt>
      <trkpt lat="49.02546" lon="1.84958">
        <ele>71.5</ele>
        <time>2022-09-22T08:08:25Z</time>
      </trkpt>
      <trkpt lat="49.02541" lon="1.84963">
        <ele>70.9</ele>
        <time>2022-09-22T08:08:29Z</time>
      </trkpt>
      <trkpt lat="49.02539" lon="1.8497">
        <ele>70.3</ele>
        <time>2022-09-22T08:08:32Z</time>
      </trkpt>
      <trkpt lat="49.02537" lon="1.84979">
        <ele>69.6</ele>
        <time>2022-09-22T08:08:36Z</time>
      </trkpt>
      <trkpt lat="49.02536" lon="1.84989">
        <ele>69.5</ele>
        <time>2022-09-22T08:08:41Z</time>
      </trkpt>
      <trkpt lat="49.02536" lon="1.84998">
        <ele>69.2</ele>
        <time>2022-09-22T08:08:45Z</time>
      </trkpt>
      <trkpt lat="49.02536" lon="1.85006">
        <ele>69.3</ele>
        <time>2022-09-22T08:08:49Z</time>
      </trkpt>
      <trkpt lat="49.02537" lon="1.85015">
        <ele>69.2</ele>
        <time>2022-09-22T08:08:54Z</time>
      </trkpt>
      <trkpt lat="49.02542" lon="1.85017">
        <ele>69.4</ele>
        <time>2022-09-22T08:08:58Z</time>
      </trkpt>
      <trkpt lat="49.02547" lon="1.8502">
        <ele>69.7</ele>
        <time>2022-09-22T08:09:04Z</time>
      </trkpt>
      <trkpt lat="49.02547" lon="1.85027">
        <ele>69.8</ele>
        <time>2022-09-22T08:09:07Z</time>
      </trkpt>
      <trkpt lat="49.02547" lon="1.85034">
        <ele>69.5</ele>
        <time>2022-09-22T08:09:10Z</time>
      </trkpt>
      <trkpt lat="49.02552" lon="1.85037">
        <ele>69</ele>
        <time>2022-09-22T08:09:16Z</time>
      </trkpt>
      <trkpt lat="49.02558" lon="1.85037">
        <ele>69.1</ele>
        <time>2022-09-22T08:09:21Z</time>
      </trkpt>
      <trkpt lat="49.02561" lon="1.85042">
        <ele>68.5</ele>
        <time>2022-09-22T08:09:25Z</time>
      </trkpt>
      <trkpt lat="49.02563" lon="1.85051">
        <ele>68.7</ele>
        <time>2022-09-22T08:09:29Z</time>
      </trkpt>
      <trkpt lat="49.02566" lon="1.85058">
        <ele>67.4</ele>
        <time>2022-09-22T08:09:33Z</time>
      </trkpt>
      <trkpt lat="49.0257" lon="1.85062">
        <ele>66.9</ele>
        <time>2022-09-22T08:09:37Z</time>
      </trkpt>
      <trkpt lat="49.02574" lon="1.85065">
        <ele>65.5</ele>
        <time>2022-09-22T08:09:42Z</time>
      </trkpt>
      <trkpt lat="49.0258" lon="1.85065">
        <ele>64.7</ele>
        <time>2022-09-22T08:09:47Z</time>
      </trkpt>
      <trkpt lat="49.02585" lon="1.85066">
        <ele>64.5</ele>
        <time>2022-09-22T08:09:51Z</time>
      </trkpt>
      <trkpt lat="49.02591" lon="1.85065">
        <ele>64.5</ele>
        <time>2022-09-22T08:09:55Z</time>
      </trkpt>
      <trkpt lat="49.02589" lon="1.85059">
        <ele>64.3</ele>
        <time>2022-09-22T08:10:04Z</time>
      </trkpt>
      <trkpt lat="49.02595" lon="1.85059">
        <ele>64.1</ele>
        <time>2022-09-22T08:10:29Z</time>
      </trkpt>
      <trkpt lat="49.026" lon="1.85059">
        <ele>63.7</ele>
        <time>2022-09-22T08:10:32Z</time>
      </trkpt>
      <trkpt lat="49.02604" lon="1.85062">
        <ele>63.7</ele>
        <time>2022-09-22T08:10:35Z</time>
      </trkpt>
      <trkpt lat="49.02608" lon="1.85066">
        <ele>63.3</ele>
        <time>2022-09-22T08:10:40Z</time>
      </trkpt>
      <trkpt lat="49.02613" lon="1.8507">
        <ele>62.5</ele>
        <time>2022-09-22T08:10:46Z</time>
      </trkpt>
      <trkpt lat="49.02616" lon="1.85076">
        <ele>61.7</ele>
        <time>2022-09-22T08:10:50Z</time>
      </trkpt>
      <trkpt lat="49.02621" lon="1.85079">
        <ele>61.1</ele>
        <time>2022-09-22T08:10:54Z</time>
      </trkpt>
      <trkpt lat="49.02626" lon="1.85082">
        <ele>60.5</ele>
        <time>2022-09-22T08:10:58Z</time>
      </trkpt>
      <trkpt lat="49.02631" lon="1.85084">
        <ele>60.3</ele>
        <time>2022-09-22T08:11:02Z</time>
      </trkpt>
      <trkpt lat="49.02636" lon="1.85085">
        <ele>59.4</ele>
        <time>2022-09-22T08:11:10Z</time>
      </trkpt>
      <trkpt lat="49.0264" lon="1.85091">
        <ele>58.8</ele>
        <time>2022-09-22T08:11:14Z</time>
      </trkpt>
      <trkpt lat="49.02644" lon="1.85093">
        <ele>58.3</ele>
        <time>2022-09-22T08:11:18Z</time>
      </trkpt>
      <trkpt lat="49.0265" lon="1.85095">
        <ele>58.2</ele>
        <time>2022-09-22T08:11:22Z</time>
      </trkpt>
      <trkpt lat="49.02655" lon="1.85097">
        <ele>57.9</ele>
        <time>2022-09-22T08:11:26Z</time>
      </trkpt>
      <trkpt lat="49.0266" lon="1.851">
        <ele>57.9</ele>
        <time>2022-09-22T08:11:30Z</time>
      </trkpt>
      <trkpt lat="49.02666" lon="1.85103">
        <ele>57.9</ele>
        <time>2022-09-22T08:11:35Z</time>
      </trkpt>
      <trkpt lat="49.02671" lon="1.85108">
        <ele>58</ele>
        <time>2022-09-22T08:11:39Z</time>
      </trkpt>
      <trkpt lat="49.02675" lon="1.85113">
        <ele>58.1</ele>
        <time>2022-09-22T08:11:43Z</time>
      </trkpt>
      <trkpt lat="49.02679" lon="1.85117">
        <ele>58</ele>
        <time>2022-09-22T08:11:55Z</time>
      </trkpt>
      <trkpt lat="49.02681" lon="1.85124">
        <ele>58</ele>
        <time>2022-09-22T08:12:00Z</time>
      </trkpt>
      <trkpt lat="49.02686" lon="1.85129">
        <ele>58.2</ele>
        <time>2022-09-22T08:12:06Z</time>
      </trkpt>
      <trkpt lat="49.02689" lon="1.85133">
        <ele>58.1</ele>
        <time>2022-09-22T08:12:09Z</time>
      </trkpt>
      <trkpt lat="49.02693" lon="1.85139">
        <ele>58</ele>
        <time>2022-09-22T08:12:13Z</time>
      </trkpt>
      <trkpt lat="49.02696" lon="1.85144">
        <ele>58.2</ele>
        <time>2022-09-22T08:12:17Z</time>
      </trkpt>
      <trkpt lat="49.02699" lon="1.8515">
        <ele>57.9</ele>
        <time>2022-09-22T08:12:21Z</time>
      </trkpt>
      <trkpt lat="49.02703" lon="1.85157">
        <ele>57.1</ele>
        <time>2022-09-22T08:12:26Z</time>
      </trkpt>
      <trkpt lat="49.02706" lon="1.85164">
        <ele>56.2</ele>
        <time>2022-09-22T08:12:30Z</time>
      </trkpt>
      <trkpt lat="49.0271" lon="1.85171">
        <ele>56.2</ele>
        <time>2022-09-22T08:12:35Z</time>
      </trkpt>
      <trkpt lat="49.02714" lon="1.85178">
        <ele>54.6</ele>
        <time>2022-09-22T08:12:39Z</time>
      </trkpt>
      <trkpt lat="49.02717" lon="1.85185">
        <ele>54</ele>
        <time>2022-09-22T08:12:43Z</time>
      </trkpt>
      <trkpt lat="49.0272" lon="1.85191">
        <ele>53.3</ele>
        <time>2022-09-22T08:12:47Z</time>
      </trkpt>
      <trkpt lat="49.02723" lon="1.85197">
        <ele>53.3</ele>
        <time>2022-09-22T08:12:52Z</time>
      </trkpt>
      <trkpt lat="49.02726" lon="1.85203">
        <ele>52.7</ele>
        <time>2022-09-22T08:12:55Z</time>
      </trkpt>
      <trkpt lat="49.02729" lon="1.8521">
        <ele>51.7</ele>
        <time>2022-09-22T08:12:59Z</time>
      </trkpt>
      <trkpt lat="49.02732" lon="1.85217">
        <ele>51.5</ele>
        <time>2022-09-22T08:13:04Z</time>
      </trkpt>
      <trkpt lat="49.02735" lon="1.85225">
        <ele>50.8</ele>
        <time>2022-09-22T08:13:09Z</time>
      </trkpt>
      <trkpt lat="49.02738" lon="1.8523">
        <ele>50.3</ele>
        <time>2022-09-22T08:13:12Z</time>
      </trkpt>
      <trkpt lat="49.0274" lon="1.85238">
        <ele>50.1</ele>
        <time>2022-09-22T08:13:16Z</time>
      </trkpt>
      <trkpt lat="49.02742" lon="1.85246">
        <ele>49.9</ele>
        <time>2022-09-22T08:13:20Z</time>
      </trkpt>
      <trkpt lat="49.02742" lon="1.85253">
        <ele>49.5</ele>
        <time>2022-09-22T08:13:24Z</time>
      </trkpt>
      <trkpt lat="49.0274" lon="1.85262">
        <ele>49.6</ele>
        <time>2022-09-22T08:13:29Z</time>
      </trkpt>
      <trkpt lat="49.0274" lon="1.85271">
        <ele>49.2</ele>
        <time>2022-09-22T08:13:33Z</time>
      </trkpt>
      <trkpt lat="49.02741" lon="1.85279">
        <ele>48.7</ele>
        <time>2022-09-22T08:13:38Z</time>
      </trkpt>
      <trkpt lat="49.02744" lon="1.85285">
        <ele>47.9</ele>
        <time>2022-09-22T08:13:41Z</time>
      </trkpt>
      <trkpt lat="49.02748" lon="1.85291">
        <ele>47.6</ele>
        <time>2022-09-22T08:13:45Z</time>
      </trkpt>
      <trkpt lat="49.02751" lon="1.85296">
        <ele>46.3</ele>
        <time>2022-09-22T08:13:49Z</time>
      </trkpt>
      <trkpt lat="49.02754" lon="1.85301">
        <ele>45</ele>
        <time>2022-09-22T08:13:52Z</time>
      </trkpt>
      <trkpt lat="49.02757" lon="1.85307">
        <ele>45</ele>
        <time>2022-09-22T08:13:55Z</time>
      </trkpt>
      <trkpt lat="49.02761" lon="1.85314">
        <ele>43.6</ele>
        <time>2022-09-22T08:14:00Z</time>
      </trkpt>
      <trkpt lat="49.02764" lon="1.85319">
        <ele>43.1</ele>
        <time>2022-09-22T08:14:03Z</time>
      </trkpt>
      <trkpt lat="49.02768" lon="1.85325">
        <ele>43</ele>
        <time>2022-09-22T08:14:07Z</time>
      </trkpt>
      <trkpt lat="49.02772" lon="1.85332">
        <ele>42.5</ele>
        <time>2022-09-22T08:14:11Z</time>
      </trkpt>
      <trkpt lat="49.02775" lon="1.85338">
        <ele>41.9</ele>
        <time>2022-09-22T08:14:15Z</time>
      </trkpt>
      <trkpt lat="49.02778" lon="1.85344">
        <ele>41.9</ele>
        <time>2022-09-22T08:14:19Z</time>
      </trkpt>
      <trkpt lat="49.02781" lon="1.8535">
        <ele>41.8</ele>
        <time>2022-09-22T08:14:23Z</time>
      </trkpt>
      <trkpt lat="49.02786" lon="1.85344">
        <ele>41.9</ele>
        <time>2022-09-22T08:14:28Z</time>
      </trkpt>
      <trkpt lat="49.0279" lon="1.85337">
        <ele>41.9</ele>
        <time>2022-09-22T08:14:32Z</time>
      </trkpt>
      <trkpt lat="49.02794" lon="1.85332">
        <ele>42</ele>
        <time>2022-09-22T08:14:36Z</time>
      </trkpt>
      <trkpt lat="49.02798" lon="1.85328">
        <ele>42</ele>
        <time>2022-09-22T08:14:40Z</time>
      </trkpt>
      <trkpt lat="49.02802" lon="1.85324">
        <ele>41.9</ele>
        <time>2022-09-22T08:14:43Z</time>
      </trkpt>
      <trkpt lat="49.02806" lon="1.85318">
        <ele>41.9</ele>
        <time>2022-09-22T08:14:47Z</time>
      </trkpt>
      <trkpt lat="49.0281" lon="1.85314">
        <ele>41.9</ele>
        <time>2022-09-22T08:14:51Z</time>
      </trkpt>
      <trkpt lat="49.02813" lon="1.85309">
        <ele>41.8</ele>
        <time>2022-09-22T08:14:54Z</time>
      </trkpt>
      <trkpt lat="49.02816" lon="1.85304">
        <ele>41.9</ele>
        <time>2022-09-22T08:14:58Z</time>
      </trkpt>
      <trkpt lat="49.0282" lon="1.85297">
        <ele>42</ele>
        <time>2022-09-22T08:15:02Z</time>
      </trkpt>
      <trkpt lat="49.02824" lon="1.85291">
        <ele>41.9</ele>
        <time>2022-09-22T08:15:07Z</time>
      </trkpt>
      <trkpt lat="49.02828" lon="1.85284">
        <ele>41.9</ele>
        <time>2022-09-22T08:15:11Z</time>
      </trkpt>
      <trkpt lat="49.02831" lon="1.85279">
        <ele>41.9</ele>
        <time>2022-09-22T08:15:15Z</time>
      </trkpt>
      <trkpt lat="49.02834" lon="1.85273">
        <ele>41.7</ele>
        <time>2022-09-22T08:15:19Z</time>
      </trkpt>
      <trkpt lat="49.02837" lon="1.85267">
        <ele>41.6</ele>
        <time>2022-09-22T08:15:23Z</time>
      </trkpt>
      <trkpt lat="49.02841" lon="1.85263">
        <ele>41.5</ele>
        <time>2022-09-22T08:15:28Z</time>
      </trkpt>
      <trkpt lat="49.02844" lon="1.85256">
        <ele>41.7</ele>
        <time>2022-09-22T08:15:33Z</time>
      </trkpt>
      <trkpt lat="49.02846" lon="1.85248">
        <ele>41.6</ele>
        <time>2022-09-22T08:15:38Z</time>
      </trkpt>
      <trkpt lat="49.02849" lon="1.85242">
        <ele>41.4</ele>
        <time>2022-09-22T08:15:42Z</time>
      </trkpt>
      <trkpt lat="49.02855" lon="1.85241">
        <ele>41.1</ele>
        <time>2022-09-22T08:15:47Z</time>
      </trkpt>
      <trkpt lat="49.02859" lon="1.85247">
        <ele>40.9</ele>
        <time>2022-09-22T08:16:14Z</time>
      </trkpt>
      <trkpt lat="49.02865" lon="1.85248">
        <ele>40.6</ele>
        <time>2022-09-22T08:16:19Z</time>
      </trkpt>
      <trkpt lat="49.02866" lon="1.85254">
        <ele>40</ele>
        <time>2022-09-22T08:16:23Z</time>
      </trkpt>
      <trkpt lat="49.02868" lon="1.85262">
        <ele>39.5</ele>
        <time>2022-09-22T08:16:26Z</time>
      </trkpt>
      <trkpt lat="49.02872" lon="1.85269">
        <ele>39.5</ele>
        <time>2022-09-22T08:16:31Z</time>
      </trkpt>
      <trkpt lat="49.02875" lon="1.85275">
        <ele>39.2</ele>
        <time>2022-09-22T08:16:35Z</time>
      </trkpt>
      <trkpt lat="49.02879" lon="1.85279">
        <ele>38.9</ele>
        <time>2022-09-22T08:16:40Z</time>
      </trkpt>
      <trkpt lat="49.02883" lon="1.85286">
        <ele>38.4</ele>
        <time>2022-09-22T08:16:44Z</time>
      </trkpt>
      <trkpt lat="49.02887" lon="1.85291">
        <ele>38.1</ele>
        <time>2022-09-22T08:16:49Z</time>
      </trkpt>
      <trkpt lat="49.02891" lon="1.85297">
        <ele>37.6</ele>
        <time>2022-09-22T08:16:52Z</time>
      </trkpt>
      <trkpt lat="49.02894" lon="1.85303">
        <ele>37.5</ele>
        <time>2022-09-22T08:16:56Z</time>
      </trkpt>
      <trkpt lat="49.02896" lon="1.85309">
        <ele>37</ele>
        <time>2022-09-22T08:17:00Z</time>
      </trkpt>
      <trkpt lat="49.02899" lon="1.85318">
        <ele>36.7</ele>
        <time>2022-09-22T08:17:04Z</time>
      </trkpt>
      <trkpt lat="49.029" lon="1.85327">
        <ele>36.4</ele>
        <time>2022-09-22T08:17:09Z</time>
      </trkpt>
      <trkpt lat="49.02902" lon="1.85333">
        <ele>36.1</ele>
        <time>2022-09-22T08:17:13Z</time>
      </trkpt>
      <trkpt lat="49.02907" lon="1.85329">
        <ele>36</ele>
        <time>2022-09-22T08:17:17Z</time>
      </trkpt>
      <trkpt lat="49.02911" lon="1.85323">
        <ele>35.8</ele>
        <time>2022-09-22T08:17:20Z</time>
      </trkpt>
      <trkpt lat="49.02916" lon="1.8532">
        <ele>35.9</ele>
        <time>2022-09-22T08:17:25Z</time>
      </trkpt>
      <trkpt lat="49.0292" lon="1.85323">
        <ele>35.6</ele>
        <time>2022-09-22T08:17:29Z</time>
      </trkpt>
      <trkpt lat="49.02925" lon="1.85327">
        <ele>35.3</ele>
        <time>2022-09-22T08:17:33Z</time>
      </trkpt>
      <trkpt lat="49.02929" lon="1.85331">
        <ele>34.9</ele>
        <time>2022-09-22T08:17:37Z</time>
      </trkpt>
      <trkpt lat="49.02934" lon="1.85335">
        <ele>33.6</ele>
        <time>2022-09-22T08:17:42Z</time>
      </trkpt>
      <trkpt lat="49.02938" lon="1.85341">
        <ele>33.3</ele>
        <time>2022-09-22T08:17:46Z</time>
      </trkpt>
      <trkpt lat="49.02941" lon="1.85346">
        <ele>33.1</ele>
        <time>2022-09-22T08:17:50Z</time>
      </trkpt>
      <trkpt lat="49.02946" lon="1.85351">
        <ele>32.1</ele>
        <time>2022-09-22T08:17:54Z</time>
      </trkpt>
      <trkpt lat="49.02949" lon="1.85356">
        <ele>32.4</ele>
        <time>2022-09-22T08:17:57Z</time>
      </trkpt>
      <trkpt lat="49.02954" lon="1.85361">
        <ele>32.4</ele>
        <time>2022-09-22T08:18:01Z</time>
      </trkpt>
      <trkpt lat="49.02958" lon="1.85365">
        <ele>32.7</ele>
        <time>2022-09-22T08:18:05Z</time>
      </trkpt>
      <trkpt lat="49.02962" lon="1.85371">
        <ele>33.3</ele>
        <time>2022-09-22T08:18:10Z</time>
      </trkpt>
      <trkpt lat="49.02965" lon="1.85377">
        <ele>34.1</ele>
        <time>2022-09-22T08:18:13Z</time>
      </trkpt>
      <trkpt lat="49.02969" lon="1.85383">
        <ele>35</ele>
        <time>2022-09-22T08:18:17Z</time>
      </trkpt>
      <trkpt lat="49.02972" lon="1.85388">
        <ele>38.3</ele>
        <time>2022-09-22T08:18:21Z</time>
      </trkpt>
      <trkpt lat="49.02976" lon="1.85394">
        <ele>38.9</ele>
        <time>2022-09-22T08:18:26Z</time>
      </trkpt>
      <trkpt lat="49.02979" lon="1.85401">
        <ele>39.2</ele>
        <time>2022-09-22T08:18:30Z</time>
      </trkpt>
      <trkpt lat="49.02982" lon="1.85407">
        <ele>40.6</ele>
        <time>2022-09-22T08:18:34Z</time>
      </trkpt>
      <trkpt lat="49.02985" lon="1.85413">
        <ele>40.7</ele>
        <time>2022-09-22T08:18:38Z</time>
      </trkpt>
      <trkpt lat="49.02988" lon="1.8542">
        <ele>41.2</ele>
        <time>2022-09-22T08:18:43Z</time>
      </trkpt>
      <trkpt lat="49.02991" lon="1.85426">
        <ele>41.2</ele>
        <time>2022-09-22T08:18:47Z</time>
      </trkpt>
      <trkpt lat="49.02994" lon="1.85433">
        <ele>41.2</ele>
        <time>2022-09-22T08:18:52Z</time>
      </trkpt>
      <trkpt lat="49.02997" lon="1.85439">
        <ele>41.3</ele>
        <time>2022-09-22T08:18:57Z</time>
      </trkpt>
      <trkpt lat="49.03" lon="1.85445">
        <ele>41.6</ele>
        <time>2022-09-22T08:19:01Z</time>
      </trkpt>
      <trkpt lat="49.03002" lon="1.85451">
        <ele>41.4</ele>
        <time>2022-09-22T08:19:05Z</time>
      </trkpt>
      <trkpt lat="49.03003" lon="1.85459">
        <ele>41.8</ele>
        <time>2022-09-22T08:19:09Z</time>
      </trkpt>
      <trkpt lat="49.03005" lon="1.85466">
        <ele>42.3</ele>
        <time>2022-09-22T08:19:13Z</time>
      </trkpt>
      <trkpt lat="49.03006" lon="1.85473">
        <ele>43</ele>
        <time>2022-09-22T08:19:18Z</time>
      </trkpt>
      <trkpt lat="49.03006" lon="1.8548">
        <ele>43.3</ele>
        <time>2022-09-22T08:19:21Z</time>
      </trkpt>
      <trkpt lat="49.03007" lon="1.85489">
        <ele>44</ele>
        <time>2022-09-22T08:19:25Z</time>
      </trkpt>
      <trkpt lat="49.0301" lon="1.85497">
        <ele>44.8</ele>
        <time>2022-09-22T08:19:32Z</time>
      </trkpt>
      <trkpt lat="49.03013" lon="1.85503">
        <ele>45.6</ele>
        <time>2022-09-22T08:19:35Z</time>
      </trkpt>
      <trkpt lat="49.03017" lon="1.85509">
        <ele>47</ele>
        <time>2022-09-22T08:19:40Z</time>
      </trkpt>
      <trkpt lat="49.03021" lon="1.85514">
        <ele>47</ele>
        <time>2022-09-22T08:19:44Z</time>
      </trkpt>
      <trkpt lat="49.03025" lon="1.85517">
        <ele>49.5</ele>
        <time>2022-09-22T08:19:49Z</time>
      </trkpt>
      <trkpt lat="49.03029" lon="1.85524">
        <ele>50</ele>
        <time>2022-09-22T08:19:54Z</time>
      </trkpt>
      <trkpt lat="49.03034" lon="1.85528">
        <ele>51.5</ele>
        <time>2022-09-22T08:19:58Z</time>
      </trkpt>
      <trkpt lat="49.03038" lon="1.85532">
        <ele>52.1</ele>
        <time>2022-09-22T08:20:03Z</time>
      </trkpt>
      <trkpt lat="49.03043" lon="1.85531">
        <ele>51.7</ele>
        <time>2022-09-22T08:20:10Z</time>
      </trkpt>
      <trkpt lat="49.03047" lon="1.85535">
        <ele>51.5</ele>
        <time>2022-09-22T08:20:16Z</time>
      </trkpt>
      <trkpt lat="49.0305" lon="1.8554">
        <ele>51.3</ele>
        <time>2022-09-22T08:20:22Z</time>
      </trkpt>
      <trkpt lat="49.03054" lon="1.85543">
        <ele>51.3</ele>
        <time>2022-09-22T08:20:27Z</time>
      </trkpt>
      <trkpt lat="49.03059" lon="1.85545">
        <ele>51</ele>
        <time>2022-09-22T08:20:32Z</time>
      </trkpt>
      <trkpt lat="49.03064" lon="1.85548">
        <ele>51</ele>
        <time>2022-09-22T08:20:38Z</time>
      </trkpt>
      <trkpt lat="49.03068" lon="1.85552">
        <ele>51.5</ele>
        <time>2022-09-22T08:20:43Z</time>
      </trkpt>
      <trkpt lat="49.03072" lon="1.85556">
        <ele>51.8</ele>
        <time>2022-09-22T08:20:47Z</time>
      </trkpt>
      <trkpt lat="49.03076" lon="1.85559">
        <ele>52.2</ele>
        <time>2022-09-22T08:20:53Z</time>
      </trkpt>
      <trkpt lat="49.03081" lon="1.85562">
        <ele>52.6</ele>
        <time>2022-09-22T08:21:00Z</time>
      </trkpt>
      <trkpt lat="49.03086" lon="1.85566">
        <ele>53.6</ele>
        <time>2022-09-22T08:21:08Z</time>
      </trkpt>
      <trkpt lat="49.0309" lon="1.85569">
        <ele>56.9</ele>
        <time>2022-09-22T08:21:16Z</time>
      </trkpt>
      <trkpt lat="49.03094" lon="1.85573">
        <ele>58.4</ele>
        <time>2022-09-22T08:21:21Z</time>
      </trkpt>
      <trkpt lat="49.03098" lon="1.85579">
        <ele>58.6</ele>
        <time>2022-09-22T08:21:26Z</time>
      </trkpt>
      <trkpt lat="49.03099" lon="1.85586">
        <ele>59</ele>
        <time>2022-09-22T08:21:31Z</time>
      </trkpt>
      <trkpt lat="49.03103" lon="1.85591">
        <ele>60</ele>
        <time>2022-09-22T08:21:37Z</time>
      </trkpt>
      <trkpt lat="49.03107" lon="1.85597">
        <ele>60.9</ele>
        <time>2022-09-22T08:21:42Z</time>
      </trkpt>
      <trkpt lat="49.0311" lon="1.85602">
        <ele>61.5</ele>
        <time>2022-09-22T08:21:47Z</time>
      </trkpt>
      <trkpt lat="49.03113" lon="1.85608">
        <ele>61.6</ele>
        <time>2022-09-22T08:21:53Z</time>
      </trkpt>
      <trkpt lat="49.03118" lon="1.85611">
        <ele>62.4</ele>
        <time>2022-09-22T08:21:58Z</time>
      </trkpt>
      <trkpt lat="49.03122" lon="1.85615">
        <ele>63.2</ele>
        <time>2022-09-22T08:22:03Z</time>
      </trkpt>
      <trkpt lat="49.03127" lon="1.85618">
        <ele>64.9</ele>
        <time>2022-09-22T08:22:08Z</time>
      </trkpt>
      <trkpt lat="49.03131" lon="1.85621">
        <ele>66.6</ele>
        <time>2022-09-22T08:22:13Z</time>
      </trkpt>
      <trkpt lat="49.03136" lon="1.85624">
        <ele>67.5</ele>
        <time>2022-09-22T08:22:19Z</time>
      </trkpt>
      <trkpt lat="49.03141" lon="1.85626">
        <ele>67.7</ele>
        <time>2022-09-22T08:22:25Z</time>
      </trkpt>
      <trkpt lat="49.03146" lon="1.85628">
        <ele>67.7</ele>
        <time>2022-09-22T08:22:30Z</time>
      </trkpt>
      <trkpt lat="49.03151" lon="1.85632">
        <ele>68.4</ele>
        <time>2022-09-22T08:22:36Z</time>
      </trkpt>
      <trkpt lat="49.03155" lon="1.85636">
        <ele>68.8</ele>
        <time>2022-09-22T08:22:41Z</time>
      </trkpt>
      <trkpt lat="49.0316" lon="1.85639">
        <ele>69.4</ele>
        <time>2022-09-22T08:22:47Z</time>
      </trkpt>
      <trkpt lat="49.03165" lon="1.85639">
        <ele>69.8</ele>
        <time>2022-09-22T08:22:52Z</time>
      </trkpt>
      <trkpt lat="49.0317" lon="1.8564">
        <ele>70.6</ele>
        <time>2022-09-22T08:22:57Z</time>
      </trkpt>
      <trkpt lat="49.03175" lon="1.85641">
        <ele>71.7</ele>
        <time>2022-09-22T08:23:01Z</time>
      </trkpt>
      <trkpt lat="49.0318" lon="1.85643">
        <ele>72.3</ele>
        <time>2022-09-22T08:23:05Z</time>
      </trkpt>
      <trkpt lat="49.03184" lon="1.85646">
        <ele>73.3</ele>
        <time>2022-09-22T08:23:08Z</time>
      </trkpt>
      <trkpt lat="49.03189" lon="1.85649">
        <ele>73.7</ele>
        <time>2022-09-22T08:23:13Z</time>
      </trkpt>
      <trkpt lat="49.03195" lon="1.8565">
        <ele>73.7</ele>
        <time>2022-09-22T08:23:17Z</time>
      </trkpt>
      <trkpt lat="49.032" lon="1.85651">
        <ele>74.8</ele>
        <time>2022-09-22T08:23:21Z</time>
      </trkpt>
      <trkpt lat="49.03205" lon="1.85653">
        <ele>75.8</ele>
        <time>2022-09-22T08:23:25Z</time>
      </trkpt>
      <trkpt lat="49.0321" lon="1.85654">
        <ele>76.3</ele>
        <time>2022-09-22T08:23:29Z</time>
      </trkpt>
      <trkpt lat="49.03216" lon="1.85657">
        <ele>76</ele>
        <time>2022-09-22T08:23:33Z</time>
      </trkpt>
      <trkpt lat="49.0322" lon="1.85659">
        <ele>76.2</ele>
        <time>2022-09-22T08:23:37Z</time>
      </trkpt>
      <trkpt lat="49.03225" lon="1.85661">
        <ele>75.9</ele>
        <time>2022-09-22T08:23:41Z</time>
      </trkpt>
      <trkpt lat="49.0323" lon="1.85663">
        <ele>76.2</ele>
        <time>2022-09-22T08:23:46Z</time>
      </trkpt>
      <trkpt lat="49.03235" lon="1.85665">
        <ele>77.1</ele>
        <time>2022-09-22T08:23:50Z</time>
      </trkpt>
      <trkpt lat="49.0324" lon="1.85665">
        <ele>77.7</ele>
        <time>2022-09-22T08:23:55Z</time>
      </trkpt>
      <trkpt lat="49.03241" lon="1.85657">
        <ele>77.9</ele>
        <time>2022-09-22T08:24:07Z</time>
      </trkpt>
      <trkpt lat="49.03241" lon="1.85649">
        <ele>77.8</ele>
        <time>2022-09-22T08:24:12Z</time>
      </trkpt>
      <trkpt lat="49.03238" lon="1.85643">
        <ele>78.3</ele>
        <time>2022-09-22T08:24:16Z</time>
      </trkpt>
      <trkpt lat="49.03237" lon="1.85636">
        <ele>78.8</ele>
        <time>2022-09-22T08:24:20Z</time>
      </trkpt>
      <trkpt lat="49.03238" lon="1.8563">
        <ele>79.9</ele>
        <time>2022-09-22T08:24:24Z</time>
      </trkpt>
      <trkpt lat="49.03239" lon="1.85622">
        <ele>80.1</ele>
        <time>2022-09-22T08:24:29Z</time>
      </trkpt>
      <trkpt lat="49.0324" lon="1.85615">
        <ele>80.5</ele>
        <time>2022-09-22T08:24:33Z</time>
      </trkpt>
      <trkpt lat="49.03241" lon="1.85607">
        <ele>80.6</ele>
        <time>2022-09-22T08:24:38Z</time>
      </trkpt>
      <trkpt lat="49.03241" lon="1.85599">
        <ele>80.4</ele>
        <time>2022-09-22T08:24:43Z</time>
      </trkpt>
      <trkpt lat="49.03241" lon="1.85592">
        <ele>80.3</ele>
        <time>2022-09-22T08:24:48Z</time>
      </trkpt>
      <trkpt lat="49.03242" lon="1.85585">
        <ele>80</ele>
        <time>2022-09-22T08:24:53Z</time>
      </trkpt>
      <trkpt lat="49.03242" lon="1.85577">
        <ele>79.6</ele>
        <time>2022-09-22T08:24:57Z</time>
      </trkpt>
      <trkpt lat="49.03243" lon="1.8557">
        <ele>79.2</ele>
        <time>2022-09-22T08:25:01Z</time>
      </trkpt>
      <trkpt lat="49.03244" lon="1.85562">
        <ele>79.1</ele>
        <time>2022-09-22T08:25:06Z</time>
      </trkpt>
      <trkpt lat="49.03244" lon="1.85554">
        <ele>78.5</ele>
        <time>2022-09-22T08:25:11Z</time>
      </trkpt>
      <trkpt lat="49.03245" lon="1.85545">
        <ele>78</ele>
        <time>2022-09-22T08:25:16Z</time>
      </trkpt>
      <trkpt lat="49.03245" lon="1.85538">
        <ele>78</ele>
        <time>2022-09-22T08:25:21Z</time>
      </trkpt>
      <trkpt lat="49.03246" lon="1.85531">
        <ele>78.2</ele>
        <time>2022-09-22T08:25:24Z</time>
      </trkpt>
      <trkpt lat="49.03246" lon="1.85523">
        <ele>78.3</ele>
        <time>2022-09-22T08:25:27Z</time>
      </trkpt>
      <trkpt lat="49.03248" lon="1.85516">
        <ele>78.4</ele>
        <time>2022-09-22T08:25:31Z</time>
      </trkpt>
      <trkpt lat="49.03249" lon="1.85508">
        <ele>78.1</ele>
        <time>2022-09-22T08:25:35Z</time>
      </trkpt>
      <trkpt lat="49.03251" lon="1.855">
        <ele>78.5</ele>
        <time>2022-09-22T08:25:41Z</time>
      </trkpt>
      <trkpt lat="49.03253" lon="1.85492">
        <ele>78.9</ele>
        <time>2022-09-22T08:25:45Z</time>
      </trkpt>
      <trkpt lat="49.03254" lon="1.85485">
        <ele>79.6</ele>
        <time>2022-09-22T08:25:49Z</time>
      </trkpt>
      <trkpt lat="49.03256" lon="1.85478">
        <ele>79.3</ele>
        <time>2022-09-22T08:25:53Z</time>
      </trkpt>
      <trkpt lat="49.03258" lon="1.85471">
        <ele>80.4</ele>
        <time>2022-09-22T08:25:58Z</time>
      </trkpt>
      <trkpt lat="49.03259" lon="1.85463">
        <ele>80.7</ele>
        <time>2022-09-22T08:26:02Z</time>
      </trkpt>
      <trkpt lat="49.03261" lon="1.85457">
        <ele>81.2</ele>
        <time>2022-09-22T08:26:06Z</time>
      </trkpt>
      <trkpt lat="49.03263" lon="1.85449">
        <ele>81.3</ele>
        <time>2022-09-22T08:26:10Z</time>
      </trkpt>
      <trkpt lat="49.03265" lon="1.85439">
        <ele>81</ele>
        <time>2022-09-22T08:26:16Z</time>
      </trkpt>
      <trkpt lat="49.03267" lon="1.85432">
        <ele>80.9</ele>
        <time>2022-09-22T08:26:20Z</time>
      </trkpt>
      <trkpt lat="49.0327" lon="1.85425">
        <ele>80.9</ele>
        <time>2022-09-22T08:26:25Z</time>
      </trkpt>
      <trkpt lat="49.03274" lon="1.85422">
        <ele>80.7</ele>
        <time>2022-09-22T08:26:28Z</time>
      </trkpt>
      <trkpt lat="49.03279" lon="1.85416">
        <ele>80.4</ele>
        <time>2022-09-22T08:26:33Z</time>
      </trkpt>
      <trkpt lat="49.0328" lon="1.85409">
        <ele>80.5</ele>
        <time>2022-09-22T08:26:37Z</time>
      </trkpt>
      <trkpt lat="49.03282" lon="1.854">
        <ele>80.8</ele>
        <time>2022-09-22T08:26:42Z</time>
      </trkpt>
      <trkpt lat="49.03283" lon="1.85392">
        <ele>80.8</ele>
        <time>2022-09-22T08:26:46Z</time>
      </trkpt>
      <trkpt lat="49.03284" lon="1.85385">
        <ele>80.9</ele>
        <time>2022-09-22T08:26:50Z</time>
      </trkpt>
      <trkpt lat="49.03287" lon="1.85378">
        <ele>81.3</ele>
        <time>2022-09-22T08:26:54Z</time>
      </trkpt>
      <trkpt lat="49.03288" lon="1.85371">
        <ele>81.8</ele>
        <time>2022-09-22T08:26:58Z</time>
      </trkpt>
      <trkpt lat="49.0329" lon="1.85363">
        <ele>82.3</ele>
        <time>2022-09-22T08:27:02Z</time>
      </trkpt>
      <trkpt lat="49.03292" lon="1.85356">
        <ele>82.8</ele>
        <time>2022-09-22T08:27:06Z</time>
      </trkpt>
      <trkpt lat="49.03293" lon="1.85348">
        <ele>83.1</ele>
        <time>2022-09-22T08:27:10Z</time>
      </trkpt>
      <trkpt lat="49.03296" lon="1.85342">
        <ele>82.9</ele>
        <time>2022-09-22T08:27:14Z</time>
      </trkpt>
      <trkpt lat="49.03298" lon="1.85334">
        <ele>82.9</ele>
        <time>2022-09-22T08:27:19Z</time>
      </trkpt>
      <trkpt lat="49.03299" lon="1.85326">
        <ele>83</ele>
        <time>2022-09-22T08:27:23Z</time>
      </trkpt>
      <trkpt lat="49.03301" lon="1.85317">
        <ele>83.1</ele>
        <time>2022-09-22T08:27:28Z</time>
      </trkpt>
      <trkpt lat="49.03303" lon="1.85311">
        <ele>83.3</ele>
        <time>2022-09-22T08:27:31Z</time>
      </trkpt>
      <trkpt lat="49.03305" lon="1.85303">
        <ele>83.3</ele>
        <time>2022-09-22T08:27:35Z</time>
      </trkpt>
      <trkpt lat="49.03307" lon="1.85296">
        <ele>83.3</ele>
        <time>2022-09-22T08:27:39Z</time>
      </trkpt>
      <trkpt lat="49.03308" lon="1.85289">
        <ele>83.2</ele>
        <time>2022-09-22T08:27:43Z</time>
      </trkpt>
      <trkpt lat="49.0331" lon="1.85281">
        <ele>83.2</ele>
        <time>2022-09-22T08:27:47Z</time>
      </trkpt>
      <trkpt lat="49.03312" lon="1.85274">
        <ele>83.2</ele>
        <time>2022-09-22T08:27:51Z</time>
      </trkpt>
      <trkpt lat="49.03313" lon="1.85266">
        <ele>83.3</ele>
        <time>2022-09-22T08:27:56Z</time>
      </trkpt>
      <trkpt lat="49.03315" lon="1.85258">
        <ele>83.2</ele>
        <time>2022-09-22T08:28:00Z</time>
      </trkpt>
      <trkpt lat="49.03316" lon="1.85251">
        <ele>83.2</ele>
        <time>2022-09-22T08:28:04Z</time>
      </trkpt>
      <trkpt lat="49.03317" lon="1.85243">
        <ele>83</ele>
        <time>2022-09-22T08:28:08Z</time>
      </trkpt>
      <trkpt lat="49.03318" lon="1.85236">
        <ele>82.9</ele>
        <time>2022-09-22T08:28:12Z</time>
      </trkpt>
      <trkpt lat="49.03319" lon="1.85228">
        <ele>83</ele>
        <time>2022-09-22T08:28:16Z</time>
      </trkpt>
      <trkpt lat="49.0332" lon="1.85221">
        <ele>82.8</ele>
        <time>2022-09-22T08:28:20Z</time>
      </trkpt>
      <trkpt lat="49.0332" lon="1.85212">
        <ele>82.2</ele>
        <time>2022-09-22T08:28:25Z</time>
      </trkpt>
      <trkpt lat="49.0332" lon="1.85204">
        <ele>81.8</ele>
        <time>2022-09-22T08:28:29Z</time>
      </trkpt>
      <trkpt lat="49.0332" lon="1.85197">
        <ele>81.6</ele>
        <time>2022-09-22T08:28:33Z</time>
      </trkpt>
      <trkpt lat="49.03321" lon="1.85189">
        <ele>81.4</ele>
        <time>2022-09-22T08:28:37Z</time>
      </trkpt>
      <trkpt lat="49.03321" lon="1.85182">
        <ele>81.1</ele>
        <time>2022-09-22T08:28:41Z</time>
      </trkpt>
      <trkpt lat="49.0332" lon="1.85174">
        <ele>80.8</ele>
        <time>2022-09-22T08:28:45Z</time>
      </trkpt>
      <trkpt lat="49.0332" lon="1.85166">
        <ele>80.5</ele>
        <time>2022-09-22T08:28:50Z</time>
      </trkpt>
      <trkpt lat="49.0332" lon="1.85157">
        <ele>80.3</ele>
        <time>2022-09-22T08:28:54Z</time>
      </trkpt>
      <trkpt lat="49.0332" lon="1.8515">
        <ele>80.4</ele>
        <time>2022-09-22T08:28:58Z</time>
      </trkpt>
      <trkpt lat="49.0332" lon="1.85143">
        <ele>80.4</ele>
        <time>2022-09-22T08:29:02Z</time>
      </trkpt>
      <trkpt lat="49.03322" lon="1.85135">
        <ele>80.5</ele>
        <time>2022-09-22T08:29:06Z</time>
      </trkpt>
      <trkpt lat="49.03324" lon="1.85128">
        <ele>80.4</ele>
        <time>2022-09-22T08:29:11Z</time>
      </trkpt>
      <trkpt lat="49.03326" lon="1.8512">
        <ele>81.2</ele>
        <time>2022-09-22T08:29:15Z</time>
      </trkpt>
      <trkpt lat="49.03329" lon="1.85115">
        <ele>81.2</ele>
        <time>2022-09-22T08:29:18Z</time>
      </trkpt>
      <trkpt lat="49.03332" lon="1.85108">
        <ele>81.2</ele>
        <time>2022-09-22T08:29:22Z</time>
      </trkpt>
      <trkpt lat="49.03334" lon="1.85101">
        <ele>81.3</ele>
        <time>2022-09-22T08:29:27Z</time>
      </trkpt>
      <trkpt lat="49.03337" lon="1.85094">
        <ele>81.1</ele>
        <time>2022-09-22T08:29:32Z</time>
      </trkpt>
      <trkpt lat="49.03339" lon="1.85086">
        <ele>81.1</ele>
        <time>2022-09-22T08:29:37Z</time>
      </trkpt>
      <trkpt lat="49.03339" lon="1.85078">
        <ele>80.9</ele>
        <time>2022-09-22T08:29:41Z</time>
      </trkpt>
      <trkpt lat="49.0334" lon="1.85071">
        <ele>81.2</ele>
        <time>2022-09-22T08:29:45Z</time>
      </trkpt>
      <trkpt lat="49.03342" lon="1.85063">
        <ele>81</ele>
        <time>2022-09-22T08:29:49Z</time>
      </trkpt>
      <trkpt lat="49.03343" lon="1.85055">
        <ele>80.9</ele>
        <time>2022-09-22T08:29:53Z</time>
      </trkpt>
      <trkpt lat="49.03345" lon="1.85047">
        <ele>80.7</ele>
        <time>2022-09-22T08:29:57Z</time>
      </trkpt>
      <trkpt lat="49.03346" lon="1.85039">
        <ele>80.5</ele>
        <time>2022-09-22T08:30:01Z</time>
      </trkpt>
      <trkpt lat="49.03346" lon="1.85031">
        <ele>80.7</ele>
        <time>2022-09-22T08:30:05Z</time>
      </trkpt>
      <trkpt lat="49.03346" lon="1.85023">
        <ele>80.6</ele>
        <time>2022-09-22T08:30:09Z</time>
      </trkpt>
      <trkpt lat="49.03347" lon="1.85015">
        <ele>80.3</ele>
        <time>2022-09-22T08:30:14Z</time>
      </trkpt>
      <trkpt lat="49.03348" lon="1.85007">
        <ele>80.1</ele>
        <time>2022-09-22T08:30:18Z</time>
      </trkpt>
      <trkpt lat="49.03349" lon="1.84999">
        <ele>79.7</ele>
        <time>2022-09-22T08:30:23Z</time>
      </trkpt>
      <trkpt lat="49.03349" lon="1.84991">
        <ele>79.7</ele>
        <time>2022-09-22T08:30:27Z</time>
      </trkpt>
      <trkpt lat="49.0335" lon="1.84983">
        <ele>79.8</ele>
        <time>2022-09-22T08:30:31Z</time>
      </trkpt>
      <trkpt lat="49.03351" lon="1.84976">
        <ele>79.8</ele>
        <time>2022-09-22T08:30:35Z</time>
      </trkpt>
      <trkpt lat="49.03351" lon="1.84968">
        <ele>79.7</ele>
        <time>2022-09-22T08:30:39Z</time>
      </trkpt>
      <trkpt lat="49.03351" lon="1.8496">
        <ele>79.3</ele>
        <time>2022-09-22T08:30:44Z</time>
      </trkpt>
      <trkpt lat="49.03351" lon="1.84952">
        <ele>79.2</ele>
        <time>2022-09-22T08:30:48Z</time>
      </trkpt>
      <trkpt lat="49.03351" lon="1.84943">
        <ele>79.3</ele>
        <time>2022-09-22T08:30:52Z</time>
      </trkpt>
      <trkpt lat="49.03351" lon="1.84936">
        <ele>79.3</ele>
        <time>2022-09-22T08:30:56Z</time>
      </trkpt>
      <trkpt lat="49.0335" lon="1.84928">
        <ele>80</ele>
        <time>2022-09-22T08:31:01Z</time>
      </trkpt>
      <trkpt lat="49.03349" lon="1.84921">
        <ele>80.1</ele>
        <time>2022-09-22T08:31:05Z</time>
      </trkpt>
      <trkpt lat="49.03349" lon="1.84912">
        <ele>80.3</ele>
        <time>2022-09-22T08:31:10Z</time>
      </trkpt>
      <trkpt lat="49.03348" lon="1.84904">
        <ele>80.3</ele>
        <time>2022-09-22T08:31:14Z</time>
      </trkpt>
      <trkpt lat="49.03348" lon="1.84896">
        <ele>80.5</ele>
        <time>2022-09-22T08:31:18Z</time>
      </trkpt>
      <trkpt lat="49.03348" lon="1.84888">
        <ele>80.7</ele>
        <time>2022-09-22T08:31:22Z</time>
      </trkpt>
      <trkpt lat="49.03347" lon="1.8488">
        <ele>81.4</ele>
        <time>2022-09-22T08:31:26Z</time>
      </trkpt>
      <trkpt lat="49.03348" lon="1.84872">
        <ele>81.6</ele>
        <time>2022-09-22T08:31:31Z</time>
      </trkpt>
      <trkpt lat="49.03348" lon="1.84863">
        <ele>81.7</ele>
        <time>2022-09-22T08:31:35Z</time>
      </trkpt>
      <trkpt lat="49.03348" lon="1.84854">
        <ele>82.1</ele>
        <time>2022-09-22T08:31:40Z</time>
      </trkpt>
      <trkpt lat="49.03348" lon="1.84846">
        <ele>82.5</ele>
        <time>2022-09-22T08:31:44Z</time>
      </trkpt>
      <trkpt lat="49.03348" lon="1.84839">
        <ele>82.9</ele>
        <time>2022-09-22T08:31:48Z</time>
      </trkpt>
      <trkpt lat="49.03349" lon="1.8483">
        <ele>83</ele>
        <time>2022-09-22T08:31:52Z</time>
      </trkpt>
      <trkpt lat="49.03349" lon="1.84822">
        <ele>83.1</ele>
        <time>2022-09-22T08:31:56Z</time>
      </trkpt>
      <trkpt lat="49.03349" lon="1.84815">
        <ele>83.3</ele>
        <time>2022-09-22T08:32:00Z</time>
      </trkpt>
      <trkpt lat="49.03349" lon="1.84808">
        <ele>83.4</ele>
        <time>2022-09-22T08:32:03Z</time>
      </trkpt>
      <trkpt lat="49.0335" lon="1.848">
        <ele>83.6</ele>
        <time>2022-09-22T08:32:06Z</time>
      </trkpt>
      <trkpt lat="49.0335" lon="1.84793">
        <ele>83.6</ele>
        <time>2022-09-22T08:32:10Z</time>
      </trkpt>
      <trkpt lat="49.0335" lon="1.84785">
        <ele>83.6</ele>
        <time>2022-09-22T08:32:14Z</time>
      </trkpt>
      <trkpt lat="49.03349" lon="1.84778">
        <ele>83.6</ele>
        <time>2022-09-22T08:32:19Z</time>
      </trkpt>
      <trkpt lat="49.03348" lon="1.84769">
        <ele>83.7</ele>
        <time>2022-09-22T08:32:23Z</time>
      </trkpt>
      <trkpt lat="49.03348" lon="1.84762">
        <ele>83.7</ele>
        <time>2022-09-22T08:32:27Z</time>
      </trkpt>
      <trkpt lat="49.03348" lon="1.84754">
        <ele>83.8</ele>
        <time>2022-09-22T08:32:30Z</time>
      </trkpt>
      <trkpt lat="49.03348" lon="1.84746">
        <ele>83.9</ele>
        <time>2022-09-22T08:32:34Z</time>
      </trkpt>
      <trkpt lat="49.03348" lon="1.84738">
        <ele>84.1</ele>
        <time>2022-09-22T08:32:38Z</time>
      </trkpt>
      <trkpt lat="49.03349" lon="1.84731">
        <ele>84.3</ele>
        <time>2022-09-22T08:32:41Z</time>
      </trkpt>
      <trkpt lat="49.0335" lon="1.84724">
        <ele>84.8</ele>
        <time>2022-09-22T08:32:45Z</time>
      </trkpt>
      <trkpt lat="49.03351" lon="1.84717">
        <ele>84.9</ele>
        <time>2022-09-22T08:32:49Z</time>
      </trkpt>
      <trkpt lat="49.03353" lon="1.84709">
        <ele>85</ele>
        <time>2022-09-22T08:32:54Z</time>
      </trkpt>
      <trkpt lat="49.03355" lon="1.84701">
        <ele>85.1</ele>
        <time>2022-09-22T08:32:59Z</time>
      </trkpt>
      <trkpt lat="49.03357" lon="1.84694">
        <ele>85.2</ele>
        <time>2022-09-22T08:33:04Z</time>
      </trkpt>
      <trkpt lat="49.03358" lon="1.84686">
        <ele>85.3</ele>
        <time>2022-09-22T08:33:09Z</time>
      </trkpt>
      <trkpt lat="49.03358" lon="1.84679">
        <ele>85.5</ele>
        <time>2022-09-22T08:33:12Z</time>
      </trkpt>
      <trkpt lat="49.03359" lon="1.8467">
        <ele>85.7</ele>
        <time>2022-09-22T08:33:16Z</time>
      </trkpt>
      <trkpt lat="49.03361" lon="1.84661">
        <ele>85.9</ele>
        <time>2022-09-22T08:33:22Z</time>
      </trkpt>
      <trkpt lat="49.03363" lon="1.84652">
        <ele>86.2</ele>
        <time>2022-09-22T08:33:26Z</time>
      </trkpt>
      <trkpt lat="49.03364" lon="1.84645">
        <ele>86.2</ele>
        <time>2022-09-22T08:33:31Z</time>
      </trkpt>
      <trkpt lat="49.03365" lon="1.84637">
        <ele>86.5</ele>
        <time>2022-09-22T08:33:36Z</time>
      </trkpt>
      <trkpt lat="49.03364" lon="1.8463">
        <ele>86.6</ele>
        <time>2022-09-22T08:33:44Z</time>
      </trkpt>
      <trkpt lat="49.03364" lon="1.84638">
        <ele>86.8</ele>
        <time>2022-09-22T08:33:58Z</time>
      </trkpt>
      <trkpt lat="49.03362" lon="1.84646">
        <ele>86.8</ele>
        <time>2022-09-22T08:34:02Z</time>
      </trkpt>
      <trkpt lat="49.03361" lon="1.84653">
        <ele>86.7</ele>
        <time>2022-09-22T08:34:05Z</time>
      </trkpt>
      <trkpt lat="49.03359" lon="1.84662">
        <ele>86.6</ele>
        <time>2022-09-22T08:34:09Z</time>
      </trkpt>
      <trkpt lat="49.03357" lon="1.8467">
        <ele>86.7</ele>
        <time>2022-09-22T08:34:14Z</time>
      </trkpt>
      <trkpt lat="49.03357" lon="1.84677">
        <ele>86.3</ele>
        <time>2022-09-22T08:34:19Z</time>
      </trkpt>
      <trkpt lat="49.03356" lon="1.84685">
        <ele>85.6</ele>
        <time>2022-09-22T08:34:23Z</time>
      </trkpt>
      <trkpt lat="49.03355" lon="1.84692">
        <ele>85.4</ele>
        <time>2022-09-22T08:34:28Z</time>
      </trkpt>
      <trkpt lat="49.03354" lon="1.84699">
        <ele>85.5</ele>
        <time>2022-09-22T08:34:31Z</time>
      </trkpt>
      <trkpt lat="49.03353" lon="1.84706">
        <ele>85.3</ele>
        <time>2022-09-22T08:34:35Z</time>
      </trkpt>
      <trkpt lat="49.03352" lon="1.84713">
        <ele>84.9</ele>
        <time>2022-09-22T08:34:39Z</time>
      </trkpt>
      <trkpt lat="49.03351" lon="1.8472">
        <ele>84.8</ele>
        <time>2022-09-22T08:34:44Z</time>
      </trkpt>
      <trkpt lat="49.03349" lon="1.84728">
        <ele>84.8</ele>
        <time>2022-09-22T08:34:49Z</time>
      </trkpt>
      <trkpt lat="49.03348" lon="1.84735">
        <ele>84.7</ele>
        <time>2022-09-22T08:34:53Z</time>
      </trkpt>
      <trkpt lat="49.03347" lon="1.84742">
        <ele>84.5</ele>
        <time>2022-09-22T08:34:57Z</time>
      </trkpt>
      <trkpt lat="49.03347" lon="1.8475">
        <ele>84.4</ele>
        <time>2022-09-22T08:35:01Z</time>
      </trkpt>
      <trkpt lat="49.03347" lon="1.84758">
        <ele>84.5</ele>
        <time>2022-09-22T08:35:06Z</time>
      </trkpt>
      <trkpt lat="49.03347" lon="1.84767">
        <ele>84.3</ele>
        <time>2022-09-22T08:35:10Z</time>
      </trkpt>
      <trkpt lat="49.03347" lon="1.84775">
        <ele>84.1</ele>
        <time>2022-09-22T08:35:14Z</time>
      </trkpt>
      <trkpt lat="49.03347" lon="1.84784">
        <ele>83.4</ele>
        <time>2022-09-22T08:35:19Z</time>
      </trkpt>
      <trkpt lat="49.03348" lon="1.84792">
        <ele>83.4</ele>
        <time>2022-09-22T08:35:23Z</time>
      </trkpt>
      <trkpt lat="49.03347" lon="1.848">
        <ele>82.9</ele>
        <time>2022-09-22T08:35:27Z</time>
      </trkpt>
      <trkpt lat="49.03347" lon="1.84808">
        <ele>83.1</ele>
        <time>2022-09-22T08:35:42Z</time>
      </trkpt>
      <trkpt lat="49.03348" lon="1.84816">
        <ele>83.2</ele>
        <time>2022-09-22T08:35:45Z</time>
      </trkpt>
      <trkpt lat="49.03348" lon="1.84824">
        <ele>83</ele>
        <time>2022-09-22T08:35:48Z</time>
      </trkpt>
      <trkpt lat="49.03348" lon="1.84831">
        <ele>83.1</ele>
        <time>2022-09-22T08:35:51Z</time>
      </trkpt>
      <trkpt lat="49.03348" lon="1.84838">
        <ele>83.2</ele>
        <time>2022-09-22T08:35:55Z</time>
      </trkpt>
      <trkpt lat="49.03348" lon="1.84845">
        <ele>83.7</ele>
        <time>2022-09-22T08:35:58Z</time>
      </trkpt>
      <trkpt lat="49.03347" lon="1.84853">
        <ele>84</ele>
        <time>2022-09-22T08:36:02Z</time>
      </trkpt>
      <trkpt lat="49.03346" lon="1.84862">
        <ele>84.1</ele>
        <time>2022-09-22T08:36:07Z</time>
      </trkpt>
      <trkpt lat="49.03346" lon="1.84871">
        <ele>84</ele>
        <time>2022-09-22T08:36:11Z</time>
      </trkpt>
      <trkpt lat="49.03346" lon="1.84878">
        <ele>83.9</ele>
        <time>2022-09-22T08:36:15Z</time>
      </trkpt>
      <trkpt lat="49.03346" lon="1.84885">
        <ele>84</ele>
        <time>2022-09-22T08:36:19Z</time>
      </trkpt>
      <trkpt lat="49.03348" lon="1.84893">
        <ele>83.8</ele>
        <time>2022-09-22T08:36:26Z</time>
      </trkpt>
      <trkpt lat="49.03348" lon="1.84901">
        <ele>83.6</ele>
        <time>2022-09-22T08:36:31Z</time>
      </trkpt>
      <trkpt lat="49.03349" lon="1.84909">
        <ele>83.4</ele>
        <time>2022-09-22T08:36:34Z</time>
      </trkpt>
      <trkpt lat="49.0335" lon="1.84916">
        <ele>83.3</ele>
        <time>2022-09-22T08:36:38Z</time>
      </trkpt>
      <trkpt lat="49.03351" lon="1.84925">
        <ele>83.1</ele>
        <time>2022-09-22T08:36:43Z</time>
      </trkpt>
      <trkpt lat="49.03351" lon="1.84934">
        <ele>83</ele>
        <time>2022-09-22T08:36:47Z</time>
      </trkpt>
      <trkpt lat="49.03351" lon="1.84941">
        <ele>83</ele>
        <time>2022-09-22T08:36:51Z</time>
      </trkpt>
      <trkpt lat="49.03351" lon="1.84949">
        <ele>82.9</ele>
        <time>2022-09-22T08:36:56Z</time>
      </trkpt>
      <trkpt lat="49.03352" lon="1.84957">
        <ele>82.6</ele>
        <time>2022-09-22T08:37:00Z</time>
      </trkpt>
      <trkpt lat="49.03352" lon="1.84964">
        <ele>82.4</ele>
        <time>2022-09-22T08:37:03Z</time>
      </trkpt>
      <trkpt lat="49.03352" lon="1.84973">
        <ele>82.4</ele>
        <time>2022-09-22T08:37:07Z</time>
      </trkpt>
      <trkpt lat="49.03351" lon="1.84982">
        <ele>82.1</ele>
        <time>2022-09-22T08:37:12Z</time>
      </trkpt>
      <trkpt lat="49.0335" lon="1.8499">
        <ele>82</ele>
        <time>2022-09-22T08:37:16Z</time>
      </trkpt>
      <trkpt lat="49.03349" lon="1.84998">
        <ele>81.2</ele>
        <time>2022-09-22T08:37:20Z</time>
      </trkpt>
      <trkpt lat="49.03348" lon="1.85006">
        <ele>81.1</ele>
        <time>2022-09-22T08:37:25Z</time>
      </trkpt>
      <trkpt lat="49.0335" lon="1.85017">
        <ele>80.8</ele>
        <time>2022-09-22T08:37:31Z</time>
      </trkpt>
      <trkpt lat="49.03348" lon="1.85026">
        <ele>80.7</ele>
        <time>2022-09-22T08:37:35Z</time>
      </trkpt>
      <trkpt lat="49.03346" lon="1.85033">
        <ele>80.9</ele>
        <time>2022-09-22T08:37:38Z</time>
      </trkpt>
      <trkpt lat="49.03345" lon="1.85042">
        <ele>80.8</ele>
        <time>2022-09-22T08:37:43Z</time>
      </trkpt>
      <trkpt lat="49.03344" lon="1.8505">
        <ele>80.6</ele>
        <time>2022-09-22T08:37:47Z</time>
      </trkpt>
      <trkpt lat="49.03343" lon="1.85058">
        <ele>81.1</ele>
        <time>2022-09-22T08:37:51Z</time>
      </trkpt>
      <trkpt lat="49.03341" lon="1.85065">
        <ele>81.2</ele>
        <time>2022-09-22T08:37:55Z</time>
      </trkpt>
      <trkpt lat="49.03339" lon="1.85073">
        <ele>81.3</ele>
        <time>2022-09-22T08:38:00Z</time>
      </trkpt>
      <trkpt lat="49.03339" lon="1.8508">
        <ele>81.1</ele>
        <time>2022-09-22T08:38:04Z</time>
      </trkpt>
      <trkpt lat="49.03336" lon="1.85087">
        <ele>81.1</ele>
        <time>2022-09-22T08:38:08Z</time>
      </trkpt>
      <trkpt lat="49.03334" lon="1.85094">
        <ele>80.9</ele>
        <time>2022-09-22T08:38:12Z</time>
      </trkpt>
      <trkpt lat="49.03333" lon="1.85102">
        <ele>80.5</ele>
        <time>2022-09-22T08:38:16Z</time>
      </trkpt>
      <trkpt lat="49.03333" lon="1.8511">
        <ele>80.1</ele>
        <time>2022-09-22T08:38:21Z</time>
      </trkpt>
      <trkpt lat="49.03335" lon="1.85118">
        <ele>79.8</ele>
        <time>2022-09-22T08:38:26Z</time>
      </trkpt>
      <trkpt lat="49.03338" lon="1.85125">
        <ele>79.6</ele>
        <time>2022-09-22T08:38:31Z</time>
      </trkpt>
      <trkpt lat="49.0334" lon="1.85133">
        <ele>79.6</ele>
        <time>2022-09-22T08:38:35Z</time>
      </trkpt>
      <trkpt lat="49.03344" lon="1.85138">
        <ele>79.5</ele>
        <time>2022-09-22T08:38:40Z</time>
      </trkpt>
      <trkpt lat="49.03348" lon="1.85144">
        <ele>79.6</ele>
        <time>2022-09-22T08:38:44Z</time>
      </trkpt>
      <trkpt lat="49.03351" lon="1.85151">
        <ele>79.6</ele>
        <time>2022-09-22T08:38:49Z</time>
      </trkpt>
      <trkpt lat="49.03356" lon="1.85153">
        <ele>79.7</ele>
        <time>2022-09-22T08:38:53Z</time>
      </trkpt>
      <trkpt lat="49.03361" lon="1.85151">
        <ele>79.9</ele>
        <time>2022-09-22T08:38:58Z</time>
      </trkpt>
      <trkpt lat="49.03364" lon="1.85144">
        <ele>80</ele>
        <time>2022-09-22T08:39:10Z</time>
      </trkpt>
      <trkpt lat="49.03367" lon="1.85138">
        <ele>80.4</ele>
        <time>2022-09-22T08:39:15Z</time>
      </trkpt>
      <trkpt lat="49.0337" lon="1.85133">
        <ele>80.7</ele>
        <time>2022-09-22T08:39:19Z</time>
      </trkpt>
      <trkpt lat="49.03374" lon="1.85128">
        <ele>80.8</ele>
        <time>2022-09-22T08:39:24Z</time>
      </trkpt>
      <trkpt lat="49.03377" lon="1.85122">
        <ele>81</ele>
        <time>2022-09-22T08:39:29Z</time>
      </trkpt>
      <trkpt lat="49.0338" lon="1.85116">
        <ele>80.9</ele>
        <time>2022-09-22T08:39:34Z</time>
      </trkpt>
      <trkpt lat="49.03383" lon="1.85111">
        <ele>80.7</ele>
        <time>2022-09-22T08:39:38Z</time>
      </trkpt>
      <trkpt lat="49.03388" lon="1.85105">
        <ele>81.1</ele>
        <time>2022-09-22T08:39:44Z</time>
      </trkpt>
      <trkpt lat="49.03391" lon="1.851">
        <ele>80.9</ele>
        <time>2022-09-22T08:39:49Z</time>
      </trkpt>
      <trkpt lat="49.03395" lon="1.85094">
        <ele>80.7</ele>
        <time>2022-09-22T08:39:53Z</time>
      </trkpt>
      <trkpt lat="49.03398" lon="1.85089">
        <ele>80.2</ele>
        <time>2022-09-22T08:39:58Z</time>
      </trkpt>
      <trkpt lat="49.03402" lon="1.85083">
        <ele>78.6</ele>
        <time>2022-09-22T08:40:04Z</time>
      </trkpt>
      <trkpt lat="49.03406" lon="1.8508">
        <ele>77.7</ele>
        <time>2022-09-22T08:40:53Z</time>
      </trkpt>
      <trkpt lat="49.0341" lon="1.85075">
        <ele>77.6</ele>
        <time>2022-09-22T08:41:10Z</time>
      </trkpt>
      <trkpt lat="49.03415" lon="1.8507">
        <ele>76.9</ele>
        <time>2022-09-22T08:41:15Z</time>
      </trkpt>
      <trkpt lat="49.03419" lon="1.85066">
        <ele>75.5</ele>
        <time>2022-09-22T08:41:19Z</time>
      </trkpt>
      <trkpt lat="49.03423" lon="1.85063">
        <ele>74.7</ele>
        <time>2022-09-22T08:41:23Z</time>
      </trkpt>
      <trkpt lat="49.03427" lon="1.8506">
        <ele>74</ele>
        <time>2022-09-22T08:41:28Z</time>
      </trkpt>
      <trkpt lat="49.03432" lon="1.85056">
        <ele>73.6</ele>
        <time>2022-09-22T08:41:35Z</time>
      </trkpt>
      <trkpt lat="49.03437" lon="1.85055">
        <ele>73.2</ele>
        <time>2022-09-22T08:41:40Z</time>
      </trkpt>
      <trkpt lat="49.03442" lon="1.85051">
        <ele>72</ele>
        <time>2022-09-22T08:41:45Z</time>
      </trkpt>
      <trkpt lat="49.03446" lon="1.85046">
        <ele>72</ele>
        <time>2022-09-22T08:41:50Z</time>
      </trkpt>
      <trkpt lat="49.0345" lon="1.85041">
        <ele>71.1</ele>
        <time>2022-09-22T08:41:55Z</time>
      </trkpt>
      <trkpt lat="49.03454" lon="1.85038">
        <ele>69.5</ele>
        <time>2022-09-22T08:41:59Z</time>
      </trkpt>
      <trkpt lat="49.03458" lon="1.85034">
        <ele>68.5</ele>
        <time>2022-09-22T08:42:03Z</time>
      </trkpt>
      <trkpt lat="49.03462" lon="1.85031">
        <ele>67.1</ele>
        <time>2022-09-22T08:42:07Z</time>
      </trkpt>
      <trkpt lat="49.03466" lon="1.85028">
        <ele>66.9</ele>
        <time>2022-09-22T08:42:10Z</time>
      </trkpt>
      <trkpt lat="49.03471" lon="1.85024">
        <ele>66.3</ele>
        <time>2022-09-22T08:42:14Z</time>
      </trkpt>
      <trkpt lat="49.03475" lon="1.8502">
        <ele>66.3</ele>
        <time>2022-09-22T08:42:18Z</time>
      </trkpt>
      <trkpt lat="49.0348" lon="1.85016">
        <ele>65.7</ele>
        <time>2022-09-22T08:42:23Z</time>
      </trkpt>
      <trkpt lat="49.03485" lon="1.85013">
        <ele>65.4</ele>
        <time>2022-09-22T08:42:27Z</time>
      </trkpt>
      <trkpt lat="49.0349" lon="1.8501">
        <ele>64.9</ele>
        <time>2022-09-22T08:42:31Z</time>
      </trkpt>
      <trkpt lat="49.03494" lon="1.85006">
        <ele>64.6</ele>
        <time>2022-09-22T08:42:36Z</time>
      </trkpt>
      <trkpt lat="49.03499" lon="1.85001">
        <ele>64.4</ele>
        <time>2022-09-22T08:42:40Z</time>
      </trkpt>
      <trkpt lat="49.03502" lon="1.84996">
        <ele>64.1</ele>
        <time>2022-09-22T08:42:45Z</time>
      </trkpt>
      <trkpt lat="49.03507" lon="1.84991">
        <ele>63.2</ele>
        <time>2022-09-22T08:42:50Z</time>
      </trkpt>
      <trkpt lat="49.03512" lon="1.84987">
        <ele>62.6</ele>
        <time>2022-09-22T08:42:56Z</time>
      </trkpt>
      <trkpt lat="49.03515" lon="1.84981">
        <ele>62</ele>
        <time>2022-09-22T08:43:00Z</time>
      </trkpt>
      <trkpt lat="49.03518" lon="1.84976">
        <ele>61.9</ele>
        <time>2022-09-22T08:43:05Z</time>
      </trkpt>
      <trkpt lat="49.03522" lon="1.8497">
        <ele>61.4</ele>
        <time>2022-09-22T08:43:10Z</time>
      </trkpt>
      <trkpt lat="49.03526" lon="1.84964">
        <ele>61.3</ele>
        <time>2022-09-22T08:43:16Z</time>
      </trkpt>
      <trkpt lat="49.0353" lon="1.8496">
        <ele>61</ele>
        <time>2022-09-22T08:43:20Z</time>
      </trkpt>
      <trkpt lat="49.03534" lon="1.84956">
        <ele>61</ele>
        <time>2022-09-22T08:43:25Z</time>
      </trkpt>
      <trkpt lat="49.03539" lon="1.84951">
        <ele>60.6</ele>
        <time>2022-09-22T08:43:30Z</time>
      </trkpt>
      <trkpt lat="49.03544" lon="1.84945">
        <ele>60.3</ele>
        <time>2022-09-22T08:43:36Z</time>
      </trkpt>
      <trkpt lat="49.03547" lon="1.8494">
        <ele>59.4</ele>
        <time>2022-09-22T08:43:41Z</time>
      </trkpt>
      <trkpt lat="49.03551" lon="1.84935">
        <ele>59.2</ele>
        <time>2022-09-22T08:43:45Z</time>
      </trkpt>
      <trkpt lat="49.03555" lon="1.8493">
        <ele>58.5</ele>
        <time>2022-09-22T08:43:50Z</time>
      </trkpt>
      <trkpt lat="49.03558" lon="1.84923">
        <ele>57.8</ele>
        <time>2022-09-22T08:43:55Z</time>
      </trkpt>
      <trkpt lat="49.03562" lon="1.84919">
        <ele>57.5</ele>
        <time>2022-09-22T08:43:59Z</time>
      </trkpt>
      <trkpt lat="49.03566" lon="1.84915">
        <ele>56.3</ele>
        <time>2022-09-22T08:44:03Z</time>
      </trkpt>
      <trkpt lat="49.0357" lon="1.8491">
        <ele>56</ele>
        <time>2022-09-22T08:44:08Z</time>
      </trkpt>
      <trkpt lat="49.03573" lon="1.84904">
        <ele>54.7</ele>
        <time>2022-09-22T08:44:13Z</time>
      </trkpt>
      <trkpt lat="49.03577" lon="1.849">
        <ele>53.7</ele>
        <time>2022-09-22T08:44:18Z</time>
      </trkpt>
      <trkpt lat="49.03581" lon="1.84894">
        <ele>52.3</ele>
        <time>2022-09-22T08:44:22Z</time>
      </trkpt>
      <trkpt lat="49.03583" lon="1.84889">
        <ele>51.9</ele>
        <time>2022-09-22T08:44:26Z</time>
      </trkpt>
      <trkpt lat="49.03587" lon="1.84883">
        <ele>51.4</ele>
        <time>2022-09-22T08:44:31Z</time>
      </trkpt>
      <trkpt lat="49.0359" lon="1.84877">
        <ele>51</ele>
        <time>2022-09-22T08:44:35Z</time>
      </trkpt>
      <trkpt lat="49.03594" lon="1.84871">
        <ele>51</ele>
        <time>2022-09-22T08:44:39Z</time>
      </trkpt>
      <trkpt lat="49.03597" lon="1.84865">
        <ele>50.9</ele>
        <time>2022-09-22T08:44:44Z</time>
      </trkpt>
      <trkpt lat="49.03601" lon="1.8486">
        <ele>50.8</ele>
        <time>2022-09-22T08:44:48Z</time>
      </trkpt>
      <trkpt lat="49.03606" lon="1.84855">
        <ele>50.5</ele>
        <time>2022-09-22T08:44:52Z</time>
      </trkpt>
      <trkpt lat="49.0361" lon="1.84851">
        <ele>50.4</ele>
        <time>2022-09-22T08:44:56Z</time>
      </trkpt>
      <trkpt lat="49.03613" lon="1.84846">
        <ele>50.2</ele>
        <time>2022-09-22T08:45:00Z</time>
      </trkpt>
      <trkpt lat="49.03617" lon="1.8484">
        <ele>50</ele>
        <time>2022-09-22T08:45:04Z</time>
      </trkpt>
      <trkpt lat="49.0362" lon="1.84834">
        <ele>50</ele>
        <time>2022-09-22T08:45:08Z</time>
      </trkpt>
      <trkpt lat="49.03624" lon="1.84828">
        <ele>49.3</ele>
        <time>2022-09-22T08:45:12Z</time>
      </trkpt>
      <trkpt lat="49.03627" lon="1.84822">
        <ele>48.5</ele>
        <time>2022-09-22T08:45:16Z</time>
      </trkpt>
      <trkpt lat="49.03631" lon="1.84816">
        <ele>48.7</ele>
        <time>2022-09-22T08:45:21Z</time>
      </trkpt>
      <trkpt lat="49.03634" lon="1.84809">
        <ele>48.6</ele>
        <time>2022-09-22T08:45:25Z</time>
      </trkpt>
      <trkpt lat="49.03638" lon="1.84803">
        <ele>48.1</ele>
        <time>2022-09-22T08:45:29Z</time>
      </trkpt>
      <trkpt lat="49.03641" lon="1.84796">
        <ele>47.5</ele>
        <time>2022-09-22T08:45:33Z</time>
      </trkpt>
      <trkpt lat="49.03644" lon="1.84789">
        <ele>47.2</ele>
        <time>2022-09-22T08:45:37Z</time>
      </trkpt>
      <trkpt lat="49.03647" lon="1.84783">
        <ele>47.5</ele>
        <time>2022-09-22T08:45:41Z</time>
      </trkpt>
      <trkpt lat="49.0365" lon="1.84777">
        <ele>47.5</ele>
        <time>2022-09-22T08:45:45Z</time>
      </trkpt>
      <trkpt lat="49.03653" lon="1.84769">
        <ele>47.6</ele>
        <time>2022-09-22T08:45:49Z</time>
      </trkpt>
      <trkpt lat="49.03656" lon="1.84762">
        <ele>47.6</ele>
        <time>2022-09-22T08:45:53Z</time>
      </trkpt>
      <trkpt lat="49.03658" lon="1.84754">
        <ele>47.8</ele>
        <time>2022-09-22T08:45:58Z</time>
      </trkpt>
      <trkpt lat="49.0366" lon="1.84746">
        <ele>47.7</ele>
        <time>2022-09-22T08:46:02Z</time>
      </trkpt>
      <trkpt lat="49.0366" lon="1.84737">
        <ele>47.8</ele>
        <time>2022-09-22T08:46:07Z</time>
      </trkpt>
      <trkpt lat="49.03661" lon="1.84728">
        <ele>48.2</ele>
        <time>2022-09-22T08:46:11Z</time>
      </trkpt>
      <trkpt lat="49.03662" lon="1.84721">
        <ele>48.2</ele>
        <time>2022-09-22T08:46:15Z</time>
      </trkpt>
      <trkpt lat="49.03663" lon="1.84712">
        <ele>48.4</ele>
        <time>2022-09-22T08:46:19Z</time>
      </trkpt>
      <trkpt lat="49.03665" lon="1.84703">
        <ele>48.5</ele>
        <time>2022-09-22T08:46:24Z</time>
      </trkpt>
      <trkpt lat="49.03667" lon="1.84697">
        <ele>48.6</ele>
        <time>2022-09-22T08:46:27Z</time>
      </trkpt>
      <trkpt lat="49.03669" lon="1.84689">
        <ele>48.4</ele>
        <time>2022-09-22T08:46:31Z</time>
      </trkpt>
      <trkpt lat="49.0367" lon="1.84681">
        <ele>48.7</ele>
        <time>2022-09-22T08:46:35Z</time>
      </trkpt>
      <trkpt lat="49.03672" lon="1.84673">
        <ele>48.7</ele>
        <time>2022-09-22T08:46:39Z</time>
      </trkpt>
      <trkpt lat="49.03674" lon="1.84665">
        <ele>48.8</ele>
        <time>2022-09-22T08:46:44Z</time>
      </trkpt>
      <trkpt lat="49.03676" lon="1.84659">
        <ele>48.6</ele>
        <time>2022-09-22T08:46:47Z</time>
      </trkpt>
      <trkpt lat="49.03678" lon="1.84652">
        <ele>48.7</ele>
        <time>2022-09-22T08:46:51Z</time>
      </trkpt>
      <trkpt lat="49.0368" lon="1.84644">
        <ele>49</ele>
        <time>2022-09-22T08:46:55Z</time>
      </trkpt>
      <trkpt lat="49.03681" lon="1.84636">
        <ele>49.1</ele>
        <time>2022-09-22T08:47:00Z</time>
      </trkpt>
      <trkpt lat="49.03683" lon="1.84628">
        <ele>49.3</ele>
        <time>2022-09-22T08:47:04Z</time>
      </trkpt>
      <trkpt lat="49.03684" lon="1.8462">
        <ele>49.7</ele>
        <time>2022-09-22T08:47:08Z</time>
      </trkpt>
      <trkpt lat="49.03686" lon="1.84613">
        <ele>50.1</ele>
        <time>2022-09-22T08:47:12Z</time>
      </trkpt>
      <trkpt lat="49.03687" lon="1.84606">
        <ele>50.6</ele>
        <time>2022-09-22T08:47:16Z</time>
      </trkpt>
      <trkpt lat="49.03687" lon="1.84598">
        <ele>50.6</ele>
        <time>2022-09-22T08:47:21Z</time>
      </trkpt>
      <trkpt lat="49.03687" lon="1.84591">
        <ele>50.9</ele>
        <time>2022-09-22T08:47:25Z</time>
      </trkpt>
      <trkpt lat="49.03688" lon="1.84584">
        <ele>50.9</ele>
        <time>2022-09-22T08:47:29Z</time>
      </trkpt>
      <trkpt lat="49.03689" lon="1.84576">
        <ele>51</ele>
        <time>2022-09-22T08:47:33Z</time>
      </trkpt>
      <trkpt lat="49.03691" lon="1.84569">
        <ele>51</ele>
        <time>2022-09-22T08:47:37Z</time>
      </trkpt>
      <trkpt lat="49.03693" lon="1.84561">
        <ele>51</ele>
        <time>2022-09-22T08:47:42Z</time>
      </trkpt>
      <trkpt lat="49.03694" lon="1.84554">
        <ele>50.7</ele>
        <time>2022-09-22T08:47:45Z</time>
      </trkpt>
      <trkpt lat="49.03695" lon="1.84547">
        <ele>50.8</ele>
        <time>2022-09-22T08:47:51Z</time>
      </trkpt>
      <trkpt lat="49.03696" lon="1.84539">
        <ele>50.7</ele>
        <time>2022-09-22T08:47:54Z</time>
      </trkpt>
      <trkpt lat="49.03698" lon="1.84531">
        <ele>50</ele>
        <time>2022-09-22T08:48:00Z</time>
      </trkpt>
      <trkpt lat="49.037" lon="1.84523">
        <ele>49.4</ele>
        <time>2022-09-22T08:48:03Z</time>
      </trkpt>
      <trkpt lat="49.03701" lon="1.84514">
        <ele>48.6</ele>
        <time>2022-09-22T08:48:08Z</time>
      </trkpt>
      <trkpt lat="49.037" lon="1.84505">
        <ele>48.2</ele>
        <time>2022-09-22T08:48:13Z</time>
      </trkpt>
      <trkpt lat="49.03701" lon="1.84497">
        <ele>48</ele>
        <time>2022-09-22T08:48:17Z</time>
      </trkpt>
      <trkpt lat="49.03702" lon="1.8449">
        <ele>48</ele>
        <time>2022-09-22T08:48:21Z</time>
      </trkpt>
      <trkpt lat="49.03702" lon="1.84482">
        <ele>48.2</ele>
        <time>2022-09-22T08:48:25Z</time>
      </trkpt>
      <trkpt lat="49.03704" lon="1.84475">
        <ele>48.2</ele>
        <time>2022-09-22T08:48:29Z</time>
      </trkpt>
      <trkpt lat="49.03706" lon="1.84468">
        <ele>48.4</ele>
        <time>2022-09-22T08:48:33Z</time>
      </trkpt>
      <trkpt lat="49.03706" lon="1.8446">
        <ele>48.3</ele>
        <time>2022-09-22T08:48:37Z</time>
      </trkpt>
      <trkpt lat="49.03706" lon="1.84452">
        <ele>48.6</ele>
        <time>2022-09-22T08:48:41Z</time>
      </trkpt>
      <trkpt lat="49.03705" lon="1.84445">
        <ele>48.7</ele>
        <time>2022-09-22T08:48:45Z</time>
      </trkpt>
      <trkpt lat="49.03705" lon="1.84437">
        <ele>48.9</ele>
        <time>2022-09-22T08:48:49Z</time>
      </trkpt>
      <trkpt lat="49.03705" lon="1.84429">
        <ele>48.7</ele>
        <time>2022-09-22T08:48:53Z</time>
      </trkpt>
      <trkpt lat="49.03703" lon="1.84422">
        <ele>48.8</ele>
        <time>2022-09-22T08:48:57Z</time>
      </trkpt>
      <trkpt lat="49.03701" lon="1.84416">
        <ele>48.9</ele>
        <time>2022-09-22T08:49:01Z</time>
      </trkpt>
      <trkpt lat="49.03699" lon="1.84408">
        <ele>48.7</ele>
        <time>2022-09-22T08:49:05Z</time>
      </trkpt>
      <trkpt lat="49.03696" lon="1.84401">
        <ele>48.4</ele>
        <time>2022-09-22T08:49:09Z</time>
      </trkpt>
      <trkpt lat="49.03693" lon="1.84395">
        <ele>48.1</ele>
        <time>2022-09-22T08:49:13Z</time>
      </trkpt>
      <trkpt lat="49.0369" lon="1.84389">
        <ele>48.3</ele>
        <time>2022-09-22T08:49:17Z</time>
      </trkpt>
      <trkpt lat="49.03688" lon="1.84381">
        <ele>48.2</ele>
        <time>2022-09-22T08:49:21Z</time>
      </trkpt>
      <trkpt lat="49.03685" lon="1.84374">
        <ele>48.4</ele>
        <time>2022-09-22T08:49:26Z</time>
      </trkpt>
      <trkpt lat="49.03682" lon="1.84367">
        <ele>48.3</ele>
        <time>2022-09-22T08:49:30Z</time>
      </trkpt>
      <trkpt lat="49.03682" lon="1.8436">
        <ele>48.8</ele>
        <time>2022-09-22T08:49:34Z</time>
      </trkpt>
      <trkpt lat="49.03683" lon="1.84352">
        <ele>49.4</ele>
        <time>2022-09-22T08:49:39Z</time>
      </trkpt>
      <trkpt lat="49.03685" lon="1.84345">
        <ele>49.3</ele>
        <time>2022-09-22T08:49:43Z</time>
      </trkpt>
      <trkpt lat="49.03687" lon="1.84338">
        <ele>50.3</ele>
        <time>2022-09-22T08:49:47Z</time>
      </trkpt>
      <trkpt lat="49.0369" lon="1.84331">
        <ele>51.2</ele>
        <time>2022-09-22T08:49:51Z</time>
      </trkpt>
      <trkpt lat="49.03692" lon="1.84323">
        <ele>51.8</ele>
        <time>2022-09-22T08:49:56Z</time>
      </trkpt>
      <trkpt lat="49.03693" lon="1.84316">
        <ele>53.1</ele>
        <time>2022-09-22T08:50:00Z</time>
      </trkpt>
      <trkpt lat="49.03694" lon="1.84308">
        <ele>53.6</ele>
        <time>2022-09-22T08:50:04Z</time>
      </trkpt>
      <trkpt lat="49.03695" lon="1.843">
        <ele>55.2</ele>
        <time>2022-09-22T08:50:08Z</time>
      </trkpt>
      <trkpt lat="49.03696" lon="1.84292">
        <ele>56.1</ele>
        <time>2022-09-22T08:50:12Z</time>
      </trkpt>
      <trkpt lat="49.03698" lon="1.84285">
        <ele>56.1</ele>
        <time>2022-09-22T08:50:16Z</time>
      </trkpt>
      <trkpt lat="49.03699" lon="1.84278">
        <ele>56.9</ele>
        <time>2022-09-22T08:50:20Z</time>
      </trkpt>
      <trkpt lat="49.03701" lon="1.84269">
        <ele>57.6</ele>
        <time>2022-09-22T08:50:24Z</time>
      </trkpt>
      <trkpt lat="49.03703" lon="1.84261">
        <ele>57.4</ele>
        <time>2022-09-22T08:50:29Z</time>
      </trkpt>
      <trkpt lat="49.03705" lon="1.84253">
        <ele>57.5</ele>
        <time>2022-09-22T08:50:33Z</time>
      </trkpt>
      <trkpt lat="49.03705" lon="1.84246">
        <ele>57.4</ele>
        <time>2022-09-22T08:50:37Z</time>
      </trkpt>
      <trkpt lat="49.03705" lon="1.84236">
        <ele>57.5</ele>
        <time>2022-09-22T08:50:41Z</time>
      </trkpt>
      <trkpt lat="49.03704" lon="1.84229">
        <ele>57.5</ele>
        <time>2022-09-22T08:50:45Z</time>
      </trkpt>
      <trkpt lat="49.03702" lon="1.84221">
        <ele>57.7</ele>
        <time>2022-09-22T08:50:49Z</time>
      </trkpt>
      <trkpt lat="49.037" lon="1.84214">
        <ele>57.1</ele>
        <time>2022-09-22T08:50:54Z</time>
      </trkpt>
      <trkpt lat="49.03699" lon="1.84206">
        <ele>57.1</ele>
        <time>2022-09-22T08:50:58Z</time>
      </trkpt>
      <trkpt lat="49.03699" lon="1.84199">
        <ele>57.3</ele>
        <time>2022-09-22T08:51:02Z</time>
      </trkpt>
      <trkpt lat="49.03699" lon="1.84192">
        <ele>57.2</ele>
        <time>2022-09-22T08:51:07Z</time>
      </trkpt>
      <trkpt lat="49.03699" lon="1.84184">
        <ele>57.3</ele>
        <time>2022-09-22T08:51:11Z</time>
      </trkpt>
      <trkpt lat="49.037" lon="1.84177">
        <ele>57.3</ele>
        <time>2022-09-22T08:51:16Z</time>
      </trkpt>
      <trkpt lat="49.03701" lon="1.8417">
        <ele>58</ele>
        <time>2022-09-22T08:51:20Z</time>
      </trkpt>
      <trkpt lat="49.03701" lon="1.84162">
        <ele>58</ele>
        <time>2022-09-22T08:51:25Z</time>
      </trkpt>
      <trkpt lat="49.03701" lon="1.84153">
        <ele>58.4</ele>
        <time>2022-09-22T08:51:29Z</time>
      </trkpt>
      <trkpt lat="49.03701" lon="1.84146">
        <ele>59.2</ele>
        <time>2022-09-22T08:51:33Z</time>
      </trkpt>
      <trkpt lat="49.03701" lon="1.84139">
        <ele>59.8</ele>
        <time>2022-09-22T08:51:36Z</time>
      </trkpt>
      <trkpt lat="49.037" lon="1.84131">
        <ele>60.5</ele>
        <time>2022-09-22T08:51:41Z</time>
      </trkpt>
      <trkpt lat="49.037" lon="1.84124">
        <ele>61.1</ele>
        <time>2022-09-22T08:51:46Z</time>
      </trkpt>
      <trkpt lat="49.037" lon="1.84115">
        <ele>61.6</ele>
        <time>2022-09-22T08:51:51Z</time>
      </trkpt>
      <trkpt lat="49.037" lon="1.84107">
        <ele>61.9</ele>
        <time>2022-09-22T08:51:55Z</time>
      </trkpt>
      <trkpt lat="49.03699" lon="1.841">
        <ele>61.8</ele>
        <time>2022-09-22T08:51:59Z</time>
      </trkpt>
      <trkpt lat="49.03698" lon="1.84092">
        <ele>61.9</ele>
        <time>2022-09-22T08:52:03Z</time>
      </trkpt>
      <trkpt lat="49.03698" lon="1.84085">
        <ele>62</ele>
        <time>2022-09-22T08:52:07Z</time>
      </trkpt>
      <trkpt lat="49.03697" lon="1.84078">
        <ele>62</ele>
        <time>2022-09-22T08:52:11Z</time>
      </trkpt>
      <trkpt lat="49.03697" lon="1.8407">
        <ele>62</ele>
        <time>2022-09-22T08:52:15Z</time>
      </trkpt>
      <trkpt lat="49.03696" lon="1.84062">
        <ele>62</ele>
        <time>2022-09-22T08:52:19Z</time>
      </trkpt>
      <trkpt lat="49.03696" lon="1.84054">
        <ele>62.3</ele>
        <time>2022-09-22T08:52:23Z</time>
      </trkpt>
      <trkpt lat="49.03695" lon="1.84045">
        <ele>62.4</ele>
        <time>2022-09-22T08:52:27Z</time>
      </trkpt>
      <trkpt lat="49.03695" lon="1.84038">
        <ele>62.5</ele>
        <time>2022-09-22T08:52:31Z</time>
      </trkpt>
      <trkpt lat="49.03695" lon="1.8403">
        <ele>62.8</ele>
        <time>2022-09-22T08:52:35Z</time>
      </trkpt>
      <trkpt lat="49.03695" lon="1.84023">
        <ele>63.1</ele>
        <time>2022-09-22T08:52:39Z</time>
      </trkpt>
      <trkpt lat="49.03695" lon="1.84016">
        <ele>63.2</ele>
        <time>2022-09-22T08:52:43Z</time>
      </trkpt>
      <trkpt lat="49.03695" lon="1.84008">
        <ele>63.7</ele>
        <time>2022-09-22T08:52:47Z</time>
      </trkpt>
      <trkpt lat="49.03695" lon="1.84001">
        <ele>64</ele>
        <time>2022-09-22T08:52:51Z</time>
      </trkpt>
      <trkpt lat="49.03695" lon="1.83994">
        <ele>64</ele>
        <time>2022-09-22T08:52:55Z</time>
      </trkpt>
      <trkpt lat="49.03694" lon="1.83987">
        <ele>63.8</ele>
        <time>2022-09-22T08:52:59Z</time>
      </trkpt>
      <trkpt lat="49.03694" lon="1.83979">
        <ele>64.2</ele>
        <time>2022-09-22T08:53:03Z</time>
      </trkpt>
      <trkpt lat="49.03694" lon="1.83971">
        <ele>64.3</ele>
        <time>2022-09-22T08:53:07Z</time>
      </trkpt>
      <trkpt lat="49.03694" lon="1.83961">
        <ele>64.5</ele>
        <time>2022-09-22T08:53:11Z</time>
      </trkpt>
      <trkpt lat="49.03693" lon="1.83952">
        <ele>64.3</ele>
        <time>2022-09-22T08:53:16Z</time>
      </trkpt>
      <trkpt lat="49.03693" lon="1.83944">
        <ele>64.3</ele>
        <time>2022-09-22T08:53:20Z</time>
      </trkpt>
      <trkpt lat="49.03693" lon="1.83934">
        <ele>64.4</ele>
        <time>2022-09-22T08:53:25Z</time>
      </trkpt>
      <trkpt lat="49.03694" lon="1.83925">
        <ele>64.6</ele>
        <time>2022-09-22T08:53:30Z</time>
      </trkpt>
      <trkpt lat="49.03694" lon="1.83916">
        <ele>64.9</ele>
        <time>2022-09-22T08:53:34Z</time>
      </trkpt>
      <trkpt lat="49.03694" lon="1.83907">
        <ele>65.1</ele>
        <time>2022-09-22T08:53:39Z</time>
      </trkpt>
      <trkpt lat="49.03694" lon="1.839">
        <ele>65.3</ele>
        <time>2022-09-22T08:53:42Z</time>
      </trkpt>
      <trkpt lat="49.03694" lon="1.83892">
        <ele>65.4</ele>
        <time>2022-09-22T08:53:47Z</time>
      </trkpt>
      <trkpt lat="49.03694" lon="1.83883">
        <ele>65.5</ele>
        <time>2022-09-22T08:53:51Z</time>
      </trkpt>
      <trkpt lat="49.03695" lon="1.83875">
        <ele>65.7</ele>
        <time>2022-09-22T08:53:56Z</time>
      </trkpt>
      <trkpt lat="49.03695" lon="1.83868">
        <ele>65.8</ele>
        <time>2022-09-22T08:53:59Z</time>
      </trkpt>
      <trkpt lat="49.03696" lon="1.8386">
        <ele>65.7</ele>
        <time>2022-09-22T08:54:02Z</time>
      </trkpt>
      <trkpt lat="49.03697" lon="1.83852">
        <ele>65.6</ele>
        <time>2022-09-22T08:54:06Z</time>
      </trkpt>
      <trkpt lat="49.03697" lon="1.83844">
        <ele>65.8</ele>
        <time>2022-09-22T08:54:10Z</time>
      </trkpt>
      <trkpt lat="49.03698" lon="1.83837">
        <ele>66</ele>
        <time>2022-09-22T08:54:14Z</time>
      </trkpt>
      <trkpt lat="49.03698" lon="1.83829">
        <ele>66.2</ele>
        <time>2022-09-22T08:54:18Z</time>
      </trkpt>
      <trkpt lat="49.03699" lon="1.8382">
        <ele>66.1</ele>
        <time>2022-09-22T08:54:22Z</time>
      </trkpt>
      <trkpt lat="49.037" lon="1.83812">
        <ele>66</ele>
        <time>2022-09-22T08:54:26Z</time>
      </trkpt>
      <trkpt lat="49.03701" lon="1.83804">
        <ele>66</ele>
        <time>2022-09-22T08:54:30Z</time>
      </trkpt>
      <trkpt lat="49.03703" lon="1.83796">
        <ele>66.2</ele>
        <time>2022-09-22T08:54:34Z</time>
      </trkpt>
      <trkpt lat="49.03703" lon="1.83789">
        <ele>66.3</ele>
        <time>2022-09-22T08:54:38Z</time>
      </trkpt>
      <trkpt lat="49.03704" lon="1.83782">
        <ele>66.3</ele>
        <time>2022-09-22T08:54:42Z</time>
      </trkpt>
      <trkpt lat="49.03705" lon="1.83774">
        <ele>66.3</ele>
        <time>2022-09-22T08:54:46Z</time>
      </trkpt>
      <trkpt lat="49.03706" lon="1.83766">
        <ele>66.8</ele>
        <time>2022-09-22T08:54:50Z</time>
      </trkpt>
      <trkpt lat="49.03707" lon="1.83758">
        <ele>67</ele>
        <time>2022-09-22T08:54:54Z</time>
      </trkpt>
      <trkpt lat="49.03709" lon="1.8375">
        <ele>67.1</ele>
        <time>2022-09-22T08:54:58Z</time>
      </trkpt>
      <trkpt lat="49.03711" lon="1.83743">
        <ele>67.4</ele>
        <time>2022-09-22T08:55:02Z</time>
      </trkpt>
      <trkpt lat="49.03711" lon="1.83735">
        <ele>67.5</ele>
        <time>2022-09-22T08:55:06Z</time>
      </trkpt>
      <trkpt lat="49.03712" lon="1.83727">
        <ele>67.5</ele>
        <time>2022-09-22T08:55:10Z</time>
      </trkpt>
      <trkpt lat="49.03713" lon="1.8372">
        <ele>67.4</ele>
        <time>2022-09-22T08:55:14Z</time>
      </trkpt>
      <trkpt lat="49.03714" lon="1.83713">
        <ele>67.4</ele>
        <time>2022-09-22T08:55:18Z</time>
      </trkpt>
      <trkpt lat="49.03715" lon="1.83706">
        <ele>67.4</ele>
        <time>2022-09-22T08:55:22Z</time>
      </trkpt>
      <trkpt lat="49.03717" lon="1.83698">
        <ele>67.6</ele>
        <time>2022-09-22T08:55:26Z</time>
      </trkpt>
      <trkpt lat="49.03718" lon="1.8369">
        <ele>67.7</ele>
        <time>2022-09-22T08:55:30Z</time>
      </trkpt>
      <trkpt lat="49.03718" lon="1.83682">
        <ele>67.7</ele>
        <time>2022-09-22T08:55:35Z</time>
      </trkpt>
      <trkpt lat="49.03719" lon="1.83674">
        <ele>67.6</ele>
        <time>2022-09-22T08:55:39Z</time>
      </trkpt>
      <trkpt lat="49.0372" lon="1.83665">
        <ele>67.7</ele>
        <time>2022-09-22T08:55:43Z</time>
      </trkpt>
      <trkpt lat="49.03721" lon="1.83657">
        <ele>67.5</ele>
        <time>2022-09-22T08:55:47Z</time>
      </trkpt>
      <trkpt lat="49.03723" lon="1.83651">
        <ele>67.3</ele>
        <time>2022-09-22T08:55:51Z</time>
      </trkpt>
      <trkpt lat="49.03724" lon="1.83644">
        <ele>67.3</ele>
        <time>2022-09-22T08:55:54Z</time>
      </trkpt>
      <trkpt lat="49.03726" lon="1.83636">
        <ele>67.5</ele>
        <time>2022-09-22T08:55:59Z</time>
      </trkpt>
      <trkpt lat="49.03727" lon="1.83627">
        <ele>67.4</ele>
        <time>2022-09-22T08:56:03Z</time>
      </trkpt>
      <trkpt lat="49.03728" lon="1.83619">
        <ele>67.1</ele>
        <time>2022-09-22T08:56:07Z</time>
      </trkpt>
      <trkpt lat="49.03729" lon="1.83611">
        <ele>67</ele>
        <time>2022-09-22T08:56:12Z</time>
      </trkpt>
      <trkpt lat="49.0373" lon="1.83604">
        <ele>67.1</ele>
        <time>2022-09-22T08:56:16Z</time>
      </trkpt>
      <trkpt lat="49.03731" lon="1.83596">
        <ele>66.9</ele>
        <time>2022-09-22T08:56:20Z</time>
      </trkpt>
      <trkpt lat="49.03733" lon="1.83589">
        <ele>66.5</ele>
        <time>2022-09-22T08:56:24Z</time>
      </trkpt>
      <trkpt lat="49.03734" lon="1.83582">
        <ele>66.5</ele>
        <time>2022-09-22T08:56:28Z</time>
      </trkpt>
      <trkpt lat="49.03736" lon="1.83575">
        <ele>66.3</ele>
        <time>2022-09-22T08:56:32Z</time>
      </trkpt>
      <trkpt lat="49.03737" lon="1.83568">
        <ele>66.2</ele>
        <time>2022-09-22T08:56:36Z</time>
      </trkpt>
      <trkpt lat="49.03739" lon="1.83561">
        <ele>66.1</ele>
        <time>2022-09-22T08:56:40Z</time>
      </trkpt>
      <trkpt lat="49.03741" lon="1.83554">
        <ele>66.1</ele>
        <time>2022-09-22T08:56:44Z</time>
      </trkpt>
      <trkpt lat="49.03742" lon="1.83546">
        <ele>66.3</ele>
        <time>2022-09-22T08:56:48Z</time>
      </trkpt>
      <trkpt lat="49.03744" lon="1.83539">
        <ele>66.5</ele>
        <time>2022-09-22T08:56:52Z</time>
      </trkpt>
      <trkpt lat="49.03745" lon="1.83531">
        <ele>66.4</ele>
        <time>2022-09-22T08:56:56Z</time>
      </trkpt>
      <trkpt lat="49.03746" lon="1.83523">
        <ele>66.6</ele>
        <time>2022-09-22T08:57:01Z</time>
      </trkpt>
      <trkpt lat="49.03746" lon="1.83514">
        <ele>66.8</ele>
        <time>2022-09-22T08:57:05Z</time>
      </trkpt>
      <trkpt lat="49.03747" lon="1.83505">
        <ele>66.9</ele>
        <time>2022-09-22T08:57:10Z</time>
      </trkpt>
      <trkpt lat="49.03749" lon="1.83497">
        <ele>66.8</ele>
        <time>2022-09-22T08:57:14Z</time>
      </trkpt>
      <trkpt lat="49.03751" lon="1.8349">
        <ele>66.7</ele>
        <time>2022-09-22T08:57:18Z</time>
      </trkpt>
      <trkpt lat="49.03754" lon="1.83484">
        <ele>66.4</ele>
        <time>2022-09-22T08:57:22Z</time>
      </trkpt>
      <trkpt lat="49.03756" lon="1.83477">
        <ele>66.7</ele>
        <time>2022-09-22T08:57:26Z</time>
      </trkpt>
      <trkpt lat="49.03759" lon="1.83471">
        <ele>66.5</ele>
        <time>2022-09-22T08:57:30Z</time>
      </trkpt>
      <trkpt lat="49.0376" lon="1.83463">
        <ele>66</ele>
        <time>2022-09-22T08:57:35Z</time>
      </trkpt>
      <trkpt lat="49.03762" lon="1.83455">
        <ele>65.5</ele>
        <time>2022-09-22T08:57:39Z</time>
      </trkpt>
      <trkpt lat="49.03764" lon="1.83447">
        <ele>65.6</ele>
        <time>2022-09-22T08:57:44Z</time>
      </trkpt>
      <trkpt lat="49.03765" lon="1.8344">
        <ele>65.2</ele>
        <time>2022-09-22T08:57:48Z</time>
      </trkpt>
      <trkpt lat="49.03767" lon="1.83432">
        <ele>65.3</ele>
        <time>2022-09-22T08:57:52Z</time>
      </trkpt>
      <trkpt lat="49.03768" lon="1.83424">
        <ele>65.4</ele>
        <time>2022-09-22T08:57:56Z</time>
      </trkpt>
      <trkpt lat="49.0377" lon="1.83417">
        <ele>65.5</ele>
        <time>2022-09-22T08:58:01Z</time>
      </trkpt>
      <trkpt lat="49.03771" lon="1.83408">
        <ele>65.7</ele>
        <time>2022-09-22T08:58:05Z</time>
      </trkpt>
      <trkpt lat="49.03773" lon="1.83402">
        <ele>65.6</ele>
        <time>2022-09-22T08:58:09Z</time>
      </trkpt>
      <trkpt lat="49.03774" lon="1.83394">
        <ele>65.9</ele>
        <time>2022-09-22T08:58:13Z</time>
      </trkpt>
      <trkpt lat="49.03776" lon="1.83387">
        <ele>66.1</ele>
        <time>2022-09-22T08:58:18Z</time>
      </trkpt>
      <trkpt lat="49.03778" lon="1.8338">
        <ele>66.6</ele>
        <time>2022-09-22T08:58:22Z</time>
      </trkpt>
      <trkpt lat="49.0378" lon="1.83374">
        <ele>66.9</ele>
        <time>2022-09-22T08:58:26Z</time>
      </trkpt>
      <trkpt lat="49.03782" lon="1.83367">
        <ele>67</ele>
        <time>2022-09-22T08:58:30Z</time>
      </trkpt>
      <trkpt lat="49.03784" lon="1.8336">
        <ele>67</ele>
        <time>2022-09-22T08:58:35Z</time>
      </trkpt>
      <trkpt lat="49.03786" lon="1.83353">
        <ele>67.2</ele>
        <time>2022-09-22T08:58:40Z</time>
      </trkpt>
      <trkpt lat="49.03789" lon="1.83346">
        <ele>67.4</ele>
        <time>2022-09-22T08:59:00Z</time>
      </trkpt>
      <trkpt lat="49.03793" lon="1.83342">
        <ele>67.2</ele>
        <time>2022-09-22T08:59:04Z</time>
      </trkpt>
      <trkpt lat="49.03798" lon="1.83338">
        <ele>67.2</ele>
        <time>2022-09-22T08:59:11Z</time>
      </trkpt>
      <trkpt lat="49.03804" lon="1.83341">
        <ele>67.1</ele>
        <time>2022-09-22T08:59:15Z</time>
      </trkpt>
      <trkpt lat="49.03808" lon="1.83342">
        <ele>67</ele>
        <time>2022-09-22T08:59:19Z</time>
      </trkpt>
      <trkpt lat="49.03813" lon="1.83343">
        <ele>67.1</ele>
        <time>2022-09-22T08:59:24Z</time>
      </trkpt>
      <trkpt lat="49.03818" lon="1.83345">
        <ele>66.6</ele>
        <time>2022-09-22T08:59:28Z</time>
      </trkpt>
      <trkpt lat="49.03823" lon="1.83346">
        <ele>66.2</ele>
        <time>2022-09-22T08:59:33Z</time>
      </trkpt>
      <trkpt lat="49.03828" lon="1.8335">
        <ele>65.9</ele>
        <time>2022-09-22T08:59:38Z</time>
      </trkpt>
      <trkpt lat="49.03831" lon="1.83354">
        <ele>64.9</ele>
        <time>2022-09-22T08:59:42Z</time>
      </trkpt>
      <trkpt lat="49.03834" lon="1.8336">
        <ele>63.8</ele>
        <time>2022-09-22T08:59:47Z</time>
      </trkpt>
      <trkpt lat="49.03838" lon="1.83364">
        <ele>63.2</ele>
        <time>2022-09-22T08:59:51Z</time>
      </trkpt>
      <trkpt lat="49.03842" lon="1.83368">
        <ele>63.9</ele>
        <time>2022-09-22T08:59:56Z</time>
      </trkpt>
      <trkpt lat="49.03844" lon="1.8336">
        <ele>63.1</ele>
        <time>2022-09-22T09:00:17Z</time>
      </trkpt>
      <trkpt lat="49.03846" lon="1.83354">
        <ele>62.2</ele>
        <time>2022-09-22T09:00:21Z</time>
      </trkpt>
      <trkpt lat="49.03847" lon="1.83346">
        <ele>61.8</ele>
        <time>2022-09-22T09:00:37Z</time>
      </trkpt>
      <trkpt lat="49.03848" lon="1.83338">
        <ele>61.6</ele>
        <time>2022-09-22T09:00:44Z</time>
      </trkpt>
      <trkpt lat="49.03849" lon="1.8333">
        <ele>61.3</ele>
        <time>2022-09-22T09:00:49Z</time>
      </trkpt>
      <trkpt lat="49.03849" lon="1.83323">
        <ele>61.1</ele>
        <time>2022-09-22T09:00:53Z</time>
      </trkpt>
      <trkpt lat="49.03849" lon="1.83316">
        <ele>61.2</ele>
        <time>2022-09-22T09:00:56Z</time>
      </trkpt>
      <trkpt lat="49.03851" lon="1.83308">
        <ele>61.6</ele>
        <time>2022-09-22T09:01:00Z</time>
      </trkpt>
      <trkpt lat="49.03853" lon="1.83299">
        <ele>61.8</ele>
        <time>2022-09-22T09:01:06Z</time>
      </trkpt>
      <trkpt lat="49.03855" lon="1.83292">
        <ele>61.8</ele>
        <time>2022-09-22T09:01:10Z</time>
      </trkpt>
      <trkpt lat="49.03854" lon="1.83285">
        <ele>61.8</ele>
        <time>2022-09-22T09:01:14Z</time>
      </trkpt>
      <trkpt lat="49.03849" lon="1.83281">
        <ele>61.8</ele>
        <time>2022-09-22T09:01:18Z</time>
      </trkpt>
      <trkpt lat="49.03845" lon="1.83278">
        <ele>61.8</ele>
        <time>2022-09-22T09:01:22Z</time>
      </trkpt>
      <trkpt lat="49.03841" lon="1.83276">
        <ele>61.9</ele>
        <time>2022-09-22T09:01:25Z</time>
      </trkpt>
      <trkpt lat="49.03836" lon="1.83271">
        <ele>62</ele>
        <time>2022-09-22T09:01:29Z</time>
      </trkpt>
      <trkpt lat="49.03836" lon="1.83278">
        <ele>62</ele>
        <time>2022-09-22T09:01:35Z</time>
      </trkpt>
      <trkpt lat="49.03837" lon="1.83269">
        <ele>61.4</ele>
        <time>2022-09-22T09:01:50Z</time>
      </trkpt>
      <trkpt lat="49.03837" lon="1.83261">
        <ele>61.2</ele>
        <time>2022-09-22T09:01:54Z</time>
      </trkpt>
      <trkpt lat="49.03838" lon="1.83253">
        <ele>61.3</ele>
        <time>2022-09-22T09:01:59Z</time>
      </trkpt>
      <trkpt lat="49.03839" lon="1.83246">
        <ele>61.1</ele>
        <time>2022-09-22T09:02:05Z</time>
      </trkpt>
      <trkpt lat="49.0384" lon="1.83239">
        <ele>61.2</ele>
        <time>2022-09-22T09:02:10Z</time>
      </trkpt>
      <trkpt lat="49.03841" lon="1.83231">
        <ele>61.3</ele>
        <time>2022-09-22T09:02:16Z</time>
      </trkpt>
      <trkpt lat="49.03843" lon="1.83224">
        <ele>61.3</ele>
        <time>2022-09-22T09:02:22Z</time>
      </trkpt>
      <trkpt lat="49.03845" lon="1.83216">
        <ele>61.4</ele>
        <time>2022-09-22T09:02:27Z</time>
      </trkpt>
      <trkpt lat="49.03847" lon="1.83209">
        <ele>61.5</ele>
        <time>2022-09-22T09:02:31Z</time>
      </trkpt>
      <trkpt lat="49.03849" lon="1.83202">
        <ele>61.7</ele>
        <time>2022-09-22T09:02:36Z</time>
      </trkpt>
      <trkpt lat="49.0385" lon="1.83194">
        <ele>62</ele>
        <time>2022-09-22T09:02:40Z</time>
      </trkpt>
      <trkpt lat="49.03852" lon="1.83186">
        <ele>62.4</ele>
        <time>2022-09-22T09:02:45Z</time>
      </trkpt>
      <trkpt lat="49.03854" lon="1.83178">
        <ele>62.6</ele>
        <time>2022-09-22T09:02:49Z</time>
      </trkpt>
      <trkpt lat="49.03857" lon="1.83171">
        <ele>63</ele>
        <time>2022-09-22T09:02:54Z</time>
      </trkpt>
      <trkpt lat="49.03859" lon="1.83165">
        <ele>63.2</ele>
        <time>2022-09-22T09:02:58Z</time>
      </trkpt>
      <trkpt lat="49.03861" lon="1.83158">
        <ele>63</ele>
        <time>2022-09-22T09:03:02Z</time>
      </trkpt>
      <trkpt lat="49.03863" lon="1.83152">
        <ele>63.1</ele>
        <time>2022-09-22T09:03:06Z</time>
      </trkpt>
      <trkpt lat="49.03866" lon="1.83145">
        <ele>63.1</ele>
        <time>2022-09-22T09:03:11Z</time>
      </trkpt>
      <trkpt lat="49.03868" lon="1.83138">
        <ele>63.1</ele>
        <time>2022-09-22T09:03:15Z</time>
      </trkpt>
      <trkpt lat="49.03871" lon="1.8313">
        <ele>62.9</ele>
        <time>2022-09-22T09:03:20Z</time>
      </trkpt>
      <trkpt lat="49.03873" lon="1.83123">
        <ele>62.7</ele>
        <time>2022-09-22T09:03:25Z</time>
      </trkpt>
      <trkpt lat="49.03876" lon="1.83116">
        <ele>62.6</ele>
        <time>2022-09-22T09:03:29Z</time>
      </trkpt>
      <trkpt lat="49.03878" lon="1.8311">
        <ele>62.6</ele>
        <time>2022-09-22T09:03:33Z</time>
      </trkpt>
      <trkpt lat="49.0388" lon="1.83103">
        <ele>62.4</ele>
        <time>2022-09-22T09:03:38Z</time>
      </trkpt>
      <trkpt lat="49.03883" lon="1.83096">
        <ele>62.3</ele>
        <time>2022-09-22T09:03:42Z</time>
      </trkpt>
      <trkpt lat="49.03886" lon="1.8309">
        <ele>62.4</ele>
        <time>2022-09-22T09:03:46Z</time>
      </trkpt>
      <trkpt lat="49.03889" lon="1.83084">
        <ele>62.4</ele>
        <time>2022-09-22T09:03:51Z</time>
      </trkpt>
      <trkpt lat="49.03892" lon="1.83078">
        <ele>62.3</ele>
        <time>2022-09-22T09:03:54Z</time>
      </trkpt>
      <trkpt lat="49.03897" lon="1.83073">
        <ele>62.3</ele>
        <time>2022-09-22T09:03:59Z</time>
      </trkpt>
      <trkpt lat="49.03902" lon="1.83067">
        <ele>62.3</ele>
        <time>2022-09-22T09:04:04Z</time>
      </trkpt>
      <trkpt lat="49.03902" lon="1.8306">
        <ele>62.4</ele>
        <time>2022-09-22T09:04:09Z</time>
      </trkpt>
      <trkpt lat="49.03905" lon="1.83054">
        <ele>62.3</ele>
        <time>2022-09-22T09:04:25Z</time>
      </trkpt>
      <trkpt lat="49.03907" lon="1.83046">
        <ele>62.4</ele>
        <time>2022-09-22T09:04:31Z</time>
      </trkpt>
      <trkpt lat="49.03908" lon="1.83039">
        <ele>62.6</ele>
        <time>2022-09-22T09:04:35Z</time>
      </trkpt>
      <trkpt lat="49.03908" lon="1.83032">
        <ele>62.5</ele>
        <time>2022-09-22T09:04:40Z</time>
      </trkpt>
      <trkpt lat="49.03909" lon="1.83024">
        <ele>62.2</ele>
        <time>2022-09-22T09:04:46Z</time>
      </trkpt>
      <trkpt lat="49.03909" lon="1.83017">
        <ele>61.7</ele>
        <time>2022-09-22T09:04:52Z</time>
      </trkpt>
      <trkpt lat="49.03909" lon="1.83009">
        <ele>61.9</ele>
        <time>2022-09-22T09:04:56Z</time>
      </trkpt>
      <trkpt lat="49.03909" lon="1.83001">
        <ele>61.7</ele>
        <time>2022-09-22T09:05:01Z</time>
      </trkpt>
      <trkpt lat="49.03905" lon="1.82988">
        <ele>61.7</ele>
        <time>2022-09-22T09:05:15Z</time>
      </trkpt>
      <trkpt lat="49.03905" lon="1.82979">
        <ele>61.6</ele>
        <time>2022-09-22T09:05:20Z</time>
      </trkpt>
      <trkpt lat="49.03907" lon="1.82972">
        <ele>61.6</ele>
        <time>2022-09-22T09:05:24Z</time>
      </trkpt>
      <trkpt lat="49.0391" lon="1.82966">
        <ele>61.8</ele>
        <time>2022-09-22T09:05:28Z</time>
      </trkpt>
      <trkpt lat="49.03913" lon="1.82958">
        <ele>61.9</ele>
        <time>2022-09-22T09:05:32Z</time>
      </trkpt>
      <trkpt lat="49.03915" lon="1.82952">
        <ele>62</ele>
        <time>2022-09-22T09:05:36Z</time>
      </trkpt>
      <trkpt lat="49.03916" lon="1.82945">
        <ele>63</ele>
        <time>2022-09-22T09:05:40Z</time>
      </trkpt>
      <trkpt lat="49.03918" lon="1.82938">
        <ele>63.9</ele>
        <time>2022-09-22T09:05:43Z</time>
      </trkpt>
      <trkpt lat="49.0392" lon="1.8293">
        <ele>64.4</ele>
        <time>2022-09-22T09:05:47Z</time>
      </trkpt>
      <trkpt lat="49.03923" lon="1.82921">
        <ele>65.1</ele>
        <time>2022-09-22T09:05:52Z</time>
      </trkpt>
      <trkpt lat="49.03925" lon="1.82915">
        <ele>66.2</ele>
        <time>2022-09-22T09:05:55Z</time>
      </trkpt>
      <trkpt lat="49.03926" lon="1.82908">
        <ele>67.2</ele>
        <time>2022-09-22T09:05:58Z</time>
      </trkpt>
      <trkpt lat="49.03928" lon="1.829">
        <ele>67.4</ele>
        <time>2022-09-22T09:06:02Z</time>
      </trkpt>
      <trkpt lat="49.0393" lon="1.82892">
        <ele>68.3</ele>
        <time>2022-09-22T09:06:06Z</time>
      </trkpt>
      <trkpt lat="49.03933" lon="1.82883">
        <ele>68.7</ele>
        <time>2022-09-22T09:06:11Z</time>
      </trkpt>
      <trkpt lat="49.03936" lon="1.82876">
        <ele>68.9</ele>
        <time>2022-09-22T09:06:15Z</time>
      </trkpt>
      <trkpt lat="49.03939" lon="1.82869">
        <ele>69</ele>
        <time>2022-09-22T09:06:19Z</time>
      </trkpt>
      <trkpt lat="49.03942" lon="1.82862">
        <ele>69.2</ele>
        <time>2022-09-22T09:06:24Z</time>
      </trkpt>
      <trkpt lat="49.03945" lon="1.82854">
        <ele>69.7</ele>
        <time>2022-09-22T09:06:28Z</time>
      </trkpt>
      <trkpt lat="49.03948" lon="1.82849">
        <ele>69.9</ele>
        <time>2022-09-22T09:06:32Z</time>
      </trkpt>
      <trkpt lat="49.03951" lon="1.82842">
        <ele>70.2</ele>
        <time>2022-09-22T09:06:36Z</time>
      </trkpt>
      <trkpt lat="49.03954" lon="1.82835">
        <ele>70.8</ele>
        <time>2022-09-22T09:06:40Z</time>
      </trkpt>
      <trkpt lat="49.03957" lon="1.82828">
        <ele>71.2</ele>
        <time>2022-09-22T09:06:44Z</time>
      </trkpt>
      <trkpt lat="49.03959" lon="1.82821">
        <ele>71.3</ele>
        <time>2022-09-22T09:06:49Z</time>
      </trkpt>
      <trkpt lat="49.0396" lon="1.82813">
        <ele>71.4</ele>
        <time>2022-09-22T09:06:53Z</time>
      </trkpt>
      <trkpt lat="49.03961" lon="1.82804">
        <ele>71.8</ele>
        <time>2022-09-22T09:06:58Z</time>
      </trkpt>
      <trkpt lat="49.03963" lon="1.82796">
        <ele>72.3</ele>
        <time>2022-09-22T09:07:02Z</time>
      </trkpt>
      <trkpt lat="49.03964" lon="1.82788">
        <ele>72.4</ele>
        <time>2022-09-22T09:07:06Z</time>
      </trkpt>
      <trkpt lat="49.03966" lon="1.82782">
        <ele>73</ele>
        <time>2022-09-22T09:07:10Z</time>
      </trkpt>
      <trkpt lat="49.03968" lon="1.82775">
        <ele>73</ele>
        <time>2022-09-22T09:07:14Z</time>
      </trkpt>
      <trkpt lat="49.0397" lon="1.82767">
        <ele>73.1</ele>
        <time>2022-09-22T09:07:18Z</time>
      </trkpt>
      <trkpt lat="49.03973" lon="1.8276">
        <ele>73</ele>
        <time>2022-09-22T09:07:22Z</time>
      </trkpt>
      <trkpt lat="49.03975" lon="1.82752">
        <ele>73</ele>
        <time>2022-09-22T09:07:26Z</time>
      </trkpt>
      <trkpt lat="49.03976" lon="1.82745">
        <ele>73</ele>
        <time>2022-09-22T09:07:30Z</time>
      </trkpt>
      <trkpt lat="49.03979" lon="1.82738">
        <ele>73.2</ele>
        <time>2022-09-22T09:07:35Z</time>
      </trkpt>
      <trkpt lat="49.03981" lon="1.8273">
        <ele>73.3</ele>
        <time>2022-09-22T09:07:39Z</time>
      </trkpt>
      <trkpt lat="49.03983" lon="1.82722">
        <ele>73.4</ele>
        <time>2022-09-22T09:07:44Z</time>
      </trkpt>
      <trkpt lat="49.03983" lon="1.82715">
        <ele>73.6</ele>
        <time>2022-09-22T09:07:47Z</time>
      </trkpt>
      <trkpt lat="49.03985" lon="1.82708">
        <ele>73.8</ele>
        <time>2022-09-22T09:07:51Z</time>
      </trkpt>
      <trkpt lat="49.03986" lon="1.82702">
        <ele>73.8</ele>
        <time>2022-09-22T09:07:54Z</time>
      </trkpt>
      <trkpt lat="49.03988" lon="1.82693">
        <ele>74</ele>
        <time>2022-09-22T09:07:59Z</time>
      </trkpt>
      <trkpt lat="49.03989" lon="1.82686">
        <ele>73.9</ele>
        <time>2022-09-22T09:08:02Z</time>
      </trkpt>
      <trkpt lat="49.03992" lon="1.82678">
        <ele>74.2</ele>
        <time>2022-09-22T09:08:06Z</time>
      </trkpt>
      <trkpt lat="49.03994" lon="1.82671">
        <ele>74.5</ele>
        <time>2022-09-22T09:08:10Z</time>
      </trkpt>
      <trkpt lat="49.03997" lon="1.82663">
        <ele>74.6</ele>
        <time>2022-09-22T09:08:14Z</time>
      </trkpt>
      <trkpt lat="49.03999" lon="1.82656">
        <ele>74.7</ele>
        <time>2022-09-22T09:08:19Z</time>
      </trkpt>
      <trkpt lat="49.04001" lon="1.82649">
        <ele>74.9</ele>
        <time>2022-09-22T09:08:22Z</time>
      </trkpt>
      <trkpt lat="49.04003" lon="1.82643">
        <ele>75.3</ele>
        <time>2022-09-22T09:08:26Z</time>
      </trkpt>
      <trkpt lat="49.04005" lon="1.82634">
        <ele>75.5</ele>
        <time>2022-09-22T09:08:30Z</time>
      </trkpt>
      <trkpt lat="49.04007" lon="1.82628">
        <ele>75.9</ele>
        <time>2022-09-22T09:08:34Z</time>
      </trkpt>
      <trkpt lat="49.04008" lon="1.82621">
        <ele>76.2</ele>
        <time>2022-09-22T09:08:37Z</time>
      </trkpt>
      <trkpt lat="49.0401" lon="1.82613">
        <ele>76.4</ele>
        <time>2022-09-22T09:08:42Z</time>
      </trkpt>
      <trkpt lat="49.04012" lon="1.82607">
        <ele>76.1</ele>
        <time>2022-09-22T09:08:45Z</time>
      </trkpt>
      <trkpt lat="49.04015" lon="1.826">
        <ele>75.9</ele>
        <time>2022-09-22T09:08:49Z</time>
      </trkpt>
      <trkpt lat="49.04017" lon="1.82592">
        <ele>76.1</ele>
        <time>2022-09-22T09:08:54Z</time>
      </trkpt>
      <trkpt lat="49.0402" lon="1.82586">
        <ele>75.9</ele>
        <time>2022-09-22T09:08:57Z</time>
      </trkpt>
      <trkpt lat="49.04023" lon="1.8258">
        <ele>75.7</ele>
        <time>2022-09-22T09:09:01Z</time>
      </trkpt>
      <trkpt lat="49.04026" lon="1.82574">
        <ele>74.4</ele>
        <time>2022-09-22T09:09:05Z</time>
      </trkpt>
      <trkpt lat="49.04029" lon="1.82567">
        <ele>74.7</ele>
        <time>2022-09-22T09:09:09Z</time>
      </trkpt>
      <trkpt lat="49.04032" lon="1.82559">
        <ele>75</ele>
        <time>2022-09-22T09:09:13Z</time>
      </trkpt>
      <trkpt lat="49.04035" lon="1.82552">
        <ele>75</ele>
        <time>2022-09-22T09:09:17Z</time>
      </trkpt>
      <trkpt lat="49.04038" lon="1.82545">
        <ele>75.2</ele>
        <time>2022-09-22T09:09:21Z</time>
      </trkpt>
      <trkpt lat="49.04042" lon="1.82538">
        <ele>75.6</ele>
        <time>2022-09-22T09:09:25Z</time>
      </trkpt>
      <trkpt lat="49.04045" lon="1.82531">
        <ele>76.1</ele>
        <time>2022-09-22T09:09:29Z</time>
      </trkpt>
      <trkpt lat="49.04048" lon="1.82525">
        <ele>76.7</ele>
        <time>2022-09-22T09:09:33Z</time>
      </trkpt>
      <trkpt lat="49.04052" lon="1.82519">
        <ele>76.9</ele>
        <time>2022-09-22T09:09:37Z</time>
      </trkpt>
      <trkpt lat="49.04055" lon="1.82514">
        <ele>77</ele>
        <time>2022-09-22T09:09:41Z</time>
      </trkpt>
      <trkpt lat="49.0406" lon="1.82509">
        <ele>77.3</ele>
        <time>2022-09-22T09:09:45Z</time>
      </trkpt>
      <trkpt lat="49.04064" lon="1.82506">
        <ele>77.3</ele>
        <time>2022-09-22T09:09:49Z</time>
      </trkpt>
      <trkpt lat="49.04069" lon="1.82504">
        <ele>77.4</ele>
        <time>2022-09-22T09:09:53Z</time>
      </trkpt>
      <trkpt lat="49.04075" lon="1.82502">
        <ele>77.5</ele>
        <time>2022-09-22T09:09:57Z</time>
      </trkpt>
      <trkpt lat="49.0408" lon="1.82499">
        <ele>77.7</ele>
        <time>2022-09-22T09:10:01Z</time>
      </trkpt>
      <trkpt lat="49.04084" lon="1.82496">
        <ele>77.7</ele>
        <time>2022-09-22T09:10:05Z</time>
      </trkpt>
      <trkpt lat="49.04089" lon="1.82494">
        <ele>77.7</ele>
        <time>2022-09-22T09:10:09Z</time>
      </trkpt>
      <trkpt lat="49.04095" lon="1.82491">
        <ele>77.9</ele>
        <time>2022-09-22T09:10:13Z</time>
      </trkpt>
      <trkpt lat="49.041" lon="1.82489">
        <ele>77.9</ele>
        <time>2022-09-22T09:10:17Z</time>
      </trkpt>
      <trkpt lat="49.04105" lon="1.82487">
        <ele>78.1</ele>
        <time>2022-09-22T09:10:21Z</time>
      </trkpt>
      <trkpt lat="49.04111" lon="1.82485">
        <ele>78.5</ele>
        <time>2022-09-22T09:10:25Z</time>
      </trkpt>
      <trkpt lat="49.04117" lon="1.82483">
        <ele>78.6</ele>
        <time>2022-09-22T09:10:30Z</time>
      </trkpt>
      <trkpt lat="49.04122" lon="1.8248">
        <ele>78.9</ele>
        <time>2022-09-22T09:10:34Z</time>
      </trkpt>
      <trkpt lat="49.04126" lon="1.82478">
        <ele>79.2</ele>
        <time>2022-09-22T09:10:38Z</time>
      </trkpt>
      <trkpt lat="49.04131" lon="1.82476">
        <ele>79.7</ele>
        <time>2022-09-22T09:10:41Z</time>
      </trkpt>
      <trkpt lat="49.04136" lon="1.82474">
        <ele>79.8</ele>
        <time>2022-09-22T09:10:45Z</time>
      </trkpt>
      <trkpt lat="49.04141" lon="1.82472">
        <ele>80</ele>
        <time>2022-09-22T09:10:49Z</time>
      </trkpt>
      <trkpt lat="49.04145" lon="1.8247">
        <ele>80.4</ele>
        <time>2022-09-22T09:10:52Z</time>
      </trkpt>
      <trkpt lat="49.04151" lon="1.82468">
        <ele>80.8</ele>
        <time>2022-09-22T09:10:56Z</time>
      </trkpt>
      <trkpt lat="49.04156" lon="1.82466">
        <ele>81.3</ele>
        <time>2022-09-22T09:11:00Z</time>
      </trkpt>
      <trkpt lat="49.04161" lon="1.82464">
        <ele>81.8</ele>
        <time>2022-09-22T09:11:04Z</time>
      </trkpt>
      <trkpt lat="49.04166" lon="1.82463">
        <ele>81.9</ele>
        <time>2022-09-22T09:11:07Z</time>
      </trkpt>
      <trkpt lat="49.0417" lon="1.82462">
        <ele>82</ele>
        <time>2022-09-22T09:11:10Z</time>
      </trkpt>
      <trkpt lat="49.04175" lon="1.8246">
        <ele>82.2</ele>
        <time>2022-09-22T09:11:14Z</time>
      </trkpt>
      <trkpt lat="49.0418" lon="1.82458">
        <ele>82.3</ele>
        <time>2022-09-22T09:11:17Z</time>
      </trkpt>
      <trkpt lat="49.04185" lon="1.82457">
        <ele>82.6</ele>
        <time>2022-09-22T09:11:21Z</time>
      </trkpt>
      <trkpt lat="49.04189" lon="1.82456">
        <ele>83</ele>
        <time>2022-09-22T09:11:24Z</time>
      </trkpt>
      <trkpt lat="49.04194" lon="1.82454">
        <ele>83.3</ele>
        <time>2022-09-22T09:11:28Z</time>
      </trkpt>
      <trkpt lat="49.04199" lon="1.82452">
        <ele>84.1</ele>
        <time>2022-09-22T09:11:32Z</time>
      </trkpt>
      <trkpt lat="49.04204" lon="1.8245">
        <ele>84.8</ele>
        <time>2022-09-22T09:11:35Z</time>
      </trkpt>
      <trkpt lat="49.04209" lon="1.82448">
        <ele>85.5</ele>
        <time>2022-09-22T09:11:39Z</time>
      </trkpt>
      <trkpt lat="49.04214" lon="1.82447">
        <ele>85.7</ele>
        <time>2022-09-22T09:11:43Z</time>
      </trkpt>
      <trkpt lat="49.04218" lon="1.82445">
        <ele>85.8</ele>
        <time>2022-09-22T09:11:46Z</time>
      </trkpt>
      <trkpt lat="49.04224" lon="1.82444">
        <ele>86.2</ele>
        <time>2022-09-22T09:11:50Z</time>
      </trkpt>
      <trkpt lat="49.04229" lon="1.82442">
        <ele>86.3</ele>
        <time>2022-09-22T09:11:54Z</time>
      </trkpt>
      <trkpt lat="49.04234" lon="1.82441">
        <ele>86.3</ele>
        <time>2022-09-22T09:11:58Z</time>
      </trkpt>
      <trkpt lat="49.04239" lon="1.82439">
        <ele>86.4</ele>
        <time>2022-09-22T09:12:02Z</time>
      </trkpt>
      <trkpt lat="49.04243" lon="1.82438">
        <ele>86.7</ele>
        <time>2022-09-22T09:12:06Z</time>
      </trkpt>
      <trkpt lat="49.04248" lon="1.82436">
        <ele>86.6</ele>
        <time>2022-09-22T09:12:10Z</time>
      </trkpt>
      <trkpt lat="49.04253" lon="1.82433">
        <ele>86.6</ele>
        <time>2022-09-22T09:12:14Z</time>
      </trkpt>
      <trkpt lat="49.04258" lon="1.82432">
        <ele>86.5</ele>
        <time>2022-09-22T09:12:18Z</time>
      </trkpt>
      <trkpt lat="49.04263" lon="1.8243">
        <ele>86.2</ele>
        <time>2022-09-22T09:12:22Z</time>
      </trkpt>
      <trkpt lat="49.04267" lon="1.82429">
        <ele>85.9</ele>
        <time>2022-09-22T09:12:26Z</time>
      </trkpt>
      <trkpt lat="49.04273" lon="1.82428">
        <ele>85.9</ele>
        <time>2022-09-22T09:12:31Z</time>
      </trkpt>
      <trkpt lat="49.04278" lon="1.82427">
        <ele>85.7</ele>
        <time>2022-09-22T09:12:35Z</time>
      </trkpt>
      <trkpt lat="49.04283" lon="1.82425">
        <ele>85.7</ele>
        <time>2022-09-22T09:12:39Z</time>
      </trkpt>
      <trkpt lat="49.04288" lon="1.82423">
        <ele>85.6</ele>
        <time>2022-09-22T09:12:43Z</time>
      </trkpt>
      <trkpt lat="49.04293" lon="1.82422">
        <ele>85.3</ele>
        <time>2022-09-22T09:12:47Z</time>
      </trkpt>
      <trkpt lat="49.04298" lon="1.82421">
        <ele>85.3</ele>
        <time>2022-09-22T09:12:51Z</time>
      </trkpt>
      <trkpt lat="49.04304" lon="1.8242">
        <ele>85.3</ele>
        <time>2022-09-22T09:12:56Z</time>
      </trkpt>
      <trkpt lat="49.04309" lon="1.82418">
        <ele>85.1</ele>
        <time>2022-09-22T09:12:59Z</time>
      </trkpt>
      <trkpt lat="49.04314" lon="1.82417">
        <ele>85.1</ele>
        <time>2022-09-22T09:13:03Z</time>
      </trkpt>
      <trkpt lat="49.04319" lon="1.82416">
        <ele>85.1</ele>
        <time>2022-09-22T09:13:07Z</time>
      </trkpt>
      <trkpt lat="49.04326" lon="1.82414">
        <ele>85</ele>
        <time>2022-09-22T09:13:12Z</time>
      </trkpt>
      <trkpt lat="49.04331" lon="1.82414">
        <ele>84.9</ele>
        <time>2022-09-22T09:13:16Z</time>
      </trkpt>
      <trkpt lat="49.04336" lon="1.82413">
        <ele>84.8</ele>
        <time>2022-09-22T09:13:20Z</time>
      </trkpt>
      <trkpt lat="49.04342" lon="1.82412">
        <ele>84.7</ele>
        <time>2022-09-22T09:13:25Z</time>
      </trkpt>
      <trkpt lat="49.04348" lon="1.82411">
        <ele>84.6</ele>
        <time>2022-09-22T09:13:29Z</time>
      </trkpt>
      <trkpt lat="49.04353" lon="1.8241">
        <ele>84.6</ele>
        <time>2022-09-22T09:13:33Z</time>
      </trkpt>
      <trkpt lat="49.04358" lon="1.82408">
        <ele>84.2</ele>
        <time>2022-09-22T09:13:38Z</time>
      </trkpt>
      <trkpt lat="49.04363" lon="1.82407">
        <ele>84</ele>
        <time>2022-09-22T09:13:42Z</time>
      </trkpt>
      <trkpt lat="49.04369" lon="1.82406">
        <ele>84</ele>
        <time>2022-09-22T09:13:46Z</time>
      </trkpt>
      <trkpt lat="49.04373" lon="1.82404">
        <ele>83.9</ele>
        <time>2022-09-22T09:13:50Z</time>
      </trkpt>
      <trkpt lat="49.04378" lon="1.82402">
        <ele>83.4</ele>
        <time>2022-09-22T09:13:54Z</time>
      </trkpt>
      <trkpt lat="49.04383" lon="1.824">
        <ele>83.3</ele>
        <time>2022-09-22T09:13:58Z</time>
      </trkpt>
      <trkpt lat="49.04388" lon="1.82399">
        <ele>83.4</ele>
        <time>2022-09-22T09:14:03Z</time>
      </trkpt>
      <trkpt lat="49.04393" lon="1.82399">
        <ele>83.1</ele>
        <time>2022-09-22T09:14:06Z</time>
      </trkpt>
      <trkpt lat="49.04399" lon="1.82398">
        <ele>82.9</ele>
        <time>2022-09-22T09:14:11Z</time>
      </trkpt>
      <trkpt lat="49.04403" lon="1.82397">
        <ele>82.9</ele>
        <time>2022-09-22T09:14:14Z</time>
      </trkpt>
      <trkpt lat="49.04408" lon="1.82397">
        <ele>82.8</ele>
        <time>2022-09-22T09:14:18Z</time>
      </trkpt>
      <trkpt lat="49.04413" lon="1.82395">
        <ele>82.9</ele>
        <time>2022-09-22T09:14:22Z</time>
      </trkpt>
      <trkpt lat="49.04417" lon="1.82395">
        <ele>82.9</ele>
        <time>2022-09-22T09:14:26Z</time>
      </trkpt>
      <trkpt lat="49.04422" lon="1.82395">
        <ele>82.8</ele>
        <time>2022-09-22T09:14:30Z</time>
      </trkpt>
      <trkpt lat="49.04427" lon="1.82393">
        <ele>83</ele>
        <time>2022-09-22T09:14:35Z</time>
      </trkpt>
      <trkpt lat="49.04432" lon="1.82391">
        <ele>83.1</ele>
        <time>2022-09-22T09:14:39Z</time>
      </trkpt>
      <trkpt lat="49.04438" lon="1.82389">
        <ele>83.4</ele>
        <time>2022-09-22T09:14:43Z</time>
      </trkpt>
      <trkpt lat="49.04443" lon="1.82388">
        <ele>83.4</ele>
        <time>2022-09-22T09:14:47Z</time>
      </trkpt>
      <trkpt lat="49.04449" lon="1.82386">
        <ele>83.3</ele>
        <time>2022-09-22T09:14:52Z</time>
      </trkpt>
      <trkpt lat="49.04453" lon="1.82384">
        <ele>83.6</ele>
        <time>2022-09-22T09:14:55Z</time>
      </trkpt>
      <trkpt lat="49.04458" lon="1.82383">
        <ele>84</ele>
        <time>2022-09-22T09:14:59Z</time>
      </trkpt>
      <trkpt lat="49.04463" lon="1.82382">
        <ele>84.1</ele>
        <time>2022-09-22T09:15:03Z</time>
      </trkpt>
      <trkpt lat="49.04468" lon="1.82381">
        <ele>84.5</ele>
        <time>2022-09-22T09:15:07Z</time>
      </trkpt>
      <trkpt lat="49.04473" lon="1.8238">
        <ele>84.6</ele>
        <time>2022-09-22T09:15:11Z</time>
      </trkpt>
      <trkpt lat="49.04478" lon="1.8238">
        <ele>84.9</ele>
        <time>2022-09-22T09:15:15Z</time>
      </trkpt>
      <trkpt lat="49.04483" lon="1.82379">
        <ele>85</ele>
        <time>2022-09-22T09:15:19Z</time>
      </trkpt>
      <trkpt lat="49.04479" lon="1.82382">
        <ele>84.6</ele>
        <time>2022-09-22T09:16:19Z</time>
      </trkpt>
      <trkpt lat="49.04473" lon="1.82381">
        <ele>84.6</ele>
        <time>2022-09-22T09:16:44Z</time>
      </trkpt>
      <trkpt lat="49.04467" lon="1.82383">
        <ele>84.4</ele>
        <time>2022-09-22T09:16:50Z</time>
      </trkpt>
      <trkpt lat="49.04462" lon="1.82384">
        <ele>84.1</ele>
        <time>2022-09-22T09:16:54Z</time>
      </trkpt>
      <trkpt lat="49.04457" lon="1.82385">
        <ele>83.3</ele>
        <time>2022-09-22T09:16:58Z</time>
      </trkpt>
      <trkpt lat="49.04451" lon="1.82387">
        <ele>82.6</ele>
        <time>2022-09-22T09:17:03Z</time>
      </trkpt>
      <trkpt lat="49.04446" lon="1.82389">
        <ele>81.2</ele>
        <time>2022-09-22T09:17:07Z</time>
      </trkpt>
      <trkpt lat="49.0444" lon="1.8239">
        <ele>81</ele>
        <time>2022-09-22T09:17:12Z</time>
      </trkpt>
      <trkpt lat="49.04434" lon="1.82391">
        <ele>80.8</ele>
        <time>2022-09-22T09:17:16Z</time>
      </trkpt>
      <trkpt lat="49.0443" lon="1.82394">
        <ele>80.2</ele>
        <time>2022-09-22T09:17:20Z</time>
      </trkpt>
      <trkpt lat="49.04428" lon="1.82401">
        <ele>80.2</ele>
        <time>2022-09-22T09:17:25Z</time>
      </trkpt>
      <trkpt lat="49.04429" lon="1.82408">
        <ele>80.1</ele>
        <time>2022-09-22T09:17:28Z</time>
      </trkpt>
      <trkpt lat="49.04431" lon="1.82415">
        <ele>79.7</ele>
        <time>2022-09-22T09:17:33Z</time>
      </trkpt>
      <trkpt lat="49.04433" lon="1.82424">
        <ele>78.9</ele>
        <time>2022-09-22T09:17:37Z</time>
      </trkpt>
      <trkpt lat="49.04434" lon="1.8243">
        <ele>78.6</ele>
        <time>2022-09-22T09:17:41Z</time>
      </trkpt>
      <trkpt lat="49.04434" lon="1.82438">
        <ele>78.5</ele>
        <time>2022-09-22T09:17:45Z</time>
      </trkpt>
      <trkpt lat="49.04435" lon="1.82446">
        <ele>78.2</ele>
        <time>2022-09-22T09:17:50Z</time>
      </trkpt>
      <trkpt lat="49.04437" lon="1.82453">
        <ele>77.7</ele>
        <time>2022-09-22T09:17:54Z</time>
      </trkpt>
      <trkpt lat="49.04438" lon="1.82459">
        <ele>77.4</ele>
        <time>2022-09-22T09:17:58Z</time>
      </trkpt>
      <trkpt lat="49.04439" lon="1.82467">
        <ele>77.2</ele>
        <time>2022-09-22T09:18:02Z</time>
      </trkpt>
      <trkpt lat="49.04439" lon="1.82475">
        <ele>76.7</ele>
        <time>2022-09-22T09:18:07Z</time>
      </trkpt>
      <trkpt lat="49.0444" lon="1.82484">
        <ele>76.4</ele>
        <time>2022-09-22T09:18:22Z</time>
      </trkpt>
      <trkpt lat="49.04441" lon="1.8249">
        <ele>76.2</ele>
        <time>2022-09-22T09:18:25Z</time>
      </trkpt>
      <trkpt lat="49.04442" lon="1.82497">
        <ele>76</ele>
        <time>2022-09-22T09:18:29Z</time>
      </trkpt>
      <trkpt lat="49.04443" lon="1.82505">
        <ele>75</ele>
        <time>2022-09-22T09:18:33Z</time>
      </trkpt>
      <trkpt lat="49.04444" lon="1.82514">
        <ele>74.5</ele>
        <time>2022-09-22T09:18:37Z</time>
      </trkpt>
      <trkpt lat="49.04445" lon="1.82523">
        <ele>73.6</ele>
        <time>2022-09-22T09:18:42Z</time>
      </trkpt>
      <trkpt lat="49.04446" lon="1.82531">
        <ele>73.3</ele>
        <time>2022-09-22T09:18:47Z</time>
      </trkpt>
      <trkpt lat="49.04447" lon="1.82538">
        <ele>72.3</ele>
        <time>2022-09-22T09:18:51Z</time>
      </trkpt>
      <trkpt lat="49.04448" lon="1.82546">
        <ele>72.1</ele>
        <time>2022-09-22T09:18:55Z</time>
      </trkpt>
      <trkpt lat="49.04449" lon="1.82553">
        <ele>71.6</ele>
        <time>2022-09-22T09:19:00Z</time>
      </trkpt>
      <trkpt lat="49.04453" lon="1.82559">
        <ele>70.9</ele>
        <time>2022-09-22T09:19:06Z</time>
      </trkpt>
      <trkpt lat="49.04454" lon="1.82567">
        <ele>70.6</ele>
        <time>2022-09-22T09:19:09Z</time>
      </trkpt>
      <trkpt lat="49.04453" lon="1.82575">
        <ele>70.7</ele>
        <time>2022-09-22T09:19:13Z</time>
      </trkpt>
      <trkpt lat="49.04452" lon="1.82582">
        <ele>70.4</ele>
        <time>2022-09-22T09:19:17Z</time>
      </trkpt>
      <trkpt lat="49.04451" lon="1.82589">
        <ele>70.6</ele>
        <time>2022-09-22T09:19:22Z</time>
      </trkpt>
      <trkpt lat="49.0445" lon="1.82597">
        <ele>70.6</ele>
        <time>2022-09-22T09:19:28Z</time>
      </trkpt>
      <trkpt lat="49.04453" lon="1.82604">
        <ele>70.3</ele>
        <time>2022-09-22T09:19:32Z</time>
      </trkpt>
      <trkpt lat="49.04458" lon="1.82604">
        <ele>70.2</ele>
        <time>2022-09-22T09:19:37Z</time>
      </trkpt>
      <trkpt lat="49.04463" lon="1.82602">
        <ele>70</ele>
        <time>2022-09-22T09:19:41Z</time>
      </trkpt>
      <trkpt lat="49.04468" lon="1.82602">
        <ele>70</ele>
        <time>2022-09-22T09:19:46Z</time>
      </trkpt>
      <trkpt lat="49.04472" lon="1.82595">
        <ele>69.4</ele>
        <time>2022-09-22T09:20:00Z</time>
      </trkpt>
      <trkpt lat="49.04478" lon="1.82591">
        <ele>68.3</ele>
        <time>2022-09-22T09:20:05Z</time>
      </trkpt>
      <trkpt lat="49.04483" lon="1.8259">
        <ele>68.2</ele>
        <time>2022-09-22T09:20:09Z</time>
      </trkpt>
      <trkpt lat="49.04488" lon="1.8259">
        <ele>65</ele>
        <time>2022-09-22T09:20:12Z</time>
      </trkpt>
      <trkpt lat="49.04493" lon="1.8259">
        <ele>65.4</ele>
        <time>2022-09-22T09:20:16Z</time>
      </trkpt>
      <trkpt lat="49.04498" lon="1.8259">
        <ele>64.4</ele>
        <time>2022-09-22T09:20:20Z</time>
      </trkpt>
      <trkpt lat="49.04503" lon="1.82591">
        <ele>64.2</ele>
        <time>2022-09-22T09:20:24Z</time>
      </trkpt>
      <trkpt lat="49.04507" lon="1.82588">
        <ele>64.7</ele>
        <time>2022-09-22T09:20:27Z</time>
      </trkpt>
      <trkpt lat="49.0451" lon="1.82581">
        <ele>65.2</ele>
        <time>2022-09-22T09:20:31Z</time>
      </trkpt>
      <trkpt lat="49.04511" lon="1.82574">
        <ele>65.5</ele>
        <time>2022-09-22T09:20:35Z</time>
      </trkpt>
      <trkpt lat="49.04514" lon="1.82569">
        <ele>65.8</ele>
        <time>2022-09-22T09:20:39Z</time>
      </trkpt>
      <trkpt lat="49.04519" lon="1.82569">
        <ele>67.4</ele>
        <time>2022-09-22T09:20:44Z</time>
      </trkpt>
      <trkpt lat="49.04524" lon="1.8257">
        <ele>68</ele>
        <time>2022-09-22T09:20:47Z</time>
      </trkpt>
      <trkpt lat="49.04529" lon="1.82571">
        <ele>68</ele>
        <time>2022-09-22T09:20:51Z</time>
      </trkpt>
      <trkpt lat="49.04534" lon="1.82572">
        <ele>68.7</ele>
        <time>2022-09-22T09:20:55Z</time>
      </trkpt>
      <trkpt lat="49.04539" lon="1.82572">
        <ele>68.7</ele>
        <time>2022-09-22T09:20:59Z</time>
      </trkpt>
      <trkpt lat="49.04544" lon="1.82571">
        <ele>69</ele>
        <time>2022-09-22T09:21:04Z</time>
      </trkpt>
      <trkpt lat="49.04549" lon="1.82564">
        <ele>68.9</ele>
        <time>2022-09-22T09:21:09Z</time>
      </trkpt>
      <trkpt lat="49.04551" lon="1.82556">
        <ele>69</ele>
        <time>2022-09-22T09:21:14Z</time>
      </trkpt>
      <trkpt lat="49.04554" lon="1.82549">
        <ele>69.2</ele>
        <time>2022-09-22T09:21:19Z</time>
      </trkpt>
      <trkpt lat="49.04558" lon="1.82545">
        <ele>69.4</ele>
        <time>2022-09-22T09:21:23Z</time>
      </trkpt>
      <trkpt lat="49.04563" lon="1.82544">
        <ele>69.4</ele>
        <time>2022-09-22T09:21:28Z</time>
      </trkpt>
      <trkpt lat="49.04568" lon="1.82543">
        <ele>69.4</ele>
        <time>2022-09-22T09:21:33Z</time>
      </trkpt>
      <trkpt lat="49.04573" lon="1.82541">
        <ele>69.8</ele>
        <time>2022-09-22T09:21:38Z</time>
      </trkpt>
      <trkpt lat="49.04578" lon="1.82539">
        <ele>69.6</ele>
        <time>2022-09-22T09:21:42Z</time>
      </trkpt>
      <trkpt lat="49.04583" lon="1.82539">
        <ele>69.9</ele>
        <time>2022-09-22T09:21:46Z</time>
      </trkpt>
      <trkpt lat="49.04588" lon="1.8254">
        <ele>70</ele>
        <time>2022-09-22T09:21:51Z</time>
      </trkpt>
      <trkpt lat="49.04592" lon="1.82543">
        <ele>70.7</ele>
        <time>2022-09-22T09:21:57Z</time>
      </trkpt>
      <trkpt lat="49.04595" lon="1.8255">
        <ele>71.7</ele>
        <time>2022-09-22T09:22:04Z</time>
      </trkpt>
      <trkpt lat="49.04596" lon="1.82557">
        <ele>73</ele>
        <time>2022-09-22T09:22:08Z</time>
      </trkpt>
      <trkpt lat="49.04597" lon="1.82564">
        <ele>73.1</ele>
        <time>2022-09-22T09:22:12Z</time>
      </trkpt>
      <trkpt lat="49.04595" lon="1.8257">
        <ele>72.9</ele>
        <time>2022-09-22T09:22:18Z</time>
      </trkpt>
      <trkpt lat="49.04594" lon="1.82578">
        <ele>72.5</ele>
        <time>2022-09-22T09:22:33Z</time>
      </trkpt>
      <trkpt lat="49.04598" lon="1.8258">
        <ele>72.6</ele>
        <time>2022-09-22T09:22:50Z</time>
      </trkpt>
      <trkpt lat="49.04602" lon="1.82583">
        <ele>72.6</ele>
        <time>2022-09-22T09:22:58Z</time>
      </trkpt>
      <trkpt lat="49.04604" lon="1.8259">
        <ele>72.3</ele>
        <time>2022-09-22T09:23:08Z</time>
      </trkpt>
      <trkpt lat="49.04605" lon="1.82597">
        <ele>72.3</ele>
        <time>2022-09-22T09:23:16Z</time>
      </trkpt>
      <trkpt lat="49.04605" lon="1.82605">
        <ele>72.4</ele>
        <time>2022-09-22T09:23:22Z</time>
      </trkpt>
      <trkpt lat="49.04608" lon="1.82611">
        <ele>71.8</ele>
        <time>2022-09-22T09:23:29Z</time>
      </trkpt>
      <trkpt lat="49.04612" lon="1.82615">
        <ele>71.6</ele>
        <time>2022-09-22T09:23:36Z</time>
      </trkpt>
      <trkpt lat="49.04616" lon="1.82619">
        <ele>70.8</ele>
        <time>2022-09-22T09:23:41Z</time>
      </trkpt>
      <trkpt lat="49.04619" lon="1.82626">
        <ele>71.1</ele>
        <time>2022-09-22T09:23:47Z</time>
      </trkpt>
      <trkpt lat="49.0462" lon="1.82633">
        <ele>71.1</ele>
        <time>2022-09-22T09:23:54Z</time>
      </trkpt>
      <trkpt lat="49.04621" lon="1.8264">
        <ele>71.1</ele>
        <time>2022-09-22T09:24:03Z</time>
      </trkpt>
      <trkpt lat="49.04625" lon="1.82643">
        <ele>71.6</ele>
        <time>2022-09-22T09:24:53Z</time>
      </trkpt>
      <trkpt lat="49.0463" lon="1.82643">
        <ele>71.8</ele>
        <time>2022-09-22T09:24:57Z</time>
      </trkpt>
      <trkpt lat="49.04635" lon="1.8264">
        <ele>72.1</ele>
        <time>2022-09-22T09:25:03Z</time>
      </trkpt>
      <trkpt lat="49.04639" lon="1.82645">
        <ele>72.8</ele>
        <time>2022-09-22T09:25:07Z</time>
      </trkpt>
      <trkpt lat="49.04644" lon="1.82645">
        <ele>73.5</ele>
        <time>2022-09-22T09:25:11Z</time>
      </trkpt>
      <trkpt lat="49.04649" lon="1.82644">
        <ele>73.5</ele>
        <time>2022-09-22T09:25:17Z</time>
      </trkpt>
      <trkpt lat="49.04653" lon="1.82646">
        <ele>76.8</ele>
        <time>2022-09-22T09:25:21Z</time>
      </trkpt>
      <trkpt lat="49.04658" lon="1.8265">
        <ele>76.8</ele>
        <time>2022-09-22T09:25:25Z</time>
      </trkpt>
      <trkpt lat="49.04663" lon="1.82654">
        <ele>76.9</ele>
        <time>2022-09-22T09:25:29Z</time>
      </trkpt>
      <trkpt lat="49.04667" lon="1.82657">
        <ele>77</ele>
        <time>2022-09-22T09:25:33Z</time>
      </trkpt>
      <trkpt lat="49.04671" lon="1.82659">
        <ele>77.3</ele>
        <time>2022-09-22T09:25:37Z</time>
      </trkpt>
      <trkpt lat="49.04677" lon="1.82657">
        <ele>77.5</ele>
        <time>2022-09-22T09:25:43Z</time>
      </trkpt>
      <trkpt lat="49.04681" lon="1.82662">
        <ele>77.5</ele>
        <time>2022-09-22T09:25:47Z</time>
      </trkpt>
      <trkpt lat="49.04681" lon="1.82669">
        <ele>77.3</ele>
        <time>2022-09-22T09:25:53Z</time>
      </trkpt>
      <trkpt lat="49.04685" lon="1.82673">
        <ele>77.3</ele>
        <time>2022-09-22T09:26:16Z</time>
      </trkpt>
      <trkpt lat="49.04681" lon="1.82678">
        <ele>77.2</ele>
        <time>2022-09-22T09:26:27Z</time>
      </trkpt>
      <trkpt lat="49.04678" lon="1.82684">
        <ele>77.7</ele>
        <time>2022-09-22T09:26:41Z</time>
      </trkpt>
      <trkpt lat="49.04677" lon="1.8269">
        <ele>78.2</ele>
        <time>2022-09-22T09:28:15Z</time>
      </trkpt>
      <trkpt lat="49.0468" lon="1.82695">
        <ele>78.8</ele>
        <time>2022-09-22T09:28:44Z</time>
      </trkpt>
      <trkpt lat="49.04676" lon="1.82691">
        <ele>79.4</ele>
        <time>2022-09-22T09:31:32Z</time>
      </trkpt>
      <trkpt lat="49.0468" lon="1.82686">
        <ele>81</ele>
        <time>2022-09-22T09:31:40Z</time>
      </trkpt>
      <trkpt lat="49.0468" lon="1.82693">
        <ele>83.5</ele>
        <time>2022-09-22T09:31:50Z</time>
      </trkpt>
      <trkpt lat="49.04681" lon="1.82685">
        <ele>85.6</ele>
        <time>2022-09-22T09:35:49Z</time>
      </trkpt>
      <trkpt lat="49.04683" lon="1.82679">
        <ele>84.6</ele>
        <time>2022-09-22T09:36:04Z</time>
      </trkpt>
      <trkpt lat="49.04688" lon="1.8268">
        <ele>85.3</ele>
        <time>2022-09-22T09:37:05Z</time>
      </trkpt>
      <trkpt lat="49.04689" lon="1.8269">
        <ele>85.8</ele>
        <time>2022-09-22T09:37:10Z</time>
      </trkpt>
      <trkpt lat="49.04688" lon="1.82697">
        <ele>86.7</ele>
        <time>2022-09-22T09:37:13Z</time>
      </trkpt>
      <trkpt lat="49.04688" lon="1.82705">
        <ele>87.4</ele>
        <time>2022-09-22T09:37:16Z</time>
      </trkpt>
      <trkpt lat="49.04689" lon="1.82712">
        <ele>88.1</ele>
        <time>2022-09-22T09:37:20Z</time>
      </trkpt>
      <trkpt lat="49.04686" lon="1.8272">
        <ele>87.6</ele>
        <time>2022-09-22T09:37:28Z</time>
      </trkpt>
      <trkpt lat="49.04686" lon="1.82727">
        <ele>88.1</ele>
        <time>2022-09-22T09:37:42Z</time>
      </trkpt>
      <trkpt lat="49.04687" lon="1.82734">
        <ele>88.3</ele>
        <time>2022-09-22T09:37:52Z</time>
      </trkpt>
      <trkpt lat="49.04686" lon="1.82742">
        <ele>88.6</ele>
        <time>2022-09-22T09:38:11Z</time>
      </trkpt>
      <trkpt lat="49.04689" lon="1.82749">
        <ele>89.2</ele>
        <time>2022-09-22T09:38:17Z</time>
      </trkpt>
      <trkpt lat="49.04689" lon="1.82756">
        <ele>89.9</ele>
        <time>2022-09-22T09:38:25Z</time>
      </trkpt>
      <trkpt lat="49.0469" lon="1.82764">
        <ele>90.1</ele>
        <time>2022-09-22T09:38:35Z</time>
      </trkpt>
      <trkpt lat="49.0469" lon="1.82771">
        <ele>90.5</ele>
        <time>2022-09-22T09:38:43Z</time>
      </trkpt>
      <trkpt lat="49.04695" lon="1.82774">
        <ele>91.2</ele>
        <time>2022-09-22T09:39:16Z</time>
      </trkpt>
      <trkpt lat="49.047" lon="1.82774">
        <ele>91.1</ele>
        <time>2022-09-22T09:39:22Z</time>
      </trkpt>
      <trkpt lat="49.04695" lon="1.82772">
        <ele>91.6</ele>
        <time>2022-09-22T09:39:44Z</time>
      </trkpt>
      <trkpt lat="49.047" lon="1.82774">
        <ele>91.4</ele>
        <time>2022-09-22T09:43:32Z</time>
      </trkpt>
      <trkpt lat="49.04705" lon="1.82771">
        <ele>92.3</ele>
        <time>2022-09-22T09:43:35Z</time>
      </trkpt>
      <trkpt lat="49.0471" lon="1.82768">
        <ele>92.9</ele>
        <time>2022-09-22T09:43:40Z</time>
      </trkpt>
      <trkpt lat="49.04716" lon="1.82766">
        <ele>92.9</ele>
        <time>2022-09-22T09:43:44Z</time>
      </trkpt>
      <trkpt lat="49.04721" lon="1.82767">
        <ele>93.2</ele>
        <time>2022-09-22T09:43:47Z</time>
      </trkpt>
      <trkpt lat="49.04726" lon="1.82767">
        <ele>93.4</ele>
        <time>2022-09-22T09:43:52Z</time>
      </trkpt>
      <trkpt lat="49.0473" lon="1.82766">
        <ele>93.3</ele>
        <time>2022-09-22T09:43:56Z</time>
      </trkpt>
      <trkpt lat="49.04735" lon="1.82762">
        <ele>92.7</ele>
        <time>2022-09-22T09:44:01Z</time>
      </trkpt>
      <trkpt lat="49.04739" lon="1.82758">
        <ele>92.3</ele>
        <time>2022-09-22T09:44:06Z</time>
      </trkpt>
      <trkpt lat="49.04742" lon="1.82753">
        <ele>92.1</ele>
        <time>2022-09-22T09:44:11Z</time>
      </trkpt>
      <trkpt lat="49.04743" lon="1.82745">
        <ele>91.8</ele>
        <time>2022-09-22T09:44:16Z</time>
      </trkpt>
      <trkpt lat="49.04746" lon="1.82739">
        <ele>91.6</ele>
        <time>2022-09-22T09:44:21Z</time>
      </trkpt>
      <trkpt lat="49.04749" lon="1.82732">
        <ele>90.9</ele>
        <time>2022-09-22T09:44:33Z</time>
      </trkpt>
      <trkpt lat="49.04749" lon="1.82725">
        <ele>90.2</ele>
        <time>2022-09-22T09:44:39Z</time>
      </trkpt>
      <trkpt lat="49.04746" lon="1.8272">
        <ele>89.7</ele>
        <time>2022-09-22T09:44:47Z</time>
      </trkpt>
      <trkpt lat="49.04745" lon="1.82713">
        <ele>88.9</ele>
        <time>2022-09-22T09:45:05Z</time>
      </trkpt>
      <trkpt lat="49.04743" lon="1.82705">
        <ele>87.3</ele>
        <time>2022-09-22T09:45:11Z</time>
      </trkpt>
      <trkpt lat="49.04741" lon="1.82698">
        <ele>86.8</ele>
        <time>2022-09-22T09:45:16Z</time>
      </trkpt>
      <trkpt lat="49.04737" lon="1.82691">
        <ele>86.3</ele>
        <time>2022-09-22T09:45:22Z</time>
      </trkpt>
      <trkpt lat="49.04733" lon="1.82686">
        <ele>84.5</ele>
        <time>2022-09-22T09:45:26Z</time>
      </trkpt>
      <trkpt lat="49.04729" lon="1.82681">
        <ele>83.7</ele>
        <time>2022-09-22T09:45:31Z</time>
      </trkpt>
      <trkpt lat="49.04724" lon="1.82678">
        <ele>83.5</ele>
        <time>2022-09-22T09:45:35Z</time>
      </trkpt>
      <trkpt lat="49.04719" lon="1.82674">
        <ele>82.5</ele>
        <time>2022-09-22T09:45:41Z</time>
      </trkpt>
      <trkpt lat="49.04715" lon="1.82672">
        <ele>81.9</ele>
        <time>2022-09-22T09:45:45Z</time>
      </trkpt>
      <trkpt lat="49.0471" lon="1.82669">
        <ele>81.5</ele>
        <time>2022-09-22T09:45:50Z</time>
      </trkpt>
      <trkpt lat="49.04706" lon="1.82667">
        <ele>81</ele>
        <time>2022-09-22T09:45:55Z</time>
      </trkpt>
      <trkpt lat="49.04701" lon="1.82665">
        <ele>80.4</ele>
        <time>2022-09-22T09:45:59Z</time>
      </trkpt>
      <trkpt lat="49.04696" lon="1.82663">
        <ele>80.4</ele>
        <time>2022-09-22T09:46:05Z</time>
      </trkpt>
      <trkpt lat="49.0469" lon="1.82661">
        <ele>79.2</ele>
        <time>2022-09-22T09:46:10Z</time>
      </trkpt>
      <trkpt lat="49.04686" lon="1.82664">
        <ele>78.1</ele>
        <time>2022-09-22T09:46:14Z</time>
      </trkpt>
      <trkpt lat="49.04681" lon="1.82666">
        <ele>77.7</ele>
        <time>2022-09-22T09:46:18Z</time>
      </trkpt>
      <trkpt lat="49.04675" lon="1.82664">
        <ele>77.1</ele>
        <time>2022-09-22T09:46:23Z</time>
      </trkpt>
      <trkpt lat="49.04671" lon="1.82662">
        <ele>76.9</ele>
        <time>2022-09-22T09:46:27Z</time>
      </trkpt>
      <trkpt lat="49.04666" lon="1.82659">
        <ele>76.6</ele>
        <time>2022-09-22T09:46:31Z</time>
      </trkpt>
      <trkpt lat="49.04662" lon="1.82656">
        <ele>76.4</ele>
        <time>2022-09-22T09:46:36Z</time>
      </trkpt>
      <trkpt lat="49.04656" lon="1.82653">
        <ele>75.9</ele>
        <time>2022-09-22T09:46:40Z</time>
      </trkpt>
      <trkpt lat="49.04651" lon="1.8265">
        <ele>75.5</ele>
        <time>2022-09-22T09:46:45Z</time>
      </trkpt>
      <trkpt lat="49.04646" lon="1.82648">
        <ele>74.4</ele>
        <time>2022-09-22T09:46:49Z</time>
      </trkpt>
      <trkpt lat="49.04641" lon="1.82644">
        <ele>73.2</ele>
        <time>2022-09-22T09:46:54Z</time>
      </trkpt>
      <trkpt lat="49.04637" lon="1.8264">
        <ele>73.2</ele>
        <time>2022-09-22T09:46:58Z</time>
      </trkpt>
      <trkpt lat="49.04632" lon="1.82636">
        <ele>72.1</ele>
        <time>2022-09-22T09:47:02Z</time>
      </trkpt>
      <trkpt lat="49.04628" lon="1.82636">
        <ele>71.9</ele>
        <time>2022-09-22T09:47:08Z</time>
      </trkpt>
      <trkpt lat="49.04623" lon="1.82632">
        <ele>71.3</ele>
        <time>2022-09-22T09:47:14Z</time>
      </trkpt>
      <trkpt lat="49.04619" lon="1.82627">
        <ele>71</ele>
        <time>2022-09-22T09:47:18Z</time>
      </trkpt>
      <trkpt lat="49.04615" lon="1.82622">
        <ele>70.8</ele>
        <time>2022-09-22T09:47:22Z</time>
      </trkpt>
      <trkpt lat="49.04611" lon="1.82618">
        <ele>70.9</ele>
        <time>2022-09-22T09:47:27Z</time>
      </trkpt>
      <trkpt lat="49.04606" lon="1.82616">
        <ele>71</ele>
        <time>2022-09-22T09:47:31Z</time>
      </trkpt>
      <trkpt lat="49.04602" lon="1.82611">
        <ele>71.1</ele>
        <time>2022-09-22T09:47:35Z</time>
      </trkpt>
      <trkpt lat="49.04601" lon="1.82604">
        <ele>71.4</ele>
        <time>2022-09-22T09:47:39Z</time>
      </trkpt>
      <trkpt lat="49.046" lon="1.82597">
        <ele>71.8</ele>
        <time>2022-09-22T09:47:43Z</time>
      </trkpt>
      <trkpt lat="49.04602" lon="1.82589">
        <ele>72.1</ele>
        <time>2022-09-22T09:47:48Z</time>
      </trkpt>
      <trkpt lat="49.04602" lon="1.8258">
        <ele>71.9</ele>
        <time>2022-09-22T09:47:52Z</time>
      </trkpt>
      <trkpt lat="49.04598" lon="1.82574">
        <ele>71.9</ele>
        <time>2022-09-22T09:47:56Z</time>
      </trkpt>
      <trkpt lat="49.04597" lon="1.82565">
        <ele>72.2</ele>
        <time>2022-09-22T09:48:01Z</time>
      </trkpt>
      <trkpt lat="49.04595" lon="1.82558">
        <ele>72.4</ele>
        <time>2022-09-22T09:48:05Z</time>
      </trkpt>
      <trkpt lat="49.04594" lon="1.82551">
        <ele>72.5</ele>
        <time>2022-09-22T09:48:09Z</time>
      </trkpt>
      <trkpt lat="49.04593" lon="1.82543">
        <ele>72.9</ele>
        <time>2022-09-22T09:48:14Z</time>
      </trkpt>
      <trkpt lat="49.04592" lon="1.82535">
        <ele>73</ele>
        <time>2022-09-22T09:48:18Z</time>
      </trkpt>
      <trkpt lat="49.04593" lon="1.82527">
        <ele>73.1</ele>
        <time>2022-09-22T09:48:23Z</time>
      </trkpt>
      <trkpt lat="49.04593" lon="1.82519">
        <ele>73</ele>
        <time>2022-09-22T09:48:27Z</time>
      </trkpt>
      <trkpt lat="49.04594" lon="1.82511">
        <ele>73</ele>
        <time>2022-09-22T09:48:32Z</time>
      </trkpt>
      <trkpt lat="49.04596" lon="1.82504">
        <ele>73.4</ele>
        <time>2022-09-22T09:48:37Z</time>
      </trkpt>
      <trkpt lat="49.04597" lon="1.82496">
        <ele>73.4</ele>
        <time>2022-09-22T09:48:41Z</time>
      </trkpt>
      <trkpt lat="49.04597" lon="1.82489">
        <ele>73.8</ele>
        <time>2022-09-22T09:48:47Z</time>
      </trkpt>
      <trkpt lat="49.04599" lon="1.82482">
        <ele>74.3</ele>
        <time>2022-09-22T09:48:51Z</time>
      </trkpt>
      <trkpt lat="49.046" lon="1.82473">
        <ele>74.9</ele>
        <time>2022-09-22T09:48:57Z</time>
      </trkpt>
      <trkpt lat="49.04601" lon="1.82466">
        <ele>75.6</ele>
        <time>2022-09-22T09:49:00Z</time>
      </trkpt>
      <trkpt lat="49.04603" lon="1.82458">
        <ele>76.7</ele>
        <time>2022-09-22T09:49:05Z</time>
      </trkpt>
      <trkpt lat="49.04603" lon="1.82451">
        <ele>77.5</ele>
        <time>2022-09-22T09:49:10Z</time>
      </trkpt>
      <trkpt lat="49.04603" lon="1.82442">
        <ele>77.5</ele>
        <time>2022-09-22T09:49:15Z</time>
      </trkpt>
      <trkpt lat="49.04603" lon="1.82434">
        <ele>77.9</ele>
        <time>2022-09-22T09:49:19Z</time>
      </trkpt>
      <trkpt lat="49.04604" lon="1.82426">
        <ele>77.7</ele>
        <time>2022-09-22T09:49:24Z</time>
      </trkpt>
      <trkpt lat="49.04604" lon="1.82419">
        <ele>77.8</ele>
        <time>2022-09-22T09:49:29Z</time>
      </trkpt>
      <trkpt lat="49.04604" lon="1.8241">
        <ele>77.7</ele>
        <time>2022-09-22T09:49:35Z</time>
      </trkpt>
      <trkpt lat="49.04604" lon="1.82402">
        <ele>78.5</ele>
        <time>2022-09-22T09:49:40Z</time>
      </trkpt>
      <trkpt lat="49.04603" lon="1.82394">
        <ele>79.4</ele>
        <time>2022-09-22T09:49:44Z</time>
      </trkpt>
      <trkpt lat="49.04603" lon="1.82387">
        <ele>79.5</ele>
        <time>2022-09-22T09:49:49Z</time>
      </trkpt>
      <trkpt lat="49.04604" lon="1.82379">
        <ele>80.2</ele>
        <time>2022-09-22T09:49:54Z</time>
      </trkpt>
      <trkpt lat="49.04603" lon="1.82371">
        <ele>80.7</ele>
        <time>2022-09-22T09:50:00Z</time>
      </trkpt>
      <trkpt lat="49.04604" lon="1.82363">
        <ele>80.6</ele>
        <time>2022-09-22T09:50:06Z</time>
      </trkpt>
      <trkpt lat="49.04605" lon="1.82355">
        <ele>82.2</ele>
        <time>2022-09-22T09:50:11Z</time>
      </trkpt>
      <trkpt lat="49.04605" lon="1.82347">
        <ele>83.1</ele>
        <time>2022-09-22T09:50:16Z</time>
      </trkpt>
      <trkpt lat="49.04606" lon="1.8234">
        <ele>82.9</ele>
        <time>2022-09-22T09:50:21Z</time>
      </trkpt>
      <trkpt lat="49.04605" lon="1.82333">
        <ele>82.6</ele>
        <time>2022-09-22T09:50:25Z</time>
      </trkpt>
      <trkpt lat="49.04604" lon="1.82324">
        <ele>83.1</ele>
        <time>2022-09-22T09:50:30Z</time>
      </trkpt>
      <trkpt lat="49.04603" lon="1.82317">
        <ele>84.5</ele>
        <time>2022-09-22T09:50:35Z</time>
      </trkpt>
      <trkpt lat="49.04602" lon="1.8231">
        <ele>85.5</ele>
        <time>2022-09-22T09:50:40Z</time>
      </trkpt>
      <trkpt lat="49.04601" lon="1.82302">
        <ele>86.6</ele>
        <time>2022-09-22T09:50:45Z</time>
      </trkpt>
      <trkpt lat="49.04599" lon="1.82295">
        <ele>87.7</ele>
        <time>2022-09-22T09:50:50Z</time>
      </trkpt>
      <trkpt lat="49.04597" lon="1.82288">
        <ele>88.8</ele>
        <time>2022-09-22T09:50:55Z</time>
      </trkpt>
      <trkpt lat="49.04593" lon="1.82281">
        <ele>90</ele>
        <time>2022-09-22T09:51:01Z</time>
      </trkpt>
      <trkpt lat="49.0459" lon="1.82276">
        <ele>90.9</ele>
        <time>2022-09-22T09:51:05Z</time>
      </trkpt>
      <trkpt lat="49.04586" lon="1.82269">
        <ele>92.1</ele>
        <time>2022-09-22T09:51:10Z</time>
      </trkpt>
      <trkpt lat="49.04583" lon="1.82261">
        <ele>93</ele>
        <time>2022-09-22T09:51:15Z</time>
      </trkpt>
      <trkpt lat="49.04581" lon="1.82253">
        <ele>93.3</ele>
        <time>2022-09-22T09:51:22Z</time>
      </trkpt>
      <trkpt lat="49.04579" lon="1.82246">
        <ele>93.6</ele>
        <time>2022-09-22T09:51:26Z</time>
      </trkpt>
      <trkpt lat="49.04577" lon="1.82239">
        <ele>94.2</ele>
        <time>2022-09-22T09:51:31Z</time>
      </trkpt>
      <trkpt lat="49.04576" lon="1.82231">
        <ele>94.4</ele>
        <time>2022-09-22T09:51:36Z</time>
      </trkpt>
      <trkpt lat="49.04576" lon="1.82223">
        <ele>95</ele>
        <time>2022-09-22T09:51:41Z</time>
      </trkpt>
      <trkpt lat="49.04576" lon="1.82216">
        <ele>95.6</ele>
        <time>2022-09-22T09:51:45Z</time>
      </trkpt>
      <trkpt lat="49.04578" lon="1.82208">
        <ele>95.7</ele>
        <time>2022-09-22T09:51:50Z</time>
      </trkpt>
      <trkpt lat="49.04581" lon="1.822">
        <ele>96</ele>
        <time>2022-09-22T09:51:55Z</time>
      </trkpt>
      <trkpt lat="49.04584" lon="1.82193">
        <ele>96.5</ele>
        <time>2022-09-22T09:51:59Z</time>
      </trkpt>
      <trkpt lat="49.04586" lon="1.82185">
        <ele>96.9</ele>
        <time>2022-09-22T09:52:04Z</time>
      </trkpt>
      <trkpt lat="49.04589" lon="1.82179">
        <ele>96.8</ele>
        <time>2022-09-22T09:52:09Z</time>
      </trkpt>
      <trkpt lat="49.04591" lon="1.82173">
        <ele>97.4</ele>
        <time>2022-09-22T09:52:14Z</time>
      </trkpt>
      <trkpt lat="49.04592" lon="1.82165">
        <ele>97.8</ele>
        <time>2022-09-22T09:52:19Z</time>
      </trkpt>
      <trkpt lat="49.0459" lon="1.82158">
        <ele>98.3</ele>
        <time>2022-09-22T09:52:23Z</time>
      </trkpt>
      <trkpt lat="49.0459" lon="1.8215">
        <ele>98.8</ele>
        <time>2022-09-22T09:52:28Z</time>
      </trkpt>
      <trkpt lat="49.04591" lon="1.82143">
        <ele>99</ele>
        <time>2022-09-22T09:52:33Z</time>
      </trkpt>
      <trkpt lat="49.04591" lon="1.82135">
        <ele>99.5</ele>
        <time>2022-09-22T09:52:39Z</time>
      </trkpt>
      <trkpt lat="49.04591" lon="1.82126">
        <ele>100</ele>
        <time>2022-09-22T09:52:45Z</time>
      </trkpt>
      <trkpt lat="49.04589" lon="1.82118">
        <ele>100.9</ele>
        <time>2022-09-22T09:52:50Z</time>
      </trkpt>
      <trkpt lat="49.04588" lon="1.82112">
        <ele>101.2</ele>
        <time>2022-09-22T09:52:54Z</time>
      </trkpt>
      <trkpt lat="49.04586" lon="1.82105">
        <ele>101.3</ele>
        <time>2022-09-22T09:52:59Z</time>
      </trkpt>
      <trkpt lat="49.04586" lon="1.82096">
        <ele>101.8</ele>
        <time>2022-09-22T09:53:08Z</time>
      </trkpt>
      <trkpt lat="49.04585" lon="1.82089">
        <ele>102.4</ele>
        <time>2022-09-22T09:53:12Z</time>
      </trkpt>
      <trkpt lat="49.04585" lon="1.8208">
        <ele>102.7</ele>
        <time>2022-09-22T09:53:21Z</time>
      </trkpt>
      <trkpt lat="49.04586" lon="1.82072">
        <ele>103.2</ele>
        <time>2022-09-22T09:53:26Z</time>
      </trkpt>
      <trkpt lat="49.04586" lon="1.82064">
        <ele>103.5</ele>
        <time>2022-09-22T09:53:32Z</time>
      </trkpt>
      <trkpt lat="49.04588" lon="1.82056">
        <ele>104.1</ele>
        <time>2022-09-22T09:53:37Z</time>
      </trkpt>
      <trkpt lat="49.04591" lon="1.8205">
        <ele>105.1</ele>
        <time>2022-09-22T09:53:42Z</time>
      </trkpt>
      <trkpt lat="49.04593" lon="1.82043">
        <ele>105.2</ele>
        <time>2022-09-22T09:53:46Z</time>
      </trkpt>
      <trkpt lat="49.04594" lon="1.82035">
        <ele>105.2</ele>
        <time>2022-09-22T09:53:51Z</time>
      </trkpt>
      <trkpt lat="49.04595" lon="1.82027">
        <ele>105.6</ele>
        <time>2022-09-22T09:53:55Z</time>
      </trkpt>
      <trkpt lat="49.04596" lon="1.82019">
        <ele>105.8</ele>
        <time>2022-09-22T09:54:01Z</time>
      </trkpt>
      <trkpt lat="49.04597" lon="1.82012">
        <ele>105.9</ele>
        <time>2022-09-22T09:54:05Z</time>
      </trkpt>
      <trkpt lat="49.046" lon="1.82006">
        <ele>106</ele>
        <time>2022-09-22T09:54:10Z</time>
      </trkpt>
      <trkpt lat="49.04604" lon="1.82001">
        <ele>106.2</ele>
        <time>2022-09-22T09:54:16Z</time>
      </trkpt>
      <trkpt lat="49.04605" lon="1.81993">
        <ele>106.3</ele>
        <time>2022-09-22T09:54:19Z</time>
      </trkpt>
      <trkpt lat="49.04605" lon="1.81986">
        <ele>107</ele>
        <time>2022-09-22T09:54:23Z</time>
      </trkpt>
      <trkpt lat="49.04604" lon="1.81979">
        <ele>107.6</ele>
        <time>2022-09-22T09:54:27Z</time>
      </trkpt>
      <trkpt lat="49.04606" lon="1.81971">
        <ele>107.9</ele>
        <time>2022-09-22T09:54:32Z</time>
      </trkpt>
      <trkpt lat="49.04607" lon="1.81964">
        <ele>107.8</ele>
        <time>2022-09-22T09:54:35Z</time>
      </trkpt>
      <trkpt lat="49.04608" lon="1.81956">
        <ele>108.2</ele>
        <time>2022-09-22T09:54:40Z</time>
      </trkpt>
      <trkpt lat="49.04609" lon="1.81948">
        <ele>108.3</ele>
        <time>2022-09-22T09:54:44Z</time>
      </trkpt>
      <trkpt lat="49.04609" lon="1.81941">
        <ele>108.4</ele>
        <time>2022-09-22T09:54:48Z</time>
      </trkpt>
      <trkpt lat="49.04611" lon="1.81935">
        <ele>108.5</ele>
        <time>2022-09-22T09:54:52Z</time>
      </trkpt>
      <trkpt lat="49.04613" lon="1.81928">
        <ele>108.9</ele>
        <time>2022-09-22T09:54:56Z</time>
      </trkpt>
      <trkpt lat="49.04615" lon="1.81921">
        <ele>108.8</ele>
        <time>2022-09-22T09:55:00Z</time>
      </trkpt>
      <trkpt lat="49.04617" lon="1.81913">
        <ele>108.7</ele>
        <time>2022-09-22T09:55:05Z</time>
      </trkpt>
      <trkpt lat="49.04618" lon="1.81906">
        <ele>108.6</ele>
        <time>2022-09-22T09:55:09Z</time>
      </trkpt>
      <trkpt lat="49.04619" lon="1.81899">
        <ele>108.7</ele>
        <time>2022-09-22T09:55:14Z</time>
      </trkpt>
      <trkpt lat="49.04622" lon="1.81893">
        <ele>109</ele>
        <time>2022-09-22T09:55:21Z</time>
      </trkpt>
      <trkpt lat="49.04623" lon="1.81886">
        <ele>109.4</ele>
        <time>2022-09-22T09:55:25Z</time>
      </trkpt>
      <trkpt lat="49.04625" lon="1.81878">
        <ele>109.6</ele>
        <time>2022-09-22T09:55:29Z</time>
      </trkpt>
      <trkpt lat="49.04626" lon="1.8187">
        <ele>109.5</ele>
        <time>2022-09-22T09:55:34Z</time>
      </trkpt>
      <trkpt lat="49.04626" lon="1.81862">
        <ele>109.6</ele>
        <time>2022-09-22T09:55:38Z</time>
      </trkpt>
      <trkpt lat="49.04623" lon="1.81857">
        <ele>109.8</ele>
        <time>2022-09-22T09:55:44Z</time>
      </trkpt>
      <trkpt lat="49.04623" lon="1.81849">
        <ele>110.3</ele>
        <time>2022-09-22T09:55:47Z</time>
      </trkpt>
      <trkpt lat="49.04624" lon="1.81842">
        <ele>111</ele>
        <time>2022-09-22T09:55:50Z</time>
      </trkpt>
      <trkpt lat="49.04627" lon="1.81836">
        <ele>111.1</ele>
        <time>2022-09-22T09:55:54Z</time>
      </trkpt>
      <trkpt lat="49.04629" lon="1.8183">
        <ele>111.6</ele>
        <time>2022-09-22T09:55:57Z</time>
      </trkpt>
      <trkpt lat="49.04631" lon="1.81824">
        <ele>111.8</ele>
        <time>2022-09-22T09:56:00Z</time>
      </trkpt>
      <trkpt lat="49.04635" lon="1.81817">
        <ele>112</ele>
        <time>2022-09-22T09:56:05Z</time>
      </trkpt>
      <trkpt lat="49.04636" lon="1.81809">
        <ele>112.4</ele>
        <time>2022-09-22T09:56:09Z</time>
      </trkpt>
      <trkpt lat="49.04636" lon="1.81801">
        <ele>112.7</ele>
        <time>2022-09-22T09:56:14Z</time>
      </trkpt>
      <trkpt lat="49.04637" lon="1.81794">
        <ele>112.7</ele>
        <time>2022-09-22T09:56:17Z</time>
      </trkpt>
      <trkpt lat="49.04636" lon="1.81786">
        <ele>113</ele>
        <time>2022-09-22T09:56:22Z</time>
      </trkpt>
      <trkpt lat="49.04636" lon="1.81779">
        <ele>113.1</ele>
        <time>2022-09-22T09:56:26Z</time>
      </trkpt>
      <trkpt lat="49.04636" lon="1.81771">
        <ele>113.1</ele>
        <time>2022-09-22T09:56:30Z</time>
      </trkpt>
      <trkpt lat="49.04635" lon="1.81764">
        <ele>113.1</ele>
        <time>2022-09-22T09:56:34Z</time>
      </trkpt>
      <trkpt lat="49.04634" lon="1.81757">
        <ele>113.2</ele>
        <time>2022-09-22T09:56:39Z</time>
      </trkpt>
      <trkpt lat="49.04634" lon="1.8175">
        <ele>113.4</ele>
        <time>2022-09-22T09:56:43Z</time>
      </trkpt>
      <trkpt lat="49.04633" lon="1.81742">
        <ele>113.5</ele>
        <time>2022-09-22T09:56:47Z</time>
      </trkpt>
      <trkpt lat="49.04632" lon="1.81734">
        <ele>113.5</ele>
        <time>2022-09-22T09:56:52Z</time>
      </trkpt>
      <trkpt lat="49.04631" lon="1.81727">
        <ele>113.6</ele>
        <time>2022-09-22T09:56:56Z</time>
      </trkpt>
      <trkpt lat="49.0463" lon="1.8172">
        <ele>114</ele>
        <time>2022-09-22T09:57:01Z</time>
      </trkpt>
      <trkpt lat="49.04628" lon="1.81712">
        <ele>114.5</ele>
        <time>2022-09-22T09:57:06Z</time>
      </trkpt>
      <trkpt lat="49.04627" lon="1.81705">
        <ele>115.2</ele>
        <time>2022-09-22T09:57:10Z</time>
      </trkpt>
      <trkpt lat="49.04625" lon="1.81697">
        <ele>115.1</ele>
        <time>2022-09-22T09:57:15Z</time>
      </trkpt>
      <trkpt lat="49.04624" lon="1.8169">
        <ele>115.8</ele>
        <time>2022-09-22T09:57:20Z</time>
      </trkpt>
      <trkpt lat="49.04621" lon="1.81681">
        <ele>116.2</ele>
        <time>2022-09-22T09:57:25Z</time>
      </trkpt>
      <trkpt lat="49.0462" lon="1.81673">
        <ele>116.5</ele>
        <time>2022-09-22T09:57:31Z</time>
      </trkpt>
      <trkpt lat="49.04619" lon="1.81665">
        <ele>116.7</ele>
        <time>2022-09-22T09:57:35Z</time>
      </trkpt>
      <trkpt lat="49.04617" lon="1.81659">
        <ele>117.2</ele>
        <time>2022-09-22T09:57:39Z</time>
      </trkpt>
      <trkpt lat="49.04616" lon="1.8165">
        <ele>117.3</ele>
        <time>2022-09-22T09:57:44Z</time>
      </trkpt>
      <trkpt lat="49.04615" lon="1.81642">
        <ele>117.3</ele>
        <time>2022-09-22T09:57:50Z</time>
      </trkpt>
      <trkpt lat="49.04613" lon="1.81635">
        <ele>117.8</ele>
        <time>2022-09-22T09:57:54Z</time>
      </trkpt>
      <trkpt lat="49.04611" lon="1.81628">
        <ele>118.5</ele>
        <time>2022-09-22T09:57:59Z</time>
      </trkpt>
      <trkpt lat="49.04609" lon="1.81619">
        <ele>118.6</ele>
        <time>2022-09-22T09:58:05Z</time>
      </trkpt>
      <trkpt lat="49.04607" lon="1.81613">
        <ele>119.2</ele>
        <time>2022-09-22T09:58:09Z</time>
      </trkpt>
      <trkpt lat="49.04606" lon="1.81607">
        <ele>120.1</ele>
        <time>2022-09-22T09:58:14Z</time>
      </trkpt>
      <trkpt lat="49.04603" lon="1.816">
        <ele>120.4</ele>
        <time>2022-09-22T09:58:19Z</time>
      </trkpt>
      <trkpt lat="49.04601" lon="1.81593">
        <ele>122</ele>
        <time>2022-09-22T09:58:25Z</time>
      </trkpt>
      <trkpt lat="49.04599" lon="1.81586">
        <ele>122.6</ele>
        <time>2022-09-22T09:58:30Z</time>
      </trkpt>
      <trkpt lat="49.04596" lon="1.81579">
        <ele>123.2</ele>
        <time>2022-09-22T09:58:35Z</time>
      </trkpt>
      <trkpt lat="49.04594" lon="1.81572">
        <ele>123.4</ele>
        <time>2022-09-22T09:58:40Z</time>
      </trkpt>
      <trkpt lat="49.04592" lon="1.81564">
        <ele>124</ele>
        <time>2022-09-22T09:58:46Z</time>
      </trkpt>
      <trkpt lat="49.0459" lon="1.81557">
        <ele>124.3</ele>
        <time>2022-09-22T09:58:51Z</time>
      </trkpt>
      <trkpt lat="49.04589" lon="1.81549">
        <ele>124.6</ele>
        <time>2022-09-22T09:58:56Z</time>
      </trkpt>
      <trkpt lat="49.04586" lon="1.81542">
        <ele>125.1</ele>
        <time>2022-09-22T09:59:01Z</time>
      </trkpt>
      <trkpt lat="49.04585" lon="1.81534">
        <ele>126</ele>
        <time>2022-09-22T09:59:06Z</time>
      </trkpt>
      <trkpt lat="49.04584" lon="1.81527">
        <ele>126.9</ele>
        <time>2022-09-22T09:59:11Z</time>
      </trkpt>
      <trkpt lat="49.04583" lon="1.8152">
        <ele>127.9</ele>
        <time>2022-09-22T09:59:16Z</time>
      </trkpt>
      <trkpt lat="49.04583" lon="1.81512">
        <ele>128.4</ele>
        <time>2022-09-22T09:59:21Z</time>
      </trkpt>
      <trkpt lat="49.04584" lon="1.81504">
        <ele>128.5</ele>
        <time>2022-09-22T09:59:27Z</time>
      </trkpt>
      <trkpt lat="49.04584" lon="1.81497">
        <ele>129.2</ele>
        <time>2022-09-22T09:59:31Z</time>
      </trkpt>
      <trkpt lat="49.04585" lon="1.8149">
        <ele>129.8</ele>
        <time>2022-09-22T09:59:36Z</time>
      </trkpt>
      <trkpt lat="49.04585" lon="1.81482">
        <ele>129.8</ele>
        <time>2022-09-22T09:59:40Z</time>
      </trkpt>
      <trkpt lat="49.04586" lon="1.81474">
        <ele>130.1</ele>
        <time>2022-09-22T09:59:45Z</time>
      </trkpt>
      <trkpt lat="49.04586" lon="1.81466">
        <ele>130.6</ele>
        <time>2022-09-22T09:59:51Z</time>
      </trkpt>
      <trkpt lat="49.04587" lon="1.81458">
        <ele>131.1</ele>
        <time>2022-09-22T09:59:55Z</time>
      </trkpt>
      <trkpt lat="49.04588" lon="1.81451">
        <ele>132.4</ele>
        <time>2022-09-22T10:00:00Z</time>
      </trkpt>
      <trkpt lat="49.04588" lon="1.81444">
        <ele>133.1</ele>
        <time>2022-09-22T10:00:05Z</time>
      </trkpt>
      <trkpt lat="49.04588" lon="1.81437">
        <ele>133.7</ele>
        <time>2022-09-22T10:00:09Z</time>
      </trkpt>
      <trkpt lat="49.04588" lon="1.8143">
        <ele>134</ele>
        <time>2022-09-22T10:00:14Z</time>
      </trkpt>
      <trkpt lat="49.04588" lon="1.81422">
        <ele>134.3</ele>
        <time>2022-09-22T10:00:19Z</time>
      </trkpt>
      <trkpt lat="49.04589" lon="1.81414">
        <ele>134.9</ele>
        <time>2022-09-22T10:00:24Z</time>
      </trkpt>
      <trkpt lat="49.04589" lon="1.81407">
        <ele>135.6</ele>
        <time>2022-09-22T10:00:29Z</time>
      </trkpt>
      <trkpt lat="49.04589" lon="1.814">
        <ele>135.9</ele>
        <time>2022-09-22T10:00:33Z</time>
      </trkpt>
      <trkpt lat="49.0459" lon="1.81393">
        <ele>136.5</ele>
        <time>2022-09-22T10:00:38Z</time>
      </trkpt>
      <trkpt lat="49.04592" lon="1.81385">
        <ele>136.8</ele>
        <time>2022-09-22T10:00:44Z</time>
      </trkpt>
      <trkpt lat="49.04593" lon="1.81377">
        <ele>137.4</ele>
        <time>2022-09-22T10:00:48Z</time>
      </trkpt>
      <trkpt lat="49.04595" lon="1.8137">
        <ele>137.5</ele>
        <time>2022-09-22T10:00:53Z</time>
      </trkpt>
      <trkpt lat="49.04598" lon="1.81365">
        <ele>138.1</ele>
        <time>2022-09-22T10:00:57Z</time>
      </trkpt>
      <trkpt lat="49.046" lon="1.81357">
        <ele>138.4</ele>
        <time>2022-09-22T10:01:02Z</time>
      </trkpt>
      <trkpt lat="49.04602" lon="1.8135">
        <ele>139.2</ele>
        <time>2022-09-22T10:01:07Z</time>
      </trkpt>
      <trkpt lat="49.04606" lon="1.81344">
        <ele>139.6</ele>
        <time>2022-09-22T10:01:11Z</time>
      </trkpt>
      <trkpt lat="49.04609" lon="1.81337">
        <ele>140.2</ele>
        <time>2022-09-22T10:01:16Z</time>
      </trkpt>
      <trkpt lat="49.04612" lon="1.81331">
        <ele>141.1</ele>
        <time>2022-09-22T10:01:20Z</time>
      </trkpt>
      <trkpt lat="49.04614" lon="1.81323">
        <ele>141.7</ele>
        <time>2022-09-22T10:01:25Z</time>
      </trkpt>
      <trkpt lat="49.04616" lon="1.81317">
        <ele>142.5</ele>
        <time>2022-09-22T10:01:29Z</time>
      </trkpt>
      <trkpt lat="49.04619" lon="1.8131">
        <ele>143</ele>
        <time>2022-09-22T10:01:34Z</time>
      </trkpt>
      <trkpt lat="49.04621" lon="1.81302">
        <ele>143.5</ele>
        <time>2022-09-22T10:01:39Z</time>
      </trkpt>
      <trkpt lat="49.04622" lon="1.81295">
        <ele>143.6</ele>
        <time>2022-09-22T10:01:44Z</time>
      </trkpt>
      <trkpt lat="49.04622" lon="1.81287">
        <ele>143.8</ele>
        <time>2022-09-22T10:01:49Z</time>
      </trkpt>
      <trkpt lat="49.04622" lon="1.81279">
        <ele>144</ele>
        <time>2022-09-22T10:01:56Z</time>
      </trkpt>
      <trkpt lat="49.0462" lon="1.81271">
        <ele>144.3</ele>
        <time>2022-09-22T10:02:01Z</time>
      </trkpt>
      <trkpt lat="49.04617" lon="1.81265">
        <ele>144.7</ele>
        <time>2022-09-22T10:02:05Z</time>
      </trkpt>
      <trkpt lat="49.04614" lon="1.81261">
        <ele>145.7</ele>
        <time>2022-09-22T10:02:10Z</time>
      </trkpt>
      <trkpt lat="49.04611" lon="1.81255">
        <ele>145.9</ele>
        <time>2022-09-22T10:02:15Z</time>
      </trkpt>
      <trkpt lat="49.0461" lon="1.81248">
        <ele>146.6</ele>
        <time>2022-09-22T10:02:21Z</time>
      </trkpt>
      <trkpt lat="49.04609" lon="1.8124">
        <ele>146.7</ele>
        <time>2022-09-22T10:02:27Z</time>
      </trkpt>
      <trkpt lat="49.04609" lon="1.81233">
        <ele>147.3</ele>
        <time>2022-09-22T10:02:35Z</time>
      </trkpt>
      <trkpt lat="49.04608" lon="1.81225">
        <ele>147.5</ele>
        <time>2022-09-22T10:02:43Z</time>
      </trkpt>
      <trkpt lat="49.04609" lon="1.81218">
        <ele>147.9</ele>
        <time>2022-09-22T10:02:51Z</time>
      </trkpt>
      <trkpt lat="49.04612" lon="1.81212">
        <ele>147.9</ele>
        <time>2022-09-22T10:03:03Z</time>
      </trkpt>
      <trkpt lat="49.04615" lon="1.81206">
        <ele>148.1</ele>
        <time>2022-09-22T10:03:09Z</time>
      </trkpt>
      <trkpt lat="49.04618" lon="1.81201">
        <ele>148.5</ele>
        <time>2022-09-22T10:03:17Z</time>
      </trkpt>
      <trkpt lat="49.04614" lon="1.81204">
        <ele>148.3</ele>
        <time>2022-09-22T10:03:27Z</time>
      </trkpt>
      <trkpt lat="49.04611" lon="1.8121">
        <ele>148.2</ele>
        <time>2022-09-22T10:03:34Z</time>
      </trkpt>
      <trkpt lat="49.0461" lon="1.81217">
        <ele>148.2</ele>
        <time>2022-09-22T10:03:40Z</time>
      </trkpt>
      <trkpt lat="49.04613" lon="1.81223">
        <ele>148.4</ele>
        <time>2022-09-22T10:03:50Z</time>
      </trkpt>
      <trkpt lat="49.04608" lon="1.81225">
        <ele>148.4</ele>
        <time>2022-09-22T10:04:15Z</time>
      </trkpt>
      <trkpt lat="49.04605" lon="1.81218">
        <ele>148.1</ele>
        <time>2022-09-22T10:06:58Z</time>
      </trkpt>
      <trkpt lat="49.04602" lon="1.81212">
        <ele>147.8</ele>
        <time>2022-09-22T10:07:15Z</time>
      </trkpt>
      <trkpt lat="49.04598" lon="1.81207">
        <ele>147.4</ele>
        <time>2022-09-22T10:07:20Z</time>
      </trkpt>
      <trkpt lat="49.04594" lon="1.81202">
        <ele>146.9</ele>
        <time>2022-09-22T10:07:25Z</time>
      </trkpt>
      <trkpt lat="49.04588" lon="1.81202">
        <ele>146.6</ele>
        <time>2022-09-22T10:07:31Z</time>
      </trkpt>
      <trkpt lat="49.04584" lon="1.81202">
        <ele>145.9</ele>
        <time>2022-09-22T10:07:36Z</time>
      </trkpt>
      <trkpt lat="49.04579" lon="1.812">
        <ele>145</ele>
        <time>2022-09-22T10:07:40Z</time>
      </trkpt>
      <trkpt lat="49.04574" lon="1.81198">
        <ele>143.9</ele>
        <time>2022-09-22T10:07:45Z</time>
      </trkpt>
      <trkpt lat="49.04569" lon="1.81196">
        <ele>142.7</ele>
        <time>2022-09-22T10:07:50Z</time>
      </trkpt>
      <trkpt lat="49.04564" lon="1.81193">
        <ele>141.8</ele>
        <time>2022-09-22T10:07:54Z</time>
      </trkpt>
      <trkpt lat="49.04559" lon="1.81191">
        <ele>141.8</ele>
        <time>2022-09-22T10:07:59Z</time>
      </trkpt>
      <trkpt lat="49.04554" lon="1.81193">
        <ele>140.7</ele>
        <time>2022-09-22T10:08:03Z</time>
      </trkpt>
      <trkpt lat="49.04549" lon="1.81193">
        <ele>140.7</ele>
        <time>2022-09-22T10:08:08Z</time>
      </trkpt>
      <trkpt lat="49.04544" lon="1.81194">
        <ele>140.1</ele>
        <time>2022-09-22T10:08:12Z</time>
      </trkpt>
      <trkpt lat="49.04539" lon="1.81195">
        <ele>140.4</ele>
        <time>2022-09-22T10:08:17Z</time>
      </trkpt>
      <trkpt lat="49.04534" lon="1.81198">
        <ele>139.6</ele>
        <time>2022-09-22T10:08:22Z</time>
      </trkpt>
      <trkpt lat="49.0453" lon="1.81201">
        <ele>139.4</ele>
        <time>2022-09-22T10:08:26Z</time>
      </trkpt>
      <trkpt lat="49.04526" lon="1.81205">
        <ele>139.6</ele>
        <time>2022-09-22T10:08:30Z</time>
      </trkpt>
      <trkpt lat="49.04522" lon="1.81209">
        <ele>139.7</ele>
        <time>2022-09-22T10:08:34Z</time>
      </trkpt>
      <trkpt lat="49.04517" lon="1.81213">
        <ele>139.9</ele>
        <time>2022-09-22T10:08:40Z</time>
      </trkpt>
      <trkpt lat="49.04512" lon="1.81216">
        <ele>139.9</ele>
        <time>2022-09-22T10:08:45Z</time>
      </trkpt>
      <trkpt lat="49.04508" lon="1.8122">
        <ele>139.6</ele>
        <time>2022-09-22T10:08:49Z</time>
      </trkpt>
      <trkpt lat="49.04503" lon="1.81223">
        <ele>139.3</ele>
        <time>2022-09-22T10:08:53Z</time>
      </trkpt>
      <trkpt lat="49.04497" lon="1.81225">
        <ele>139.2</ele>
        <time>2022-09-22T10:09:38Z</time>
      </trkpt>
      <trkpt lat="49.04493" lon="1.81227">
        <ele>139</ele>
        <time>2022-09-22T10:09:43Z</time>
      </trkpt>
      <trkpt lat="49.04489" lon="1.81231">
        <ele>138.5</ele>
        <time>2022-09-22T10:09:49Z</time>
      </trkpt>
      <trkpt lat="49.04485" lon="1.81235">
        <ele>138.7</ele>
        <time>2022-09-22T10:09:54Z</time>
      </trkpt>
      <trkpt lat="49.04481" lon="1.8124">
        <ele>138.8</ele>
        <time>2022-09-22T10:09:59Z</time>
      </trkpt>
      <trkpt lat="49.04477" lon="1.81243">
        <ele>138.8</ele>
        <time>2022-09-22T10:10:03Z</time>
      </trkpt>
      <trkpt lat="49.04472" lon="1.81247">
        <ele>138.8</ele>
        <time>2022-09-22T10:10:08Z</time>
      </trkpt>
      <trkpt lat="49.04468" lon="1.81251">
        <ele>138.9</ele>
        <time>2022-09-22T10:10:13Z</time>
      </trkpt>
      <trkpt lat="49.04463" lon="1.81256">
        <ele>139.3</ele>
        <time>2022-09-22T10:10:19Z</time>
      </trkpt>
      <trkpt lat="49.04458" lon="1.81256">
        <ele>139.6</ele>
        <time>2022-09-22T10:10:37Z</time>
      </trkpt>
      <trkpt lat="49.04454" lon="1.81258">
        <ele>139.8</ele>
        <time>2022-09-22T10:10:43Z</time>
      </trkpt>
      <trkpt lat="49.0445" lon="1.8126">
        <ele>139.5</ele>
        <time>2022-09-22T10:10:47Z</time>
      </trkpt>
      <trkpt lat="49.04442" lon="1.81259">
        <ele>139.4</ele>
        <time>2022-09-22T10:10:49Z</time>
      </trkpt>
      <trkpt lat="49.04438" lon="1.81256">
        <ele>139.2</ele>
        <time>2022-09-22T10:10:52Z</time>
      </trkpt>
      <trkpt lat="49.04432" lon="1.81254">
        <ele>139</ele>
        <time>2022-09-22T10:10:56Z</time>
      </trkpt>
      <trkpt lat="49.04426" lon="1.81254">
        <ele>139.1</ele>
        <time>2022-09-22T10:11:01Z</time>
      </trkpt>
      <trkpt lat="49.04421" lon="1.81255">
        <ele>138.9</ele>
        <time>2022-09-22T10:11:05Z</time>
      </trkpt>
      <trkpt lat="49.04416" lon="1.81256">
        <ele>138.4</ele>
        <time>2022-09-22T10:11:09Z</time>
      </trkpt>
      <trkpt lat="49.04411" lon="1.81256">
        <ele>138.2</ele>
        <time>2022-09-22T10:11:13Z</time>
      </trkpt>
      <trkpt lat="49.04405" lon="1.81256">
        <ele>138.1</ele>
        <time>2022-09-22T10:11:18Z</time>
      </trkpt>
      <trkpt lat="49.044" lon="1.81257">
        <ele>138.3</ele>
        <time>2022-09-22T10:11:22Z</time>
      </trkpt>
      <trkpt lat="49.04395" lon="1.81257">
        <ele>138.2</ele>
        <time>2022-09-22T10:11:26Z</time>
      </trkpt>
      <trkpt lat="49.0439" lon="1.81256">
        <ele>138.3</ele>
        <time>2022-09-22T10:11:29Z</time>
      </trkpt>
      <trkpt lat="49.04385" lon="1.81256">
        <ele>138.1</ele>
        <time>2022-09-22T10:11:33Z</time>
      </trkpt>
      <trkpt lat="49.04379" lon="1.81256">
        <ele>138.2</ele>
        <time>2022-09-22T10:11:37Z</time>
      </trkpt>
      <trkpt lat="49.04375" lon="1.81256">
        <ele>138.2</ele>
        <time>2022-09-22T10:11:41Z</time>
      </trkpt>
      <trkpt lat="49.04369" lon="1.81256">
        <ele>138.4</ele>
        <time>2022-09-22T10:11:45Z</time>
      </trkpt>
      <trkpt lat="49.04365" lon="1.81257">
        <ele>138.5</ele>
        <time>2022-09-22T10:11:49Z</time>
      </trkpt>
      <trkpt lat="49.0436" lon="1.81257">
        <ele>138.6</ele>
        <time>2022-09-22T10:11:54Z</time>
      </trkpt>
      <trkpt lat="49.04354" lon="1.81256">
        <ele>138.8</ele>
        <time>2022-09-22T10:11:58Z</time>
      </trkpt>
      <trkpt lat="49.04349" lon="1.81255">
        <ele>138.8</ele>
        <time>2022-09-22T10:12:03Z</time>
      </trkpt>
      <trkpt lat="49.04344" lon="1.81254">
        <ele>138.7</ele>
        <time>2022-09-22T10:12:07Z</time>
      </trkpt>
      <trkpt lat="49.04339" lon="1.81253">
        <ele>138.5</ele>
        <time>2022-09-22T10:12:11Z</time>
      </trkpt>
      <trkpt lat="49.04334" lon="1.81252">
        <ele>138.6</ele>
        <time>2022-09-22T10:12:15Z</time>
      </trkpt>
      <trkpt lat="49.04329" lon="1.81252">
        <ele>138.6</ele>
        <time>2022-09-22T10:12:19Z</time>
      </trkpt>
      <trkpt lat="49.04323" lon="1.81252">
        <ele>138.4</ele>
        <time>2022-09-22T10:12:24Z</time>
      </trkpt>
      <trkpt lat="49.04318" lon="1.81251">
        <ele>138.2</ele>
        <time>2022-09-22T10:12:28Z</time>
      </trkpt>
      <trkpt lat="49.04313" lon="1.81251">
        <ele>137.9</ele>
        <time>2022-09-22T10:12:32Z</time>
      </trkpt>
      <trkpt lat="49.04307" lon="1.81251">
        <ele>137.3</ele>
        <time>2022-09-22T10:12:37Z</time>
      </trkpt>
      <trkpt lat="49.04302" lon="1.81251">
        <ele>136.8</ele>
        <time>2022-09-22T10:12:41Z</time>
      </trkpt>
      <trkpt lat="49.04297" lon="1.8125">
        <ele>136.3</ele>
        <time>2022-09-22T10:12:45Z</time>
      </trkpt>
      <trkpt lat="49.04292" lon="1.81249">
        <ele>135.5</ele>
        <time>2022-09-22T10:12:49Z</time>
      </trkpt>
      <trkpt lat="49.04287" lon="1.81248">
        <ele>135</ele>
        <time>2022-09-22T10:12:53Z</time>
      </trkpt>
      <trkpt lat="49.04282" lon="1.81246">
        <ele>135</ele>
        <time>2022-09-22T10:12:57Z</time>
      </trkpt>
      <trkpt lat="49.04277" lon="1.81245">
        <ele>134.6</ele>
        <time>2022-09-22T10:13:01Z</time>
      </trkpt>
      <trkpt lat="49.04272" lon="1.81243">
        <ele>134.1</ele>
        <time>2022-09-22T10:13:05Z</time>
      </trkpt>
      <trkpt lat="49.04267" lon="1.81243">
        <ele>133.6</ele>
        <time>2022-09-22T10:13:09Z</time>
      </trkpt>
      <trkpt lat="49.04262" lon="1.81244">
        <ele>133.3</ele>
        <time>2022-09-22T10:13:13Z</time>
      </trkpt>
      <trkpt lat="49.04257" lon="1.81243">
        <ele>132.8</ele>
        <time>2022-09-22T10:13:17Z</time>
      </trkpt>
      <trkpt lat="49.04251" lon="1.81243">
        <ele>132</ele>
        <time>2022-09-22T10:13:22Z</time>
      </trkpt>
      <trkpt lat="49.04245" lon="1.81244">
        <ele>132</ele>
        <time>2022-09-22T10:13:26Z</time>
      </trkpt>
      <trkpt lat="49.0424" lon="1.81244">
        <ele>131.5</ele>
        <time>2022-09-22T10:13:31Z</time>
      </trkpt>
      <trkpt lat="49.04235" lon="1.81241">
        <ele>131.2</ele>
        <time>2022-09-22T10:13:36Z</time>
      </trkpt>
      <trkpt lat="49.0423" lon="1.81239">
        <ele>131</ele>
        <time>2022-09-22T10:13:40Z</time>
      </trkpt>
      <trkpt lat="49.04225" lon="1.81238">
        <ele>130.7</ele>
        <time>2022-09-22T10:13:45Z</time>
      </trkpt>
      <trkpt lat="49.04219" lon="1.81238">
        <ele>130.2</ele>
        <time>2022-09-22T10:13:50Z</time>
      </trkpt>
      <trkpt lat="49.04213" lon="1.81237">
        <ele>129.9</ele>
        <time>2022-09-22T10:13:54Z</time>
      </trkpt>
      <trkpt lat="49.04208" lon="1.81236">
        <ele>129.5</ele>
        <time>2022-09-22T10:13:59Z</time>
      </trkpt>
      <trkpt lat="49.04203" lon="1.81235">
        <ele>129.1</ele>
        <time>2022-09-22T10:14:02Z</time>
      </trkpt>
      <trkpt lat="49.04198" lon="1.81235">
        <ele>128.7</ele>
        <time>2022-09-22T10:14:06Z</time>
      </trkpt>
      <trkpt lat="49.04194" lon="1.81233">
        <ele>128</ele>
        <time>2022-09-22T10:14:10Z</time>
      </trkpt>
      <trkpt lat="49.04189" lon="1.81231">
        <ele>127.9</ele>
        <time>2022-09-22T10:14:14Z</time>
      </trkpt>
      <trkpt lat="49.04183" lon="1.8123">
        <ele>127.3</ele>
        <time>2022-09-22T10:14:18Z</time>
      </trkpt>
      <trkpt lat="49.04178" lon="1.81229">
        <ele>126.5</ele>
        <time>2022-09-22T10:14:22Z</time>
      </trkpt>
      <trkpt lat="49.04173" lon="1.81228">
        <ele>126.2</ele>
        <time>2022-09-22T10:14:26Z</time>
      </trkpt>
      <trkpt lat="49.04168" lon="1.81227">
        <ele>125.6</ele>
        <time>2022-09-22T10:14:29Z</time>
      </trkpt>
      <trkpt lat="49.04163" lon="1.81226">
        <ele>125.4</ele>
        <time>2022-09-22T10:14:34Z</time>
      </trkpt>
      <trkpt lat="49.04158" lon="1.81224">
        <ele>125.4</ele>
        <time>2022-09-22T10:14:37Z</time>
      </trkpt>
      <trkpt lat="49.04152" lon="1.81223">
        <ele>125.4</ele>
        <time>2022-09-22T10:14:42Z</time>
      </trkpt>
      <trkpt lat="49.04146" lon="1.81222">
        <ele>125.4</ele>
        <time>2022-09-22T10:14:46Z</time>
      </trkpt>
      <trkpt lat="49.04141" lon="1.8122">
        <ele>125.3</ele>
        <time>2022-09-22T10:14:51Z</time>
      </trkpt>
      <trkpt lat="49.04135" lon="1.8122">
        <ele>125.5</ele>
        <time>2022-09-22T10:14:55Z</time>
      </trkpt>
      <trkpt lat="49.0413" lon="1.81218">
        <ele>125.6</ele>
        <time>2022-09-22T10:14:59Z</time>
      </trkpt>
      <trkpt lat="49.04125" lon="1.81216">
        <ele>125.6</ele>
        <time>2022-09-22T10:15:03Z</time>
      </trkpt>
      <trkpt lat="49.0412" lon="1.81215">
        <ele>125.8</ele>
        <time>2022-09-22T10:15:07Z</time>
      </trkpt>
      <trkpt lat="49.04115" lon="1.81215">
        <ele>125.8</ele>
        <time>2022-09-22T10:15:11Z</time>
      </trkpt>
      <trkpt lat="49.0411" lon="1.81215">
        <ele>126</ele>
        <time>2022-09-22T10:15:15Z</time>
      </trkpt>
      <trkpt lat="49.04105" lon="1.81214">
        <ele>126.1</ele>
        <time>2022-09-22T10:15:19Z</time>
      </trkpt>
      <trkpt lat="49.04099" lon="1.81212">
        <ele>126.5</ele>
        <time>2022-09-22T10:15:23Z</time>
      </trkpt>
      <trkpt lat="49.04095" lon="1.81211">
        <ele>126.7</ele>
        <time>2022-09-22T10:15:27Z</time>
      </trkpt>
      <trkpt lat="49.0409" lon="1.8121">
        <ele>126.9</ele>
        <time>2022-09-22T10:15:30Z</time>
      </trkpt>
      <trkpt lat="49.04085" lon="1.81209">
        <ele>127</ele>
        <time>2022-09-22T10:15:34Z</time>
      </trkpt>
      <trkpt lat="49.0408" lon="1.81208">
        <ele>127.1</ele>
        <time>2022-09-22T10:15:38Z</time>
      </trkpt>
      <trkpt lat="49.04075" lon="1.81207">
        <ele>127.3</ele>
        <time>2022-09-22T10:15:42Z</time>
      </trkpt>
      <trkpt lat="49.04071" lon="1.81205">
        <ele>127.2</ele>
        <time>2022-09-22T10:15:46Z</time>
      </trkpt>
      <trkpt lat="49.04066" lon="1.81204">
        <ele>127.1</ele>
        <time>2022-09-22T10:15:50Z</time>
      </trkpt>
      <trkpt lat="49.04061" lon="1.81203">
        <ele>127.1</ele>
        <time>2022-09-22T10:15:54Z</time>
      </trkpt>
      <trkpt lat="49.04055" lon="1.81202">
        <ele>127.1</ele>
        <time>2022-09-22T10:15:59Z</time>
      </trkpt>
      <trkpt lat="49.0405" lon="1.81198">
        <ele>127</ele>
        <time>2022-09-22T10:16:08Z</time>
      </trkpt>
      <trkpt lat="49.04046" lon="1.81194">
        <ele>127</ele>
        <time>2022-09-22T10:16:12Z</time>
      </trkpt>
      <trkpt lat="49.04042" lon="1.81191">
        <ele>126.8</ele>
        <time>2022-09-22T10:16:17Z</time>
      </trkpt>
      <trkpt lat="49.04039" lon="1.81186">
        <ele>126.5</ele>
        <time>2022-09-22T10:16:21Z</time>
      </trkpt>
      <trkpt lat="49.04033" lon="1.81183">
        <ele>126.5</ele>
        <time>2022-09-22T10:16:25Z</time>
      </trkpt>
      <trkpt lat="49.04029" lon="1.81182">
        <ele>126.4</ele>
        <time>2022-09-22T10:16:29Z</time>
      </trkpt>
      <trkpt lat="49.04024" lon="1.81177">
        <ele>126.2</ele>
        <time>2022-09-22T10:16:33Z</time>
      </trkpt>
      <trkpt lat="49.04019" lon="1.81173">
        <ele>125.9</ele>
        <time>2022-09-22T10:16:38Z</time>
      </trkpt>
      <trkpt lat="49.04015" lon="1.8117">
        <ele>125.6</ele>
        <time>2022-09-22T10:16:41Z</time>
      </trkpt>
      <trkpt lat="49.04011" lon="1.81166">
        <ele>125.4</ele>
        <time>2022-09-22T10:16:45Z</time>
      </trkpt>
      <trkpt lat="49.04006" lon="1.81163">
        <ele>125.2</ele>
        <time>2022-09-22T10:16:49Z</time>
      </trkpt>
      <trkpt lat="49.04001" lon="1.8116">
        <ele>125</ele>
        <time>2022-09-22T10:16:53Z</time>
      </trkpt>
      <trkpt lat="49.03996" lon="1.81159">
        <ele>124.8</ele>
        <time>2022-09-22T10:16:57Z</time>
      </trkpt>
      <trkpt lat="49.03991" lon="1.81157">
        <ele>124.7</ele>
        <time>2022-09-22T10:17:01Z</time>
      </trkpt>
      <trkpt lat="49.03986" lon="1.81155">
        <ele>124.5</ele>
        <time>2022-09-22T10:17:05Z</time>
      </trkpt>
      <trkpt lat="49.0398" lon="1.81155">
        <ele>123.8</ele>
        <time>2022-09-22T10:17:09Z</time>
      </trkpt>
      <trkpt lat="49.03975" lon="1.81157">
        <ele>123.5</ele>
        <time>2022-09-22T10:17:13Z</time>
      </trkpt>
      <trkpt lat="49.0397" lon="1.81159">
        <ele>123.8</ele>
        <time>2022-09-22T10:17:17Z</time>
      </trkpt>
      <trkpt lat="49.03965" lon="1.81161">
        <ele>124</ele>
        <time>2022-09-22T10:17:21Z</time>
      </trkpt>
      <trkpt lat="49.0396" lon="1.81164">
        <ele>123.9</ele>
        <time>2022-09-22T10:17:25Z</time>
      </trkpt>
      <trkpt lat="49.03954" lon="1.81168">
        <ele>124</ele>
        <time>2022-09-22T10:17:30Z</time>
      </trkpt>
      <trkpt lat="49.0395" lon="1.81172">
        <ele>124.3</ele>
        <time>2022-09-22T10:17:34Z</time>
      </trkpt>
      <trkpt lat="49.03945" lon="1.81177">
        <ele>124.1</ele>
        <time>2022-09-22T10:17:39Z</time>
      </trkpt>
      <trkpt lat="49.03941" lon="1.81182">
        <ele>124.3</ele>
        <time>2022-09-22T10:17:43Z</time>
      </trkpt>
      <trkpt lat="49.03937" lon="1.81186">
        <ele>124.4</ele>
        <time>2022-09-22T10:17:47Z</time>
      </trkpt>
      <trkpt lat="49.03933" lon="1.81191">
        <ele>124.4</ele>
        <time>2022-09-22T10:17:51Z</time>
      </trkpt>
      <trkpt lat="49.03928" lon="1.81194">
        <ele>124.6</ele>
        <time>2022-09-22T10:17:55Z</time>
      </trkpt>
      <trkpt lat="49.03924" lon="1.81197">
        <ele>124.4</ele>
        <time>2022-09-22T10:17:59Z</time>
      </trkpt>
      <trkpt lat="49.0392" lon="1.81202">
        <ele>124.2</ele>
        <time>2022-09-22T10:18:04Z</time>
      </trkpt>
      <trkpt lat="49.03915" lon="1.81207">
        <ele>124.2</ele>
        <time>2022-09-22T10:18:08Z</time>
      </trkpt>
      <trkpt lat="49.0391" lon="1.81212">
        <ele>123.9</ele>
        <time>2022-09-22T10:18:13Z</time>
      </trkpt>
      <trkpt lat="49.03905" lon="1.81216">
        <ele>123.9</ele>
        <time>2022-09-22T10:18:18Z</time>
      </trkpt>
      <trkpt lat="49.03901" lon="1.8122">
        <ele>123.9</ele>
        <time>2022-09-22T10:18:22Z</time>
      </trkpt>
      <trkpt lat="49.03897" lon="1.81225">
        <ele>124.1</ele>
        <time>2022-09-22T10:18:26Z</time>
      </trkpt>
      <trkpt lat="49.03893" lon="1.8123">
        <ele>124.1</ele>
        <time>2022-09-22T10:18:30Z</time>
      </trkpt>
      <trkpt lat="49.03889" lon="1.81235">
        <ele>124.1</ele>
        <time>2022-09-22T10:18:34Z</time>
      </trkpt>
      <trkpt lat="49.03884" lon="1.81239">
        <ele>124.1</ele>
        <time>2022-09-22T10:18:38Z</time>
      </trkpt>
      <trkpt lat="49.0388" lon="1.81243">
        <ele>124.1</ele>
        <time>2022-09-22T10:18:42Z</time>
      </trkpt>
      <trkpt lat="49.03875" lon="1.81247">
        <ele>124.1</ele>
        <time>2022-09-22T10:18:46Z</time>
      </trkpt>
      <trkpt lat="49.03871" lon="1.81252">
        <ele>123.9</ele>
        <time>2022-09-22T10:18:50Z</time>
      </trkpt>
      <trkpt lat="49.03867" lon="1.81257">
        <ele>123.8</ele>
        <time>2022-09-22T10:18:54Z</time>
      </trkpt>
      <trkpt lat="49.03862" lon="1.8126">
        <ele>123.8</ele>
        <time>2022-09-22T10:18:58Z</time>
      </trkpt>
      <trkpt lat="49.03857" lon="1.81262">
        <ele>123.6</ele>
        <time>2022-09-22T10:19:02Z</time>
      </trkpt>
      <trkpt lat="49.03852" lon="1.81264">
        <ele>123.4</ele>
        <time>2022-09-22T10:19:06Z</time>
      </trkpt>
      <trkpt lat="49.03847" lon="1.81267">
        <ele>123</ele>
        <time>2022-09-22T10:19:10Z</time>
      </trkpt>
      <trkpt lat="49.03842" lon="1.8127">
        <ele>123</ele>
        <time>2022-09-22T10:19:14Z</time>
      </trkpt>
      <trkpt lat="49.03837" lon="1.81272">
        <ele>123</ele>
        <time>2022-09-22T10:19:18Z</time>
      </trkpt>
      <trkpt lat="49.03832" lon="1.81275">
        <ele>123</ele>
        <time>2022-09-22T10:19:22Z</time>
      </trkpt>
      <trkpt lat="49.03827" lon="1.81277">
        <ele>123</ele>
        <time>2022-09-22T10:19:27Z</time>
      </trkpt>
      <trkpt lat="49.03821" lon="1.81279">
        <ele>123.2</ele>
        <time>2022-09-22T10:19:31Z</time>
      </trkpt>
      <trkpt lat="49.03815" lon="1.81281">
        <ele>123.1</ele>
        <time>2022-09-22T10:19:36Z</time>
      </trkpt>
      <trkpt lat="49.0381" lon="1.81283">
        <ele>123.3</ele>
        <time>2022-09-22T10:19:40Z</time>
      </trkpt>
      <trkpt lat="49.03805" lon="1.81284">
        <ele>123.6</ele>
        <time>2022-09-22T10:19:44Z</time>
      </trkpt>
      <trkpt lat="49.038" lon="1.81285">
        <ele>123.7</ele>
        <time>2022-09-22T10:19:48Z</time>
      </trkpt>
      <trkpt lat="49.03795" lon="1.81287">
        <ele>123.8</ele>
        <time>2022-09-22T10:19:52Z</time>
      </trkpt>
      <trkpt lat="49.0379" lon="1.81289">
        <ele>124.2</ele>
        <time>2022-09-22T10:19:57Z</time>
      </trkpt>
      <trkpt lat="49.03785" lon="1.81292">
        <ele>124.2</ele>
        <time>2022-09-22T10:20:02Z</time>
      </trkpt>
      <trkpt lat="49.0378" lon="1.81294">
        <ele>124.2</ele>
        <time>2022-09-22T10:20:06Z</time>
      </trkpt>
      <trkpt lat="49.03775" lon="1.81296">
        <ele>124</ele>
        <time>2022-09-22T10:20:10Z</time>
      </trkpt>
      <trkpt lat="49.0377" lon="1.81297">
        <ele>124</ele>
        <time>2022-09-22T10:20:14Z</time>
      </trkpt>
      <trkpt lat="49.03765" lon="1.813">
        <ele>123.8</ele>
        <time>2022-09-22T10:20:18Z</time>
      </trkpt>
      <trkpt lat="49.03761" lon="1.81304">
        <ele>123.5</ele>
        <time>2022-09-22T10:20:22Z</time>
      </trkpt>
      <trkpt lat="49.03757" lon="1.81307">
        <ele>123.5</ele>
        <time>2022-09-22T10:20:26Z</time>
      </trkpt>
      <trkpt lat="49.03751" lon="1.81309">
        <ele>122.6</ele>
        <time>2022-09-22T10:20:30Z</time>
      </trkpt>
      <trkpt lat="49.03746" lon="1.81313">
        <ele>122.3</ele>
        <time>2022-09-22T10:20:35Z</time>
      </trkpt>
      <trkpt lat="49.03742" lon="1.81317">
        <ele>122.1</ele>
        <time>2022-09-22T10:20:39Z</time>
      </trkpt>
      <trkpt lat="49.03737" lon="1.8132">
        <ele>122.1</ele>
        <time>2022-09-22T10:20:43Z</time>
      </trkpt>
      <trkpt lat="49.03733" lon="1.81322">
        <ele>121.9</ele>
        <time>2022-09-22T10:20:47Z</time>
      </trkpt>
      <trkpt lat="49.03728" lon="1.81326">
        <ele>121.9</ele>
        <time>2022-09-22T10:20:51Z</time>
      </trkpt>
      <trkpt lat="49.03724" lon="1.81331">
        <ele>121.6</ele>
        <time>2022-09-22T10:20:56Z</time>
      </trkpt>
      <trkpt lat="49.03719" lon="1.81335">
        <ele>121.7</ele>
        <time>2022-09-22T10:21:00Z</time>
      </trkpt>
      <trkpt lat="49.03714" lon="1.81338">
        <ele>121.6</ele>
        <time>2022-09-22T10:21:04Z</time>
      </trkpt>
      <trkpt lat="49.0371" lon="1.81341">
        <ele>121.3</ele>
        <time>2022-09-22T10:21:08Z</time>
      </trkpt>
      <trkpt lat="49.03705" lon="1.81345">
        <ele>121.1</ele>
        <time>2022-09-22T10:21:12Z</time>
      </trkpt>
      <trkpt lat="49.03701" lon="1.81348">
        <ele>120.5</ele>
        <time>2022-09-22T10:21:16Z</time>
      </trkpt>
      <trkpt lat="49.03696" lon="1.81353">
        <ele>120.1</ele>
        <time>2022-09-22T10:21:21Z</time>
      </trkpt>
      <trkpt lat="49.03692" lon="1.81358">
        <ele>120.2</ele>
        <time>2022-09-22T10:21:25Z</time>
      </trkpt>
      <trkpt lat="49.03688" lon="1.81362">
        <ele>119.9</ele>
        <time>2022-09-22T10:21:29Z</time>
      </trkpt>
      <trkpt lat="49.03684" lon="1.81367">
        <ele>119.8</ele>
        <time>2022-09-22T10:21:34Z</time>
      </trkpt>
      <trkpt lat="49.0368" lon="1.81372">
        <ele>119.6</ele>
        <time>2022-09-22T10:21:38Z</time>
      </trkpt>
      <trkpt lat="49.03675" lon="1.81376">
        <ele>119.1</ele>
        <time>2022-09-22T10:21:43Z</time>
      </trkpt>
      <trkpt lat="49.0367" lon="1.81379">
        <ele>118.9</ele>
        <time>2022-09-22T10:21:47Z</time>
      </trkpt>
      <trkpt lat="49.03665" lon="1.81383">
        <ele>118.8</ele>
        <time>2022-09-22T10:21:51Z</time>
      </trkpt>
      <trkpt lat="49.03661" lon="1.81385">
        <ele>118.7</ele>
        <time>2022-09-22T10:21:55Z</time>
      </trkpt>
      <trkpt lat="49.03657" lon="1.8139">
        <ele>118.6</ele>
        <time>2022-09-22T10:22:00Z</time>
      </trkpt>
      <trkpt lat="49.03652" lon="1.81395">
        <ele>118.6</ele>
        <time>2022-09-22T10:22:04Z</time>
      </trkpt>
      <trkpt lat="49.03649" lon="1.81399">
        <ele>118.6</ele>
        <time>2022-09-22T10:22:08Z</time>
      </trkpt>
      <trkpt lat="49.03644" lon="1.81403">
        <ele>118.5</ele>
        <time>2022-09-22T10:22:12Z</time>
      </trkpt>
      <trkpt lat="49.0364" lon="1.81407">
        <ele>118.5</ele>
        <time>2022-09-22T10:22:17Z</time>
      </trkpt>
      <trkpt lat="49.03635" lon="1.81411">
        <ele>118.3</ele>
        <time>2022-09-22T10:22:21Z</time>
      </trkpt>
      <trkpt lat="49.03631" lon="1.81414">
        <ele>118.3</ele>
        <time>2022-09-22T10:22:25Z</time>
      </trkpt>
      <trkpt lat="49.03627" lon="1.81418">
        <ele>118.1</ele>
        <time>2022-09-22T10:22:29Z</time>
      </trkpt>
      <trkpt lat="49.03623" lon="1.81422">
        <ele>118.1</ele>
        <time>2022-09-22T10:22:34Z</time>
      </trkpt>
      <trkpt lat="49.03619" lon="1.81427">
        <ele>117.9</ele>
        <time>2022-09-22T10:22:38Z</time>
      </trkpt>
      <trkpt lat="49.03615" lon="1.81432">
        <ele>117.9</ele>
        <time>2022-09-22T10:22:42Z</time>
      </trkpt>
      <trkpt lat="49.03611" lon="1.81437">
        <ele>117.7</ele>
        <time>2022-09-22T10:22:47Z</time>
      </trkpt>
      <trkpt lat="49.03606" lon="1.81442">
        <ele>117.6</ele>
        <time>2022-09-22T10:22:52Z</time>
      </trkpt>
      <trkpt lat="49.03602" lon="1.81446">
        <ele>117.7</ele>
        <time>2022-09-22T10:22:57Z</time>
      </trkpt>
      <trkpt lat="49.03599" lon="1.81451">
        <ele>117.7</ele>
        <time>2022-09-22T10:23:03Z</time>
      </trkpt>
      <trkpt lat="49.03596" lon="1.81457">
        <ele>117.8</ele>
        <time>2022-09-22T10:23:30Z</time>
      </trkpt>
      <trkpt lat="49.03591" lon="1.81458">
        <ele>117.6</ele>
        <time>2022-09-22T10:23:37Z</time>
      </trkpt>
      <trkpt lat="49.03588" lon="1.81452">
        <ele>117.3</ele>
        <time>2022-09-22T10:23:44Z</time>
      </trkpt>
      <trkpt lat="49.03591" lon="1.81457">
        <ele>117</ele>
        <time>2022-09-22T10:25:12Z</time>
      </trkpt>
      <trkpt lat="49.03589" lon="1.81451">
        <ele>117</ele>
        <time>2022-09-22T10:37:33Z</time>
      </trkpt>
      <trkpt lat="49.03588" lon="1.81458">
        <ele>117.3</ele>
        <time>2022-09-22T11:00:39Z</time>
      </trkpt>
      <trkpt lat="49.03589" lon="1.81464">
        <ele>116.6</ele>
        <time>2022-09-22T11:00:59Z</time>
      </trkpt>
      <trkpt lat="49.03586" lon="1.81469">
        <ele>115.9</ele>
        <time>2022-09-22T11:01:03Z</time>
      </trkpt>
      <trkpt lat="49.03582" lon="1.81475">
        <ele>115.4</ele>
        <time>2022-09-22T11:01:08Z</time>
      </trkpt>
      <trkpt lat="49.03578" lon="1.8148">
        <ele>115.3</ele>
        <time>2022-09-22T11:01:13Z</time>
      </trkpt>
      <trkpt lat="49.03574" lon="1.81486">
        <ele>114.7</ele>
        <time>2022-09-22T11:01:17Z</time>
      </trkpt>
      <trkpt lat="49.03571" lon="1.81493">
        <ele>114.4</ele>
        <time>2022-09-22T11:01:23Z</time>
      </trkpt>
      <trkpt lat="49.03567" lon="1.81499">
        <ele>114</ele>
        <time>2022-09-22T11:01:28Z</time>
      </trkpt>
      <trkpt lat="49.03564" lon="1.81505">
        <ele>113.6</ele>
        <time>2022-09-22T11:01:32Z</time>
      </trkpt>
      <trkpt lat="49.0356" lon="1.81509">
        <ele>113.6</ele>
        <time>2022-09-22T11:01:37Z</time>
      </trkpt>
      <trkpt lat="49.03557" lon="1.81515">
        <ele>113</ele>
        <time>2022-09-22T11:01:42Z</time>
      </trkpt>
      <trkpt lat="49.03553" lon="1.81519">
        <ele>112.2</ele>
        <time>2022-09-22T11:01:47Z</time>
      </trkpt>
      <trkpt lat="49.0355" lon="1.81525">
        <ele>111.4</ele>
        <time>2022-09-22T11:01:51Z</time>
      </trkpt>
      <trkpt lat="49.03546" lon="1.81531">
        <ele>110.8</ele>
        <time>2022-09-22T11:01:56Z</time>
      </trkpt>
      <trkpt lat="49.03543" lon="1.81537">
        <ele>110.4</ele>
        <time>2022-09-22T11:02:01Z</time>
      </trkpt>
      <trkpt lat="49.03539" lon="1.81543">
        <ele>110.1</ele>
        <time>2022-09-22T11:02:05Z</time>
      </trkpt>
      <trkpt lat="49.03536" lon="1.81548">
        <ele>109.9</ele>
        <time>2022-09-22T11:02:09Z</time>
      </trkpt>
      <trkpt lat="49.03532" lon="1.81553">
        <ele>109.8</ele>
        <time>2022-09-22T11:02:13Z</time>
      </trkpt>
      <trkpt lat="49.03528" lon="1.81559">
        <ele>109.6</ele>
        <time>2022-09-22T11:02:18Z</time>
      </trkpt>
      <trkpt lat="49.03524" lon="1.81564">
        <ele>109.4</ele>
        <time>2022-09-22T11:02:23Z</time>
      </trkpt>
      <trkpt lat="49.03521" lon="1.81569">
        <ele>109.4</ele>
        <time>2022-09-22T11:02:27Z</time>
      </trkpt>
      <trkpt lat="49.03518" lon="1.81575">
        <ele>109.1</ele>
        <time>2022-09-22T11:02:31Z</time>
      </trkpt>
      <trkpt lat="49.03515" lon="1.8158">
        <ele>108.6</ele>
        <time>2022-09-22T11:02:35Z</time>
      </trkpt>
      <trkpt lat="49.03511" lon="1.81586">
        <ele>108</ele>
        <time>2022-09-22T11:02:40Z</time>
      </trkpt>
      <trkpt lat="49.03506" lon="1.81592">
        <ele>107.8</ele>
        <time>2022-09-22T11:02:45Z</time>
      </trkpt>
      <trkpt lat="49.03502" lon="1.81596">
        <ele>107.7</ele>
        <time>2022-09-22T11:02:49Z</time>
      </trkpt>
      <trkpt lat="49.03498" lon="1.81599">
        <ele>107.5</ele>
        <time>2022-09-22T11:02:53Z</time>
      </trkpt>
      <trkpt lat="49.03493" lon="1.81601">
        <ele>107.4</ele>
        <time>2022-09-22T11:02:58Z</time>
      </trkpt>
      <trkpt lat="49.03489" lon="1.81604">
        <ele>107.1</ele>
        <time>2022-09-22T11:03:02Z</time>
      </trkpt>
      <trkpt lat="49.03484" lon="1.81607">
        <ele>106.6</ele>
        <time>2022-09-22T11:03:06Z</time>
      </trkpt>
      <trkpt lat="49.03479" lon="1.81609">
        <ele>106.1</ele>
        <time>2022-09-22T11:03:11Z</time>
      </trkpt>
      <trkpt lat="49.03474" lon="1.81611">
        <ele>105.8</ele>
        <time>2022-09-22T11:03:15Z</time>
      </trkpt>
      <trkpt lat="49.03469" lon="1.81612">
        <ele>105.2</ele>
        <time>2022-09-22T11:03:20Z</time>
      </trkpt>
      <trkpt lat="49.03464" lon="1.81611">
        <ele>105</ele>
        <time>2022-09-22T11:03:25Z</time>
      </trkpt>
      <trkpt lat="49.03459" lon="1.81612">
        <ele>104.3</ele>
        <time>2022-09-22T11:03:29Z</time>
      </trkpt>
      <trkpt lat="49.03453" lon="1.81612">
        <ele>103.6</ele>
        <time>2022-09-22T11:03:34Z</time>
      </trkpt>
      <trkpt lat="49.03448" lon="1.81613">
        <ele>103.6</ele>
        <time>2022-09-22T11:03:38Z</time>
      </trkpt>
      <trkpt lat="49.03443" lon="1.81614">
        <ele>103</ele>
        <time>2022-09-22T11:03:42Z</time>
      </trkpt>
      <trkpt lat="49.03438" lon="1.81614">
        <ele>102.7</ele>
        <time>2022-09-22T11:03:46Z</time>
      </trkpt>
      <trkpt lat="49.03433" lon="1.81612">
        <ele>102.5</ele>
        <time>2022-09-22T11:03:50Z</time>
      </trkpt>
      <trkpt lat="49.03428" lon="1.81612">
        <ele>102.4</ele>
        <time>2022-09-22T11:03:54Z</time>
      </trkpt>
      <trkpt lat="49.03423" lon="1.81612">
        <ele>102.2</ele>
        <time>2022-09-22T11:03:58Z</time>
      </trkpt>
      <trkpt lat="49.03418" lon="1.81612">
        <ele>102.1</ele>
        <time>2022-09-22T11:04:02Z</time>
      </trkpt>
      <trkpt lat="49.03412" lon="1.8161">
        <ele>101.9</ele>
        <time>2022-09-22T11:04:07Z</time>
      </trkpt>
      <trkpt lat="49.03406" lon="1.81609">
        <ele>101.6</ele>
        <time>2022-09-22T11:04:12Z</time>
      </trkpt>
      <trkpt lat="49.03401" lon="1.81609">
        <ele>101.3</ele>
        <time>2022-09-22T11:04:16Z</time>
      </trkpt>
      <trkpt lat="49.03396" lon="1.81608">
        <ele>101.3</ele>
        <time>2022-09-22T11:04:20Z</time>
      </trkpt>
      <trkpt lat="49.03392" lon="1.81607">
        <ele>100.8</ele>
        <time>2022-09-22T11:04:24Z</time>
      </trkpt>
      <trkpt lat="49.03387" lon="1.81607">
        <ele>100.6</ele>
        <time>2022-09-22T11:04:28Z</time>
      </trkpt>
      <trkpt lat="49.03381" lon="1.81607">
        <ele>100.4</ele>
        <time>2022-09-22T11:04:33Z</time>
      </trkpt>
      <trkpt lat="49.03376" lon="1.81607">
        <ele>100</ele>
        <time>2022-09-22T11:04:37Z</time>
      </trkpt>
      <trkpt lat="49.03372" lon="1.81609">
        <ele>99.3</ele>
        <time>2022-09-22T11:04:41Z</time>
      </trkpt>
      <trkpt lat="49.03367" lon="1.81611">
        <ele>98.3</ele>
        <time>2022-09-22T11:04:45Z</time>
      </trkpt>
      <trkpt lat="49.03362" lon="1.81614">
        <ele>98</ele>
        <time>2022-09-22T11:04:50Z</time>
      </trkpt>
      <trkpt lat="49.03357" lon="1.81619">
        <ele>96.8</ele>
        <time>2022-09-22T11:04:54Z</time>
      </trkpt>
      <trkpt lat="49.03353" lon="1.81623">
        <ele>96.6</ele>
        <time>2022-09-22T11:04:58Z</time>
      </trkpt>
      <trkpt lat="49.03349" lon="1.81628">
        <ele>95.8</ele>
        <time>2022-09-22T11:05:02Z</time>
      </trkpt>
      <trkpt lat="49.03344" lon="1.81632">
        <ele>95.1</ele>
        <time>2022-09-22T11:05:06Z</time>
      </trkpt>
      <trkpt lat="49.03341" lon="1.81638">
        <ele>95</ele>
        <time>2022-09-22T11:05:10Z</time>
      </trkpt>
      <trkpt lat="49.03336" lon="1.81641">
        <ele>94.7</ele>
        <time>2022-09-22T11:05:15Z</time>
      </trkpt>
      <trkpt lat="49.03331" lon="1.81641">
        <ele>93.5</ele>
        <time>2022-09-22T11:05:19Z</time>
      </trkpt>
      <trkpt lat="49.03326" lon="1.81639">
        <ele>93.5</ele>
        <time>2022-09-22T11:05:23Z</time>
      </trkpt>
      <trkpt lat="49.03321" lon="1.81639">
        <ele>91.8</ele>
        <time>2022-09-22T11:05:27Z</time>
      </trkpt>
      <trkpt lat="49.03316" lon="1.8164">
        <ele>91.3</ele>
        <time>2022-09-22T11:05:32Z</time>
      </trkpt>
      <trkpt lat="49.0331" lon="1.81642">
        <ele>90.1</ele>
        <time>2022-09-22T11:05:36Z</time>
      </trkpt>
      <trkpt lat="49.03305" lon="1.81641">
        <ele>90.3</ele>
        <time>2022-09-22T11:05:40Z</time>
      </trkpt>
      <trkpt lat="49.033" lon="1.81641">
        <ele>89.7</ele>
        <time>2022-09-22T11:05:44Z</time>
      </trkpt>
      <trkpt lat="49.03295" lon="1.81642">
        <ele>89</ele>
        <time>2022-09-22T11:05:48Z</time>
      </trkpt>
      <trkpt lat="49.03289" lon="1.81645">
        <ele>89.1</ele>
        <time>2022-09-22T11:05:52Z</time>
      </trkpt>
      <trkpt lat="49.03285" lon="1.81649">
        <ele>88.5</ele>
        <time>2022-09-22T11:05:57Z</time>
      </trkpt>
      <trkpt lat="49.03282" lon="1.81655">
        <ele>88.5</ele>
        <time>2022-09-22T11:06:00Z</time>
      </trkpt>
      <trkpt lat="49.03279" lon="1.81661">
        <ele>88</ele>
        <time>2022-09-22T11:06:04Z</time>
      </trkpt>
      <trkpt lat="49.03276" lon="1.81666">
        <ele>87.7</ele>
        <time>2022-09-22T11:06:08Z</time>
      </trkpt>
      <trkpt lat="49.03273" lon="1.81673">
        <ele>87.3</ele>
        <time>2022-09-22T11:06:12Z</time>
      </trkpt>
      <trkpt lat="49.03272" lon="1.81681">
        <ele>87.4</ele>
        <time>2022-09-22T11:06:19Z</time>
      </trkpt>
      <trkpt lat="49.03267" lon="1.81688">
        <ele>86.5</ele>
        <time>2022-09-22T11:06:23Z</time>
      </trkpt>
      <trkpt lat="49.03264" lon="1.81694">
        <ele>86.2</ele>
        <time>2022-09-22T11:06:27Z</time>
      </trkpt>
      <trkpt lat="49.0326" lon="1.81701">
        <ele>86.2</ele>
        <time>2022-09-22T11:06:31Z</time>
      </trkpt>
      <trkpt lat="49.03257" lon="1.81706">
        <ele>85.5</ele>
        <time>2022-09-22T11:06:35Z</time>
      </trkpt>
      <trkpt lat="49.03253" lon="1.81712">
        <ele>85.5</ele>
        <time>2022-09-22T11:06:39Z</time>
      </trkpt>
      <trkpt lat="49.03251" lon="1.8172">
        <ele>85.3</ele>
        <time>2022-09-22T11:06:45Z</time>
      </trkpt>
      <trkpt lat="49.03247" lon="1.81727">
        <ele>85.4</ele>
        <time>2022-09-22T11:06:49Z</time>
      </trkpt>
      <trkpt lat="49.03243" lon="1.81733">
        <ele>85.5</ele>
        <time>2022-09-22T11:06:53Z</time>
      </trkpt>
      <trkpt lat="49.0324" lon="1.81738">
        <ele>86</ele>
        <time>2022-09-22T11:06:57Z</time>
      </trkpt>
      <trkpt lat="49.03236" lon="1.81745">
        <ele>86.2</ele>
        <time>2022-09-22T11:07:01Z</time>
      </trkpt>
      <trkpt lat="49.03233" lon="1.81752">
        <ele>86.2</ele>
        <time>2022-09-22T11:07:05Z</time>
      </trkpt>
      <trkpt lat="49.0323" lon="1.81757">
        <ele>86.4</ele>
        <time>2022-09-22T11:07:10Z</time>
      </trkpt>
      <trkpt lat="49.03225" lon="1.81759">
        <ele>86.4</ele>
        <time>2022-09-22T11:07:15Z</time>
      </trkpt>
      <trkpt lat="49.03222" lon="1.81764">
        <ele>86.5</ele>
        <time>2022-09-22T11:07:20Z</time>
      </trkpt>
      <trkpt lat="49.03216" lon="1.81764">
        <ele>86.1</ele>
        <time>2022-09-22T11:07:25Z</time>
      </trkpt>
      <trkpt lat="49.03211" lon="1.81758">
        <ele>86</ele>
        <time>2022-09-22T11:07:29Z</time>
      </trkpt>
      <trkpt lat="49.03208" lon="1.81751">
        <ele>85.8</ele>
        <time>2022-09-22T11:07:34Z</time>
      </trkpt>
      <trkpt lat="49.03205" lon="1.81744">
        <ele>84.5</ele>
        <time>2022-09-22T11:07:38Z</time>
      </trkpt>
      <trkpt lat="49.03201" lon="1.81741">
        <ele>83.8</ele>
        <time>2022-09-22T11:07:42Z</time>
      </trkpt>
      <trkpt lat="49.03197" lon="1.81735">
        <ele>82.4</ele>
        <time>2022-09-22T11:07:46Z</time>
      </trkpt>
      <trkpt lat="49.03194" lon="1.81731">
        <ele>81.9</ele>
        <time>2022-09-22T11:07:50Z</time>
      </trkpt>
      <trkpt lat="49.0319" lon="1.81726">
        <ele>81.7</ele>
        <time>2022-09-22T11:07:54Z</time>
      </trkpt>
      <trkpt lat="49.03187" lon="1.8172">
        <ele>81.4</ele>
        <time>2022-09-22T11:07:58Z</time>
      </trkpt>
      <trkpt lat="49.03183" lon="1.81716">
        <ele>80.4</ele>
        <time>2022-09-22T11:08:02Z</time>
      </trkpt>
      <trkpt lat="49.03178" lon="1.81712">
        <ele>79.6</ele>
        <time>2022-09-22T11:08:06Z</time>
      </trkpt>
      <trkpt lat="49.03173" lon="1.8171">
        <ele>79.2</ele>
        <time>2022-09-22T11:08:09Z</time>
      </trkpt>
      <trkpt lat="49.03168" lon="1.8171">
        <ele>78.5</ele>
        <time>2022-09-22T11:08:12Z</time>
      </trkpt>
      <trkpt lat="49.03163" lon="1.81707">
        <ele>78.4</ele>
        <time>2022-09-22T11:08:16Z</time>
      </trkpt>
      <trkpt lat="49.03159" lon="1.81704">
        <ele>78.5</ele>
        <time>2022-09-22T11:08:20Z</time>
      </trkpt>
      <trkpt lat="49.03155" lon="1.81699">
        <ele>78.6</ele>
        <time>2022-09-22T11:08:24Z</time>
      </trkpt>
      <trkpt lat="49.03152" lon="1.8169">
        <ele>78.3</ele>
        <time>2022-09-22T11:08:29Z</time>
      </trkpt>
      <trkpt lat="49.03149" lon="1.81685">
        <ele>78.1</ele>
        <time>2022-09-22T11:08:33Z</time>
      </trkpt>
      <trkpt lat="49.03146" lon="1.8168">
        <ele>77.8</ele>
        <time>2022-09-22T11:08:37Z</time>
      </trkpt>
      <trkpt lat="49.03142" lon="1.81676">
        <ele>78</ele>
        <time>2022-09-22T11:08:41Z</time>
      </trkpt>
      <trkpt lat="49.03137" lon="1.81676">
        <ele>77</ele>
        <time>2022-09-22T11:08:45Z</time>
      </trkpt>
      <trkpt lat="49.03132" lon="1.81673">
        <ele>76.7</ele>
        <time>2022-09-22T11:08:50Z</time>
      </trkpt>
      <trkpt lat="49.03128" lon="1.81667">
        <ele>75.2</ele>
        <time>2022-09-22T11:08:55Z</time>
      </trkpt>
      <trkpt lat="49.03124" lon="1.81664">
        <ele>74.3</ele>
        <time>2022-09-22T11:08:59Z</time>
      </trkpt>
      <trkpt lat="49.03119" lon="1.81659">
        <ele>74.2</ele>
        <time>2022-09-22T11:09:04Z</time>
      </trkpt>
      <trkpt lat="49.03115" lon="1.81655">
        <ele>73.5</ele>
        <time>2022-09-22T11:09:09Z</time>
      </trkpt>
      <trkpt lat="49.0311" lon="1.81652">
        <ele>73.8</ele>
        <time>2022-09-22T11:09:12Z</time>
      </trkpt>
      <trkpt lat="49.03105" lon="1.81649">
        <ele>74.1</ele>
        <time>2022-09-22T11:09:17Z</time>
      </trkpt>
      <trkpt lat="49.031" lon="1.81645">
        <ele>74.1</ele>
        <time>2022-09-22T11:09:22Z</time>
      </trkpt>
      <trkpt lat="49.03097" lon="1.81641">
        <ele>74.3</ele>
        <time>2022-09-22T11:09:27Z</time>
      </trkpt>
      <trkpt lat="49.03093" lon="1.81637">
        <ele>75</ele>
        <time>2022-09-22T11:09:30Z</time>
      </trkpt>
      <trkpt lat="49.03089" lon="1.81634">
        <ele>75.4</ele>
        <time>2022-09-22T11:09:35Z</time>
      </trkpt>
      <trkpt lat="49.03084" lon="1.81629">
        <ele>75.6</ele>
        <time>2022-09-22T11:09:40Z</time>
      </trkpt>
      <trkpt lat="49.03079" lon="1.81625">
        <ele>75.7</ele>
        <time>2022-09-22T11:09:44Z</time>
      </trkpt>
      <trkpt lat="49.03075" lon="1.81622">
        <ele>75.9</ele>
        <time>2022-09-22T11:09:48Z</time>
      </trkpt>
      <trkpt lat="49.03071" lon="1.81618">
        <ele>75.9</ele>
        <time>2022-09-22T11:09:52Z</time>
      </trkpt>
      <trkpt lat="49.03068" lon="1.81613">
        <ele>75.7</ele>
        <time>2022-09-22T11:09:56Z</time>
      </trkpt>
      <trkpt lat="49.03063" lon="1.81609">
        <ele>75.8</ele>
        <time>2022-09-22T11:10:01Z</time>
      </trkpt>
      <trkpt lat="49.03061" lon="1.81601">
        <ele>75.8</ele>
        <time>2022-09-22T11:10:15Z</time>
      </trkpt>
      <trkpt lat="49.03055" lon="1.81599">
        <ele>75.7</ele>
        <time>2022-09-22T11:10:19Z</time>
      </trkpt>
      <trkpt lat="49.03051" lon="1.81597">
        <ele>75.7</ele>
        <time>2022-09-22T11:10:21Z</time>
      </trkpt>
      <trkpt lat="49.03046" lon="1.81593">
        <ele>75.7</ele>
        <time>2022-09-22T11:10:25Z</time>
      </trkpt>
      <trkpt lat="49.03042" lon="1.81588">
        <ele>75.7</ele>
        <time>2022-09-22T11:10:28Z</time>
      </trkpt>
      <trkpt lat="49.03047" lon="1.81585">
        <ele>75.2</ele>
        <time>2022-09-22T11:10:33Z</time>
      </trkpt>
      <trkpt lat="49.03053" lon="1.8158">
        <ele>75.2</ele>
        <time>2022-09-22T11:10:37Z</time>
      </trkpt>
      <trkpt lat="49.03056" lon="1.81575">
        <ele>74.3</ele>
        <time>2022-09-22T11:10:41Z</time>
      </trkpt>
      <trkpt lat="49.03059" lon="1.8157">
        <ele>73.7</ele>
        <time>2022-09-22T11:10:45Z</time>
      </trkpt>
      <trkpt lat="49.03062" lon="1.81564">
        <ele>72.3</ele>
        <time>2022-09-22T11:10:49Z</time>
      </trkpt>
      <trkpt lat="49.03065" lon="1.81558">
        <ele>71.2</ele>
        <time>2022-09-22T11:10:53Z</time>
      </trkpt>
      <trkpt lat="49.03068" lon="1.81552">
        <ele>71.3</ele>
        <time>2022-09-22T11:10:58Z</time>
      </trkpt>
      <trkpt lat="49.03071" lon="1.81545">
        <ele>71.4</ele>
        <time>2022-09-22T11:11:02Z</time>
      </trkpt>
      <trkpt lat="49.03073" lon="1.81537">
        <ele>71.5</ele>
        <time>2022-09-22T11:11:07Z</time>
      </trkpt>
      <trkpt lat="49.03076" lon="1.81531">
        <ele>71.8</ele>
        <time>2022-09-22T11:11:11Z</time>
      </trkpt>
      <trkpt lat="49.0308" lon="1.81527">
        <ele>72</ele>
        <time>2022-09-22T11:11:16Z</time>
      </trkpt>
      <trkpt lat="49.03083" lon="1.81533">
        <ele>71.9</ele>
        <time>2022-09-22T11:11:26Z</time>
      </trkpt>
      <trkpt lat="49.03087" lon="1.81527">
        <ele>72.5</ele>
        <time>2022-09-22T11:11:30Z</time>
      </trkpt>
      <trkpt lat="49.03088" lon="1.8152">
        <ele>73.3</ele>
        <time>2022-09-22T11:11:34Z</time>
      </trkpt>
      <trkpt lat="49.0309" lon="1.81512">
        <ele>74</ele>
        <time>2022-09-22T11:11:40Z</time>
      </trkpt>
      <trkpt lat="49.03094" lon="1.81506">
        <ele>74.9</ele>
        <time>2022-09-22T11:11:45Z</time>
      </trkpt>
      <trkpt lat="49.03098" lon="1.81501">
        <ele>75.5</ele>
        <time>2022-09-22T11:11:49Z</time>
      </trkpt>
      <trkpt lat="49.03101" lon="1.81495">
        <ele>75.9</ele>
        <time>2022-09-22T11:11:53Z</time>
      </trkpt>
      <trkpt lat="49.03104" lon="1.81489">
        <ele>76.2</ele>
        <time>2022-09-22T11:11:57Z</time>
      </trkpt>
      <trkpt lat="49.03107" lon="1.81482">
        <ele>76.2</ele>
        <time>2022-09-22T11:12:02Z</time>
      </trkpt>
      <trkpt lat="49.03108" lon="1.81475">
        <ele>76.4</ele>
        <time>2022-09-22T11:12:22Z</time>
      </trkpt>
      <trkpt lat="49.03104" lon="1.8148">
        <ele>76.5</ele>
        <time>2022-09-22T11:12:33Z</time>
      </trkpt>
      <trkpt lat="49.03101" lon="1.81485">
        <ele>76.8</ele>
        <time>2022-09-22T11:12:38Z</time>
      </trkpt>
      <trkpt lat="49.03098" lon="1.8149">
        <ele>76.7</ele>
        <time>2022-09-22T11:12:44Z</time>
      </trkpt>
      <trkpt lat="49.03093" lon="1.81493">
        <ele>77.3</ele>
        <time>2022-09-22T11:12:51Z</time>
      </trkpt>
      <trkpt lat="49.0309" lon="1.815">
        <ele>77.9</ele>
        <time>2022-09-22T11:12:57Z</time>
      </trkpt>
      <trkpt lat="49.03088" lon="1.81508">
        <ele>79.1</ele>
        <time>2022-09-22T11:13:01Z</time>
      </trkpt>
      <trkpt lat="49.03085" lon="1.81516">
        <ele>80.1</ele>
        <time>2022-09-22T11:13:06Z</time>
      </trkpt>
      <trkpt lat="49.03083" lon="1.81522">
        <ele>80.7</ele>
        <time>2022-09-22T11:13:10Z</time>
      </trkpt>
      <trkpt lat="49.0308" lon="1.81528">
        <ele>80.7</ele>
        <time>2022-09-22T11:13:13Z</time>
      </trkpt>
      <trkpt lat="49.03076" lon="1.81533">
        <ele>81.1</ele>
        <time>2022-09-22T11:13:17Z</time>
      </trkpt>
      <trkpt lat="49.03072" lon="1.81538">
        <ele>81.3</ele>
        <time>2022-09-22T11:13:21Z</time>
      </trkpt>
      <trkpt lat="49.03068" lon="1.81543">
        <ele>81</ele>
        <time>2022-09-22T11:13:25Z</time>
      </trkpt>
      <trkpt lat="49.03065" lon="1.8155">
        <ele>81</ele>
        <time>2022-09-22T11:13:30Z</time>
      </trkpt>
      <trkpt lat="49.03062" lon="1.81558">
        <ele>80.7</ele>
        <time>2022-09-22T11:13:35Z</time>
      </trkpt>
      <trkpt lat="49.03059" lon="1.81565">
        <ele>80.2</ele>
        <time>2022-09-22T11:13:39Z</time>
      </trkpt>
      <trkpt lat="49.03056" lon="1.81571">
        <ele>80</ele>
        <time>2022-09-22T11:13:43Z</time>
      </trkpt>
      <trkpt lat="49.03052" lon="1.81577">
        <ele>79.6</ele>
        <time>2022-09-22T11:13:47Z</time>
      </trkpt>
      <trkpt lat="49.03049" lon="1.81584">
        <ele>79.4</ele>
        <time>2022-09-22T11:13:51Z</time>
      </trkpt>
      <trkpt lat="49.03046" lon="1.81589">
        <ele>78.8</ele>
        <time>2022-09-22T11:13:55Z</time>
      </trkpt>
      <trkpt lat="49.0304" lon="1.8159">
        <ele>78</ele>
        <time>2022-09-22T11:14:00Z</time>
      </trkpt>
      <trkpt lat="49.03036" lon="1.81586">
        <ele>77.2</ele>
        <time>2022-09-22T11:14:03Z</time>
      </trkpt>
      <trkpt lat="49.03031" lon="1.81581">
        <ele>76.7</ele>
        <time>2022-09-22T11:14:07Z</time>
      </trkpt>
      <trkpt lat="49.03027" lon="1.81578">
        <ele>76.3</ele>
        <time>2022-09-22T11:14:11Z</time>
      </trkpt>
      <trkpt lat="49.03022" lon="1.81578">
        <ele>76.2</ele>
        <time>2022-09-22T11:14:16Z</time>
      </trkpt>
      <trkpt lat="49.03017" lon="1.81578">
        <ele>76.3</ele>
        <time>2022-09-22T11:14:20Z</time>
      </trkpt>
      <trkpt lat="49.03012" lon="1.8158">
        <ele>76.4</ele>
        <time>2022-09-22T11:14:24Z</time>
      </trkpt>
      <trkpt lat="49.03008" lon="1.81587">
        <ele>76.7</ele>
        <time>2022-09-22T11:14:29Z</time>
      </trkpt>
      <trkpt lat="49.03006" lon="1.81595">
        <ele>76.7</ele>
        <time>2022-09-22T11:14:33Z</time>
      </trkpt>
      <trkpt lat="49.03006" lon="1.81604">
        <ele>77</ele>
        <time>2022-09-22T11:14:38Z</time>
      </trkpt>
      <trkpt lat="49.03006" lon="1.81613">
        <ele>77.4</ele>
        <time>2022-09-22T11:14:43Z</time>
      </trkpt>
      <trkpt lat="49.03006" lon="1.81621">
        <ele>78.4</ele>
        <time>2022-09-22T11:14:47Z</time>
      </trkpt>
      <trkpt lat="49.03007" lon="1.8163">
        <ele>78.2</ele>
        <time>2022-09-22T11:14:52Z</time>
      </trkpt>
      <trkpt lat="49.03007" lon="1.81639">
        <ele>79</ele>
        <time>2022-09-22T11:14:56Z</time>
      </trkpt>
      <trkpt lat="49.03004" lon="1.81646">
        <ele>78.8</ele>
        <time>2022-09-22T11:15:00Z</time>
      </trkpt>
      <trkpt lat="49.03002" lon="1.81652">
        <ele>79.8</ele>
        <time>2022-09-22T11:15:04Z</time>
      </trkpt>
      <trkpt lat="49.02999" lon="1.81658">
        <ele>80</ele>
        <time>2022-09-22T11:15:07Z</time>
      </trkpt>
      <trkpt lat="49.02996" lon="1.81664">
        <ele>81.2</ele>
        <time>2022-09-22T11:15:11Z</time>
      </trkpt>
      <trkpt lat="49.02993" lon="1.8167">
        <ele>82.3</ele>
        <time>2022-09-22T11:15:15Z</time>
      </trkpt>
      <trkpt lat="49.02989" lon="1.81675">
        <ele>83.6</ele>
        <time>2022-09-22T11:15:19Z</time>
      </trkpt>
      <trkpt lat="49.02986" lon="1.8168">
        <ele>84</ele>
        <time>2022-09-22T11:15:24Z</time>
      </trkpt>
      <trkpt lat="49.02982" lon="1.81683">
        <ele>84.1</ele>
        <time>2022-09-22T11:15:28Z</time>
      </trkpt>
      <trkpt lat="49.02976" lon="1.81682">
        <ele>83.8</ele>
        <time>2022-09-22T11:15:33Z</time>
      </trkpt>
      <trkpt lat="49.02972" lon="1.81679">
        <ele>83.8</ele>
        <time>2022-09-22T11:15:37Z</time>
      </trkpt>
      <trkpt lat="49.02966" lon="1.81676">
        <ele>83.2</ele>
        <time>2022-09-22T11:15:41Z</time>
      </trkpt>
      <trkpt lat="49.02962" lon="1.81673">
        <ele>82</ele>
        <time>2022-09-22T11:15:45Z</time>
      </trkpt>
      <trkpt lat="49.02957" lon="1.81669">
        <ele>81.9</ele>
        <time>2022-09-22T11:15:50Z</time>
      </trkpt>
      <trkpt lat="49.02953" lon="1.81664">
        <ele>81.6</ele>
        <time>2022-09-22T11:15:54Z</time>
      </trkpt>
      <trkpt lat="49.02949" lon="1.8166">
        <ele>81.4</ele>
        <time>2022-09-22T11:15:59Z</time>
      </trkpt>
      <trkpt lat="49.02945" lon="1.81656">
        <ele>81.3</ele>
        <time>2022-09-22T11:16:04Z</time>
      </trkpt>
      <trkpt lat="49.0294" lon="1.81654">
        <ele>81.5</ele>
        <time>2022-09-22T11:16:09Z</time>
      </trkpt>
      <trkpt lat="49.02937" lon="1.81649">
        <ele>81.8</ele>
        <time>2022-09-22T11:16:14Z</time>
      </trkpt>
      <trkpt lat="49.02934" lon="1.81642">
        <ele>82.2</ele>
        <time>2022-09-22T11:16:18Z</time>
      </trkpt>
      <trkpt lat="49.02931" lon="1.81635">
        <ele>82.5</ele>
        <time>2022-09-22T11:16:23Z</time>
      </trkpt>
      <trkpt lat="49.02929" lon="1.81628">
        <ele>82.7</ele>
        <time>2022-09-22T11:16:27Z</time>
      </trkpt>
      <trkpt lat="49.02928" lon="1.81621">
        <ele>83.5</ele>
        <time>2022-09-22T11:16:32Z</time>
      </trkpt>
      <trkpt lat="49.02928" lon="1.81614">
        <ele>84.4</ele>
        <time>2022-09-22T11:16:36Z</time>
      </trkpt>
      <trkpt lat="49.02928" lon="1.81606">
        <ele>85.3</ele>
        <time>2022-09-22T11:16:41Z</time>
      </trkpt>
      <trkpt lat="49.02928" lon="1.81598">
        <ele>85.8</ele>
        <time>2022-09-22T11:16:46Z</time>
      </trkpt>
      <trkpt lat="49.02928" lon="1.81591">
        <ele>86.6</ele>
        <time>2022-09-22T11:16:50Z</time>
      </trkpt>
      <trkpt lat="49.02927" lon="1.81584">
        <ele>87.4</ele>
        <time>2022-09-22T11:16:54Z</time>
      </trkpt>
      <trkpt lat="49.02927" lon="1.81577">
        <ele>88.9</ele>
        <time>2022-09-22T11:16:58Z</time>
      </trkpt>
      <trkpt lat="49.02928" lon="1.81569">
        <ele>89</ele>
        <time>2022-09-22T11:17:03Z</time>
      </trkpt>
      <trkpt lat="49.02929" lon="1.81561">
        <ele>89.8</ele>
        <time>2022-09-22T11:17:07Z</time>
      </trkpt>
      <trkpt lat="49.0293" lon="1.81554">
        <ele>90.1</ele>
        <time>2022-09-22T11:17:11Z</time>
      </trkpt>
      <trkpt lat="49.0293" lon="1.81547">
        <ele>90.1</ele>
        <time>2022-09-22T11:17:14Z</time>
      </trkpt>
      <trkpt lat="49.02931" lon="1.81539">
        <ele>89.9</ele>
        <time>2022-09-22T11:17:18Z</time>
      </trkpt>
      <trkpt lat="49.02932" lon="1.81531">
        <ele>89.9</ele>
        <time>2022-09-22T11:17:22Z</time>
      </trkpt>
      <trkpt lat="49.02932" lon="1.81523">
        <ele>89.7</ele>
        <time>2022-09-22T11:17:26Z</time>
      </trkpt>
      <trkpt lat="49.02931" lon="1.81516">
        <ele>89.7</ele>
        <time>2022-09-22T11:17:30Z</time>
      </trkpt>
      <trkpt lat="49.02927" lon="1.81511">
        <ele>89.6</ele>
        <time>2022-09-22T11:17:35Z</time>
      </trkpt>
      <trkpt lat="49.02922" lon="1.81507">
        <ele>89.7</ele>
        <time>2022-09-22T11:17:39Z</time>
      </trkpt>
      <trkpt lat="49.02919" lon="1.81514">
        <ele>89.7</ele>
        <time>2022-09-22T11:20:37Z</time>
      </trkpt>
      <trkpt lat="49.02916" lon="1.81519">
        <ele>89.8</ele>
        <time>2022-09-22T11:20:43Z</time>
      </trkpt>
      <trkpt lat="49.02913" lon="1.81526">
        <ele>90.1</ele>
        <time>2022-09-22T11:20:48Z</time>
      </trkpt>
      <trkpt lat="49.02909" lon="1.81531">
        <ele>90.4</ele>
        <time>2022-09-22T11:20:53Z</time>
      </trkpt>
      <trkpt lat="49.02905" lon="1.81537">
        <ele>91.1</ele>
        <time>2022-09-22T11:20:59Z</time>
      </trkpt>
      <trkpt lat="49.02902" lon="1.81542">
        <ele>92.3</ele>
        <time>2022-09-22T11:21:04Z</time>
      </trkpt>
      <trkpt lat="49.02899" lon="1.81549">
        <ele>92.7</ele>
        <time>2022-09-22T11:21:09Z</time>
      </trkpt>
      <trkpt lat="49.02896" lon="1.81555">
        <ele>93.2</ele>
        <time>2022-09-22T11:21:14Z</time>
      </trkpt>
      <trkpt lat="49.02893" lon="1.8156">
        <ele>93.9</ele>
        <time>2022-09-22T11:21:19Z</time>
      </trkpt>
      <trkpt lat="49.0289" lon="1.81566">
        <ele>94.9</ele>
        <time>2022-09-22T11:21:24Z</time>
      </trkpt>
      <trkpt lat="49.02887" lon="1.81572">
        <ele>95.8</ele>
        <time>2022-09-22T11:21:29Z</time>
      </trkpt>
      <trkpt lat="49.02884" lon="1.81579">
        <ele>95.9</ele>
        <time>2022-09-22T11:21:34Z</time>
      </trkpt>
      <trkpt lat="49.02881" lon="1.81584">
        <ele>96.8</ele>
        <time>2022-09-22T11:21:38Z</time>
      </trkpt>
      <trkpt lat="49.02878" lon="1.81591">
        <ele>97.3</ele>
        <time>2022-09-22T11:21:43Z</time>
      </trkpt>
      <trkpt lat="49.02875" lon="1.81597">
        <ele>97.7</ele>
        <time>2022-09-22T11:21:47Z</time>
      </trkpt>
      <trkpt lat="49.02873" lon="1.81604">
        <ele>97.8</ele>
        <time>2022-09-22T11:21:51Z</time>
      </trkpt>
      <trkpt lat="49.02871" lon="1.81611">
        <ele>98.3</ele>
        <time>2022-09-22T11:21:55Z</time>
      </trkpt>
      <trkpt lat="49.02868" lon="1.81618">
        <ele>98.8</ele>
        <time>2022-09-22T11:21:59Z</time>
      </trkpt>
      <trkpt lat="49.02865" lon="1.81626">
        <ele>100</ele>
        <time>2022-09-22T11:22:04Z</time>
      </trkpt>
      <trkpt lat="49.02862" lon="1.81632">
        <ele>101.1</ele>
        <time>2022-09-22T11:22:08Z</time>
      </trkpt>
      <trkpt lat="49.02859" lon="1.81639">
        <ele>101.8</ele>
        <time>2022-09-22T11:22:13Z</time>
      </trkpt>
      <trkpt lat="49.02856" lon="1.81645">
        <ele>102.5</ele>
        <time>2022-09-22T11:22:18Z</time>
      </trkpt>
      <trkpt lat="49.02853" lon="1.81652">
        <ele>102.7</ele>
        <time>2022-09-22T11:22:22Z</time>
      </trkpt>
      <trkpt lat="49.0285" lon="1.81658">
        <ele>103</ele>
        <time>2022-09-22T11:22:27Z</time>
      </trkpt>
      <trkpt lat="49.02847" lon="1.81664">
        <ele>103.6</ele>
        <time>2022-09-22T11:22:30Z</time>
      </trkpt>
      <trkpt lat="49.02844" lon="1.81671">
        <ele>104.3</ele>
        <time>2022-09-22T11:22:34Z</time>
      </trkpt>
      <trkpt lat="49.02842" lon="1.81677">
        <ele>104.3</ele>
        <time>2022-09-22T11:22:39Z</time>
      </trkpt>
      <trkpt lat="49.02843" lon="1.81685">
        <ele>105</ele>
        <time>2022-09-22T11:22:45Z</time>
      </trkpt>
      <trkpt lat="49.02844" lon="1.81692">
        <ele>104.8</ele>
        <time>2022-09-22T11:22:49Z</time>
      </trkpt>
      <trkpt lat="49.02844" lon="1.817">
        <ele>105</ele>
        <time>2022-09-22T11:22:54Z</time>
      </trkpt>
      <trkpt lat="49.02843" lon="1.81708">
        <ele>104.9</ele>
        <time>2022-09-22T11:22:58Z</time>
      </trkpt>
      <trkpt lat="49.0284" lon="1.81715">
        <ele>104.9</ele>
        <time>2022-09-22T11:23:03Z</time>
      </trkpt>
      <trkpt lat="49.02837" lon="1.81722">
        <ele>104.8</ele>
        <time>2022-09-22T11:23:07Z</time>
      </trkpt>
      <trkpt lat="49.02835" lon="1.81729">
        <ele>104.6</ele>
        <time>2022-09-22T11:23:11Z</time>
      </trkpt>
      <trkpt lat="49.02833" lon="1.81736">
        <ele>104.4</ele>
        <time>2022-09-22T11:23:15Z</time>
      </trkpt>
      <trkpt lat="49.0283" lon="1.81743">
        <ele>103.9</ele>
        <time>2022-09-22T11:23:20Z</time>
      </trkpt>
      <trkpt lat="49.02828" lon="1.81752">
        <ele>103.7</ele>
        <time>2022-09-22T11:23:24Z</time>
      </trkpt>
      <trkpt lat="49.02827" lon="1.8176">
        <ele>103.4</ele>
        <time>2022-09-22T11:23:29Z</time>
      </trkpt>
      <trkpt lat="49.02824" lon="1.81767">
        <ele>103.1</ele>
        <time>2022-09-22T11:23:33Z</time>
      </trkpt>
      <trkpt lat="49.0282" lon="1.81774">
        <ele>103.2</ele>
        <time>2022-09-22T11:23:38Z</time>
      </trkpt>
      <trkpt lat="49.02816" lon="1.81779">
        <ele>102.9</ele>
        <time>2022-09-22T11:23:42Z</time>
      </trkpt>
      <trkpt lat="49.02811" lon="1.81783">
        <ele>102.9</ele>
        <time>2022-09-22T11:23:46Z</time>
      </trkpt>
      <trkpt lat="49.02806" lon="1.81787">
        <ele>102.5</ele>
        <time>2022-09-22T11:23:50Z</time>
      </trkpt>
      <trkpt lat="49.02801" lon="1.8179">
        <ele>102.1</ele>
        <time>2022-09-22T11:23:55Z</time>
      </trkpt>
      <trkpt lat="49.02795" lon="1.8179">
        <ele>101.8</ele>
        <time>2022-09-22T11:23:59Z</time>
      </trkpt>
      <trkpt lat="49.0279" lon="1.81788">
        <ele>101.5</ele>
        <time>2022-09-22T11:24:04Z</time>
      </trkpt>
      <trkpt lat="49.02784" lon="1.81785">
        <ele>101.3</ele>
        <time>2022-09-22T11:24:09Z</time>
      </trkpt>
      <trkpt lat="49.02782" lon="1.81792">
        <ele>101</ele>
        <time>2022-09-22T11:24:14Z</time>
      </trkpt>
      <trkpt lat="49.02787" lon="1.81798">
        <ele>100.8</ele>
        <time>2022-09-22T11:24:18Z</time>
      </trkpt>
      <trkpt lat="49.02792" lon="1.81801">
        <ele>99.9</ele>
        <time>2022-09-22T11:24:21Z</time>
      </trkpt>
      <trkpt lat="49.02797" lon="1.81804">
        <ele>98.7</ele>
        <time>2022-09-22T11:24:24Z</time>
      </trkpt>
      <trkpt lat="49.02802" lon="1.81807">
        <ele>98.2</ele>
        <time>2022-09-22T11:24:27Z</time>
      </trkpt>
      <trkpt lat="49.02808" lon="1.81809">
        <ele>96.8</ele>
        <time>2022-09-22T11:24:31Z</time>
      </trkpt>
      <trkpt lat="49.02813" lon="1.81813">
        <ele>96.2</ele>
        <time>2022-09-22T11:24:35Z</time>
      </trkpt>
      <trkpt lat="49.02818" lon="1.81815">
        <ele>94.2</ele>
        <time>2022-09-22T11:24:39Z</time>
      </trkpt>
      <trkpt lat="49.02823" lon="1.81816">
        <ele>93.7</ele>
        <time>2022-09-22T11:24:43Z</time>
      </trkpt>
      <trkpt lat="49.02828" lon="1.81818">
        <ele>92.4</ele>
        <time>2022-09-22T11:24:47Z</time>
      </trkpt>
      <trkpt lat="49.02833" lon="1.81821">
        <ele>92</ele>
        <time>2022-09-22T11:24:51Z</time>
      </trkpt>
      <trkpt lat="49.02837" lon="1.81825">
        <ele>91.4</ele>
        <time>2022-09-22T11:24:56Z</time>
      </trkpt>
      <trkpt lat="49.02841" lon="1.8183">
        <ele>90</ele>
        <time>2022-09-22T11:25:00Z</time>
      </trkpt>
      <trkpt lat="49.02846" lon="1.81836">
        <ele>90.1</ele>
        <time>2022-09-22T11:25:05Z</time>
      </trkpt>
      <trkpt lat="49.02849" lon="1.81842">
        <ele>89.2</ele>
        <time>2022-09-22T11:25:09Z</time>
      </trkpt>
      <trkpt lat="49.02853" lon="1.81847">
        <ele>88.6</ele>
        <time>2022-09-22T11:25:13Z</time>
      </trkpt>
      <trkpt lat="49.02856" lon="1.81853">
        <ele>87.6</ele>
        <time>2022-09-22T11:25:17Z</time>
      </trkpt>
      <trkpt lat="49.02859" lon="1.81859">
        <ele>86.6</ele>
        <time>2022-09-22T11:25:21Z</time>
      </trkpt>
      <trkpt lat="49.02862" lon="1.81866">
        <ele>85.9</ele>
        <time>2022-09-22T11:25:26Z</time>
      </trkpt>
      <trkpt lat="49.02866" lon="1.81872">
        <ele>85.4</ele>
        <time>2022-09-22T11:25:32Z</time>
      </trkpt>
      <trkpt lat="49.0287" lon="1.81877">
        <ele>85.3</ele>
        <time>2022-09-22T11:25:36Z</time>
      </trkpt>
      <trkpt lat="49.02873" lon="1.81883">
        <ele>85</ele>
        <time>2022-09-22T11:25:39Z</time>
      </trkpt>
      <trkpt lat="49.02875" lon="1.81889">
        <ele>84.8</ele>
        <time>2022-09-22T11:25:43Z</time>
      </trkpt>
      <trkpt lat="49.02877" lon="1.81896">
        <ele>84.5</ele>
        <time>2022-09-22T11:25:47Z</time>
      </trkpt>
      <trkpt lat="49.0288" lon="1.81903">
        <ele>84.2</ele>
        <time>2022-09-22T11:25:51Z</time>
      </trkpt>
      <trkpt lat="49.02882" lon="1.8191">
        <ele>84.1</ele>
        <time>2022-09-22T11:25:55Z</time>
      </trkpt>
      <trkpt lat="49.02885" lon="1.81918">
        <ele>83.9</ele>
        <time>2022-09-22T11:25:59Z</time>
      </trkpt>
      <trkpt lat="49.02887" lon="1.81924">
        <ele>83.4</ele>
        <time>2022-09-22T11:26:03Z</time>
      </trkpt>
      <trkpt lat="49.02888" lon="1.81932">
        <ele>83</ele>
        <time>2022-09-22T11:26:07Z</time>
      </trkpt>
      <trkpt lat="49.02883" lon="1.81937">
        <ele>82.4</ele>
        <time>2022-09-22T11:26:11Z</time>
      </trkpt>
      <trkpt lat="49.02878" lon="1.81936">
        <ele>81.2</ele>
        <time>2022-09-22T11:26:14Z</time>
      </trkpt>
      <trkpt lat="49.02874" lon="1.81942">
        <ele>80.6</ele>
        <time>2022-09-22T11:26:20Z</time>
      </trkpt>
      <trkpt lat="49.0287" lon="1.81944">
        <ele>80.5</ele>
        <time>2022-09-22T11:26:23Z</time>
      </trkpt>
      <trkpt lat="49.02864" lon="1.81944">
        <ele>80.1</ele>
        <time>2022-09-22T11:26:27Z</time>
      </trkpt>
      <trkpt lat="49.02859" lon="1.81941">
        <ele>80.3</ele>
        <time>2022-09-22T11:26:31Z</time>
      </trkpt>
      <trkpt lat="49.02853" lon="1.81939">
        <ele>80</ele>
        <time>2022-09-22T11:26:35Z</time>
      </trkpt>
      <trkpt lat="49.02848" lon="1.81937">
        <ele>79.4</ele>
        <time>2022-09-22T11:26:39Z</time>
      </trkpt>
      <trkpt lat="49.02843" lon="1.81936">
        <ele>79.2</ele>
        <time>2022-09-22T11:26:42Z</time>
      </trkpt>
      <trkpt lat="49.02838" lon="1.81935">
        <ele>79</ele>
        <time>2022-09-22T11:26:46Z</time>
      </trkpt>
      <trkpt lat="49.02833" lon="1.81933">
        <ele>79.3</ele>
        <time>2022-09-22T11:26:50Z</time>
      </trkpt>
      <trkpt lat="49.02827" lon="1.81933">
        <ele>79.4</ele>
        <time>2022-09-22T11:26:55Z</time>
      </trkpt>
      <trkpt lat="49.02822" lon="1.81934">
        <ele>78.9</ele>
        <time>2022-09-22T11:26:58Z</time>
      </trkpt>
      <trkpt lat="49.02817" lon="1.81935">
        <ele>78.7</ele>
        <time>2022-09-22T11:27:01Z</time>
      </trkpt>
      <trkpt lat="49.02812" lon="1.81936">
        <ele>78</ele>
        <time>2022-09-22T11:27:05Z</time>
      </trkpt>
      <trkpt lat="49.02807" lon="1.81937">
        <ele>78.1</ele>
        <time>2022-09-22T11:27:09Z</time>
      </trkpt>
      <trkpt lat="49.02802" lon="1.81938">
        <ele>77.7</ele>
        <time>2022-09-22T11:27:13Z</time>
      </trkpt>
      <trkpt lat="49.02796" lon="1.81938">
        <ele>77.9</ele>
        <time>2022-09-22T11:27:17Z</time>
      </trkpt>
      <trkpt lat="49.0279" lon="1.81938">
        <ele>78</ele>
        <time>2022-09-22T11:27:21Z</time>
      </trkpt>
      <trkpt lat="49.02784" lon="1.81938">
        <ele>78.3</ele>
        <time>2022-09-22T11:27:25Z</time>
      </trkpt>
      <trkpt lat="49.02779" lon="1.81938">
        <ele>78.4</ele>
        <time>2022-09-22T11:27:29Z</time>
      </trkpt>
      <trkpt lat="49.02774" lon="1.81939">
        <ele>78.4</ele>
        <time>2022-09-22T11:27:33Z</time>
      </trkpt>
      <trkpt lat="49.02769" lon="1.8194">
        <ele>79</ele>
        <time>2022-09-22T11:27:37Z</time>
      </trkpt>
      <trkpt lat="49.02764" lon="1.81939">
        <ele>79.1</ele>
        <time>2022-09-22T11:27:41Z</time>
      </trkpt>
      <trkpt lat="49.0276" lon="1.81937">
        <ele>79.6</ele>
        <time>2022-09-22T11:27:44Z</time>
      </trkpt>
      <trkpt lat="49.02754" lon="1.81936">
        <ele>79.9</ele>
        <time>2022-09-22T11:27:48Z</time>
      </trkpt>
      <trkpt lat="49.02748" lon="1.81936">
        <ele>80</ele>
        <time>2022-09-22T11:27:53Z</time>
      </trkpt>
      <trkpt lat="49.02743" lon="1.81935">
        <ele>79.8</ele>
        <time>2022-09-22T11:27:57Z</time>
      </trkpt>
      <trkpt lat="49.02737" lon="1.81934">
        <ele>79.8</ele>
        <time>2022-09-22T11:28:02Z</time>
      </trkpt>
      <trkpt lat="49.02732" lon="1.81934">
        <ele>79.7</ele>
        <time>2022-09-22T11:28:06Z</time>
      </trkpt>
      <trkpt lat="49.02725" lon="1.81933">
        <ele>79.2</ele>
        <time>2022-09-22T11:28:11Z</time>
      </trkpt>
      <trkpt lat="49.0272" lon="1.81933">
        <ele>78.9</ele>
        <time>2022-09-22T11:28:15Z</time>
      </trkpt>
      <trkpt lat="49.02715" lon="1.81932">
        <ele>77.9</ele>
        <time>2022-09-22T11:28:19Z</time>
      </trkpt>
      <trkpt lat="49.0271" lon="1.8193">
        <ele>77.7</ele>
        <time>2022-09-22T11:28:24Z</time>
      </trkpt>
      <trkpt lat="49.02704" lon="1.81928">
        <ele>77.5</ele>
        <time>2022-09-22T11:28:28Z</time>
      </trkpt>
      <trkpt lat="49.02699" lon="1.81926">
        <ele>77.1</ele>
        <time>2022-09-22T11:28:33Z</time>
      </trkpt>
      <trkpt lat="49.02694" lon="1.81924">
        <ele>76.8</ele>
        <time>2022-09-22T11:28:36Z</time>
      </trkpt>
      <trkpt lat="49.02689" lon="1.81923">
        <ele>77</ele>
        <time>2022-09-22T11:28:40Z</time>
      </trkpt>
      <trkpt lat="49.02684" lon="1.81923">
        <ele>77.2</ele>
        <time>2022-09-22T11:28:44Z</time>
      </trkpt>
      <trkpt lat="49.02679" lon="1.81922">
        <ele>77</ele>
        <time>2022-09-22T11:28:48Z</time>
      </trkpt>
      <trkpt lat="49.02674" lon="1.81922">
        <ele>77</ele>
        <time>2022-09-22T11:28:52Z</time>
      </trkpt>
      <trkpt lat="49.02668" lon="1.81924">
        <ele>77.1</ele>
        <time>2022-09-22T11:28:57Z</time>
      </trkpt>
      <trkpt lat="49.02663" lon="1.81928">
        <ele>77.2</ele>
        <time>2022-09-22T11:29:01Z</time>
      </trkpt>
      <trkpt lat="49.02659" lon="1.81934">
        <ele>77.7</ele>
        <time>2022-09-22T11:29:06Z</time>
      </trkpt>
      <trkpt lat="49.02655" lon="1.81938">
        <ele>77.7</ele>
        <time>2022-09-22T11:29:10Z</time>
      </trkpt>
      <trkpt lat="49.02651" lon="1.81941">
        <ele>77.8</ele>
        <time>2022-09-22T11:29:14Z</time>
      </trkpt>
      <trkpt lat="49.02647" lon="1.81945">
        <ele>77.9</ele>
        <time>2022-09-22T11:29:18Z</time>
      </trkpt>
      <trkpt lat="49.02643" lon="1.8195">
        <ele>78</ele>
        <time>2022-09-22T11:29:22Z</time>
      </trkpt>
      <trkpt lat="49.02638" lon="1.81955">
        <ele>78</ele>
        <time>2022-09-22T11:29:26Z</time>
      </trkpt>
      <trkpt lat="49.02634" lon="1.81959">
        <ele>78.2</ele>
        <time>2022-09-22T11:29:30Z</time>
      </trkpt>
      <trkpt lat="49.0263" lon="1.81964">
        <ele>78.2</ele>
        <time>2022-09-22T11:29:34Z</time>
      </trkpt>
      <trkpt lat="49.02628" lon="1.8197">
        <ele>78.2</ele>
        <time>2022-09-22T11:29:38Z</time>
      </trkpt>
      <trkpt lat="49.02624" lon="1.81977">
        <ele>78.4</ele>
        <time>2022-09-22T11:29:42Z</time>
      </trkpt>
      <trkpt lat="49.02622" lon="1.81983">
        <ele>78.5</ele>
        <time>2022-09-22T11:29:46Z</time>
      </trkpt>
      <trkpt lat="49.0262" lon="1.81991">
        <ele>78.7</ele>
        <time>2022-09-22T11:29:51Z</time>
      </trkpt>
      <trkpt lat="49.0262" lon="1.82">
        <ele>79.2</ele>
        <time>2022-09-22T11:29:55Z</time>
      </trkpt>
      <trkpt lat="49.0262" lon="1.82007">
        <ele>79.2</ele>
        <time>2022-09-22T11:30:00Z</time>
      </trkpt>
      <trkpt lat="49.02621" lon="1.82014">
        <ele>79.8</ele>
        <time>2022-09-22T11:30:05Z</time>
      </trkpt>
      <trkpt lat="49.02622" lon="1.82022">
        <ele>80.4</ele>
        <time>2022-09-22T11:30:10Z</time>
      </trkpt>
      <trkpt lat="49.02623" lon="1.8203">
        <ele>80.4</ele>
        <time>2022-09-22T11:30:14Z</time>
      </trkpt>
      <trkpt lat="49.02624" lon="1.82037">
        <ele>81.1</ele>
        <time>2022-09-22T11:30:19Z</time>
      </trkpt>
      <trkpt lat="49.02624" lon="1.82045">
        <ele>81.4</ele>
        <time>2022-09-22T11:30:23Z</time>
      </trkpt>
      <trkpt lat="49.02624" lon="1.82053">
        <ele>81.7</ele>
        <time>2022-09-22T11:30:28Z</time>
      </trkpt>
      <trkpt lat="49.02625" lon="1.8206">
        <ele>82.4</ele>
        <time>2022-09-22T11:30:33Z</time>
      </trkpt>
      <trkpt lat="49.02626" lon="1.82067">
        <ele>82.7</ele>
        <time>2022-09-22T11:30:37Z</time>
      </trkpt>
      <trkpt lat="49.02627" lon="1.82074">
        <ele>83.4</ele>
        <time>2022-09-22T11:30:42Z</time>
      </trkpt>
      <trkpt lat="49.02626" lon="1.82081">
        <ele>84</ele>
        <time>2022-09-22T11:30:46Z</time>
      </trkpt>
      <trkpt lat="49.02626" lon="1.82089">
        <ele>86.2</ele>
        <time>2022-09-22T11:30:51Z</time>
      </trkpt>
      <trkpt lat="49.02627" lon="1.82097">
        <ele>87.1</ele>
        <time>2022-09-22T11:30:55Z</time>
      </trkpt>
      <trkpt lat="49.02628" lon="1.82104">
        <ele>88</ele>
        <time>2022-09-22T11:30:59Z</time>
      </trkpt>
      <trkpt lat="49.0263" lon="1.82111">
        <ele>88.3</ele>
        <time>2022-09-22T11:31:04Z</time>
      </trkpt>
      <trkpt lat="49.02631" lon="1.82118">
        <ele>89</ele>
        <time>2022-09-22T11:31:08Z</time>
      </trkpt>
      <trkpt lat="49.02632" lon="1.82126">
        <ele>90</ele>
        <time>2022-09-22T11:31:13Z</time>
      </trkpt>
      <trkpt lat="49.02633" lon="1.82135">
        <ele>90.6</ele>
        <time>2022-09-22T11:31:18Z</time>
      </trkpt>
      <trkpt lat="49.02634" lon="1.82142">
        <ele>91</ele>
        <time>2022-09-22T11:31:22Z</time>
      </trkpt>
      <trkpt lat="49.02635" lon="1.82151">
        <ele>91.6</ele>
        <time>2022-09-22T11:31:27Z</time>
      </trkpt>
      <trkpt lat="49.02637" lon="1.82158">
        <ele>92.6</ele>
        <time>2022-09-22T11:31:32Z</time>
      </trkpt>
      <trkpt lat="49.02638" lon="1.82165">
        <ele>92.6</ele>
        <time>2022-09-22T11:31:36Z</time>
      </trkpt>
      <trkpt lat="49.02639" lon="1.82172">
        <ele>93.2</ele>
        <time>2022-09-22T11:31:40Z</time>
      </trkpt>
      <trkpt lat="49.0264" lon="1.82181">
        <ele>93.9</ele>
        <time>2022-09-22T11:31:45Z</time>
      </trkpt>
      <trkpt lat="49.02641" lon="1.82189">
        <ele>94.6</ele>
        <time>2022-09-22T11:31:50Z</time>
      </trkpt>
      <trkpt lat="49.02643" lon="1.82197">
        <ele>95.3</ele>
        <time>2022-09-22T11:31:55Z</time>
      </trkpt>
      <trkpt lat="49.02644" lon="1.82205">
        <ele>95.3</ele>
        <time>2022-09-22T11:32:00Z</time>
      </trkpt>
      <trkpt lat="49.02645" lon="1.82214">
        <ele>95.9</ele>
        <time>2022-09-22T11:32:05Z</time>
      </trkpt>
      <trkpt lat="49.02645" lon="1.82221">
        <ele>96.3</ele>
        <time>2022-09-22T11:32:09Z</time>
      </trkpt>
      <trkpt lat="49.02645" lon="1.82228">
        <ele>96.5</ele>
        <time>2022-09-22T11:32:13Z</time>
      </trkpt>
      <trkpt lat="49.02645" lon="1.82235">
        <ele>97.3</ele>
        <time>2022-09-22T11:32:17Z</time>
      </trkpt>
      <trkpt lat="49.02645" lon="1.82243">
        <ele>97.9</ele>
        <time>2022-09-22T11:32:22Z</time>
      </trkpt>
      <trkpt lat="49.02645" lon="1.82251">
        <ele>98</ele>
        <time>2022-09-22T11:32:26Z</time>
      </trkpt>
      <trkpt lat="49.02645" lon="1.82258">
        <ele>98.2</ele>
        <time>2022-09-22T11:32:31Z</time>
      </trkpt>
      <trkpt lat="49.02644" lon="1.82266">
        <ele>98.4</ele>
        <time>2022-09-22T11:32:35Z</time>
      </trkpt>
      <trkpt lat="49.02644" lon="1.82273">
        <ele>98.8</ele>
        <time>2022-09-22T11:32:40Z</time>
      </trkpt>
      <trkpt lat="49.02642" lon="1.82281">
        <ele>99.2</ele>
        <time>2022-09-22T11:32:45Z</time>
      </trkpt>
      <trkpt lat="49.0264" lon="1.82288">
        <ele>99.7</ele>
        <time>2022-09-22T11:32:49Z</time>
      </trkpt>
      <trkpt lat="49.02639" lon="1.82296">
        <ele>100.8</ele>
        <time>2022-09-22T11:32:54Z</time>
      </trkpt>
      <trkpt lat="49.02639" lon="1.82304">
        <ele>101.9</ele>
        <time>2022-09-22T11:32:58Z</time>
      </trkpt>
      <trkpt lat="49.02638" lon="1.82311">
        <ele>103.2</ele>
        <time>2022-09-22T11:33:02Z</time>
      </trkpt>
      <trkpt lat="49.02635" lon="1.82318">
        <ele>103.9</ele>
        <time>2022-09-22T11:33:07Z</time>
      </trkpt>
      <trkpt lat="49.02633" lon="1.82324">
        <ele>104.5</ele>
        <time>2022-09-22T11:33:11Z</time>
      </trkpt>
      <trkpt lat="49.0263" lon="1.8233">
        <ele>104.4</ele>
        <time>2022-09-22T11:33:15Z</time>
      </trkpt>
      <trkpt lat="49.02628" lon="1.82336">
        <ele>104.4</ele>
        <time>2022-09-22T11:33:18Z</time>
      </trkpt>
      <trkpt lat="49.02626" lon="1.82344">
        <ele>104.5</ele>
        <time>2022-09-22T11:33:22Z</time>
      </trkpt>
      <trkpt lat="49.02624" lon="1.82352">
        <ele>104.6</ele>
        <time>2022-09-22T11:33:26Z</time>
      </trkpt>
      <trkpt lat="49.02622" lon="1.82359">
        <ele>104.5</ele>
        <time>2022-09-22T11:33:30Z</time>
      </trkpt>
      <trkpt lat="49.0262" lon="1.82367">
        <ele>104.1</ele>
        <time>2022-09-22T11:33:35Z</time>
      </trkpt>
      <trkpt lat="49.02618" lon="1.82374">
        <ele>104.5</ele>
        <time>2022-09-22T11:33:39Z</time>
      </trkpt>
      <trkpt lat="49.02616" lon="1.8238">
        <ele>104.7</ele>
        <time>2022-09-22T11:33:43Z</time>
      </trkpt>
      <trkpt lat="49.02613" lon="1.82388">
        <ele>104.6</ele>
        <time>2022-09-22T11:33:47Z</time>
      </trkpt>
      <trkpt lat="49.02611" lon="1.82395">
        <ele>105.1</ele>
        <time>2022-09-22T11:33:51Z</time>
      </trkpt>
      <trkpt lat="49.02609" lon="1.82402">
        <ele>105.1</ele>
        <time>2022-09-22T11:33:56Z</time>
      </trkpt>
      <trkpt lat="49.02606" lon="1.8241">
        <ele>105.9</ele>
        <time>2022-09-22T11:34:01Z</time>
      </trkpt>
      <trkpt lat="49.02605" lon="1.82418">
        <ele>106.9</ele>
        <time>2022-09-22T11:34:05Z</time>
      </trkpt>
      <trkpt lat="49.02603" lon="1.82426">
        <ele>107.4</ele>
        <time>2022-09-22T11:34:10Z</time>
      </trkpt>
      <trkpt lat="49.02602" lon="1.82433">
        <ele>107.3</ele>
        <time>2022-09-22T11:34:14Z</time>
      </trkpt>
      <trkpt lat="49.026" lon="1.82441">
        <ele>107.7</ele>
        <time>2022-09-22T11:34:19Z</time>
      </trkpt>
      <trkpt lat="49.02598" lon="1.8245">
        <ele>108.4</ele>
        <time>2022-09-22T11:34:23Z</time>
      </trkpt>
      <trkpt lat="49.02596" lon="1.82458">
        <ele>108.7</ele>
        <time>2022-09-22T11:34:28Z</time>
      </trkpt>
      <trkpt lat="49.02594" lon="1.82466">
        <ele>108.6</ele>
        <time>2022-09-22T11:34:32Z</time>
      </trkpt>
      <trkpt lat="49.02592" lon="1.82474">
        <ele>109</ele>
        <time>2022-09-22T11:34:37Z</time>
      </trkpt>
      <trkpt lat="49.0259" lon="1.82481">
        <ele>109.1</ele>
        <time>2022-09-22T11:34:41Z</time>
      </trkpt>
      <trkpt lat="49.02587" lon="1.82487">
        <ele>109.4</ele>
        <time>2022-09-22T11:34:45Z</time>
      </trkpt>
      <trkpt lat="49.02584" lon="1.82494">
        <ele>109.4</ele>
        <time>2022-09-22T11:34:50Z</time>
      </trkpt>
      <trkpt lat="49.02581" lon="1.82501">
        <ele>109.7</ele>
        <time>2022-09-22T11:34:54Z</time>
      </trkpt>
      <trkpt lat="49.02578" lon="1.82508">
        <ele>109.7</ele>
        <time>2022-09-22T11:34:58Z</time>
      </trkpt>
      <trkpt lat="49.02575" lon="1.82514">
        <ele>109.8</ele>
        <time>2022-09-22T11:35:02Z</time>
      </trkpt>
      <trkpt lat="49.02572" lon="1.82521">
        <ele>109.9</ele>
        <time>2022-09-22T11:35:06Z</time>
      </trkpt>
      <trkpt lat="49.02569" lon="1.82527">
        <ele>109.8</ele>
        <time>2022-09-22T11:35:10Z</time>
      </trkpt>
      <trkpt lat="49.02566" lon="1.82533">
        <ele>109.8</ele>
        <time>2022-09-22T11:35:14Z</time>
      </trkpt>
      <trkpt lat="49.02563" lon="1.8254">
        <ele>109.8</ele>
        <time>2022-09-22T11:35:18Z</time>
      </trkpt>
      <trkpt lat="49.0256" lon="1.82545">
        <ele>109.8</ele>
        <time>2022-09-22T11:35:22Z</time>
      </trkpt>
      <trkpt lat="49.02557" lon="1.82551">
        <ele>109.8</ele>
        <time>2022-09-22T11:35:26Z</time>
      </trkpt>
      <trkpt lat="49.02554" lon="1.82557">
        <ele>109.8</ele>
        <time>2022-09-22T11:35:30Z</time>
      </trkpt>
      <trkpt lat="49.02552" lon="1.82565">
        <ele>109.8</ele>
        <time>2022-09-22T11:35:34Z</time>
      </trkpt>
      <trkpt lat="49.02549" lon="1.82572">
        <ele>110</ele>
        <time>2022-09-22T11:35:38Z</time>
      </trkpt>
      <trkpt lat="49.02546" lon="1.82579">
        <ele>110.1</ele>
        <time>2022-09-22T11:35:42Z</time>
      </trkpt>
      <trkpt lat="49.02544" lon="1.82585">
        <ele>110.3</ele>
        <time>2022-09-22T11:35:46Z</time>
      </trkpt>
      <trkpt lat="49.02541" lon="1.82592">
        <ele>110.3</ele>
        <time>2022-09-22T11:35:50Z</time>
      </trkpt>
      <trkpt lat="49.02538" lon="1.82597">
        <ele>110.6</ele>
        <time>2022-09-22T11:35:54Z</time>
      </trkpt>
      <trkpt lat="49.02535" lon="1.82603">
        <ele>111</ele>
        <time>2022-09-22T11:35:58Z</time>
      </trkpt>
      <trkpt lat="49.02532" lon="1.82611">
        <ele>111.1</ele>
        <time>2022-09-22T11:36:02Z</time>
      </trkpt>
      <trkpt lat="49.0253" lon="1.82617">
        <ele>111.1</ele>
        <time>2022-09-22T11:36:07Z</time>
      </trkpt>
      <trkpt lat="49.02527" lon="1.82624">
        <ele>111.1</ele>
        <time>2022-09-22T11:36:11Z</time>
      </trkpt>
      <trkpt lat="49.02525" lon="1.82631">
        <ele>111.1</ele>
        <time>2022-09-22T11:36:15Z</time>
      </trkpt>
      <trkpt lat="49.02523" lon="1.82638">
        <ele>111</ele>
        <time>2022-09-22T11:36:19Z</time>
      </trkpt>
      <trkpt lat="49.0252" lon="1.82645">
        <ele>111.1</ele>
        <time>2022-09-22T11:36:24Z</time>
      </trkpt>
      <trkpt lat="49.02518" lon="1.82652">
        <ele>111.1</ele>
        <time>2022-09-22T11:36:28Z</time>
      </trkpt>
      <trkpt lat="49.02515" lon="1.82659">
        <ele>111.1</ele>
        <time>2022-09-22T11:36:32Z</time>
      </trkpt>
      <trkpt lat="49.02512" lon="1.82666">
        <ele>111.1</ele>
        <time>2022-09-22T11:36:36Z</time>
      </trkpt>
      <trkpt lat="49.0251" lon="1.82673">
        <ele>111</ele>
        <time>2022-09-22T11:36:40Z</time>
      </trkpt>
      <trkpt lat="49.02507" lon="1.82679">
        <ele>111</ele>
        <time>2022-09-22T11:36:44Z</time>
      </trkpt>
      <trkpt lat="49.02504" lon="1.82685">
        <ele>111.1</ele>
        <time>2022-09-22T11:36:48Z</time>
      </trkpt>
      <trkpt lat="49.02502" lon="1.82691">
        <ele>111</ele>
        <time>2022-09-22T11:36:52Z</time>
      </trkpt>
      <trkpt lat="49.02496" lon="1.82693">
        <ele>111.1</ele>
        <time>2022-09-22T11:37:12Z</time>
      </trkpt>
      <trkpt lat="49.02494" lon="1.827">
        <ele>111.2</ele>
        <time>2022-09-22T11:37:15Z</time>
      </trkpt>
      <trkpt lat="49.02493" lon="1.82707">
        <ele>111.2</ele>
        <time>2022-09-22T11:37:18Z</time>
      </trkpt>
      <trkpt lat="49.02489" lon="1.82712">
        <ele>111.3</ele>
        <time>2022-09-22T11:37:30Z</time>
      </trkpt>
      <trkpt lat="49.02486" lon="1.82717">
        <ele>111.2</ele>
        <time>2022-09-22T11:37:33Z</time>
      </trkpt>
      <trkpt lat="49.02483" lon="1.82723">
        <ele>111.3</ele>
        <time>2022-09-22T11:37:36Z</time>
      </trkpt>
      <trkpt lat="49.02482" lon="1.82731">
        <ele>111.3</ele>
        <time>2022-09-22T11:37:40Z</time>
      </trkpt>
      <trkpt lat="49.02481" lon="1.82738">
        <ele>111.5</ele>
        <time>2022-09-22T11:37:43Z</time>
      </trkpt>
      <trkpt lat="49.02479" lon="1.82746">
        <ele>111.7</ele>
        <time>2022-09-22T11:37:48Z</time>
      </trkpt>
      <trkpt lat="49.02476" lon="1.82753">
        <ele>112.1</ele>
        <time>2022-09-22T11:37:52Z</time>
      </trkpt>
      <trkpt lat="49.02473" lon="1.82759">
        <ele>112.4</ele>
        <time>2022-09-22T11:37:56Z</time>
      </trkpt>
      <trkpt lat="49.0247" lon="1.82766">
        <ele>112.7</ele>
        <time>2022-09-22T11:38:00Z</time>
      </trkpt>
      <trkpt lat="49.02468" lon="1.82772">
        <ele>113</ele>
        <time>2022-09-22T11:38:04Z</time>
      </trkpt>
      <trkpt lat="49.02466" lon="1.82779">
        <ele>113.5</ele>
        <time>2022-09-22T11:38:08Z</time>
      </trkpt>
      <trkpt lat="49.02463" lon="1.82786">
        <ele>113.5</ele>
        <time>2022-09-22T11:38:12Z</time>
      </trkpt>
      <trkpt lat="49.02461" lon="1.82792">
        <ele>113.2</ele>
        <time>2022-09-22T11:38:16Z</time>
      </trkpt>
      <trkpt lat="49.02458" lon="1.82799">
        <ele>113.2</ele>
        <time>2022-09-22T11:38:21Z</time>
      </trkpt>
      <trkpt lat="49.02456" lon="1.82805">
        <ele>113</ele>
        <time>2022-09-22T11:38:24Z</time>
      </trkpt>
      <trkpt lat="49.02453" lon="1.82813">
        <ele>112.7</ele>
        <time>2022-09-22T11:38:28Z</time>
      </trkpt>
      <trkpt lat="49.0245" lon="1.8282">
        <ele>112.1</ele>
        <time>2022-09-22T11:38:33Z</time>
      </trkpt>
      <trkpt lat="49.02447" lon="1.82825">
        <ele>111.2</ele>
        <time>2022-09-22T11:38:37Z</time>
      </trkpt>
      <trkpt lat="49.02444" lon="1.82831">
        <ele>111.1</ele>
        <time>2022-09-22T11:38:41Z</time>
      </trkpt>
      <trkpt lat="49.02441" lon="1.82838">
        <ele>110.9</ele>
        <time>2022-09-22T11:38:46Z</time>
      </trkpt>
      <trkpt lat="49.0244" lon="1.82847">
        <ele>111</ele>
        <time>2022-09-22T11:38:51Z</time>
      </trkpt>
      <trkpt lat="49.02438" lon="1.82854">
        <ele>110.9</ele>
        <time>2022-09-22T11:38:55Z</time>
      </trkpt>
      <trkpt lat="49.02437" lon="1.82861">
        <ele>110.7</ele>
        <time>2022-09-22T11:38:58Z</time>
      </trkpt>
      <trkpt lat="49.02436" lon="1.82867">
        <ele>110.7</ele>
        <time>2022-09-22T11:39:02Z</time>
      </trkpt>
      <trkpt lat="49.02435" lon="1.82875">
        <ele>110.4</ele>
        <time>2022-09-22T11:39:06Z</time>
      </trkpt>
      <trkpt lat="49.02433" lon="1.82882">
        <ele>110.3</ele>
        <time>2022-09-22T11:39:10Z</time>
      </trkpt>
      <trkpt lat="49.02432" lon="1.82889">
        <ele>110.3</ele>
        <time>2022-09-22T11:39:14Z</time>
      </trkpt>
      <trkpt lat="49.02429" lon="1.82896">
        <ele>110.2</ele>
        <time>2022-09-22T11:39:19Z</time>
      </trkpt>
      <trkpt lat="49.02424" lon="1.829">
        <ele>109.6</ele>
        <time>2022-09-22T11:39:23Z</time>
      </trkpt>
      <trkpt lat="49.02418" lon="1.82897">
        <ele>109.3</ele>
        <time>2022-09-22T11:39:28Z</time>
      </trkpt>
      <trkpt lat="49.02414" lon="1.82892">
        <ele>109.5</ele>
        <time>2022-09-22T11:39:32Z</time>
      </trkpt>
      <trkpt lat="49.0241" lon="1.82888">
        <ele>109.5</ele>
        <time>2022-09-22T11:39:37Z</time>
      </trkpt>
      <trkpt lat="49.02405" lon="1.82884">
        <ele>109.4</ele>
        <time>2022-09-22T11:39:42Z</time>
      </trkpt>
      <trkpt lat="49.024" lon="1.82882">
        <ele>109.3</ele>
        <time>2022-09-22T11:39:46Z</time>
      </trkpt>
      <trkpt lat="49.02395" lon="1.82881">
        <ele>109.9</ele>
        <time>2022-09-22T11:39:50Z</time>
      </trkpt>
      <trkpt lat="49.0239" lon="1.82881">
        <ele>110.2</ele>
        <time>2022-09-22T11:39:54Z</time>
      </trkpt>
      <trkpt lat="49.02386" lon="1.82881">
        <ele>110.4</ele>
        <time>2022-09-22T11:39:58Z</time>
      </trkpt>
      <trkpt lat="49.02381" lon="1.82879">
        <ele>110.9</ele>
        <time>2022-09-22T11:40:02Z</time>
      </trkpt>
      <trkpt lat="49.02377" lon="1.82876">
        <ele>110.8</ele>
        <time>2022-09-22T11:40:06Z</time>
      </trkpt>
      <trkpt lat="49.02372" lon="1.82872">
        <ele>111.5</ele>
        <time>2022-09-22T11:40:11Z</time>
      </trkpt>
      <trkpt lat="49.02367" lon="1.82867">
        <ele>111.9</ele>
        <time>2022-09-22T11:40:15Z</time>
      </trkpt>
      <trkpt lat="49.02362" lon="1.82862">
        <ele>112.3</ele>
        <time>2022-09-22T11:40:20Z</time>
      </trkpt>
      <trkpt lat="49.02358" lon="1.82858">
        <ele>111.9</ele>
        <time>2022-09-22T11:40:23Z</time>
      </trkpt>
      <trkpt lat="49.02353" lon="1.82855">
        <ele>111.9</ele>
        <time>2022-09-22T11:40:27Z</time>
      </trkpt>
      <trkpt lat="49.02348" lon="1.82855">
        <ele>112.1</ele>
        <time>2022-09-22T11:40:31Z</time>
      </trkpt>
      <trkpt lat="49.02342" lon="1.82855">
        <ele>111.9</ele>
        <time>2022-09-22T11:40:35Z</time>
      </trkpt>
      <trkpt lat="49.02337" lon="1.82856">
        <ele>111.9</ele>
        <time>2022-09-22T11:40:40Z</time>
      </trkpt>
      <trkpt lat="49.02331" lon="1.82857">
        <ele>111.8</ele>
        <time>2022-09-22T11:40:45Z</time>
      </trkpt>
      <trkpt lat="49.02326" lon="1.82858">
        <ele>112</ele>
        <time>2022-09-22T11:40:49Z</time>
      </trkpt>
      <trkpt lat="49.02321" lon="1.8286">
        <ele>112</ele>
        <time>2022-09-22T11:40:53Z</time>
      </trkpt>
      <trkpt lat="49.02316" lon="1.8286">
        <ele>112.4</ele>
        <time>2022-09-22T11:40:58Z</time>
      </trkpt>
      <trkpt lat="49.0231" lon="1.82861">
        <ele>112.5</ele>
        <time>2022-09-22T11:41:03Z</time>
      </trkpt>
      <trkpt lat="49.02305" lon="1.82861">
        <ele>113</ele>
        <time>2022-09-22T11:41:08Z</time>
      </trkpt>
      <trkpt lat="49.02301" lon="1.82861">
        <ele>114.1</ele>
        <time>2022-09-22T11:41:12Z</time>
      </trkpt>
      <trkpt lat="49.02296" lon="1.82862">
        <ele>114.1</ele>
        <time>2022-09-22T11:41:16Z</time>
      </trkpt>
      <trkpt lat="49.02291" lon="1.82862">
        <ele>114.7</ele>
        <time>2022-09-22T11:41:20Z</time>
      </trkpt>
      <trkpt lat="49.02285" lon="1.82862">
        <ele>114.8</ele>
        <time>2022-09-22T11:41:24Z</time>
      </trkpt>
      <trkpt lat="49.0228" lon="1.82861">
        <ele>115.2</ele>
        <time>2022-09-22T11:41:29Z</time>
      </trkpt>
      <trkpt lat="49.02275" lon="1.8286">
        <ele>115.4</ele>
        <time>2022-09-22T11:41:33Z</time>
      </trkpt>
      <trkpt lat="49.0227" lon="1.82859">
        <ele>115.6</ele>
        <time>2022-09-22T11:41:37Z</time>
      </trkpt>
      <trkpt lat="49.02265" lon="1.82859">
        <ele>115.7</ele>
        <time>2022-09-22T11:41:41Z</time>
      </trkpt>
      <trkpt lat="49.0226" lon="1.82858">
        <ele>116.1</ele>
        <time>2022-09-22T11:41:45Z</time>
      </trkpt>
      <trkpt lat="49.02254" lon="1.82858">
        <ele>115.7</ele>
        <time>2022-09-22T11:41:50Z</time>
      </trkpt>
      <trkpt lat="49.02247" lon="1.82865">
        <ele>115.6</ele>
        <time>2022-09-22T11:42:11Z</time>
      </trkpt>
      <trkpt lat="49.02242" lon="1.82864">
        <ele>115.3</ele>
        <time>2022-09-22T11:42:16Z</time>
      </trkpt>
      <trkpt lat="49.02239" lon="1.82859">
        <ele>115.4</ele>
        <time>2022-09-22T11:43:09Z</time>
      </trkpt>
      <trkpt lat="49.02237" lon="1.82867">
        <ele>115.6</ele>
        <time>2022-09-22T11:43:36Z</time>
      </trkpt>
      <trkpt lat="49.02237" lon="1.82875">
        <ele>116.9</ele>
        <time>2022-09-22T11:43:40Z</time>
      </trkpt>
      <trkpt lat="49.02237" lon="1.82882">
        <ele>117.2</ele>
        <time>2022-09-22T11:43:44Z</time>
      </trkpt>
      <trkpt lat="49.02238" lon="1.8289">
        <ele>117.2</ele>
        <time>2022-09-22T11:43:49Z</time>
      </trkpt>
      <trkpt lat="49.02238" lon="1.82897">
        <ele>116.9</ele>
        <time>2022-09-22T11:43:53Z</time>
      </trkpt>
      <trkpt lat="49.02238" lon="1.82905">
        <ele>117.3</ele>
        <time>2022-09-22T11:43:58Z</time>
      </trkpt>
      <trkpt lat="49.02237" lon="1.82914">
        <ele>117.7</ele>
        <time>2022-09-22T11:44:02Z</time>
      </trkpt>
      <trkpt lat="49.02236" lon="1.82921">
        <ele>117.4</ele>
        <time>2022-09-22T11:44:07Z</time>
      </trkpt>
      <trkpt lat="49.02235" lon="1.8293">
        <ele>117.6</ele>
        <time>2022-09-22T11:44:13Z</time>
      </trkpt>
      <trkpt lat="49.02234" lon="1.8294">
        <ele>117.4</ele>
        <time>2022-09-22T11:44:18Z</time>
      </trkpt>
      <trkpt lat="49.02234" lon="1.82948">
        <ele>117.4</ele>
        <time>2022-09-22T11:44:22Z</time>
      </trkpt>
      <trkpt lat="49.02234" lon="1.82956">
        <ele>117.3</ele>
        <time>2022-09-22T11:44:25Z</time>
      </trkpt>
      <trkpt lat="49.02235" lon="1.82962">
        <ele>117.5</ele>
        <time>2022-09-22T11:44:28Z</time>
      </trkpt>
      <trkpt lat="49.02237" lon="1.8297">
        <ele>117.5</ele>
        <time>2022-09-22T11:44:32Z</time>
      </trkpt>
      <trkpt lat="49.02239" lon="1.82977">
        <ele>117.8</ele>
        <time>2022-09-22T11:44:37Z</time>
      </trkpt>
      <trkpt lat="49.02241" lon="1.82983">
        <ele>117.7</ele>
        <time>2022-09-22T11:44:41Z</time>
      </trkpt>
      <trkpt lat="49.02243" lon="1.82989">
        <ele>117.2</ele>
        <time>2022-09-22T11:44:45Z</time>
      </trkpt>
      <trkpt lat="49.02246" lon="1.82996">
        <ele>117.3</ele>
        <time>2022-09-22T11:44:49Z</time>
      </trkpt>
      <trkpt lat="49.02248" lon="1.83004">
        <ele>117.1</ele>
        <time>2022-09-22T11:44:53Z</time>
      </trkpt>
      <trkpt lat="49.02249" lon="1.83011">
        <ele>117.2</ele>
        <time>2022-09-22T11:44:57Z</time>
      </trkpt>
      <trkpt lat="49.02251" lon="1.83018">
        <ele>116.7</ele>
        <time>2022-09-22T11:45:01Z</time>
      </trkpt>
      <trkpt lat="49.02251" lon="1.83026">
        <ele>116.5</ele>
        <time>2022-09-22T11:45:05Z</time>
      </trkpt>
      <trkpt lat="49.0225" lon="1.83035">
        <ele>115.3</ele>
        <time>2022-09-22T11:45:09Z</time>
      </trkpt>
      <trkpt lat="49.0225" lon="1.83043">
        <ele>114.9</ele>
        <time>2022-09-22T11:45:13Z</time>
      </trkpt>
      <trkpt lat="49.0225" lon="1.83053">
        <ele>113.6</ele>
        <time>2022-09-22T11:45:17Z</time>
      </trkpt>
      <trkpt lat="49.0225" lon="1.83061">
        <ele>112.2</ele>
        <time>2022-09-22T11:45:22Z</time>
      </trkpt>
      <trkpt lat="49.0225" lon="1.83068">
        <ele>112.3</ele>
        <time>2022-09-22T11:45:26Z</time>
      </trkpt>
      <trkpt lat="49.02249" lon="1.83076">
        <ele>111.1</ele>
        <time>2022-09-22T11:45:31Z</time>
      </trkpt>
      <trkpt lat="49.02248" lon="1.83083">
        <ele>110</ele>
        <time>2022-09-22T11:45:35Z</time>
      </trkpt>
      <trkpt lat="49.02246" lon="1.8309">
        <ele>109.8</ele>
        <time>2022-09-22T11:45:39Z</time>
      </trkpt>
      <trkpt lat="49.02244" lon="1.83097">
        <ele>109.9</ele>
        <time>2022-09-22T11:45:43Z</time>
      </trkpt>
      <trkpt lat="49.02242" lon="1.83104">
        <ele>109.7</ele>
        <time>2022-09-22T11:45:47Z</time>
      </trkpt>
      <trkpt lat="49.02242" lon="1.83112">
        <ele>109.6</ele>
        <time>2022-09-22T11:45:51Z</time>
      </trkpt>
      <trkpt lat="49.02241" lon="1.8312">
        <ele>109.3</ele>
        <time>2022-09-22T11:45:55Z</time>
      </trkpt>
      <trkpt lat="49.0224" lon="1.83128">
        <ele>108.8</ele>
        <time>2022-09-22T11:45:59Z</time>
      </trkpt>
      <trkpt lat="49.0224" lon="1.83135">
        <ele>108.2</ele>
        <time>2022-09-22T11:46:03Z</time>
      </trkpt>
      <trkpt lat="49.02238" lon="1.83142">
        <ele>107.5</ele>
        <time>2022-09-22T11:46:21Z</time>
      </trkpt>
      <trkpt lat="49.02238" lon="1.83149">
        <ele>107</ele>
        <time>2022-09-22T11:46:24Z</time>
      </trkpt>
      <trkpt lat="49.02237" lon="1.83157">
        <ele>105.3</ele>
        <time>2022-09-22T11:46:28Z</time>
      </trkpt>
      <trkpt lat="49.02236" lon="1.83164">
        <ele>103</ele>
        <time>2022-09-22T11:46:32Z</time>
      </trkpt>
      <trkpt lat="49.02235" lon="1.83173">
        <ele>103</ele>
        <time>2022-09-22T11:46:37Z</time>
      </trkpt>
      <trkpt lat="49.02233" lon="1.8318">
        <ele>103.1</ele>
        <time>2022-09-22T11:46:41Z</time>
      </trkpt>
      <trkpt lat="49.02231" lon="1.83187">
        <ele>103.2</ele>
        <time>2022-09-22T11:46:46Z</time>
      </trkpt>
      <trkpt lat="49.02229" lon="1.83193">
        <ele>103.4</ele>
        <time>2022-09-22T11:46:50Z</time>
      </trkpt>
      <trkpt lat="49.02231" lon="1.83201">
        <ele>103.3</ele>
        <time>2022-09-22T11:46:55Z</time>
      </trkpt>
      <trkpt lat="49.0223" lon="1.83208">
        <ele>103.8</ele>
        <time>2022-09-22T11:46:58Z</time>
      </trkpt>
      <trkpt lat="49.02228" lon="1.83215">
        <ele>104.6</ele>
        <time>2022-09-22T11:47:02Z</time>
      </trkpt>
      <trkpt lat="49.02223" lon="1.8322">
        <ele>104.7</ele>
        <time>2022-09-22T11:47:06Z</time>
      </trkpt>
      <trkpt lat="49.02221" lon="1.83226">
        <ele>105.5</ele>
        <time>2022-09-22T11:47:09Z</time>
      </trkpt>
      <trkpt lat="49.02219" lon="1.83233">
        <ele>105.6</ele>
        <time>2022-09-22T11:47:13Z</time>
      </trkpt>
      <trkpt lat="49.02219" lon="1.83242">
        <ele>105.8</ele>
        <time>2022-09-22T11:47:17Z</time>
      </trkpt>
      <trkpt lat="49.02218" lon="1.83249">
        <ele>106.2</ele>
        <time>2022-09-22T11:47:21Z</time>
      </trkpt>
      <trkpt lat="49.02218" lon="1.83257">
        <ele>106.5</ele>
        <time>2022-09-22T11:47:25Z</time>
      </trkpt>
      <trkpt lat="49.02219" lon="1.83266">
        <ele>106.4</ele>
        <time>2022-09-22T11:47:30Z</time>
      </trkpt>
      <trkpt lat="49.02219" lon="1.83273">
        <ele>106.5</ele>
        <time>2022-09-22T11:47:33Z</time>
      </trkpt>
      <trkpt lat="49.02219" lon="1.83281">
        <ele>106.8</ele>
        <time>2022-09-22T11:47:37Z</time>
      </trkpt>
      <trkpt lat="49.0222" lon="1.83289">
        <ele>107.3</ele>
        <time>2022-09-22T11:47:42Z</time>
      </trkpt>
      <trkpt lat="49.0222" lon="1.83297">
        <ele>107.4</ele>
        <time>2022-09-22T11:47:46Z</time>
      </trkpt>
      <trkpt lat="49.02219" lon="1.83304">
        <ele>107.7</ele>
        <time>2022-09-22T11:47:50Z</time>
      </trkpt>
      <trkpt lat="49.02219" lon="1.83312">
        <ele>108.4</ele>
        <time>2022-09-22T11:47:54Z</time>
      </trkpt>
      <trkpt lat="49.0222" lon="1.83319">
        <ele>109.2</ele>
        <time>2022-09-22T11:47:58Z</time>
      </trkpt>
      <trkpt lat="49.02221" lon="1.83327">
        <ele>109.6</ele>
        <time>2022-09-22T11:48:02Z</time>
      </trkpt>
      <trkpt lat="49.02222" lon="1.83335">
        <ele>109.5</ele>
        <time>2022-09-22T11:48:06Z</time>
      </trkpt>
      <trkpt lat="49.02221" lon="1.83342">
        <ele>109.6</ele>
        <time>2022-09-22T11:48:10Z</time>
      </trkpt>
      <trkpt lat="49.02222" lon="1.83351">
        <ele>109.7</ele>
        <time>2022-09-22T11:48:15Z</time>
      </trkpt>
      <trkpt lat="49.02223" lon="1.83358">
        <ele>109.8</ele>
        <time>2022-09-22T11:48:19Z</time>
      </trkpt>
      <trkpt lat="49.02225" lon="1.83366">
        <ele>109.7</ele>
        <time>2022-09-22T11:48:23Z</time>
      </trkpt>
      <trkpt lat="49.02225" lon="1.83374">
        <ele>110.2</ele>
        <time>2022-09-22T11:48:27Z</time>
      </trkpt>
      <trkpt lat="49.02224" lon="1.83382">
        <ele>109.9</ele>
        <time>2022-09-22T11:48:31Z</time>
      </trkpt>
      <trkpt lat="49.02223" lon="1.83389">
        <ele>109.9</ele>
        <time>2022-09-22T11:48:35Z</time>
      </trkpt>
      <trkpt lat="49.02223" lon="1.83397">
        <ele>109.8</ele>
        <time>2022-09-22T11:48:39Z</time>
      </trkpt>
      <trkpt lat="49.02223" lon="1.83405">
        <ele>109.6</ele>
        <time>2022-09-22T11:48:44Z</time>
      </trkpt>
      <trkpt lat="49.02223" lon="1.83414">
        <ele>109.7</ele>
        <time>2022-09-22T11:48:49Z</time>
      </trkpt>
      <trkpt lat="49.02224" lon="1.83422">
        <ele>110.2</ele>
        <time>2022-09-22T11:48:52Z</time>
      </trkpt>
      <trkpt lat="49.02224" lon="1.83429">
        <ele>110.2</ele>
        <time>2022-09-22T11:48:56Z</time>
      </trkpt>
      <trkpt lat="49.02225" lon="1.83437">
        <ele>110.8</ele>
        <time>2022-09-22T11:49:00Z</time>
      </trkpt>
      <trkpt lat="49.02226" lon="1.83445">
        <ele>110.7</ele>
        <time>2022-09-22T11:49:05Z</time>
      </trkpt>
      <trkpt lat="49.02226" lon="1.83453">
        <ele>110.9</ele>
        <time>2022-09-22T11:49:09Z</time>
      </trkpt>
      <trkpt lat="49.02227" lon="1.83461">
        <ele>111.7</ele>
        <time>2022-09-22T11:49:13Z</time>
      </trkpt>
      <trkpt lat="49.02227" lon="1.83469">
        <ele>112.1</ele>
        <time>2022-09-22T11:49:17Z</time>
      </trkpt>
      <trkpt lat="49.02227" lon="1.83477">
        <ele>112.3</ele>
        <time>2022-09-22T11:49:21Z</time>
      </trkpt>
      <trkpt lat="49.02227" lon="1.83485">
        <ele>112.2</ele>
        <time>2022-09-22T11:49:25Z</time>
      </trkpt>
      <trkpt lat="49.02226" lon="1.83493">
        <ele>112.7</ele>
        <time>2022-09-22T11:49:29Z</time>
      </trkpt>
      <trkpt lat="49.02226" lon="1.835">
        <ele>113.1</ele>
        <time>2022-09-22T11:49:33Z</time>
      </trkpt>
      <trkpt lat="49.02226" lon="1.83508">
        <ele>113</ele>
        <time>2022-09-22T11:49:37Z</time>
      </trkpt>
      <trkpt lat="49.02226" lon="1.83516">
        <ele>113.1</ele>
        <time>2022-09-22T11:49:41Z</time>
      </trkpt>
      <trkpt lat="49.02226" lon="1.83523">
        <ele>113.2</ele>
        <time>2022-09-22T11:49:45Z</time>
      </trkpt>
      <trkpt lat="49.02226" lon="1.83531">
        <ele>113.4</ele>
        <time>2022-09-22T11:49:49Z</time>
      </trkpt>
      <trkpt lat="49.02225" lon="1.83539">
        <ele>113.7</ele>
        <time>2022-09-22T11:49:54Z</time>
      </trkpt>
      <trkpt lat="49.02225" lon="1.83548">
        <ele>113.7</ele>
        <time>2022-09-22T11:49:58Z</time>
      </trkpt>
      <trkpt lat="49.02227" lon="1.83556">
        <ele>114</ele>
        <time>2022-09-22T11:50:03Z</time>
      </trkpt>
      <trkpt lat="49.02229" lon="1.83563">
        <ele>114.2</ele>
        <time>2022-09-22T11:50:07Z</time>
      </trkpt>
      <trkpt lat="49.02231" lon="1.8357">
        <ele>114.4</ele>
        <time>2022-09-22T11:50:11Z</time>
      </trkpt>
      <trkpt lat="49.02232" lon="1.83579">
        <ele>114.6</ele>
        <time>2022-09-22T11:50:15Z</time>
      </trkpt>
      <trkpt lat="49.02229" lon="1.83584">
        <ele>115.2</ele>
        <time>2022-09-22T11:50:20Z</time>
      </trkpt>
      <trkpt lat="49.02223" lon="1.83586">
        <ele>116</ele>
        <time>2022-09-22T11:50:25Z</time>
      </trkpt>
      <trkpt lat="49.0222" lon="1.83581">
        <ele>117</ele>
        <time>2022-09-22T11:50:33Z</time>
      </trkpt>
      <trkpt lat="49.02219" lon="1.83574">
        <ele>117.3</ele>
        <time>2022-09-22T11:50:38Z</time>
      </trkpt>
      <trkpt lat="49.02217" lon="1.83567">
        <ele>117.8</ele>
        <time>2022-09-22T11:50:42Z</time>
      </trkpt>
      <trkpt lat="49.02216" lon="1.8356">
        <ele>118.3</ele>
        <time>2022-09-22T11:50:46Z</time>
      </trkpt>
      <trkpt lat="49.02213" lon="1.83553">
        <ele>119</ele>
        <time>2022-09-22T11:50:51Z</time>
      </trkpt>
      <trkpt lat="49.02211" lon="1.83547">
        <ele>119</ele>
        <time>2022-09-22T11:50:55Z</time>
      </trkpt>
      <trkpt lat="49.02208" lon="1.8354">
        <ele>118.7</ele>
        <time>2022-09-22T11:50:59Z</time>
      </trkpt>
      <trkpt lat="49.02205" lon="1.83533">
        <ele>118.8</ele>
        <time>2022-09-22T11:51:04Z</time>
      </trkpt>
      <trkpt lat="49.02202" lon="1.83526">
        <ele>118.5</ele>
        <time>2022-09-22T11:51:08Z</time>
      </trkpt>
      <trkpt lat="49.02199" lon="1.8352">
        <ele>118.1</ele>
        <time>2022-09-22T11:51:13Z</time>
      </trkpt>
      <trkpt lat="49.02197" lon="1.83512">
        <ele>117.3</ele>
        <time>2022-09-22T11:51:17Z</time>
      </trkpt>
      <trkpt lat="49.02195" lon="1.83505">
        <ele>116.7</ele>
        <time>2022-09-22T11:51:22Z</time>
      </trkpt>
      <trkpt lat="49.02192" lon="1.83498">
        <ele>115.8</ele>
        <time>2022-09-22T11:51:26Z</time>
      </trkpt>
      <trkpt lat="49.02189" lon="1.83491">
        <ele>115.2</ele>
        <time>2022-09-22T11:51:31Z</time>
      </trkpt>
      <trkpt lat="49.02186" lon="1.83485">
        <ele>115.1</ele>
        <time>2022-09-22T11:51:35Z</time>
      </trkpt>
      <trkpt lat="49.02182" lon="1.83479">
        <ele>114.5</ele>
        <time>2022-09-22T11:51:39Z</time>
      </trkpt>
      <trkpt lat="49.0218" lon="1.83472">
        <ele>114.3</ele>
        <time>2022-09-22T11:51:44Z</time>
      </trkpt>
      <trkpt lat="49.02177" lon="1.83465">
        <ele>114</ele>
        <time>2022-09-22T11:51:48Z</time>
      </trkpt>
      <trkpt lat="49.02175" lon="1.83458">
        <ele>113.9</ele>
        <time>2022-09-22T11:51:53Z</time>
      </trkpt>
      <trkpt lat="49.02173" lon="1.83451">
        <ele>113.8</ele>
        <time>2022-09-22T11:51:57Z</time>
      </trkpt>
      <trkpt lat="49.0217" lon="1.83445">
        <ele>114</ele>
        <time>2022-09-22T11:52:01Z</time>
      </trkpt>
      <trkpt lat="49.02167" lon="1.83438">
        <ele>114</ele>
        <time>2022-09-22T11:52:06Z</time>
      </trkpt>
      <trkpt lat="49.02164" lon="1.83431">
        <ele>114.1</ele>
        <time>2022-09-22T11:52:10Z</time>
      </trkpt>
      <trkpt lat="49.02161" lon="1.83424">
        <ele>114.2</ele>
        <time>2022-09-22T11:52:15Z</time>
      </trkpt>
      <trkpt lat="49.02158" lon="1.83417">
        <ele>114.3</ele>
        <time>2022-09-22T11:52:19Z</time>
      </trkpt>
      <trkpt lat="49.02155" lon="1.83411">
        <ele>114.6</ele>
        <time>2022-09-22T11:52:23Z</time>
      </trkpt>
      <trkpt lat="49.02152" lon="1.83403">
        <ele>114.8</ele>
        <time>2022-09-22T11:52:28Z</time>
      </trkpt>
      <trkpt lat="49.02148" lon="1.83397">
        <ele>115</ele>
        <time>2022-09-22T11:52:32Z</time>
      </trkpt>
      <trkpt lat="49.02145" lon="1.8339">
        <ele>115.1</ele>
        <time>2022-09-22T11:52:37Z</time>
      </trkpt>
      <trkpt lat="49.02142" lon="1.83383">
        <ele>115.6</ele>
        <time>2022-09-22T11:52:41Z</time>
      </trkpt>
      <trkpt lat="49.02139" lon="1.83377">
        <ele>115.9</ele>
        <time>2022-09-22T11:52:46Z</time>
      </trkpt>
      <trkpt lat="49.02137" lon="1.83371">
        <ele>116.1</ele>
        <time>2022-09-22T11:52:59Z</time>
      </trkpt>
      <trkpt lat="49.02134" lon="1.83362">
        <ele>116.1</ele>
        <time>2022-09-22T11:53:03Z</time>
      </trkpt>
      <trkpt lat="49.02132" lon="1.83354">
        <ele>116</ele>
        <time>2022-09-22T11:53:07Z</time>
      </trkpt>
      <trkpt lat="49.02129" lon="1.83348">
        <ele>115.9</ele>
        <time>2022-09-22T11:53:11Z</time>
      </trkpt>
      <trkpt lat="49.02125" lon="1.83343">
        <ele>115.8</ele>
        <time>2022-09-22T11:53:15Z</time>
      </trkpt>
      <trkpt lat="49.02121" lon="1.83336">
        <ele>115.9</ele>
        <time>2022-09-22T11:53:20Z</time>
      </trkpt>
      <trkpt lat="49.02119" lon="1.83329">
        <ele>116.5</ele>
        <time>2022-09-22T11:53:24Z</time>
      </trkpt>
      <trkpt lat="49.02116" lon="1.83322">
        <ele>116.5</ele>
        <time>2022-09-22T11:53:28Z</time>
      </trkpt>
      <trkpt lat="49.02113" lon="1.83314">
        <ele>116.8</ele>
        <time>2022-09-22T11:53:33Z</time>
      </trkpt>
      <trkpt lat="49.0211" lon="1.83307">
        <ele>116.5</ele>
        <time>2022-09-22T11:53:37Z</time>
      </trkpt>
      <trkpt lat="49.02108" lon="1.833">
        <ele>116.8</ele>
        <time>2022-09-22T11:53:41Z</time>
      </trkpt>
      <trkpt lat="49.02105" lon="1.83294">
        <ele>117.5</ele>
        <time>2022-09-22T11:53:45Z</time>
      </trkpt>
      <trkpt lat="49.02101" lon="1.83288">
        <ele>118.1</ele>
        <time>2022-09-22T11:53:50Z</time>
      </trkpt>
      <trkpt lat="49.02098" lon="1.83282">
        <ele>118.3</ele>
        <time>2022-09-22T11:53:54Z</time>
      </trkpt>
      <trkpt lat="49.02096" lon="1.83274">
        <ele>118.9</ele>
        <time>2022-09-22T11:53:59Z</time>
      </trkpt>
      <trkpt lat="49.02094" lon="1.83268">
        <ele>119</ele>
        <time>2022-09-22T11:54:03Z</time>
      </trkpt>
      <trkpt lat="49.02091" lon="1.83262">
        <ele>119.1</ele>
        <time>2022-09-22T11:54:07Z</time>
      </trkpt>
      <trkpt lat="49.02088" lon="1.83255">
        <ele>119.2</ele>
        <time>2022-09-22T11:54:12Z</time>
      </trkpt>
      <trkpt lat="49.02086" lon="1.83248">
        <ele>119.2</ele>
        <time>2022-09-22T11:54:16Z</time>
      </trkpt>
      <trkpt lat="49.02083" lon="1.83242">
        <ele>119.4</ele>
        <time>2022-09-22T11:54:20Z</time>
      </trkpt>
      <trkpt lat="49.0208" lon="1.83236">
        <ele>119.6</ele>
        <time>2022-09-22T11:54:25Z</time>
      </trkpt>
      <trkpt lat="49.02078" lon="1.83229">
        <ele>119.8</ele>
        <time>2022-09-22T11:54:29Z</time>
      </trkpt>
      <trkpt lat="49.02076" lon="1.83221">
        <ele>120</ele>
        <time>2022-09-22T11:54:34Z</time>
      </trkpt>
      <trkpt lat="49.02074" lon="1.83214">
        <ele>120.1</ele>
        <time>2022-09-22T11:54:38Z</time>
      </trkpt>
      <trkpt lat="49.02071" lon="1.83208">
        <ele>120.4</ele>
        <time>2022-09-22T11:54:43Z</time>
      </trkpt>
      <trkpt lat="49.02067" lon="1.83203">
        <ele>121</ele>
        <time>2022-09-22T11:54:47Z</time>
      </trkpt>
      <trkpt lat="49.02063" lon="1.83197">
        <ele>121.1</ele>
        <time>2022-09-22T11:54:52Z</time>
      </trkpt>
      <trkpt lat="49.02059" lon="1.83192">
        <ele>121</ele>
        <time>2022-09-22T11:54:56Z</time>
      </trkpt>
      <trkpt lat="49.02056" lon="1.83187">
        <ele>121.1</ele>
        <time>2022-09-22T11:55:00Z</time>
      </trkpt>
      <trkpt lat="49.02052" lon="1.8318">
        <ele>121.4</ele>
        <time>2022-09-22T11:55:05Z</time>
      </trkpt>
      <trkpt lat="49.02049" lon="1.83174">
        <ele>121.6</ele>
        <time>2022-09-22T11:55:10Z</time>
      </trkpt>
      <trkpt lat="49.02044" lon="1.83169">
        <ele>121.6</ele>
        <time>2022-09-22T11:55:15Z</time>
      </trkpt>
      <trkpt lat="49.02041" lon="1.83163">
        <ele>121.8</ele>
        <time>2022-09-22T11:55:20Z</time>
      </trkpt>
      <trkpt lat="49.02037" lon="1.83157">
        <ele>122</ele>
        <time>2022-09-22T11:55:24Z</time>
      </trkpt>
      <trkpt lat="49.02038" lon="1.8315">
        <ele>122.3</ele>
        <time>2022-09-22T11:55:35Z</time>
      </trkpt>
      <trkpt lat="49.02033" lon="1.83148">
        <ele>122.4</ele>
        <time>2022-09-22T11:55:40Z</time>
      </trkpt>
      <trkpt lat="49.02028" lon="1.8315">
        <ele>123</ele>
        <time>2022-09-22T11:55:45Z</time>
      </trkpt>
      <trkpt lat="49.02021" lon="1.83152">
        <ele>123.3</ele>
        <time>2022-09-22T11:55:50Z</time>
      </trkpt>
      <trkpt lat="49.02016" lon="1.83155">
        <ele>123.7</ele>
        <time>2022-09-22T11:55:53Z</time>
      </trkpt>
      <trkpt lat="49.02012" lon="1.83159">
        <ele>124.5</ele>
        <time>2022-09-22T11:55:56Z</time>
      </trkpt>
      <trkpt lat="49.02008" lon="1.83163">
        <ele>125.1</ele>
        <time>2022-09-22T11:56:01Z</time>
      </trkpt>
      <trkpt lat="49.02005" lon="1.83168">
        <ele>126.2</ele>
        <time>2022-09-22T11:56:06Z</time>
      </trkpt>
      <trkpt lat="49.01999" lon="1.8317">
        <ele>126</ele>
        <time>2022-09-22T11:56:14Z</time>
      </trkpt>
      <trkpt lat="49.01995" lon="1.83173">
        <ele>126.8</ele>
        <time>2022-09-22T11:56:19Z</time>
      </trkpt>
      <trkpt lat="49.0199" lon="1.83173">
        <ele>126.8</ele>
        <time>2022-09-22T11:56:25Z</time>
      </trkpt>
      <trkpt lat="49.01986" lon="1.83173">
        <ele>127</ele>
        <time>2022-09-22T11:56:30Z</time>
      </trkpt>
      <trkpt lat="49.01981" lon="1.83176">
        <ele>127.8</ele>
        <time>2022-09-22T11:56:35Z</time>
      </trkpt>
      <trkpt lat="49.01976" lon="1.8318">
        <ele>127.9</ele>
        <time>2022-09-22T11:56:40Z</time>
      </trkpt>
      <trkpt lat="49.01971" lon="1.83183">
        <ele>127.9</ele>
        <time>2022-09-22T11:56:43Z</time>
      </trkpt>
      <trkpt lat="49.01966" lon="1.83185">
        <ele>128.3</ele>
        <time>2022-09-22T11:56:47Z</time>
      </trkpt>
      <trkpt lat="49.01961" lon="1.83185">
        <ele>128</ele>
        <time>2022-09-22T11:56:50Z</time>
      </trkpt>
      <trkpt lat="49.01955" lon="1.83185">
        <ele>128</ele>
        <time>2022-09-22T11:56:54Z</time>
      </trkpt>
      <trkpt lat="49.01951" lon="1.83183">
        <ele>128.4</ele>
        <time>2022-09-22T11:56:58Z</time>
      </trkpt>
      <trkpt lat="49.01946" lon="1.83181">
        <ele>128.5</ele>
        <time>2022-09-22T11:57:02Z</time>
      </trkpt>
      <trkpt lat="49.0194" lon="1.8318">
        <ele>128.8</ele>
        <time>2022-09-22T11:57:06Z</time>
      </trkpt>
      <trkpt lat="49.01936" lon="1.8318">
        <ele>128.9</ele>
        <time>2022-09-22T11:57:11Z</time>
      </trkpt>
      <trkpt lat="49.01931" lon="1.83181">
        <ele>129.1</ele>
        <time>2022-09-22T11:57:15Z</time>
      </trkpt>
      <trkpt lat="49.01926" lon="1.8318">
        <ele>129.1</ele>
        <time>2022-09-22T11:57:20Z</time>
      </trkpt>
      <trkpt lat="49.0192" lon="1.83179">
        <ele>129</ele>
        <time>2022-09-22T11:57:24Z</time>
      </trkpt>
      <trkpt lat="49.01916" lon="1.8318">
        <ele>129.1</ele>
        <time>2022-09-22T11:57:29Z</time>
      </trkpt>
      <trkpt lat="49.01911" lon="1.83178">
        <ele>129.1</ele>
        <time>2022-09-22T11:57:34Z</time>
      </trkpt>
      <trkpt lat="49.01906" lon="1.83177">
        <ele>129.1</ele>
        <time>2022-09-22T11:57:38Z</time>
      </trkpt>
      <trkpt lat="49.01901" lon="1.83176">
        <ele>129.7</ele>
        <time>2022-09-22T11:57:42Z</time>
      </trkpt>
      <trkpt lat="49.01896" lon="1.83176">
        <ele>130</ele>
        <time>2022-09-22T11:57:46Z</time>
      </trkpt>
      <trkpt lat="49.01891" lon="1.83176">
        <ele>130.2</ele>
        <time>2022-09-22T11:57:50Z</time>
      </trkpt>
      <trkpt lat="49.01886" lon="1.83177">
        <ele>130.2</ele>
        <time>2022-09-22T11:57:54Z</time>
      </trkpt>
      <trkpt lat="49.01881" lon="1.83178">
        <ele>131.1</ele>
        <time>2022-09-22T11:57:59Z</time>
      </trkpt>
      <trkpt lat="49.01876" lon="1.83178">
        <ele>131.1</ele>
        <time>2022-09-22T11:58:05Z</time>
      </trkpt>
      <trkpt lat="49.01871" lon="1.83178">
        <ele>131.9</ele>
        <time>2022-09-22T11:58:10Z</time>
      </trkpt>
      <trkpt lat="49.01865" lon="1.83177">
        <ele>133.2</ele>
        <time>2022-09-22T11:58:15Z</time>
      </trkpt>
      <trkpt lat="49.0186" lon="1.83176">
        <ele>133.4</ele>
        <time>2022-09-22T11:58:20Z</time>
      </trkpt>
      <trkpt lat="49.01854" lon="1.83176">
        <ele>133.9</ele>
        <time>2022-09-22T11:58:25Z</time>
      </trkpt>
      <trkpt lat="49.01849" lon="1.83175">
        <ele>134.4</ele>
        <time>2022-09-22T11:58:29Z</time>
      </trkpt>
      <trkpt lat="49.01845" lon="1.83174">
        <ele>134.3</ele>
        <time>2022-09-22T11:58:33Z</time>
      </trkpt>
      <trkpt lat="49.01839" lon="1.83174">
        <ele>134.6</ele>
        <time>2022-09-22T11:58:38Z</time>
      </trkpt>
      <trkpt lat="49.01834" lon="1.83173">
        <ele>134.6</ele>
        <time>2022-09-22T11:58:42Z</time>
      </trkpt>
      <trkpt lat="49.01829" lon="1.83172">
        <ele>134.1</ele>
        <time>2022-09-22T11:58:46Z</time>
      </trkpt>
      <trkpt lat="49.01823" lon="1.83171">
        <ele>133.9</ele>
        <time>2022-09-22T11:58:51Z</time>
      </trkpt>
      <trkpt lat="49.01817" lon="1.83168">
        <ele>133.5</ele>
        <time>2022-09-22T11:58:55Z</time>
      </trkpt>
      <trkpt lat="49.01813" lon="1.83167">
        <ele>133.2</ele>
        <time>2022-09-22T11:58:59Z</time>
      </trkpt>
      <trkpt lat="49.01807" lon="1.83165">
        <ele>132.1</ele>
        <time>2022-09-22T11:59:03Z</time>
      </trkpt>
      <trkpt lat="49.01802" lon="1.83164">
        <ele>130.4</ele>
        <time>2022-09-22T11:59:07Z</time>
      </trkpt>
      <trkpt lat="49.01797" lon="1.83162">
        <ele>130</ele>
        <time>2022-09-22T11:59:11Z</time>
      </trkpt>
      <trkpt lat="49.01792" lon="1.83161">
        <ele>130.2</ele>
        <time>2022-09-22T11:59:15Z</time>
      </trkpt>
      <trkpt lat="49.01787" lon="1.8316">
        <ele>130.7</ele>
        <time>2022-09-22T11:59:20Z</time>
      </trkpt>
      <trkpt lat="49.01782" lon="1.83158">
        <ele>130.9</ele>
        <time>2022-09-22T11:59:24Z</time>
      </trkpt>
      <trkpt lat="49.01777" lon="1.83156">
        <ele>130.5</ele>
        <time>2022-09-22T11:59:29Z</time>
      </trkpt>
      <trkpt lat="49.01772" lon="1.83154">
        <ele>131.2</ele>
        <time>2022-09-22T11:59:34Z</time>
      </trkpt>
      <trkpt lat="49.01767" lon="1.83151">
        <ele>131.3</ele>
        <time>2022-09-22T11:59:39Z</time>
      </trkpt>
      <trkpt lat="49.01762" lon="1.8315">
        <ele>133</ele>
        <time>2022-09-22T11:59:46Z</time>
      </trkpt>
      <trkpt lat="49.01758" lon="1.83146">
        <ele>133.7</ele>
        <time>2022-09-22T11:59:50Z</time>
      </trkpt>
      <trkpt lat="49.01753" lon="1.83142">
        <ele>134.8</ele>
        <time>2022-09-22T11:59:54Z</time>
      </trkpt>
      <trkpt lat="49.01748" lon="1.83138">
        <ele>135.2</ele>
        <time>2022-09-22T11:59:58Z</time>
      </trkpt>
      <trkpt lat="49.01743" lon="1.83135">
        <ele>135.9</ele>
        <time>2022-09-22T12:00:02Z</time>
      </trkpt>
      <trkpt lat="49.01738" lon="1.83134">
        <ele>136.7</ele>
        <time>2022-09-22T12:00:06Z</time>
      </trkpt>
      <trkpt lat="49.01734" lon="1.83133">
        <ele>136.3</ele>
        <time>2022-09-22T12:00:10Z</time>
      </trkpt>
      <trkpt lat="49.01729" lon="1.83131">
        <ele>136.5</ele>
        <time>2022-09-22T12:00:14Z</time>
      </trkpt>
      <trkpt lat="49.01723" lon="1.83129">
        <ele>136.7</ele>
        <time>2022-09-22T12:00:19Z</time>
      </trkpt>
      <trkpt lat="49.01718" lon="1.83127">
        <ele>137.2</ele>
        <time>2022-09-22T12:00:23Z</time>
      </trkpt>
      <trkpt lat="49.01712" lon="1.83124">
        <ele>137.4</ele>
        <time>2022-09-22T12:00:27Z</time>
      </trkpt>
      <trkpt lat="49.01707" lon="1.83121">
        <ele>138.1</ele>
        <time>2022-09-22T12:00:31Z</time>
      </trkpt>
      <trkpt lat="49.01703" lon="1.8312">
        <ele>138.1</ele>
        <time>2022-09-22T12:00:35Z</time>
      </trkpt>
      <trkpt lat="49.01698" lon="1.83119">
        <ele>138.8</ele>
        <time>2022-09-22T12:00:40Z</time>
      </trkpt>
      <trkpt lat="49.01693" lon="1.83119">
        <ele>139.3</ele>
        <time>2022-09-22T12:00:44Z</time>
      </trkpt>
      <trkpt lat="49.01688" lon="1.83119">
        <ele>139.9</ele>
        <time>2022-09-22T12:00:48Z</time>
      </trkpt>
      <trkpt lat="49.01682" lon="1.83116">
        <ele>141.9</ele>
        <time>2022-09-22T12:00:53Z</time>
      </trkpt>
      <trkpt lat="49.01677" lon="1.83112">
        <ele>142.5</ele>
        <time>2022-09-22T12:00:57Z</time>
      </trkpt>
      <trkpt lat="49.01673" lon="1.83109">
        <ele>141.8</ele>
        <time>2022-09-22T12:01:01Z</time>
      </trkpt>
      <trkpt lat="49.01667" lon="1.83107">
        <ele>141.9</ele>
        <time>2022-09-22T12:01:06Z</time>
      </trkpt>
      <trkpt lat="49.01662" lon="1.83105">
        <ele>142.1</ele>
        <time>2022-09-22T12:01:09Z</time>
      </trkpt>
      <trkpt lat="49.01656" lon="1.83103">
        <ele>141.8</ele>
        <time>2022-09-22T12:01:13Z</time>
      </trkpt>
      <trkpt lat="49.0165" lon="1.831">
        <ele>142</ele>
        <time>2022-09-22T12:01:18Z</time>
      </trkpt>
      <trkpt lat="49.01645" lon="1.83099">
        <ele>141.7</ele>
        <time>2022-09-22T12:01:23Z</time>
      </trkpt>
      <trkpt lat="49.0164" lon="1.83097">
        <ele>141.3</ele>
        <time>2022-09-22T12:01:26Z</time>
      </trkpt>
      <trkpt lat="49.01636" lon="1.83096">
        <ele>141.3</ele>
        <time>2022-09-22T12:01:29Z</time>
      </trkpt>
      <trkpt lat="49.01631" lon="1.83093">
        <ele>141.7</ele>
        <time>2022-09-22T12:01:33Z</time>
      </trkpt>
      <trkpt lat="49.01625" lon="1.83092">
        <ele>141.7</ele>
        <time>2022-09-22T12:01:38Z</time>
      </trkpt>
      <trkpt lat="49.0162" lon="1.8309">
        <ele>142.4</ele>
        <time>2022-09-22T12:01:43Z</time>
      </trkpt>
      <trkpt lat="49.01615" lon="1.83091">
        <ele>142.8</ele>
        <time>2022-09-22T12:01:49Z</time>
      </trkpt>
      <trkpt lat="49.01609" lon="1.83089">
        <ele>143.1</ele>
        <time>2022-09-22T12:01:53Z</time>
      </trkpt>
      <trkpt lat="49.01605" lon="1.83088">
        <ele>143.8</ele>
        <time>2022-09-22T12:01:58Z</time>
      </trkpt>
      <trkpt lat="49.01599" lon="1.83086">
        <ele>144.1</ele>
        <time>2022-09-22T12:02:03Z</time>
      </trkpt>
      <trkpt lat="49.01594" lon="1.83084">
        <ele>144.3</ele>
        <time>2022-09-22T12:02:09Z</time>
      </trkpt>
      <trkpt lat="49.01589" lon="1.83082">
        <ele>144.9</ele>
        <time>2022-09-22T12:02:13Z</time>
      </trkpt>
      <trkpt lat="49.01584" lon="1.8308">
        <ele>145</ele>
        <time>2022-09-22T12:02:19Z</time>
      </trkpt>
      <trkpt lat="49.01579" lon="1.83079">
        <ele>145.4</ele>
        <time>2022-09-22T12:02:25Z</time>
      </trkpt>
      <trkpt lat="49.01573" lon="1.8308">
        <ele>145.2</ele>
        <time>2022-09-22T12:02:29Z</time>
      </trkpt>
      <trkpt lat="49.01568" lon="1.83083">
        <ele>145.4</ele>
        <time>2022-09-22T12:02:34Z</time>
      </trkpt>
      <trkpt lat="49.01564" lon="1.83086">
        <ele>145.9</ele>
        <time>2022-09-22T12:02:38Z</time>
      </trkpt>
      <trkpt lat="49.01559" lon="1.83088">
        <ele>146.2</ele>
        <time>2022-09-22T12:02:42Z</time>
      </trkpt>
      <trkpt lat="49.01554" lon="1.83087">
        <ele>146.1</ele>
        <time>2022-09-22T12:02:46Z</time>
      </trkpt>
      <trkpt lat="49.01549" lon="1.83086">
        <ele>146</ele>
        <time>2022-09-22T12:02:51Z</time>
      </trkpt>
      <trkpt lat="49.01544" lon="1.83086">
        <ele>146.2</ele>
        <time>2022-09-22T12:02:55Z</time>
      </trkpt>
      <trkpt lat="49.01539" lon="1.83087">
        <ele>146.9</ele>
        <time>2022-09-22T12:03:00Z</time>
      </trkpt>
      <trkpt lat="49.01534" lon="1.83089">
        <ele>147.2</ele>
        <time>2022-09-22T12:03:04Z</time>
      </trkpt>
      <trkpt lat="49.01528" lon="1.83089">
        <ele>147.4</ele>
        <time>2022-09-22T12:03:09Z</time>
      </trkpt>
      <trkpt lat="49.01522" lon="1.83089">
        <ele>147.4</ele>
        <time>2022-09-22T12:03:14Z</time>
      </trkpt>
      <trkpt lat="49.01518" lon="1.83088">
        <ele>147.2</ele>
        <time>2022-09-22T12:03:17Z</time>
      </trkpt>
      <trkpt lat="49.01513" lon="1.83085">
        <ele>146.5</ele>
        <time>2022-09-22T12:03:21Z</time>
      </trkpt>
      <trkpt lat="49.01509" lon="1.83081">
        <ele>145.8</ele>
        <time>2022-09-22T12:03:24Z</time>
      </trkpt>
      <trkpt lat="49.01505" lon="1.83079">
        <ele>146.2</ele>
        <time>2022-09-22T12:03:29Z</time>
      </trkpt>
      <trkpt lat="49.01501" lon="1.83074">
        <ele>147.3</ele>
        <time>2022-09-22T12:06:50Z</time>
      </trkpt>
      <trkpt lat="49.01496" lon="1.83076">
        <ele>147.6</ele>
        <time>2022-09-22T12:06:58Z</time>
      </trkpt>
      <trkpt lat="49.01491" lon="1.83075">
        <ele>147.8</ele>
        <time>2022-09-22T12:07:09Z</time>
      </trkpt>
      <trkpt lat="49.01487" lon="1.83076">
        <ele>147.8</ele>
        <time>2022-09-22T12:07:14Z</time>
      </trkpt>
      <trkpt lat="49.01482" lon="1.83076">
        <ele>147.7</ele>
        <time>2022-09-22T12:07:17Z</time>
      </trkpt>
      <trkpt lat="49.01477" lon="1.83077">
        <ele>148.8</ele>
        <time>2022-09-22T12:07:20Z</time>
      </trkpt>
      <trkpt lat="49.01472" lon="1.83076">
        <ele>150.6</ele>
        <time>2022-09-22T12:07:24Z</time>
      </trkpt>
      <trkpt lat="49.01467" lon="1.83075">
        <ele>151</ele>
        <time>2022-09-22T12:07:28Z</time>
      </trkpt>
      <trkpt lat="49.01462" lon="1.83071">
        <ele>151.9</ele>
        <time>2022-09-22T12:07:33Z</time>
      </trkpt>
      <trkpt lat="49.01457" lon="1.83066">
        <ele>152.5</ele>
        <time>2022-09-22T12:07:38Z</time>
      </trkpt>
      <trkpt lat="49.01453" lon="1.83061">
        <ele>153.3</ele>
        <time>2022-09-22T12:07:42Z</time>
      </trkpt>
      <trkpt lat="49.01448" lon="1.83055">
        <ele>153.4</ele>
        <time>2022-09-22T12:07:47Z</time>
      </trkpt>
      <trkpt lat="49.01444" lon="1.83049">
        <ele>153.9</ele>
        <time>2022-09-22T12:07:52Z</time>
      </trkpt>
      <trkpt lat="49.0144" lon="1.83044">
        <ele>153.9</ele>
        <time>2022-09-22T12:07:56Z</time>
      </trkpt>
      <trkpt lat="49.01436" lon="1.83039">
        <ele>154</ele>
        <time>2022-09-22T12:08:00Z</time>
      </trkpt>
      <trkpt lat="49.01432" lon="1.83034">
        <ele>154.1</ele>
        <time>2022-09-22T12:08:06Z</time>
      </trkpt>
      <trkpt lat="49.01428" lon="1.83029">
        <ele>154.2</ele>
        <time>2022-09-22T12:08:10Z</time>
      </trkpt>
      <trkpt lat="49.01424" lon="1.83025">
        <ele>154.2</ele>
        <time>2022-09-22T12:08:14Z</time>
      </trkpt>
      <trkpt lat="49.01421" lon="1.8302">
        <ele>154.1</ele>
        <time>2022-09-22T12:08:20Z</time>
      </trkpt>
      <trkpt lat="49.01417" lon="1.83014">
        <ele>154.1</ele>
        <time>2022-09-22T12:08:25Z</time>
      </trkpt>
      <trkpt lat="49.01415" lon="1.83008">
        <ele>154.1</ele>
        <time>2022-09-22T12:08:30Z</time>
      </trkpt>
      <trkpt lat="49.01412" lon="1.83002">
        <ele>154</ele>
        <time>2022-09-22T12:08:35Z</time>
      </trkpt>
      <trkpt lat="49.01407" lon="1.83005">
        <ele>153.9</ele>
        <time>2022-09-22T12:08:40Z</time>
      </trkpt>
      <trkpt lat="49.01403" lon="1.83008">
        <ele>153.8</ele>
        <time>2022-09-22T12:08:44Z</time>
      </trkpt>
      <trkpt lat="49.01398" lon="1.83011">
        <ele>153.7</ele>
        <time>2022-09-22T12:08:49Z</time>
      </trkpt>
      <trkpt lat="49.01393" lon="1.83014">
        <ele>153.7</ele>
        <time>2022-09-22T12:08:53Z</time>
      </trkpt>
      <trkpt lat="49.01389" lon="1.83018">
        <ele>153.6</ele>
        <time>2022-09-22T12:08:58Z</time>
      </trkpt>
      <trkpt lat="49.01384" lon="1.8302">
        <ele>153.4</ele>
        <time>2022-09-22T12:09:02Z</time>
      </trkpt>
      <trkpt lat="49.01379" lon="1.83023">
        <ele>153.3</ele>
        <time>2022-09-22T12:09:06Z</time>
      </trkpt>
      <trkpt lat="49.01374" lon="1.83027">
        <ele>153.4</ele>
        <time>2022-09-22T12:09:10Z</time>
      </trkpt>
      <trkpt lat="49.01369" lon="1.83031">
        <ele>153.6</ele>
        <time>2022-09-22T12:09:15Z</time>
      </trkpt>
      <trkpt lat="49.01365" lon="1.83035">
        <ele>153.7</ele>
        <time>2022-09-22T12:09:19Z</time>
      </trkpt>
      <trkpt lat="49.0136" lon="1.83038">
        <ele>153.8</ele>
        <time>2022-09-22T12:09:23Z</time>
      </trkpt>
      <trkpt lat="49.01355" lon="1.83043">
        <ele>154.1</ele>
        <time>2022-09-22T12:09:28Z</time>
      </trkpt>
      <trkpt lat="49.01349" lon="1.83047">
        <ele>154.2</ele>
        <time>2022-09-22T12:09:33Z</time>
      </trkpt>
      <trkpt lat="49.01345" lon="1.8305">
        <ele>154.5</ele>
        <time>2022-09-22T12:09:37Z</time>
      </trkpt>
      <trkpt lat="49.0134" lon="1.83055">
        <ele>154.8</ele>
        <time>2022-09-22T12:09:42Z</time>
      </trkpt>
      <trkpt lat="49.01336" lon="1.83059">
        <ele>155.3</ele>
        <time>2022-09-22T12:09:46Z</time>
      </trkpt>
      <trkpt lat="49.01331" lon="1.83063">
        <ele>155.6</ele>
        <time>2022-09-22T12:09:50Z</time>
      </trkpt>
      <trkpt lat="49.01327" lon="1.83066">
        <ele>155.8</ele>
        <time>2022-09-22T12:09:54Z</time>
      </trkpt>
      <trkpt lat="49.01322" lon="1.8307">
        <ele>156.7</ele>
        <time>2022-09-22T12:09:59Z</time>
      </trkpt>
      <trkpt lat="49.01317" lon="1.83073">
        <ele>157</ele>
        <time>2022-09-22T12:10:03Z</time>
      </trkpt>
      <trkpt lat="49.01312" lon="1.83075">
        <ele>158</ele>
        <time>2022-09-22T12:10:07Z</time>
      </trkpt>
      <trkpt lat="49.01307" lon="1.83079">
        <ele>158.3</ele>
        <time>2022-09-22T12:10:12Z</time>
      </trkpt>
      <trkpt lat="49.01303" lon="1.83082">
        <ele>158.3</ele>
        <time>2022-09-22T12:10:16Z</time>
      </trkpt>
      <trkpt lat="49.01298" lon="1.83084">
        <ele>158.6</ele>
        <time>2022-09-22T12:10:21Z</time>
      </trkpt>
      <trkpt lat="49.01293" lon="1.83085">
        <ele>159.2</ele>
        <time>2022-09-22T12:10:25Z</time>
      </trkpt>
      <trkpt lat="49.01287" lon="1.83087">
        <ele>159.7</ele>
        <time>2022-09-22T12:10:30Z</time>
      </trkpt>
      <trkpt lat="49.01282" lon="1.83088">
        <ele>160.4</ele>
        <time>2022-09-22T12:10:34Z</time>
      </trkpt>
      <trkpt lat="49.01277" lon="1.8309">
        <ele>160.6</ele>
        <time>2022-09-22T12:10:39Z</time>
      </trkpt>
      <trkpt lat="49.01271" lon="1.83089">
        <ele>161.5</ele>
        <time>2022-09-22T12:10:44Z</time>
      </trkpt>
      <trkpt lat="49.01267" lon="1.8309">
        <ele>162.7</ele>
        <time>2022-09-22T12:10:49Z</time>
      </trkpt>
      <trkpt lat="49.01261" lon="1.83092">
        <ele>162.8</ele>
        <time>2022-09-22T12:10:54Z</time>
      </trkpt>
      <trkpt lat="49.01256" lon="1.83096">
        <ele>163.8</ele>
        <time>2022-09-22T12:10:59Z</time>
      </trkpt>
      <trkpt lat="49.01251" lon="1.83099">
        <ele>165.3</ele>
        <time>2022-09-22T12:11:03Z</time>
      </trkpt>
      <trkpt lat="49.01247" lon="1.83103">
        <ele>166.3</ele>
        <time>2022-09-22T12:11:07Z</time>
      </trkpt>
      <trkpt lat="49.01243" lon="1.83106">
        <ele>166.6</ele>
        <time>2022-09-22T12:11:11Z</time>
      </trkpt>
      <trkpt lat="49.01237" lon="1.83109">
        <ele>167.6</ele>
        <time>2022-09-22T12:11:16Z</time>
      </trkpt>
      <trkpt lat="49.01232" lon="1.83113">
        <ele>168.1</ele>
        <time>2022-09-22T12:11:20Z</time>
      </trkpt>
      <trkpt lat="49.01227" lon="1.83116">
        <ele>168.2</ele>
        <time>2022-09-22T12:11:25Z</time>
      </trkpt>
      <trkpt lat="49.01223" lon="1.8312">
        <ele>168.6</ele>
        <time>2022-09-22T12:11:29Z</time>
      </trkpt>
      <trkpt lat="49.01218" lon="1.83123">
        <ele>168.7</ele>
        <time>2022-09-22T12:11:34Z</time>
      </trkpt>
      <trkpt lat="49.01213" lon="1.83129">
        <ele>168.6</ele>
        <time>2022-09-22T12:11:39Z</time>
      </trkpt>
      <trkpt lat="49.01211" lon="1.83135">
        <ele>168.8</ele>
        <time>2022-09-22T12:11:43Z</time>
      </trkpt>
      <trkpt lat="49.01207" lon="1.83141">
        <ele>169.3</ele>
        <time>2022-09-22T12:11:48Z</time>
      </trkpt>
      <trkpt lat="49.01202" lon="1.83141">
        <ele>169.6</ele>
        <time>2022-09-22T12:11:53Z</time>
      </trkpt>
      <trkpt lat="49.01198" lon="1.83146">
        <ele>170.2</ele>
        <time>2022-09-22T12:11:57Z</time>
      </trkpt>
      <trkpt lat="49.01196" lon="1.83152">
        <ele>170.3</ele>
        <time>2022-09-22T12:12:00Z</time>
      </trkpt>
      <trkpt lat="49.01193" lon="1.83158">
        <ele>170.2</ele>
        <time>2022-09-22T12:12:04Z</time>
      </trkpt>
      <trkpt lat="49.01189" lon="1.83165">
        <ele>170.7</ele>
        <time>2022-09-22T12:12:09Z</time>
      </trkpt>
      <trkpt lat="49.01186" lon="1.83171">
        <ele>171.1</ele>
        <time>2022-09-22T12:12:13Z</time>
      </trkpt>
      <trkpt lat="49.01184" lon="1.83178">
        <ele>171.3</ele>
        <time>2022-09-22T12:12:17Z</time>
      </trkpt>
      <trkpt lat="49.01181" lon="1.83185">
        <ele>172</ele>
        <time>2022-09-22T12:12:21Z</time>
      </trkpt>
      <trkpt lat="49.01179" lon="1.83194">
        <ele>172.3</ele>
        <time>2022-09-22T12:12:25Z</time>
      </trkpt>
      <trkpt lat="49.01177" lon="1.83202">
        <ele>172.4</ele>
        <time>2022-09-22T12:12:30Z</time>
      </trkpt>
      <trkpt lat="49.01176" lon="1.83209">
        <ele>173.2</ele>
        <time>2022-09-22T12:12:34Z</time>
      </trkpt>
      <trkpt lat="49.01174" lon="1.83215">
        <ele>174.2</ele>
        <time>2022-09-22T12:12:38Z</time>
      </trkpt>
      <trkpt lat="49.01171" lon="1.8322">
        <ele>174.2</ele>
        <time>2022-09-22T12:12:41Z</time>
      </trkpt>
      <trkpt lat="49.01169" lon="1.83227">
        <ele>174.7</ele>
        <time>2022-09-22T12:12:45Z</time>
      </trkpt>
      <trkpt lat="49.01167" lon="1.83235">
        <ele>175.3</ele>
        <time>2022-09-22T12:12:49Z</time>
      </trkpt>
      <trkpt lat="49.01166" lon="1.83242">
        <ele>175.3</ele>
        <time>2022-09-22T12:12:52Z</time>
      </trkpt>
      <trkpt lat="49.01163" lon="1.83248">
        <ele>175</ele>
        <time>2022-09-22T12:12:57Z</time>
      </trkpt>
      <trkpt lat="49.0116" lon="1.83254">
        <ele>174.8</ele>
        <time>2022-09-22T12:13:01Z</time>
      </trkpt>
      <trkpt lat="49.01158" lon="1.8326">
        <ele>174.5</ele>
        <time>2022-09-22T12:13:05Z</time>
      </trkpt>
      <trkpt lat="49.01156" lon="1.83268">
        <ele>174.2</ele>
        <time>2022-09-22T12:13:09Z</time>
      </trkpt>
      <trkpt lat="49.01154" lon="1.83274">
        <ele>173.7</ele>
        <time>2022-09-22T12:13:13Z</time>
      </trkpt>
      <trkpt lat="49.01153" lon="1.83282">
        <ele>172.8</ele>
        <time>2022-09-22T12:13:17Z</time>
      </trkpt>
      <trkpt lat="49.0115" lon="1.83289">
        <ele>173.1</ele>
        <time>2022-09-22T12:13:21Z</time>
      </trkpt>
      <trkpt lat="49.01146" lon="1.83295">
        <ele>172.3</ele>
        <time>2022-09-22T12:13:25Z</time>
      </trkpt>
      <trkpt lat="49.01143" lon="1.83302">
        <ele>172.2</ele>
        <time>2022-09-22T12:13:29Z</time>
      </trkpt>
      <trkpt lat="49.0114" lon="1.83309">
        <ele>171.5</ele>
        <time>2022-09-22T12:13:33Z</time>
      </trkpt>
      <trkpt lat="49.01138" lon="1.83315">
        <ele>171.3</ele>
        <time>2022-09-22T12:13:36Z</time>
      </trkpt>
      <trkpt lat="49.01135" lon="1.83323">
        <ele>170.9</ele>
        <time>2022-09-22T12:13:40Z</time>
      </trkpt>
      <trkpt lat="49.01133" lon="1.8333">
        <ele>170.9</ele>
        <time>2022-09-22T12:13:44Z</time>
      </trkpt>
      <trkpt lat="49.01131" lon="1.83336">
        <ele>170.9</ele>
        <time>2022-09-22T12:13:47Z</time>
      </trkpt>
      <trkpt lat="49.01128" lon="1.83343">
        <ele>170.7</ele>
        <time>2022-09-22T12:13:51Z</time>
      </trkpt>
      <trkpt lat="49.01125" lon="1.8335">
        <ele>171.1</ele>
        <time>2022-09-22T12:13:55Z</time>
      </trkpt>
      <trkpt lat="49.01122" lon="1.83357">
        <ele>171.3</ele>
        <time>2022-09-22T12:13:59Z</time>
      </trkpt>
      <trkpt lat="49.01121" lon="1.83364">
        <ele>171.2</ele>
        <time>2022-09-22T12:14:02Z</time>
      </trkpt>
      <trkpt lat="49.01119" lon="1.83371">
        <ele>170.8</ele>
        <time>2022-09-22T12:14:06Z</time>
      </trkpt>
      <trkpt lat="49.01117" lon="1.83378">
        <ele>170.9</ele>
        <time>2022-09-22T12:14:09Z</time>
      </trkpt>
      <trkpt lat="49.01116" lon="1.83385">
        <ele>170.9</ele>
        <time>2022-09-22T12:14:12Z</time>
      </trkpt>
      <trkpt lat="49.01115" lon="1.83393">
        <ele>170.7</ele>
        <time>2022-09-22T12:14:16Z</time>
      </trkpt>
      <trkpt lat="49.01113" lon="1.83401">
        <ele>170.9</ele>
        <time>2022-09-22T12:14:20Z</time>
      </trkpt>
      <trkpt lat="49.01111" lon="1.83409">
        <ele>171</ele>
        <time>2022-09-22T12:14:24Z</time>
      </trkpt>
      <trkpt lat="49.01109" lon="1.83416">
        <ele>171</ele>
        <time>2022-09-22T12:14:27Z</time>
      </trkpt>
      <trkpt lat="49.01107" lon="1.83423">
        <ele>170.7</ele>
        <time>2022-09-22T12:14:31Z</time>
      </trkpt>
      <trkpt lat="49.01105" lon="1.83429">
        <ele>170.8</ele>
        <time>2022-09-22T12:14:34Z</time>
      </trkpt>
      <trkpt lat="49.01103" lon="1.83437">
        <ele>171</ele>
        <time>2022-09-22T12:14:38Z</time>
      </trkpt>
      <trkpt lat="49.01101" lon="1.83446">
        <ele>171.4</ele>
        <time>2022-09-22T12:14:42Z</time>
      </trkpt>
      <trkpt lat="49.01099" lon="1.83454">
        <ele>171.5</ele>
        <time>2022-09-22T12:14:46Z</time>
      </trkpt>
      <trkpt lat="49.01097" lon="1.83462">
        <ele>171.7</ele>
        <time>2022-09-22T12:14:50Z</time>
      </trkpt>
      <trkpt lat="49.01095" lon="1.83468">
        <ele>172.2</ele>
        <time>2022-09-22T12:14:53Z</time>
      </trkpt>
      <trkpt lat="49.01092" lon="1.83475">
        <ele>172.5</ele>
        <time>2022-09-22T12:14:57Z</time>
      </trkpt>
      <trkpt lat="49.0109" lon="1.83482">
        <ele>172.8</ele>
        <time>2022-09-22T12:15:00Z</time>
      </trkpt>
      <trkpt lat="49.01092" lon="1.83489">
        <ele>172.9</ele>
        <time>2022-09-22T12:15:06Z</time>
      </trkpt>
      <trkpt lat="49.01091" lon="1.83497">
        <ele>172.9</ele>
        <time>2022-09-22T12:15:38Z</time>
      </trkpt>
      <trkpt lat="49.01088" lon="1.83504">
        <ele>173.5</ele>
        <time>2022-09-22T12:15:44Z</time>
      </trkpt>
      <trkpt lat="49.01086" lon="1.8351">
        <ele>174.5</ele>
        <time>2022-09-22T12:15:48Z</time>
      </trkpt>
      <trkpt lat="49.01084" lon="1.83517">
        <ele>175.3</ele>
        <time>2022-09-22T12:15:51Z</time>
      </trkpt>
      <trkpt lat="49.01081" lon="1.83525">
        <ele>176.2</ele>
        <time>2022-09-22T12:15:55Z</time>
      </trkpt>
      <trkpt lat="49.01079" lon="1.83532">
        <ele>177.4</ele>
        <time>2022-09-22T12:15:59Z</time>
      </trkpt>
      <trkpt lat="49.01076" lon="1.8354">
        <ele>180.9</ele>
        <time>2022-09-22T12:16:03Z</time>
      </trkpt>
      <trkpt lat="49.01074" lon="1.83548">
        <ele>182.3</ele>
        <time>2022-09-22T12:16:06Z</time>
      </trkpt>
      <trkpt lat="49.01074" lon="1.83556">
        <ele>183</ele>
        <time>2022-09-22T12:16:10Z</time>
      </trkpt>
      <trkpt lat="49.01074" lon="1.83564">
        <ele>182.6</ele>
        <time>2022-09-22T12:16:14Z</time>
      </trkpt>
      <trkpt lat="49.01072" lon="1.83573">
        <ele>183</ele>
        <time>2022-09-22T12:16:19Z</time>
      </trkpt>
      <trkpt lat="49.0107" lon="1.8358">
        <ele>183.1</ele>
        <time>2022-09-22T12:16:23Z</time>
      </trkpt>
      <trkpt lat="49.01069" lon="1.83588">
        <ele>182.9</ele>
        <time>2022-09-22T12:16:28Z</time>
      </trkpt>
      <trkpt lat="49.01068" lon="1.83595">
        <ele>183.1</ele>
        <time>2022-09-22T12:16:32Z</time>
      </trkpt>
      <trkpt lat="49.01067" lon="1.83602">
        <ele>182.4</ele>
        <time>2022-09-22T12:16:37Z</time>
      </trkpt>
      <trkpt lat="49.01063" lon="1.83607">
        <ele>181.8</ele>
        <time>2022-09-22T12:16:43Z</time>
      </trkpt>
      <trkpt lat="49.01064" lon="1.83615">
        <ele>182.1</ele>
        <time>2022-09-22T12:17:15Z</time>
      </trkpt>
      <trkpt lat="49.01061" lon="1.83622">
        <ele>181.9</ele>
        <time>2022-09-22T12:17:21Z</time>
      </trkpt>
      <trkpt lat="49.01054" lon="1.83636">
        <ele>181.9</ele>
        <time>2022-09-22T12:17:27Z</time>
      </trkpt>
      <trkpt lat="49.01052" lon="1.83643">
        <ele>181.8</ele>
        <time>2022-09-22T12:17:31Z</time>
      </trkpt>
      <trkpt lat="49.0105" lon="1.83649">
        <ele>181.4</ele>
        <time>2022-09-22T12:17:34Z</time>
      </trkpt>
      <trkpt lat="49.01049" lon="1.83658">
        <ele>181.5</ele>
        <time>2022-09-22T12:17:38Z</time>
      </trkpt>
      <trkpt lat="49.01048" lon="1.83665">
        <ele>181.6</ele>
        <time>2022-09-22T12:17:42Z</time>
      </trkpt>
      <trkpt lat="49.01047" lon="1.83674">
        <ele>181.5</ele>
        <time>2022-09-22T12:17:46Z</time>
      </trkpt>
      <trkpt lat="49.01047" lon="1.83682">
        <ele>181.2</ele>
        <time>2022-09-22T12:17:50Z</time>
      </trkpt>
      <trkpt lat="49.01046" lon="1.8369">
        <ele>181.4</ele>
        <time>2022-09-22T12:17:54Z</time>
      </trkpt>
      <trkpt lat="49.01045" lon="1.83697">
        <ele>181.2</ele>
        <time>2022-09-22T12:17:58Z</time>
      </trkpt>
      <trkpt lat="49.01044" lon="1.83705">
        <ele>180.7</ele>
        <time>2022-09-22T12:18:03Z</time>
      </trkpt>
      <trkpt lat="49.01043" lon="1.83713">
        <ele>180.3</ele>
        <time>2022-09-22T12:18:08Z</time>
      </trkpt>
      <trkpt lat="49.01043" lon="1.8372">
        <ele>179.5</ele>
        <time>2022-09-22T12:18:12Z</time>
      </trkpt>
      <trkpt lat="49.01041" lon="1.83727">
        <ele>178.6</ele>
        <time>2022-09-22T12:18:16Z</time>
      </trkpt>
      <trkpt lat="49.01039" lon="1.83734">
        <ele>177.2</ele>
        <time>2022-09-22T12:18:20Z</time>
      </trkpt>
      <trkpt lat="49.01036" lon="1.83742">
        <ele>175.4</ele>
        <time>2022-09-22T12:18:24Z</time>
      </trkpt>
      <trkpt lat="49.01034" lon="1.8375">
        <ele>174.5</ele>
        <time>2022-09-22T12:18:29Z</time>
      </trkpt>
      <trkpt lat="49.01032" lon="1.83758">
        <ele>173.9</ele>
        <time>2022-09-22T12:18:33Z</time>
      </trkpt>
      <trkpt lat="49.0103" lon="1.83766">
        <ele>173.5</ele>
        <time>2022-09-22T12:18:37Z</time>
      </trkpt>
      <trkpt lat="49.01029" lon="1.83773">
        <ele>173.1</ele>
        <time>2022-09-22T12:18:41Z</time>
      </trkpt>
      <trkpt lat="49.01027" lon="1.83781">
        <ele>172.5</ele>
        <time>2022-09-22T12:18:45Z</time>
      </trkpt>
      <trkpt lat="49.01025" lon="1.83789">
        <ele>172</ele>
        <time>2022-09-22T12:18:49Z</time>
      </trkpt>
      <trkpt lat="49.01023" lon="1.83796">
        <ele>171.4</ele>
        <time>2022-09-22T12:18:53Z</time>
      </trkpt>
      <trkpt lat="49.01021" lon="1.83804">
        <ele>171.3</ele>
        <time>2022-09-22T12:18:57Z</time>
      </trkpt>
      <trkpt lat="49.01019" lon="1.83813">
        <ele>171.7</ele>
        <time>2022-09-22T12:19:01Z</time>
      </trkpt>
      <trkpt lat="49.01017" lon="1.83819">
        <ele>171.5</ele>
        <time>2022-09-22T12:19:05Z</time>
      </trkpt>
      <trkpt lat="49.01015" lon="1.83825">
        <ele>171.8</ele>
        <time>2022-09-22T12:19:08Z</time>
      </trkpt>
      <trkpt lat="49.01012" lon="1.83831">
        <ele>172</ele>
        <time>2022-09-22T12:19:11Z</time>
      </trkpt>
      <trkpt lat="49.0101" lon="1.83837">
        <ele>173.7</ele>
        <time>2022-09-22T12:19:15Z</time>
      </trkpt>
      <trkpt lat="49.01007" lon="1.83843">
        <ele>174.4</ele>
        <time>2022-09-22T12:19:18Z</time>
      </trkpt>
      <trkpt lat="49.01003" lon="1.83848">
        <ele>175.1</ele>
        <time>2022-09-22T12:19:21Z</time>
      </trkpt>
      <trkpt lat="49.00999" lon="1.83853">
        <ele>175.7</ele>
        <time>2022-09-22T12:19:25Z</time>
      </trkpt>
      <trkpt lat="49.00995" lon="1.83857">
        <ele>175.8</ele>
        <time>2022-09-22T12:19:28Z</time>
      </trkpt>
      <trkpt lat="49.00991" lon="1.8386">
        <ele>176</ele>
        <time>2022-09-22T12:19:31Z</time>
      </trkpt>
      <trkpt lat="49.00987" lon="1.83865">
        <ele>176.1</ele>
        <time>2022-09-22T12:19:34Z</time>
      </trkpt>
      <trkpt lat="49.00983" lon="1.8387">
        <ele>176.3</ele>
        <time>2022-09-22T12:19:38Z</time>
      </trkpt>
      <trkpt lat="49.00988" lon="1.83868">
        <ele>176.6</ele>
        <time>2022-09-22T12:19:47Z</time>
      </trkpt>
      <trkpt lat="49.00993" lon="1.83872">
        <ele>176.5</ele>
        <time>2022-09-22T12:19:56Z</time>
      </trkpt>
      <trkpt lat="49.00998" lon="1.83875">
        <ele>177.3</ele>
        <time>2022-09-22T12:20:03Z</time>
      </trkpt>
      <trkpt lat="49.01" lon="1.83881">
        <ele>177.3</ele>
        <time>2022-09-22T12:20:21Z</time>
      </trkpt>
      <trkpt lat="49.01004" lon="1.83887">
        <ele>177.8</ele>
        <time>2022-09-22T12:20:25Z</time>
      </trkpt>
      <trkpt lat="49.01004" lon="1.83894">
        <ele>178.3</ele>
        <time>2022-09-22T12:20:30Z</time>
      </trkpt>
      <trkpt lat="49.01006" lon="1.839">
        <ele>177.7</ele>
        <time>2022-09-22T12:20:36Z</time>
      </trkpt>
      <trkpt lat="49.01009" lon="1.83905">
        <ele>177.2</ele>
        <time>2022-09-22T12:20:41Z</time>
      </trkpt>
      <trkpt lat="49.01007" lon="1.83899">
        <ele>177.5</ele>
        <time>2022-09-22T12:21:33Z</time>
      </trkpt>
      <trkpt lat="49.01003" lon="1.83895">
        <ele>177.6</ele>
        <time>2022-09-22T12:21:42Z</time>
      </trkpt>
      <trkpt lat="49.01" lon="1.83901">
        <ele>178</ele>
        <time>2022-09-22T12:21:45Z</time>
      </trkpt>
      <trkpt lat="49.00996" lon="1.83909">
        <ele>177.5</ele>
        <time>2022-09-22T12:21:49Z</time>
      </trkpt>
      <trkpt lat="49.00994" lon="1.83917">
        <ele>177.2</ele>
        <time>2022-09-22T12:21:53Z</time>
      </trkpt>
      <trkpt lat="49.00993" lon="1.83925">
        <ele>177.3</ele>
        <time>2022-09-22T12:21:57Z</time>
      </trkpt>
      <trkpt lat="49.00992" lon="1.83933">
        <ele>177.6</ele>
        <time>2022-09-22T12:22:01Z</time>
      </trkpt>
      <trkpt lat="49.00989" lon="1.8394">
        <ele>177.4</ele>
        <time>2022-09-22T12:22:08Z</time>
      </trkpt>
      <trkpt lat="49.00986" lon="1.83946">
        <ele>177.6</ele>
        <time>2022-09-22T12:22:14Z</time>
      </trkpt>
      <trkpt lat="49.00983" lon="1.83953">
        <ele>177.3</ele>
        <time>2022-09-22T12:22:19Z</time>
      </trkpt>
      <trkpt lat="49.00983" lon="1.8396">
        <ele>177.1</ele>
        <time>2022-09-22T12:22:24Z</time>
      </trkpt>
      <trkpt lat="49.00982" lon="1.83968">
        <ele>177.1</ele>
        <time>2022-09-22T12:22:29Z</time>
      </trkpt>
      <trkpt lat="49.0098" lon="1.83975">
        <ele>176.7</ele>
        <time>2022-09-22T12:22:34Z</time>
      </trkpt>
      <trkpt lat="49.00979" lon="1.83981">
        <ele>176.3</ele>
        <time>2022-09-22T12:22:37Z</time>
      </trkpt>
      <trkpt lat="49.00976" lon="1.83989">
        <ele>176</ele>
        <time>2022-09-22T12:22:41Z</time>
      </trkpt>
      <trkpt lat="49.00975" lon="1.83997">
        <ele>175.6</ele>
        <time>2022-09-22T12:22:46Z</time>
      </trkpt>
      <trkpt lat="49.00973" lon="1.84005">
        <ele>175.5</ele>
        <time>2022-09-22T12:22:50Z</time>
      </trkpt>
      <trkpt lat="49.00971" lon="1.84012">
        <ele>175.2</ele>
        <time>2022-09-22T12:22:54Z</time>
      </trkpt>
      <trkpt lat="49.00969" lon="1.84021">
        <ele>175.6</ele>
        <time>2022-09-22T12:22:58Z</time>
      </trkpt>
      <trkpt lat="49.00968" lon="1.84028">
        <ele>175.6</ele>
        <time>2022-09-22T12:23:01Z</time>
      </trkpt>
      <trkpt lat="49.00965" lon="1.84035">
        <ele>175.6</ele>
        <time>2022-09-22T12:23:05Z</time>
      </trkpt>
      <trkpt lat="49.00962" lon="1.84041">
        <ele>175.4</ele>
        <time>2022-09-22T12:23:09Z</time>
      </trkpt>
      <trkpt lat="49.0096" lon="1.84048">
        <ele>175.7</ele>
        <time>2022-09-22T12:23:13Z</time>
      </trkpt>
      <trkpt lat="49.00958" lon="1.84056">
        <ele>176</ele>
        <time>2022-09-22T12:23:17Z</time>
      </trkpt>
      <trkpt lat="49.00956" lon="1.84064">
        <ele>175.9</ele>
        <time>2022-09-22T12:23:21Z</time>
      </trkpt>
      <trkpt lat="49.00954" lon="1.84072">
        <ele>175.6</ele>
        <time>2022-09-22T12:23:25Z</time>
      </trkpt>
      <trkpt lat="49.00952" lon="1.8408">
        <ele>175.3</ele>
        <time>2022-09-22T12:23:29Z</time>
      </trkpt>
      <trkpt lat="49.00951" lon="1.84088">
        <ele>175.3</ele>
        <time>2022-09-22T12:23:33Z</time>
      </trkpt>
      <trkpt lat="49.0095" lon="1.84097">
        <ele>174.6</ele>
        <time>2022-09-22T12:23:38Z</time>
      </trkpt>
      <trkpt lat="49.00947" lon="1.84104">
        <ele>173.8</ele>
        <time>2022-09-22T12:23:42Z</time>
      </trkpt>
      <trkpt lat="49.00945" lon="1.84112">
        <ele>172</ele>
        <time>2022-09-22T12:23:46Z</time>
      </trkpt>
      <trkpt lat="49.00944" lon="1.84118">
        <ele>170.8</ele>
        <time>2022-09-22T12:23:50Z</time>
      </trkpt>
      <trkpt lat="49.00941" lon="1.84125">
        <ele>171.1</ele>
        <time>2022-09-22T12:23:53Z</time>
      </trkpt>
      <trkpt lat="49.00938" lon="1.84132">
        <ele>170.7</ele>
        <time>2022-09-22T12:23:56Z</time>
      </trkpt>
      <trkpt lat="49.00936" lon="1.8414">
        <ele>170.4</ele>
        <time>2022-09-22T12:24:00Z</time>
      </trkpt>
      <trkpt lat="49.00934" lon="1.84149">
        <ele>170.5</ele>
        <time>2022-09-22T12:24:03Z</time>
      </trkpt>
      <trkpt lat="49.00931" lon="1.84156">
        <ele>171.2</ele>
        <time>2022-09-22T12:24:06Z</time>
      </trkpt>
      <trkpt lat="49.00929" lon="1.84163">
        <ele>172.1</ele>
        <time>2022-09-22T12:24:09Z</time>
      </trkpt>
      <trkpt lat="49.00927" lon="1.84169">
        <ele>173.4</ele>
        <time>2022-09-22T12:24:12Z</time>
      </trkpt>
      <trkpt lat="49.00924" lon="1.84175">
        <ele>174.3</ele>
        <time>2022-09-22T12:24:15Z</time>
      </trkpt>
      <trkpt lat="49.00921" lon="1.84183">
        <ele>174.9</ele>
        <time>2022-09-22T12:24:19Z</time>
      </trkpt>
      <trkpt lat="49.00918" lon="1.84189">
        <ele>175.7</ele>
        <time>2022-09-22T12:24:22Z</time>
      </trkpt>
      <trkpt lat="49.00916" lon="1.84195">
        <ele>175.9</ele>
        <time>2022-09-22T12:24:25Z</time>
      </trkpt>
      <trkpt lat="49.00914" lon="1.84203">
        <ele>176</ele>
        <time>2022-09-22T12:24:29Z</time>
      </trkpt>
      <trkpt lat="49.00913" lon="1.84211">
        <ele>176.3</ele>
        <time>2022-09-22T12:24:33Z</time>
      </trkpt>
      <trkpt lat="49.00911" lon="1.84218">
        <ele>176</ele>
        <time>2022-09-22T12:24:37Z</time>
      </trkpt>
      <trkpt lat="49.00909" lon="1.84226">
        <ele>175.8</ele>
        <time>2022-09-22T12:24:41Z</time>
      </trkpt>
      <trkpt lat="49.00908" lon="1.84234">
        <ele>175.8</ele>
        <time>2022-09-22T12:24:45Z</time>
      </trkpt>
      <trkpt lat="49.00907" lon="1.84241">
        <ele>175.8</ele>
        <time>2022-09-22T12:24:49Z</time>
      </trkpt>
      <trkpt lat="49.00905" lon="1.84249">
        <ele>176</ele>
        <time>2022-09-22T12:24:53Z</time>
      </trkpt>
      <trkpt lat="49.00904" lon="1.84257">
        <ele>175.9</ele>
        <time>2022-09-22T12:24:58Z</time>
      </trkpt>
      <trkpt lat="49.00902" lon="1.84266">
        <ele>175.9</ele>
        <time>2022-09-22T12:25:02Z</time>
      </trkpt>
      <trkpt lat="49.00901" lon="1.84274">
        <ele>175.6</ele>
        <time>2022-09-22T12:25:06Z</time>
      </trkpt>
      <trkpt lat="49.00899" lon="1.84282">
        <ele>174.9</ele>
        <time>2022-09-22T12:25:10Z</time>
      </trkpt>
      <trkpt lat="49.00897" lon="1.84289">
        <ele>174.6</ele>
        <time>2022-09-22T12:25:14Z</time>
      </trkpt>
      <trkpt lat="49.00896" lon="1.84297">
        <ele>174.5</ele>
        <time>2022-09-22T12:25:18Z</time>
      </trkpt>
      <trkpt lat="49.00895" lon="1.84305">
        <ele>174.9</ele>
        <time>2022-09-22T12:25:22Z</time>
      </trkpt>
      <trkpt lat="49.00894" lon="1.84312">
        <ele>175</ele>
        <time>2022-09-22T12:25:26Z</time>
      </trkpt>
      <trkpt lat="49.00892" lon="1.84319">
        <ele>175.1</ele>
        <time>2022-09-22T12:25:30Z</time>
      </trkpt>
      <trkpt lat="49.0089" lon="1.84328">
        <ele>174.7</ele>
        <time>2022-09-22T12:25:38Z</time>
      </trkpt>
      <trkpt lat="49.00886" lon="1.84335">
        <ele>174.4</ele>
        <time>2022-09-22T12:25:41Z</time>
      </trkpt>
      <trkpt lat="49.00883" lon="1.84342">
        <ele>174.1</ele>
        <time>2022-09-22T12:25:45Z</time>
      </trkpt>
      <trkpt lat="49.0088" lon="1.84347">
        <ele>174.3</ele>
        <time>2022-09-22T12:25:48Z</time>
      </trkpt>
      <trkpt lat="49.00877" lon="1.84353">
        <ele>174.6</ele>
        <time>2022-09-22T12:25:52Z</time>
      </trkpt>
      <trkpt lat="49.00875" lon="1.8436">
        <ele>174.2</ele>
        <time>2022-09-22T12:25:55Z</time>
      </trkpt>
      <trkpt lat="49.00873" lon="1.84367">
        <ele>173.8</ele>
        <time>2022-09-22T12:25:59Z</time>
      </trkpt>
      <trkpt lat="49.00873" lon="1.84374">
        <ele>173.8</ele>
        <time>2022-09-22T12:26:02Z</time>
      </trkpt>
      <trkpt lat="49.00871" lon="1.8438">
        <ele>174.3</ele>
        <time>2022-09-22T12:26:08Z</time>
      </trkpt>
      <trkpt lat="49.00868" lon="1.84387">
        <ele>174.2</ele>
        <time>2022-09-22T12:26:13Z</time>
      </trkpt>
      <trkpt lat="49.00869" lon="1.84394">
        <ele>174.5</ele>
        <time>2022-09-22T12:26:19Z</time>
      </trkpt>
      <trkpt lat="49.00868" lon="1.84401">
        <ele>174.6</ele>
        <time>2022-09-22T12:26:23Z</time>
      </trkpt>
      <trkpt lat="49.00867" lon="1.84409">
        <ele>173.4</ele>
        <time>2022-09-22T12:26:27Z</time>
      </trkpt>
      <trkpt lat="49.00864" lon="1.84416">
        <ele>172.8</ele>
        <time>2022-09-22T12:26:31Z</time>
      </trkpt>
      <trkpt lat="49.0086" lon="1.84422">
        <ele>172.8</ele>
        <time>2022-09-22T12:26:34Z</time>
      </trkpt>
      <trkpt lat="49.00857" lon="1.84428">
        <ele>172.8</ele>
        <time>2022-09-22T12:26:37Z</time>
      </trkpt>
      <trkpt lat="49.00855" lon="1.84436">
        <ele>173.4</ele>
        <time>2022-09-22T12:26:41Z</time>
      </trkpt>
      <trkpt lat="49.00853" lon="1.84442">
        <ele>173.4</ele>
        <time>2022-09-22T12:26:44Z</time>
      </trkpt>
      <trkpt lat="49.0085" lon="1.84451">
        <ele>173.5</ele>
        <time>2022-09-22T12:26:48Z</time>
      </trkpt>
      <trkpt lat="49.00848" lon="1.84459">
        <ele>173.8</ele>
        <time>2022-09-22T12:26:52Z</time>
      </trkpt>
      <trkpt lat="49.00846" lon="1.84467">
        <ele>173.9</ele>
        <time>2022-09-22T12:26:55Z</time>
      </trkpt>
      <trkpt lat="49.00844" lon="1.84473">
        <ele>173.5</ele>
        <time>2022-09-22T12:26:59Z</time>
      </trkpt>
      <trkpt lat="49.00841" lon="1.84482">
        <ele>173.1</ele>
        <time>2022-09-22T12:27:03Z</time>
      </trkpt>
      <trkpt lat="49.00838" lon="1.84489">
        <ele>173.3</ele>
        <time>2022-09-22T12:27:07Z</time>
      </trkpt>
      <trkpt lat="49.00836" lon="1.84496">
        <ele>173.1</ele>
        <time>2022-09-22T12:27:11Z</time>
      </trkpt>
      <trkpt lat="49.00835" lon="1.84503">
        <ele>172.8</ele>
        <time>2022-09-22T12:27:14Z</time>
      </trkpt>
      <trkpt lat="49.00834" lon="1.84513">
        <ele>171.9</ele>
        <time>2022-09-22T12:27:18Z</time>
      </trkpt>
      <trkpt lat="49.00833" lon="1.84522">
        <ele>171.6</ele>
        <time>2022-09-22T12:27:23Z</time>
      </trkpt>
      <trkpt lat="49.00831" lon="1.84531">
        <ele>170.6</ele>
        <time>2022-09-22T12:27:28Z</time>
      </trkpt>
      <trkpt lat="49.00829" lon="1.84538">
        <ele>169.8</ele>
        <time>2022-09-22T12:27:33Z</time>
      </trkpt>
      <trkpt lat="49.00827" lon="1.84547">
        <ele>169.5</ele>
        <time>2022-09-22T12:27:38Z</time>
      </trkpt>
      <trkpt lat="49.00826" lon="1.84555">
        <ele>168.9</ele>
        <time>2022-09-22T12:27:43Z</time>
      </trkpt>
      <trkpt lat="49.00824" lon="1.84562">
        <ele>168.3</ele>
        <time>2022-09-22T12:27:47Z</time>
      </trkpt>
      <trkpt lat="49.00821" lon="1.84568">
        <ele>168</ele>
        <time>2022-09-22T12:27:51Z</time>
      </trkpt>
      <trkpt lat="49.00819" lon="1.84576">
        <ele>168.3</ele>
        <time>2022-09-22T12:27:54Z</time>
      </trkpt>
      <trkpt lat="49.00817" lon="1.84582">
        <ele>168.1</ele>
        <time>2022-09-22T12:27:57Z</time>
      </trkpt>
      <trkpt lat="49.00814" lon="1.8459">
        <ele>168.5</ele>
        <time>2022-09-22T12:28:01Z</time>
      </trkpt>
      <trkpt lat="49.00811" lon="1.84596">
        <ele>168.4</ele>
        <time>2022-09-22T12:28:03Z</time>
      </trkpt>
      <trkpt lat="49.00809" lon="1.84602">
        <ele>169.5</ele>
        <time>2022-09-22T12:28:07Z</time>
      </trkpt>
      <trkpt lat="49.00807" lon="1.84609">
        <ele>171.5</ele>
        <time>2022-09-22T12:28:09Z</time>
      </trkpt>
      <trkpt lat="49.00805" lon="1.84617">
        <ele>172.3</ele>
        <time>2022-09-22T12:28:13Z</time>
      </trkpt>
      <trkpt lat="49.00804" lon="1.84625">
        <ele>172.8</ele>
        <time>2022-09-22T12:28:17Z</time>
      </trkpt>
      <trkpt lat="49.00802" lon="1.84633">
        <ele>173.4</ele>
        <time>2022-09-22T12:28:21Z</time>
      </trkpt>
      <trkpt lat="49.008" lon="1.8464">
        <ele>173.7</ele>
        <time>2022-09-22T12:28:26Z</time>
      </trkpt>
      <trkpt lat="49.00797" lon="1.84647">
        <ele>173.8</ele>
        <time>2022-09-22T12:28:30Z</time>
      </trkpt>
      <trkpt lat="49.00795" lon="1.84653">
        <ele>173.9</ele>
        <time>2022-09-22T12:28:33Z</time>
      </trkpt>
      <trkpt lat="49.00793" lon="1.8466">
        <ele>173.5</ele>
        <time>2022-09-22T12:28:38Z</time>
      </trkpt>
      <trkpt lat="49.00791" lon="1.84667">
        <ele>173.2</ele>
        <time>2022-09-22T12:28:41Z</time>
      </trkpt>
      <trkpt lat="49.00788" lon="1.84674">
        <ele>173</ele>
        <time>2022-09-22T12:28:45Z</time>
      </trkpt>
      <trkpt lat="49.00786" lon="1.84681">
        <ele>172.9</ele>
        <time>2022-09-22T12:28:48Z</time>
      </trkpt>
      <trkpt lat="49.00784" lon="1.84687">
        <ele>172.7</ele>
        <time>2022-09-22T12:28:52Z</time>
      </trkpt>
      <trkpt lat="49.00782" lon="1.84693">
        <ele>172.4</ele>
        <time>2022-09-22T12:28:56Z</time>
      </trkpt>
      <trkpt lat="49.0078" lon="1.84699">
        <ele>171.7</ele>
        <time>2022-09-22T12:28:58Z</time>
      </trkpt>
      <trkpt lat="49.00777" lon="1.84705">
        <ele>171.9</ele>
        <time>2022-09-22T12:29:02Z</time>
      </trkpt>
      <trkpt lat="49.00774" lon="1.84712">
        <ele>171.6</ele>
        <time>2022-09-22T12:29:06Z</time>
      </trkpt>
      <trkpt lat="49.00772" lon="1.84718">
        <ele>171.7</ele>
        <time>2022-09-22T12:29:09Z</time>
      </trkpt>
      <trkpt lat="49.00769" lon="1.84727">
        <ele>171.7</ele>
        <time>2022-09-22T12:29:14Z</time>
      </trkpt>
      <trkpt lat="49.00767" lon="1.84736">
        <ele>171.9</ele>
        <time>2022-09-22T12:29:19Z</time>
      </trkpt>
      <trkpt lat="49.00763" lon="1.84744">
        <ele>172.1</ele>
        <time>2022-09-22T12:29:23Z</time>
      </trkpt>
      <trkpt lat="49.00759" lon="1.84753">
        <ele>172.1</ele>
        <time>2022-09-22T12:29:29Z</time>
      </trkpt>
      <trkpt lat="49.00756" lon="1.8476">
        <ele>172.7</ele>
        <time>2022-09-22T12:29:34Z</time>
      </trkpt>
      <trkpt lat="49.00753" lon="1.84766">
        <ele>173.7</ele>
        <time>2022-09-22T12:29:40Z</time>
      </trkpt>
      <trkpt lat="49.00751" lon="1.84773">
        <ele>174</ele>
        <time>2022-09-22T12:29:44Z</time>
      </trkpt>
      <trkpt lat="49.0075" lon="1.84782">
        <ele>174.1</ele>
        <time>2022-09-22T12:29:48Z</time>
      </trkpt>
      <trkpt lat="49.0075" lon="1.84791">
        <ele>174.7</ele>
        <time>2022-09-22T12:29:53Z</time>
      </trkpt>
      <trkpt lat="49.00749" lon="1.84799">
        <ele>175</ele>
        <time>2022-09-22T12:30:11Z</time>
      </trkpt>
      <trkpt lat="49.00749" lon="1.84807">
        <ele>175.1</ele>
        <time>2022-09-22T12:30:14Z</time>
      </trkpt>
      <trkpt lat="49.00751" lon="1.84815">
        <ele>175.4</ele>
        <time>2022-09-22T12:30:17Z</time>
      </trkpt>
      <trkpt lat="49.00755" lon="1.84822">
        <ele>175.5</ele>
        <time>2022-09-22T12:30:21Z</time>
      </trkpt>
      <trkpt lat="49.00759" lon="1.84828">
        <ele>175.7</ele>
        <time>2022-09-22T12:30:25Z</time>
      </trkpt>
      <trkpt lat="49.00767" lon="1.84836">
        <ele>175.7</ele>
        <time>2022-09-22T12:31:26Z</time>
      </trkpt>
      <trkpt lat="49.00765" lon="1.84844">
        <ele>175.9</ele>
        <time>2022-09-22T12:31:35Z</time>
      </trkpt>
      <trkpt lat="49.00768" lon="1.84851">
        <ele>175.4</ele>
        <time>2022-09-22T12:31:40Z</time>
      </trkpt>
      <trkpt lat="49.00772" lon="1.84859">
        <ele>175.7</ele>
        <time>2022-09-22T12:31:44Z</time>
      </trkpt>
      <trkpt lat="49.00775" lon="1.84865">
        <ele>175.7</ele>
        <time>2022-09-22T12:31:47Z</time>
      </trkpt>
      <trkpt lat="49.00778" lon="1.84871">
        <ele>175.4</ele>
        <time>2022-09-22T12:31:51Z</time>
      </trkpt>
      <trkpt lat="49.00781" lon="1.84878">
        <ele>175</ele>
        <time>2022-09-22T12:31:55Z</time>
      </trkpt>
      <trkpt lat="49.00785" lon="1.84884">
        <ele>175.1</ele>
        <time>2022-09-22T12:32:00Z</time>
      </trkpt>
      <trkpt lat="49.00789" lon="1.84891">
        <ele>174.2</ele>
        <time>2022-09-22T12:32:04Z</time>
      </trkpt>
      <trkpt lat="49.00793" lon="1.84897">
        <ele>173.6</ele>
        <time>2022-09-22T12:32:08Z</time>
      </trkpt>
      <trkpt lat="49.00796" lon="1.84904">
        <ele>173.1</ele>
        <time>2022-09-22T12:32:13Z</time>
      </trkpt>
      <trkpt lat="49.008" lon="1.84911">
        <ele>172</ele>
        <time>2022-09-22T12:32:18Z</time>
      </trkpt>
      <trkpt lat="49.00803" lon="1.8492">
        <ele>170.2</ele>
        <time>2022-09-22T12:32:23Z</time>
      </trkpt>
      <trkpt lat="49.00806" lon="1.84928">
        <ele>170.4</ele>
        <time>2022-09-22T12:32:28Z</time>
      </trkpt>
      <trkpt lat="49.00809" lon="1.84936">
        <ele>169.1</ele>
        <time>2022-09-22T12:32:34Z</time>
      </trkpt>
      <trkpt lat="49.00812" lon="1.84943">
        <ele>168.6</ele>
        <time>2022-09-22T12:32:39Z</time>
      </trkpt>
      <trkpt lat="49.00816" lon="1.84947">
        <ele>168.6</ele>
        <time>2022-09-22T12:32:43Z</time>
      </trkpt>
      <trkpt lat="49.0082" lon="1.84953">
        <ele>168.3</ele>
        <time>2022-09-22T12:32:48Z</time>
      </trkpt>
      <trkpt lat="49.00823" lon="1.84959">
        <ele>168</ele>
        <time>2022-09-22T12:32:52Z</time>
      </trkpt>
      <trkpt lat="49.00826" lon="1.84965">
        <ele>168</ele>
        <time>2022-09-22T12:32:57Z</time>
      </trkpt>
      <trkpt lat="49.00829" lon="1.84971">
        <ele>168.1</ele>
        <time>2022-09-22T12:33:02Z</time>
      </trkpt>
      <trkpt lat="49.00833" lon="1.84977">
        <ele>168</ele>
        <time>2022-09-22T12:33:07Z</time>
      </trkpt>
      <trkpt lat="49.00836" lon="1.84982">
        <ele>167.9</ele>
        <time>2022-09-22T12:33:12Z</time>
      </trkpt>
      <trkpt lat="49.00839" lon="1.84988">
        <ele>168</ele>
        <time>2022-09-22T12:33:16Z</time>
      </trkpt>
      <trkpt lat="49.00841" lon="1.84994">
        <ele>167.7</ele>
        <time>2022-09-22T12:33:20Z</time>
      </trkpt>
      <trkpt lat="49.00842" lon="1.85002">
        <ele>167.8</ele>
        <time>2022-09-22T12:33:24Z</time>
      </trkpt>
      <trkpt lat="49.00843" lon="1.85009">
        <ele>167.4</ele>
        <time>2022-09-22T12:33:28Z</time>
      </trkpt>
      <trkpt lat="49.00844" lon="1.85017">
        <ele>166.3</ele>
        <time>2022-09-22T12:33:33Z</time>
      </trkpt>
      <trkpt lat="49.00845" lon="1.85024">
        <ele>166.1</ele>
        <time>2022-09-22T12:33:37Z</time>
      </trkpt>
      <trkpt lat="49.00846" lon="1.85032">
        <ele>166.6</ele>
        <time>2022-09-22T12:33:41Z</time>
      </trkpt>
      <trkpt lat="49.00846" lon="1.85039">
        <ele>166.1</ele>
        <time>2022-09-22T12:33:45Z</time>
      </trkpt>
      <trkpt lat="49.00846" lon="1.85046">
        <ele>166.1</ele>
        <time>2022-09-22T12:33:49Z</time>
      </trkpt>
      <trkpt lat="49.00846" lon="1.85055">
        <ele>166.9</ele>
        <time>2022-09-22T12:33:54Z</time>
      </trkpt>
      <trkpt lat="49.00844" lon="1.85063">
        <ele>166.9</ele>
        <time>2022-09-22T12:33:59Z</time>
      </trkpt>
      <trkpt lat="49.00841" lon="1.85078">
        <ele>167.1</ele>
        <time>2022-09-22T12:34:07Z</time>
      </trkpt>
      <trkpt lat="49.0084" lon="1.85085">
        <ele>166.7</ele>
        <time>2022-09-22T12:34:11Z</time>
      </trkpt>
      <trkpt lat="49.00839" lon="1.85093">
        <ele>165.9</ele>
        <time>2022-09-22T12:34:16Z</time>
      </trkpt>
      <trkpt lat="49.00837" lon="1.85101">
        <ele>165.8</ele>
        <time>2022-09-22T12:34:22Z</time>
      </trkpt>
      <trkpt lat="49.00835" lon="1.85108">
        <ele>165.1</ele>
        <time>2022-09-22T12:34:26Z</time>
      </trkpt>
      <trkpt lat="49.00833" lon="1.85115">
        <ele>162.9</ele>
        <time>2022-09-22T12:34:30Z</time>
      </trkpt>
      <trkpt lat="49.00832" lon="1.85122">
        <ele>161.4</ele>
        <time>2022-09-22T12:34:35Z</time>
      </trkpt>
      <trkpt lat="49.00831" lon="1.85129">
        <ele>159.2</ele>
        <time>2022-09-22T12:34:39Z</time>
      </trkpt>
      <trkpt lat="49.00835" lon="1.85133">
        <ele>157.6</ele>
        <time>2022-09-22T12:34:50Z</time>
      </trkpt>
      <trkpt lat="49.00835" lon="1.85141">
        <ele>156.4</ele>
        <time>2022-09-22T12:34:55Z</time>
      </trkpt>
      <trkpt lat="49.00834" lon="1.85148">
        <ele>156</ele>
        <time>2022-09-22T12:34:58Z</time>
      </trkpt>
      <trkpt lat="49.00836" lon="1.85155">
        <ele>155.7</ele>
        <time>2022-09-22T12:35:03Z</time>
      </trkpt>
      <trkpt lat="49.00836" lon="1.85163">
        <ele>154.9</ele>
        <time>2022-09-22T12:35:08Z</time>
      </trkpt>
      <trkpt lat="49.00835" lon="1.8517">
        <ele>154.4</ele>
        <time>2022-09-22T12:35:12Z</time>
      </trkpt>
      <trkpt lat="49.00834" lon="1.85177">
        <ele>153.9</ele>
        <time>2022-09-22T12:35:16Z</time>
      </trkpt>
      <trkpt lat="49.00832" lon="1.85186">
        <ele>153.3</ele>
        <time>2022-09-22T12:35:21Z</time>
      </trkpt>
      <trkpt lat="49.0083" lon="1.85194">
        <ele>152.9</ele>
        <time>2022-09-22T12:35:26Z</time>
      </trkpt>
      <trkpt lat="49.00828" lon="1.85201">
        <ele>152.3</ele>
        <time>2022-09-22T12:35:31Z</time>
      </trkpt>
      <trkpt lat="49.00824" lon="1.85207">
        <ele>151.7</ele>
        <time>2022-09-22T12:35:36Z</time>
      </trkpt>
      <trkpt lat="49.0082" lon="1.85212">
        <ele>151</ele>
        <time>2022-09-22T12:35:41Z</time>
      </trkpt>
      <trkpt lat="49.00817" lon="1.85218">
        <ele>150</ele>
        <time>2022-09-22T12:35:46Z</time>
      </trkpt>
      <trkpt lat="49.00818" lon="1.85226">
        <ele>149.6</ele>
        <time>2022-09-22T12:35:51Z</time>
      </trkpt>
      <trkpt lat="49.0082" lon="1.85233">
        <ele>149.3</ele>
        <time>2022-09-22T12:35:55Z</time>
      </trkpt>
      <trkpt lat="49.00821" lon="1.8524">
        <ele>149.2</ele>
        <time>2022-09-22T12:35:59Z</time>
      </trkpt>
      <trkpt lat="49.00823" lon="1.85247">
        <ele>149.2</ele>
        <time>2022-09-22T12:36:03Z</time>
      </trkpt>
      <trkpt lat="49.00824" lon="1.85254">
        <ele>149.1</ele>
        <time>2022-09-22T12:36:07Z</time>
      </trkpt>
      <trkpt lat="49.00825" lon="1.85262">
        <ele>149</ele>
        <time>2022-09-22T12:36:12Z</time>
      </trkpt>
      <trkpt lat="49.00826" lon="1.85269">
        <ele>149</ele>
        <time>2022-09-22T12:36:16Z</time>
      </trkpt>
      <trkpt lat="49.00828" lon="1.85278">
        <ele>148.7</ele>
        <time>2022-09-22T12:36:21Z</time>
      </trkpt>
      <trkpt lat="49.00829" lon="1.85285">
        <ele>148</ele>
        <time>2022-09-22T12:36:26Z</time>
      </trkpt>
      <trkpt lat="49.00823" lon="1.85288">
        <ele>147.5</ele>
        <time>2022-09-22T12:36:32Z</time>
      </trkpt>
      <trkpt lat="49.00819" lon="1.85288">
        <ele>146.9</ele>
        <time>2022-09-22T12:36:36Z</time>
      </trkpt>
      <trkpt lat="49.00814" lon="1.85289">
        <ele>146.2</ele>
        <time>2022-09-22T12:36:40Z</time>
      </trkpt>
      <trkpt lat="49.00809" lon="1.8529">
        <ele>143.4</ele>
        <time>2022-09-22T12:36:44Z</time>
      </trkpt>
      <trkpt lat="49.00804" lon="1.85292">
        <ele>142.3</ele>
        <time>2022-09-22T12:36:48Z</time>
      </trkpt>
      <trkpt lat="49.00803" lon="1.85299">
        <ele>142.5</ele>
        <time>2022-09-22T12:36:55Z</time>
      </trkpt>
      <trkpt lat="49.00797" lon="1.85302">
        <ele>142.1</ele>
        <time>2022-09-22T12:37:01Z</time>
      </trkpt>
      <trkpt lat="49.00793" lon="1.85303">
        <ele>141.9</ele>
        <time>2022-09-22T12:37:05Z</time>
      </trkpt>
      <trkpt lat="49.00788" lon="1.85305">
        <ele>141.9</ele>
        <time>2022-09-22T12:37:08Z</time>
      </trkpt>
      <trkpt lat="49.00783" lon="1.85307">
        <ele>141.4</ele>
        <time>2022-09-22T12:37:11Z</time>
      </trkpt>
      <trkpt lat="49.00778" lon="1.8531">
        <ele>141.1</ele>
        <time>2022-09-22T12:37:16Z</time>
      </trkpt>
      <trkpt lat="49.00772" lon="1.85314">
        <ele>140.6</ele>
        <time>2022-09-22T12:37:22Z</time>
      </trkpt>
      <trkpt lat="49.00767" lon="1.85318">
        <ele>140.8</ele>
        <time>2022-09-22T12:37:26Z</time>
      </trkpt>
      <trkpt lat="49.00763" lon="1.85322">
        <ele>140.8</ele>
        <time>2022-09-22T12:37:30Z</time>
      </trkpt>
      <trkpt lat="49.00759" lon="1.85325">
        <ele>140.7</ele>
        <time>2022-09-22T12:37:34Z</time>
      </trkpt>
      <trkpt lat="49.00755" lon="1.85331">
        <ele>140.5</ele>
        <time>2022-09-22T12:37:38Z</time>
      </trkpt>
      <trkpt lat="49.00751" lon="1.85336">
        <ele>140.2</ele>
        <time>2022-09-22T12:37:43Z</time>
      </trkpt>
      <trkpt lat="49.00747" lon="1.85342">
        <ele>139.7</ele>
        <time>2022-09-22T12:37:48Z</time>
      </trkpt>
      <trkpt lat="49.00742" lon="1.85346">
        <ele>139.7</ele>
        <time>2022-09-22T12:37:53Z</time>
      </trkpt>
      <trkpt lat="49.00738" lon="1.85351">
        <ele>139.4</ele>
        <time>2022-09-22T12:37:57Z</time>
      </trkpt>
      <trkpt lat="49.00734" lon="1.85356">
        <ele>139.6</ele>
        <time>2022-09-22T12:38:01Z</time>
      </trkpt>
      <trkpt lat="49.00729" lon="1.8536">
        <ele>139.5</ele>
        <time>2022-09-22T12:38:06Z</time>
      </trkpt>
      <trkpt lat="49.00725" lon="1.85364">
        <ele>139.9</ele>
        <time>2022-09-22T12:38:10Z</time>
      </trkpt>
      <trkpt lat="49.0072" lon="1.85369">
        <ele>140</ele>
        <time>2022-09-22T12:38:14Z</time>
      </trkpt>
      <trkpt lat="49.00715" lon="1.85374">
        <ele>139.7</ele>
        <time>2022-09-22T12:38:19Z</time>
      </trkpt>
      <trkpt lat="49.00711" lon="1.8538">
        <ele>140.4</ele>
        <time>2022-09-22T12:38:23Z</time>
      </trkpt>
      <trkpt lat="49.00708" lon="1.85384">
        <ele>141.3</ele>
        <time>2022-09-22T12:38:27Z</time>
      </trkpt>
      <trkpt lat="49.00704" lon="1.8539">
        <ele>142.2</ele>
        <time>2022-09-22T12:38:31Z</time>
      </trkpt>
      <trkpt lat="49.00699" lon="1.85394">
        <ele>142.1</ele>
        <time>2022-09-22T12:38:35Z</time>
      </trkpt>
      <trkpt lat="49.00694" lon="1.85399">
        <ele>142</ele>
        <time>2022-09-22T12:38:39Z</time>
      </trkpt>
      <trkpt lat="49.0069" lon="1.85402">
        <ele>142.1</ele>
        <time>2022-09-22T12:38:43Z</time>
      </trkpt>
      <trkpt lat="49.00687" lon="1.85409">
        <ele>142.1</ele>
        <time>2022-09-22T12:38:51Z</time>
      </trkpt>
      <trkpt lat="49.00683" lon="1.85412">
        <ele>142.3</ele>
        <time>2022-09-22T12:38:54Z</time>
      </trkpt>
      <trkpt lat="49.00678" lon="1.85415">
        <ele>142.4</ele>
        <time>2022-09-22T12:38:59Z</time>
      </trkpt>
      <trkpt lat="49.00674" lon="1.85418">
        <ele>142.1</ele>
        <time>2022-09-22T12:39:04Z</time>
      </trkpt>
      <trkpt lat="49.00668" lon="1.85421">
        <ele>141.8</ele>
        <time>2022-09-22T12:39:09Z</time>
      </trkpt>
      <trkpt lat="49.00664" lon="1.85423">
        <ele>141.4</ele>
        <time>2022-09-22T12:39:13Z</time>
      </trkpt>
      <trkpt lat="49.00658" lon="1.85425">
        <ele>141.1</ele>
        <time>2022-09-22T12:39:18Z</time>
      </trkpt>
      <trkpt lat="49.00653" lon="1.85428">
        <ele>141</ele>
        <time>2022-09-22T12:39:23Z</time>
      </trkpt>
      <trkpt lat="49.00649" lon="1.85433">
        <ele>140.5</ele>
        <time>2022-09-22T12:39:27Z</time>
      </trkpt>
      <trkpt lat="49.00645" lon="1.85439">
        <ele>140.2</ele>
        <time>2022-09-22T12:39:31Z</time>
      </trkpt>
      <trkpt lat="49.0064" lon="1.85443">
        <ele>139.6</ele>
        <time>2022-09-22T12:39:35Z</time>
      </trkpt>
      <trkpt lat="49.00636" lon="1.85445">
        <ele>139.2</ele>
        <time>2022-09-22T12:39:38Z</time>
      </trkpt>
      <trkpt lat="49.0063" lon="1.85447">
        <ele>139.1</ele>
        <time>2022-09-22T12:39:42Z</time>
      </trkpt>
      <trkpt lat="49.00625" lon="1.85451">
        <ele>139</ele>
        <time>2022-09-22T12:39:46Z</time>
      </trkpt>
      <trkpt lat="49.0062" lon="1.85455">
        <ele>139</ele>
        <time>2022-09-22T12:39:50Z</time>
      </trkpt>
      <trkpt lat="49.00615" lon="1.85459">
        <ele>139</ele>
        <time>2022-09-22T12:39:54Z</time>
      </trkpt>
      <trkpt lat="49.0061" lon="1.85464">
        <ele>139.2</ele>
        <time>2022-09-22T12:39:58Z</time>
      </trkpt>
      <trkpt lat="49.00605" lon="1.85468">
        <ele>139.4</ele>
        <time>2022-09-22T12:40:02Z</time>
      </trkpt>
      <trkpt lat="49.006" lon="1.85472">
        <ele>139.4</ele>
        <time>2022-09-22T12:40:07Z</time>
      </trkpt>
      <trkpt lat="49.00596" lon="1.85475">
        <ele>139.7</ele>
        <time>2022-09-22T12:40:10Z</time>
      </trkpt>
      <trkpt lat="49.00591" lon="1.85479">
        <ele>140</ele>
        <time>2022-09-22T12:40:15Z</time>
      </trkpt>
      <trkpt lat="49.00587" lon="1.85482">
        <ele>140</ele>
        <time>2022-09-22T12:40:19Z</time>
      </trkpt>
      <trkpt lat="49.00582" lon="1.85486">
        <ele>140.2</ele>
        <time>2022-09-22T12:40:23Z</time>
      </trkpt>
      <trkpt lat="49.00577" lon="1.85492">
        <ele>140.5</ele>
        <time>2022-09-22T12:40:29Z</time>
      </trkpt>
      <trkpt lat="49.00573" lon="1.85496">
        <ele>141</ele>
        <time>2022-09-22T12:40:32Z</time>
      </trkpt>
      <trkpt lat="49.00567" lon="1.85501">
        <ele>141.2</ele>
        <time>2022-09-22T12:40:36Z</time>
      </trkpt>
      <trkpt lat="49.00561" lon="1.85506">
        <ele>142.1</ele>
        <time>2022-09-22T12:40:42Z</time>
      </trkpt>
      <trkpt lat="49.00555" lon="1.8551">
        <ele>142.1</ele>
        <time>2022-09-22T12:40:47Z</time>
      </trkpt>
      <trkpt lat="49.0055" lon="1.85513">
        <ele>142.3</ele>
        <time>2022-09-22T12:40:52Z</time>
      </trkpt>
      <trkpt lat="49.00546" lon="1.85519">
        <ele>142.8</ele>
        <time>2022-09-22T12:40:57Z</time>
      </trkpt>
      <trkpt lat="49.00542" lon="1.85523">
        <ele>142.8</ele>
        <time>2022-09-22T12:41:01Z</time>
      </trkpt>
      <trkpt lat="49.00537" lon="1.85527">
        <ele>142.8</ele>
        <time>2022-09-22T12:41:05Z</time>
      </trkpt>
      <trkpt lat="49.00533" lon="1.8553">
        <ele>142.7</ele>
        <time>2022-09-22T12:41:09Z</time>
      </trkpt>
      <trkpt lat="49.00529" lon="1.85535">
        <ele>142.8</ele>
        <time>2022-09-22T12:41:12Z</time>
      </trkpt>
      <trkpt lat="49.00524" lon="1.85542">
        <ele>142.4</ele>
        <time>2022-09-22T12:41:17Z</time>
      </trkpt>
      <trkpt lat="49.00523" lon="1.85549">
        <ele>141.9</ele>
        <time>2022-09-22T12:41:22Z</time>
      </trkpt>
      <trkpt lat="49.00519" lon="1.85553">
        <ele>141.6</ele>
        <time>2022-09-22T12:41:28Z</time>
      </trkpt>
      <trkpt lat="49.00513" lon="1.85556">
        <ele>140.9</ele>
        <time>2022-09-22T12:41:32Z</time>
      </trkpt>
      <trkpt lat="49.00508" lon="1.85558">
        <ele>140.6</ele>
        <time>2022-09-22T12:41:37Z</time>
      </trkpt>
      <trkpt lat="49.00504" lon="1.85563">
        <ele>140.3</ele>
        <time>2022-09-22T12:41:42Z</time>
      </trkpt>
      <trkpt lat="49.005" lon="1.85568">
        <ele>139.8</ele>
        <time>2022-09-22T12:41:46Z</time>
      </trkpt>
      <trkpt lat="49.00495" lon="1.85573">
        <ele>139.6</ele>
        <time>2022-09-22T12:41:51Z</time>
      </trkpt>
      <trkpt lat="49.00491" lon="1.85576">
        <ele>139.2</ele>
        <time>2022-09-22T12:41:54Z</time>
      </trkpt>
      <trkpt lat="49.00488" lon="1.85581">
        <ele>139.1</ele>
        <time>2022-09-22T12:41:58Z</time>
      </trkpt>
      <trkpt lat="49.00482" lon="1.85588">
        <ele>138.8</ele>
        <time>2022-09-22T12:42:03Z</time>
      </trkpt>
      <trkpt lat="49.00478" lon="1.85593">
        <ele>138.2</ele>
        <time>2022-09-22T12:42:07Z</time>
      </trkpt>
      <trkpt lat="49.00472" lon="1.85598">
        <ele>137.6</ele>
        <time>2022-09-22T12:42:12Z</time>
      </trkpt>
      <trkpt lat="49.00467" lon="1.85603">
        <ele>137.3</ele>
        <time>2022-09-22T12:42:17Z</time>
      </trkpt>
      <trkpt lat="49.00463" lon="1.85609">
        <ele>137.1</ele>
        <time>2022-09-22T12:42:22Z</time>
      </trkpt>
      <trkpt lat="49.00459" lon="1.85613">
        <ele>136.8</ele>
        <time>2022-09-22T12:42:26Z</time>
      </trkpt>
      <trkpt lat="49.00455" lon="1.85618">
        <ele>136.7</ele>
        <time>2022-09-22T12:42:30Z</time>
      </trkpt>
      <trkpt lat="49.00452" lon="1.85622">
        <ele>136.7</ele>
        <time>2022-09-22T12:42:33Z</time>
      </trkpt>
      <trkpt lat="49.00447" lon="1.85627">
        <ele>136.5</ele>
        <time>2022-09-22T12:42:38Z</time>
      </trkpt>
      <trkpt lat="49.00443" lon="1.85634">
        <ele>136.3</ele>
        <time>2022-09-22T12:42:42Z</time>
      </trkpt>
      <trkpt lat="49.0044" lon="1.85639">
        <ele>135.9</ele>
        <time>2022-09-22T12:42:47Z</time>
      </trkpt>
      <trkpt lat="49.00436" lon="1.85644">
        <ele>135.5</ele>
        <time>2022-09-22T12:42:52Z</time>
      </trkpt>
      <trkpt lat="49.00433" lon="1.8565">
        <ele>135.3</ele>
        <time>2022-09-22T12:42:56Z</time>
      </trkpt>
      <trkpt lat="49.00429" lon="1.85656">
        <ele>135.4</ele>
        <time>2022-09-22T12:43:00Z</time>
      </trkpt>
      <trkpt lat="49.00426" lon="1.85661">
        <ele>135.7</ele>
        <time>2022-09-22T12:43:04Z</time>
      </trkpt>
      <trkpt lat="49.00422" lon="1.85666">
        <ele>135.7</ele>
        <time>2022-09-22T12:43:09Z</time>
      </trkpt>
      <trkpt lat="49.00419" lon="1.85672">
        <ele>135.7</ele>
        <time>2022-09-22T12:43:12Z</time>
      </trkpt>
      <trkpt lat="49.00415" lon="1.85679">
        <ele>135.6</ele>
        <time>2022-09-22T12:43:18Z</time>
      </trkpt>
      <trkpt lat="49.0041" lon="1.85683">
        <ele>136</ele>
        <time>2022-09-22T12:43:22Z</time>
      </trkpt>
      <trkpt lat="49.00404" lon="1.85688">
        <ele>136.6</ele>
        <time>2022-09-22T12:43:27Z</time>
      </trkpt>
      <trkpt lat="49.00399" lon="1.85693">
        <ele>138.1</ele>
        <time>2022-09-22T12:43:32Z</time>
      </trkpt>
      <trkpt lat="49.00395" lon="1.85697">
        <ele>138.6</ele>
        <time>2022-09-22T12:43:37Z</time>
      </trkpt>
      <trkpt lat="49.0039" lon="1.85701">
        <ele>138.8</ele>
        <time>2022-09-22T12:43:41Z</time>
      </trkpt>
      <trkpt lat="49.00386" lon="1.85706">
        <ele>139.6</ele>
        <time>2022-09-22T12:43:45Z</time>
      </trkpt>
      <trkpt lat="49.00383" lon="1.85711">
        <ele>139.8</ele>
        <time>2022-09-22T12:43:49Z</time>
      </trkpt>
      <trkpt lat="49.0038" lon="1.85717">
        <ele>139.9</ele>
        <time>2022-09-22T12:43:52Z</time>
      </trkpt>
      <trkpt lat="49.00376" lon="1.85721">
        <ele>139.9</ele>
        <time>2022-09-22T12:43:56Z</time>
      </trkpt>
      <trkpt lat="49.00372" lon="1.85727">
        <ele>139.6</ele>
        <time>2022-09-22T12:44:00Z</time>
      </trkpt>
      <trkpt lat="49.00368" lon="1.85732">
        <ele>139.7</ele>
        <time>2022-09-22T12:44:04Z</time>
      </trkpt>
      <trkpt lat="49.00363" lon="1.85735">
        <ele>139.2</ele>
        <time>2022-09-22T12:44:08Z</time>
      </trkpt>
      <trkpt lat="49.00358" lon="1.85739">
        <ele>139.3</ele>
        <time>2022-09-22T12:44:13Z</time>
      </trkpt>
      <trkpt lat="49.00353" lon="1.85746">
        <ele>139.2</ele>
        <time>2022-09-22T12:44:17Z</time>
      </trkpt>
      <trkpt lat="49.00347" lon="1.8575">
        <ele>139.3</ele>
        <time>2022-09-22T12:44:22Z</time>
      </trkpt>
      <trkpt lat="49.00341" lon="1.85756">
        <ele>139.8</ele>
        <time>2022-09-22T12:44:27Z</time>
      </trkpt>
      <trkpt lat="49.00338" lon="1.8576">
        <ele>139.6</ele>
        <time>2022-09-22T12:44:32Z</time>
      </trkpt>
      <trkpt lat="49.00333" lon="1.85765">
        <ele>139.8</ele>
        <time>2022-09-22T12:44:36Z</time>
      </trkpt>
      <trkpt lat="49.00329" lon="1.85771">
        <ele>140.9</ele>
        <time>2022-09-22T12:44:41Z</time>
      </trkpt>
      <trkpt lat="49.00324" lon="1.85776">
        <ele>141.9</ele>
        <time>2022-09-22T12:44:45Z</time>
      </trkpt>
      <trkpt lat="49.00321" lon="1.85782">
        <ele>143</ele>
        <time>2022-09-22T12:44:49Z</time>
      </trkpt>
      <trkpt lat="49.00318" lon="1.85787">
        <ele>145</ele>
        <time>2022-09-22T12:44:55Z</time>
      </trkpt>
      <trkpt lat="49.00313" lon="1.85791">
        <ele>144.8</ele>
        <time>2022-09-22T12:45:00Z</time>
      </trkpt>
      <trkpt lat="49.00308" lon="1.85794">
        <ele>146.3</ele>
        <time>2022-09-22T12:45:04Z</time>
      </trkpt>
      <trkpt lat="49.00303" lon="1.85797">
        <ele>146.4</ele>
        <time>2022-09-22T12:45:08Z</time>
      </trkpt>
      <trkpt lat="49.00298" lon="1.85798">
        <ele>147.3</ele>
        <time>2022-09-22T12:45:12Z</time>
      </trkpt>
      <trkpt lat="49.00294" lon="1.85802">
        <ele>147</ele>
        <time>2022-09-22T12:45:16Z</time>
      </trkpt>
      <trkpt lat="49.0029" lon="1.85806">
        <ele>147</ele>
        <time>2022-09-22T12:45:21Z</time>
      </trkpt>
      <trkpt lat="49.00285" lon="1.85811">
        <ele>147.2</ele>
        <time>2022-09-22T12:45:25Z</time>
      </trkpt>
      <trkpt lat="49.00281" lon="1.85815">
        <ele>147.3</ele>
        <time>2022-09-22T12:45:30Z</time>
      </trkpt>
      <trkpt lat="49.00276" lon="1.85818">
        <ele>145.9</ele>
        <time>2022-09-22T12:45:34Z</time>
      </trkpt>
      <trkpt lat="49.00272" lon="1.85822">
        <ele>145.5</ele>
        <time>2022-09-22T12:45:38Z</time>
      </trkpt>
      <trkpt lat="49.00267" lon="1.85826">
        <ele>145.2</ele>
        <time>2022-09-22T12:45:42Z</time>
      </trkpt>
      <trkpt lat="49.00264" lon="1.8583">
        <ele>144.8</ele>
        <time>2022-09-22T12:45:46Z</time>
      </trkpt>
      <trkpt lat="49.0026" lon="1.85836">
        <ele>144.4</ele>
        <time>2022-09-22T12:45:50Z</time>
      </trkpt>
      <trkpt lat="49.00257" lon="1.8584">
        <ele>144</ele>
        <time>2022-09-22T12:45:54Z</time>
      </trkpt>
      <trkpt lat="49.00252" lon="1.85844">
        <ele>143.5</ele>
        <time>2022-09-22T12:45:59Z</time>
      </trkpt>
      <trkpt lat="49.00246" lon="1.85848">
        <ele>143.2</ele>
        <time>2022-09-22T12:46:04Z</time>
      </trkpt>
      <trkpt lat="49.00241" lon="1.85851">
        <ele>142.7</ele>
        <time>2022-09-22T12:46:08Z</time>
      </trkpt>
      <trkpt lat="49.00237" lon="1.85854">
        <ele>142.5</ele>
        <time>2022-09-22T12:46:12Z</time>
      </trkpt>
      <trkpt lat="49.00233" lon="1.85857">
        <ele>142.3</ele>
        <time>2022-09-22T12:46:16Z</time>
      </trkpt>
      <trkpt lat="49.00228" lon="1.85859">
        <ele>142.1</ele>
        <time>2022-09-22T12:46:20Z</time>
      </trkpt>
      <trkpt lat="49.00223" lon="1.85861">
        <ele>141.7</ele>
        <time>2022-09-22T12:46:24Z</time>
      </trkpt>
      <trkpt lat="49.00218" lon="1.85863">
        <ele>141.6</ele>
        <time>2022-09-22T12:46:28Z</time>
      </trkpt>
      <trkpt lat="49.00213" lon="1.85865">
        <ele>141.2</ele>
        <time>2022-09-22T12:46:32Z</time>
      </trkpt>
      <trkpt lat="49.00209" lon="1.85869">
        <ele>140.5</ele>
        <time>2022-09-22T12:46:37Z</time>
      </trkpt>
      <trkpt lat="49.00204" lon="1.85872">
        <ele>140.4</ele>
        <time>2022-09-22T12:46:41Z</time>
      </trkpt>
      <trkpt lat="49.00198" lon="1.85873">
        <ele>140.2</ele>
        <time>2022-09-22T12:46:46Z</time>
      </trkpt>
      <trkpt lat="49.00193" lon="1.85872">
        <ele>140.2</ele>
        <time>2022-09-22T12:46:51Z</time>
      </trkpt>
      <trkpt lat="49.00187" lon="1.85872">
        <ele>140.1</ele>
        <time>2022-09-22T12:46:56Z</time>
      </trkpt>
      <trkpt lat="49.00182" lon="1.85874">
        <ele>140.1</ele>
        <time>2022-09-22T12:47:00Z</time>
      </trkpt>
      <trkpt lat="49.00178" lon="1.85877">
        <ele>140.2</ele>
        <time>2022-09-22T12:47:03Z</time>
      </trkpt>
      <trkpt lat="49.00173" lon="1.8588">
        <ele>140.1</ele>
        <time>2022-09-22T12:47:07Z</time>
      </trkpt>
      <trkpt lat="49.00168" lon="1.85882">
        <ele>140.5</ele>
        <time>2022-09-22T12:47:11Z</time>
      </trkpt>
      <trkpt lat="49.00163" lon="1.85883">
        <ele>140.6</ele>
        <time>2022-09-22T12:47:15Z</time>
      </trkpt>
      <trkpt lat="49.00158" lon="1.85879">
        <ele>140.5</ele>
        <time>2022-09-22T12:47:21Z</time>
      </trkpt>
      <trkpt lat="49.00153" lon="1.85879">
        <ele>140.9</ele>
        <time>2022-09-22T12:47:25Z</time>
      </trkpt>
      <trkpt lat="49.00149" lon="1.85879">
        <ele>141.4</ele>
        <time>2022-09-22T12:47:29Z</time>
      </trkpt>
      <trkpt lat="49.00144" lon="1.8588">
        <ele>141.5</ele>
        <time>2022-09-22T12:47:33Z</time>
      </trkpt>
      <trkpt lat="49.00139" lon="1.85885">
        <ele>141.8</ele>
        <time>2022-09-22T12:47:39Z</time>
      </trkpt>
      <trkpt lat="49.00134" lon="1.85888">
        <ele>141.6</ele>
        <time>2022-09-22T12:47:46Z</time>
      </trkpt>
      <trkpt lat="49.00129" lon="1.8589">
        <ele>141.5</ele>
        <time>2022-09-22T12:47:51Z</time>
      </trkpt>
      <trkpt lat="49.00124" lon="1.8589">
        <ele>141.4</ele>
        <time>2022-09-22T12:47:55Z</time>
      </trkpt>
      <trkpt lat="49.0012" lon="1.8589">
        <ele>141.3</ele>
        <time>2022-09-22T12:47:59Z</time>
      </trkpt>
      <trkpt lat="49.00115" lon="1.8589">
        <ele>141.2</ele>
        <time>2022-09-22T12:48:03Z</time>
      </trkpt>
      <trkpt lat="49.0011" lon="1.8589">
        <ele>141.3</ele>
        <time>2022-09-22T12:48:07Z</time>
      </trkpt>
      <trkpt lat="49.00105" lon="1.85892">
        <ele>141</ele>
        <time>2022-09-22T12:48:12Z</time>
      </trkpt>
      <trkpt lat="49.001" lon="1.85892">
        <ele>140.7</ele>
        <time>2022-09-22T12:48:16Z</time>
      </trkpt>
      <trkpt lat="49.00095" lon="1.85891">
        <ele>140.3</ele>
        <time>2022-09-22T12:48:20Z</time>
      </trkpt>
      <trkpt lat="49.00089" lon="1.85891">
        <ele>139.7</ele>
        <time>2022-09-22T12:48:24Z</time>
      </trkpt>
      <trkpt lat="49.00084" lon="1.85892">
        <ele>139.7</ele>
        <time>2022-09-22T12:48:29Z</time>
      </trkpt>
      <trkpt lat="49.00079" lon="1.85893">
        <ele>139.6</ele>
        <time>2022-09-22T12:48:33Z</time>
      </trkpt>
      <trkpt lat="49.00073" lon="1.85894">
        <ele>139.5</ele>
        <time>2022-09-22T12:48:38Z</time>
      </trkpt>
      <trkpt lat="49.00069" lon="1.85894">
        <ele>139.4</ele>
        <time>2022-09-22T12:48:41Z</time>
      </trkpt>
      <trkpt lat="49.00064" lon="1.85895">
        <ele>139.5</ele>
        <time>2022-09-22T12:48:44Z</time>
      </trkpt>
      <trkpt lat="49.00058" lon="1.85895">
        <ele>139.5</ele>
        <time>2022-09-22T12:48:49Z</time>
      </trkpt>
      <trkpt lat="49.00052" lon="1.85893">
        <ele>139.5</ele>
        <time>2022-09-22T12:48:53Z</time>
      </trkpt>
      <trkpt lat="49.00047" lon="1.85893">
        <ele>139.9</ele>
        <time>2022-09-22T12:48:57Z</time>
      </trkpt>
      <trkpt lat="49.00042" lon="1.85895">
        <ele>140.4</ele>
        <time>2022-09-22T12:49:01Z</time>
      </trkpt>
      <trkpt lat="49.00037" lon="1.85896">
        <ele>140.9</ele>
        <time>2022-09-22T12:49:06Z</time>
      </trkpt>
      <trkpt lat="49.00032" lon="1.85896">
        <ele>141.7</ele>
        <time>2022-09-22T12:49:10Z</time>
      </trkpt>
      <trkpt lat="49.00027" lon="1.85895">
        <ele>143</ele>
        <time>2022-09-22T12:49:14Z</time>
      </trkpt>
      <trkpt lat="49.00022" lon="1.85895">
        <ele>143.4</ele>
        <time>2022-09-22T12:49:18Z</time>
      </trkpt>
      <trkpt lat="49.00016" lon="1.85895">
        <ele>144.4</ele>
        <time>2022-09-22T12:49:22Z</time>
      </trkpt>
      <trkpt lat="49.00011" lon="1.85896">
        <ele>144</ele>
        <time>2022-09-22T12:49:27Z</time>
      </trkpt>
      <trkpt lat="49.00006" lon="1.85895">
        <ele>144.3</ele>
        <time>2022-09-22T12:49:31Z</time>
      </trkpt>
      <trkpt lat="49.00001" lon="1.85896">
        <ele>144.4</ele>
        <time>2022-09-22T12:49:35Z</time>
      </trkpt>
      <trkpt lat="48.99997" lon="1.85897">
        <ele>144.4</ele>
        <time>2022-09-22T12:49:39Z</time>
      </trkpt>
      <trkpt lat="48.99992" lon="1.85899">
        <ele>144.3</ele>
        <time>2022-09-22T12:49:43Z</time>
      </trkpt>
      <trkpt lat="48.99986" lon="1.85902">
        <ele>144.1</ele>
        <time>2022-09-22T12:49:47Z</time>
      </trkpt>
      <trkpt lat="48.99981" lon="1.85905">
        <ele>143.9</ele>
        <time>2022-09-22T12:49:51Z</time>
      </trkpt>
      <trkpt lat="48.99976" lon="1.85907">
        <ele>143.9</ele>
        <time>2022-09-22T12:49:55Z</time>
      </trkpt>
      <trkpt lat="48.99971" lon="1.85908">
        <ele>143.9</ele>
        <time>2022-09-22T12:49:59Z</time>
      </trkpt>
      <trkpt lat="48.99966" lon="1.8591">
        <ele>143.8</ele>
        <time>2022-09-22T12:50:03Z</time>
      </trkpt>
      <trkpt lat="48.99961" lon="1.85913">
        <ele>143.7</ele>
        <time>2022-09-22T12:50:07Z</time>
      </trkpt>
      <trkpt lat="48.99956" lon="1.85916">
        <ele>143.6</ele>
        <time>2022-09-22T12:50:11Z</time>
      </trkpt>
      <trkpt lat="48.99951" lon="1.8592">
        <ele>143.9</ele>
        <time>2022-09-22T12:50:15Z</time>
      </trkpt>
      <trkpt lat="48.99946" lon="1.85924">
        <ele>144.1</ele>
        <time>2022-09-22T12:50:20Z</time>
      </trkpt>
      <trkpt lat="48.99945" lon="1.85931">
        <ele>144</ele>
        <time>2022-09-22T12:50:24Z</time>
      </trkpt>
      <trkpt lat="48.99944" lon="1.85938">
        <ele>144.2</ele>
        <time>2022-09-22T12:50:29Z</time>
      </trkpt>
      <trkpt lat="48.99938" lon="1.85939">
        <ele>144.7</ele>
        <time>2022-09-22T12:50:32Z</time>
      </trkpt>
      <trkpt lat="48.99933" lon="1.85938">
        <ele>145.6</ele>
        <time>2022-09-22T12:50:36Z</time>
      </trkpt>
      <trkpt lat="48.99928" lon="1.85936">
        <ele>145.8</ele>
        <time>2022-09-22T12:50:39Z</time>
      </trkpt>
      <trkpt lat="48.99924" lon="1.85934">
        <ele>146.3</ele>
        <time>2022-09-22T12:50:56Z</time>
      </trkpt>
      <trkpt lat="48.99919" lon="1.85934">
        <ele>147.6</ele>
        <time>2022-09-22T12:51:00Z</time>
      </trkpt>
      <trkpt lat="48.99913" lon="1.85934">
        <ele>147.7</ele>
        <time>2022-09-22T12:51:05Z</time>
      </trkpt>
      <trkpt lat="48.99908" lon="1.85936">
        <ele>148.1</ele>
        <time>2022-09-22T12:51:09Z</time>
      </trkpt>
      <trkpt lat="48.99902" lon="1.85934">
        <ele>148.7</ele>
        <time>2022-09-22T12:51:15Z</time>
      </trkpt>
      <trkpt lat="48.99897" lon="1.85933">
        <ele>148.7</ele>
        <time>2022-09-22T12:51:19Z</time>
      </trkpt>
      <trkpt lat="48.99892" lon="1.85935">
        <ele>148.7</ele>
        <time>2022-09-22T12:51:24Z</time>
      </trkpt>
      <trkpt lat="48.99887" lon="1.85935">
        <ele>148.5</ele>
        <time>2022-09-22T12:51:29Z</time>
      </trkpt>
      <trkpt lat="48.99882" lon="1.85934">
        <ele>148.3</ele>
        <time>2022-09-22T12:51:34Z</time>
      </trkpt>
      <trkpt lat="48.99877" lon="1.85935">
        <ele>148.3</ele>
        <time>2022-09-22T12:51:38Z</time>
      </trkpt>
      <trkpt lat="48.99872" lon="1.85938">
        <ele>147.6</ele>
        <time>2022-09-22T12:51:42Z</time>
      </trkpt>
      <trkpt lat="48.99868" lon="1.85942">
        <ele>146.8</ele>
        <time>2022-09-22T12:51:46Z</time>
      </trkpt>
      <trkpt lat="48.99864" lon="1.85946">
        <ele>146</ele>
        <time>2022-09-22T12:51:51Z</time>
      </trkpt>
      <trkpt lat="48.99858" lon="1.85945">
        <ele>145</ele>
        <time>2022-09-22T12:51:55Z</time>
      </trkpt>
      <trkpt lat="48.99853" lon="1.85945">
        <ele>142.3</ele>
        <time>2022-09-22T12:51:59Z</time>
      </trkpt>
      <trkpt lat="48.99848" lon="1.85945">
        <ele>141.2</ele>
        <time>2022-09-22T12:52:03Z</time>
      </trkpt>
      <trkpt lat="48.99843" lon="1.85946">
        <ele>140.1</ele>
        <time>2022-09-22T12:52:06Z</time>
      </trkpt>
      <trkpt lat="48.99838" lon="1.85947">
        <ele>139.7</ele>
        <time>2022-09-22T12:52:10Z</time>
      </trkpt>
      <trkpt lat="48.99834" lon="1.85949">
        <ele>138.5</ele>
        <time>2022-09-22T12:52:14Z</time>
      </trkpt>
      <trkpt lat="48.99828" lon="1.85951">
        <ele>138.2</ele>
        <time>2022-09-22T12:52:18Z</time>
      </trkpt>
      <trkpt lat="48.99824" lon="1.85953">
        <ele>138</ele>
        <time>2022-09-22T12:52:22Z</time>
      </trkpt>
      <trkpt lat="48.99819" lon="1.85954">
        <ele>137.1</ele>
        <time>2022-09-22T12:52:26Z</time>
      </trkpt>
      <trkpt lat="48.99813" lon="1.85956">
        <ele>136.9</ele>
        <time>2022-09-22T12:52:31Z</time>
      </trkpt>
      <trkpt lat="48.99808" lon="1.85958">
        <ele>136.2</ele>
        <time>2022-09-22T12:52:36Z</time>
      </trkpt>
      <trkpt lat="48.99803" lon="1.85959">
        <ele>136.1</ele>
        <time>2022-09-22T12:52:40Z</time>
      </trkpt>
      <trkpt lat="48.99798" lon="1.85962">
        <ele>136.1</ele>
        <time>2022-09-22T12:53:09Z</time>
      </trkpt>
      <trkpt lat="48.99793" lon="1.85964">
        <ele>135.9</ele>
        <time>2022-09-22T12:53:12Z</time>
      </trkpt>
      <trkpt lat="48.99789" lon="1.85967">
        <ele>135.8</ele>
        <time>2022-09-22T12:53:16Z</time>
      </trkpt>
      <trkpt lat="48.99784" lon="1.8597">
        <ele>135.5</ele>
        <time>2022-09-22T12:53:22Z</time>
      </trkpt>
      <trkpt lat="48.99779" lon="1.85972">
        <ele>135.2</ele>
        <time>2022-09-22T12:53:27Z</time>
      </trkpt>
      <trkpt lat="48.99773" lon="1.85972">
        <ele>134.5</ele>
        <time>2022-09-22T12:53:32Z</time>
      </trkpt>
      <trkpt lat="48.99769" lon="1.85974">
        <ele>133.9</ele>
        <time>2022-09-22T12:53:35Z</time>
      </trkpt>
      <trkpt lat="48.99764" lon="1.85975">
        <ele>133.2</ele>
        <time>2022-09-22T12:53:39Z</time>
      </trkpt>
      <trkpt lat="48.99759" lon="1.85977">
        <ele>132.5</ele>
        <time>2022-09-22T12:53:45Z</time>
      </trkpt>
      <trkpt lat="48.99755" lon="1.85973">
        <ele>131.3</ele>
        <time>2022-09-22T12:53:50Z</time>
      </trkpt>
      <trkpt lat="48.99753" lon="1.85966">
        <ele>131.4</ele>
        <time>2022-09-22T12:53:54Z</time>
      </trkpt>
      <trkpt lat="48.9975" lon="1.85957">
        <ele>130.8</ele>
        <time>2022-09-22T12:53:59Z</time>
      </trkpt>
      <trkpt lat="48.99747" lon="1.8595">
        <ele>130.4</ele>
        <time>2022-09-22T12:54:03Z</time>
      </trkpt>
      <trkpt lat="48.99744" lon="1.85943">
        <ele>130.3</ele>
        <time>2022-09-22T12:54:07Z</time>
      </trkpt>
      <trkpt lat="48.99742" lon="1.85935">
        <ele>129.6</ele>
        <time>2022-09-22T12:54:11Z</time>
      </trkpt>
      <trkpt lat="48.9974" lon="1.85928">
        <ele>129.7</ele>
        <time>2022-09-22T12:54:15Z</time>
      </trkpt>
      <trkpt lat="48.99739" lon="1.8592">
        <ele>129.8</ele>
        <time>2022-09-22T12:54:20Z</time>
      </trkpt>
      <trkpt lat="48.9974" lon="1.85912">
        <ele>129.8</ele>
        <time>2022-09-22T12:54:24Z</time>
      </trkpt>
      <trkpt lat="48.9974" lon="1.85904">
        <ele>129.4</ele>
        <time>2022-09-22T12:54:28Z</time>
      </trkpt>
      <trkpt lat="48.99739" lon="1.85895">
        <ele>129.7</ele>
        <time>2022-09-22T12:54:33Z</time>
      </trkpt>
      <trkpt lat="48.99738" lon="1.85887">
        <ele>129.8</ele>
        <time>2022-09-22T12:54:37Z</time>
      </trkpt>
      <trkpt lat="48.99737" lon="1.85879">
        <ele>130.5</ele>
        <time>2022-09-22T12:54:41Z</time>
      </trkpt>
      <trkpt lat="48.99736" lon="1.85872">
        <ele>130.4</ele>
        <time>2022-09-22T12:54:45Z</time>
      </trkpt>
      <trkpt lat="48.99736" lon="1.85865">
        <ele>130.7</ele>
        <time>2022-09-22T12:54:49Z</time>
      </trkpt>
      <trkpt lat="48.99737" lon="1.85856">
        <ele>130.7</ele>
        <time>2022-09-22T12:54:54Z</time>
      </trkpt>
      <trkpt lat="48.99738" lon="1.85848">
        <ele>130.6</ele>
        <time>2022-09-22T12:54:58Z</time>
      </trkpt>
      <trkpt lat="48.99738" lon="1.85839">
        <ele>130.4</ele>
        <time>2022-09-22T12:55:03Z</time>
      </trkpt>
      <trkpt lat="48.99738" lon="1.85831">
        <ele>130.4</ele>
        <time>2022-09-22T12:55:07Z</time>
      </trkpt>
      <trkpt lat="48.99738" lon="1.85822">
        <ele>130.4</ele>
        <time>2022-09-22T12:55:11Z</time>
      </trkpt>
      <trkpt lat="48.99739" lon="1.85814">
        <ele>130.7</ele>
        <time>2022-09-22T12:55:15Z</time>
      </trkpt>
      <trkpt lat="48.99738" lon="1.85807">
        <ele>130.7</ele>
        <time>2022-09-22T12:55:22Z</time>
      </trkpt>
      <trkpt lat="48.99739" lon="1.85798">
        <ele>130.1</ele>
        <time>2022-09-22T12:55:26Z</time>
      </trkpt>
      <trkpt lat="48.9974" lon="1.85791">
        <ele>129.6</ele>
        <time>2022-09-22T12:55:29Z</time>
      </trkpt>
      <trkpt lat="48.99739" lon="1.85784">
        <ele>129.7</ele>
        <time>2022-09-22T12:55:33Z</time>
      </trkpt>
      <trkpt lat="48.99738" lon="1.85777">
        <ele>128.8</ele>
        <time>2022-09-22T12:55:37Z</time>
      </trkpt>
      <trkpt lat="48.99736" lon="1.8577">
        <ele>127.8</ele>
        <time>2022-09-22T12:55:42Z</time>
      </trkpt>
      <trkpt lat="48.99733" lon="1.85763">
        <ele>127.2</ele>
        <time>2022-09-22T12:55:46Z</time>
      </trkpt>
      <trkpt lat="48.99731" lon="1.85756">
        <ele>126.6</ele>
        <time>2022-09-22T12:55:51Z</time>
      </trkpt>
      <trkpt lat="48.99729" lon="1.85749">
        <ele>126.5</ele>
        <time>2022-09-22T12:55:55Z</time>
      </trkpt>
      <trkpt lat="48.99727" lon="1.8574">
        <ele>126.5</ele>
        <time>2022-09-22T12:56:00Z</time>
      </trkpt>
      <trkpt lat="48.99726" lon="1.85732">
        <ele>126.1</ele>
        <time>2022-09-22T12:56:04Z</time>
      </trkpt>
      <trkpt lat="48.99725" lon="1.85725">
        <ele>126.2</ele>
        <time>2022-09-22T12:56:08Z</time>
      </trkpt>
      <trkpt lat="48.99723" lon="1.85717">
        <ele>125.9</ele>
        <time>2022-09-22T12:56:13Z</time>
      </trkpt>
      <trkpt lat="48.99722" lon="1.8571">
        <ele>125.9</ele>
        <time>2022-09-22T12:56:17Z</time>
      </trkpt>
      <trkpt lat="48.9972" lon="1.85704">
        <ele>125.9</ele>
        <time>2022-09-22T12:56:21Z</time>
      </trkpt>
      <trkpt lat="48.99719" lon="1.85697">
        <ele>126.1</ele>
        <time>2022-09-22T12:56:25Z</time>
      </trkpt>
      <trkpt lat="48.99717" lon="1.85689">
        <ele>126.1</ele>
        <time>2022-09-22T12:56:29Z</time>
      </trkpt>
      <trkpt lat="48.99716" lon="1.8568">
        <ele>125.9</ele>
        <time>2022-09-22T12:56:33Z</time>
      </trkpt>
      <trkpt lat="48.99714" lon="1.85674">
        <ele>126.5</ele>
        <time>2022-09-22T12:56:37Z</time>
      </trkpt>
      <trkpt lat="48.99712" lon="1.85667">
        <ele>126.5</ele>
        <time>2022-09-22T12:56:41Z</time>
      </trkpt>
      <trkpt lat="48.99711" lon="1.8566">
        <ele>126.9</ele>
        <time>2022-09-22T12:56:45Z</time>
      </trkpt>
      <trkpt lat="48.99711" lon="1.85652">
        <ele>126.6</ele>
        <time>2022-09-22T12:56:49Z</time>
      </trkpt>
      <trkpt lat="48.9971" lon="1.85643">
        <ele>126.6</ele>
        <time>2022-09-22T12:56:53Z</time>
      </trkpt>
      <trkpt lat="48.99708" lon="1.85629">
        <ele>126.6</ele>
        <time>2022-09-22T12:56:59Z</time>
      </trkpt>
      <trkpt lat="48.99707" lon="1.85621">
        <ele>127.2</ele>
        <time>2022-09-22T12:57:03Z</time>
      </trkpt>
      <trkpt lat="48.99704" lon="1.85608">
        <ele>127.3</ele>
        <time>2022-09-22T12:57:12Z</time>
      </trkpt>
      <trkpt lat="48.99703" lon="1.856">
        <ele>127.3</ele>
        <time>2022-09-22T12:57:16Z</time>
      </trkpt>
      <trkpt lat="48.99702" lon="1.85592">
        <ele>127.3</ele>
        <time>2022-09-22T12:57:20Z</time>
      </trkpt>
      <trkpt lat="48.99702" lon="1.85584">
        <ele>127</ele>
        <time>2022-09-22T12:57:25Z</time>
      </trkpt>
      <trkpt lat="48.99703" lon="1.85577">
        <ele>126.9</ele>
        <time>2022-09-22T12:57:28Z</time>
      </trkpt>
      <trkpt lat="48.99704" lon="1.8557">
        <ele>126.4</ele>
        <time>2022-09-22T12:57:32Z</time>
      </trkpt>
      <trkpt lat="48.99704" lon="1.85563">
        <ele>126.4</ele>
        <time>2022-09-22T12:57:37Z</time>
      </trkpt>
      <trkpt lat="48.99703" lon="1.85556">
        <ele>126.4</ele>
        <time>2022-09-22T12:57:41Z</time>
      </trkpt>
      <trkpt lat="48.99701" lon="1.85548">
        <ele>125.9</ele>
        <time>2022-09-22T12:57:46Z</time>
      </trkpt>
      <trkpt lat="48.99701" lon="1.85541">
        <ele>125.2</ele>
        <time>2022-09-22T12:57:50Z</time>
      </trkpt>
      <trkpt lat="48.997" lon="1.85533">
        <ele>124.7</ele>
        <time>2022-09-22T12:57:54Z</time>
      </trkpt>
      <trkpt lat="48.997" lon="1.85526">
        <ele>125.1</ele>
        <time>2022-09-22T12:57:58Z</time>
      </trkpt>
      <trkpt lat="48.99701" lon="1.85518">
        <ele>124.6</ele>
        <time>2022-09-22T12:58:02Z</time>
      </trkpt>
      <trkpt lat="48.99702" lon="1.85509">
        <ele>123.9</ele>
        <time>2022-09-22T12:58:06Z</time>
      </trkpt>
      <trkpt lat="48.99703" lon="1.85501">
        <ele>123.4</ele>
        <time>2022-09-22T12:58:10Z</time>
      </trkpt>
      <trkpt lat="48.99703" lon="1.85494">
        <ele>123.2</ele>
        <time>2022-09-22T12:58:14Z</time>
      </trkpt>
      <trkpt lat="48.99703" lon="1.85486">
        <ele>122.6</ele>
        <time>2022-09-22T12:58:18Z</time>
      </trkpt>
      <trkpt lat="48.99702" lon="1.85477">
        <ele>122.1</ele>
        <time>2022-09-22T12:58:23Z</time>
      </trkpt>
      <trkpt lat="48.99701" lon="1.85469">
        <ele>121.7</ele>
        <time>2022-09-22T12:58:27Z</time>
      </trkpt>
      <trkpt lat="48.99699" lon="1.8546">
        <ele>121.1</ele>
        <time>2022-09-22T12:58:32Z</time>
      </trkpt>
      <trkpt lat="48.99699" lon="1.85453">
        <ele>120.8</ele>
        <time>2022-09-22T12:58:35Z</time>
      </trkpt>
      <trkpt lat="48.99698" lon="1.85444">
        <ele>120.4</ele>
        <time>2022-09-22T12:58:40Z</time>
      </trkpt>
      <trkpt lat="48.99696" lon="1.85436">
        <ele>120.4</ele>
        <time>2022-09-22T12:58:46Z</time>
      </trkpt>
      <trkpt lat="48.99694" lon="1.85429">
        <ele>120.6</ele>
        <time>2022-09-22T12:58:49Z</time>
      </trkpt>
      <trkpt lat="48.99692" lon="1.85421">
        <ele>120.5</ele>
        <time>2022-09-22T12:58:53Z</time>
      </trkpt>
      <trkpt lat="48.9969" lon="1.85414">
        <ele>120.4</ele>
        <time>2022-09-22T12:58:57Z</time>
      </trkpt>
      <trkpt lat="48.99688" lon="1.85408">
        <ele>120.5</ele>
        <time>2022-09-22T12:59:01Z</time>
      </trkpt>
      <trkpt lat="48.99687" lon="1.85401">
        <ele>120.3</ele>
        <time>2022-09-22T12:59:05Z</time>
      </trkpt>
      <trkpt lat="48.99686" lon="1.85394">
        <ele>119.7</ele>
        <time>2022-09-22T12:59:09Z</time>
      </trkpt>
      <trkpt lat="48.99685" lon="1.85386">
        <ele>119.3</ele>
        <time>2022-09-22T12:59:13Z</time>
      </trkpt>
      <trkpt lat="48.99684" lon="1.85379">
        <ele>118.6</ele>
        <time>2022-09-22T12:59:17Z</time>
      </trkpt>
      <trkpt lat="48.99683" lon="1.85372">
        <ele>118</ele>
        <time>2022-09-22T12:59:21Z</time>
      </trkpt>
      <trkpt lat="48.99681" lon="1.85364">
        <ele>116.7</ele>
        <time>2022-09-22T12:59:25Z</time>
      </trkpt>
      <trkpt lat="48.99679" lon="1.85357">
        <ele>115.2</ele>
        <time>2022-09-22T12:59:29Z</time>
      </trkpt>
      <trkpt lat="48.99677" lon="1.8535">
        <ele>114.3</ele>
        <time>2022-09-22T12:59:33Z</time>
      </trkpt>
      <trkpt lat="48.99676" lon="1.85343">
        <ele>113.6</ele>
        <time>2022-09-22T12:59:37Z</time>
      </trkpt>
      <trkpt lat="48.99674" lon="1.85336">
        <ele>113.3</ele>
        <time>2022-09-22T12:59:41Z</time>
      </trkpt>
      <trkpt lat="48.99672" lon="1.85328">
        <ele>113.1</ele>
        <time>2022-09-22T12:59:45Z</time>
      </trkpt>
      <trkpt lat="48.99669" lon="1.85321">
        <ele>112.3</ele>
        <time>2022-09-22T12:59:49Z</time>
      </trkpt>
      <trkpt lat="48.99667" lon="1.85314">
        <ele>111.8</ele>
        <time>2022-09-22T12:59:53Z</time>
      </trkpt>
      <trkpt lat="48.99666" lon="1.85308">
        <ele>111.8</ele>
        <time>2022-09-22T12:59:57Z</time>
      </trkpt>
      <trkpt lat="48.99664" lon="1.853">
        <ele>111.6</ele>
        <time>2022-09-22T13:00:02Z</time>
      </trkpt>
      <trkpt lat="48.99661" lon="1.85293">
        <ele>110.9</ele>
        <time>2022-09-22T13:00:06Z</time>
      </trkpt>
      <trkpt lat="48.99658" lon="1.85286">
        <ele>110.2</ele>
        <time>2022-09-22T13:00:11Z</time>
      </trkpt>
      <trkpt lat="48.99656" lon="1.8528">
        <ele>109.7</ele>
        <time>2022-09-22T13:00:14Z</time>
      </trkpt>
      <trkpt lat="48.99654" lon="1.85272">
        <ele>108.9</ele>
        <time>2022-09-22T13:00:19Z</time>
      </trkpt>
      <trkpt lat="48.99652" lon="1.85263">
        <ele>108.2</ele>
        <time>2022-09-22T13:00:23Z</time>
      </trkpt>
      <trkpt lat="48.99649" lon="1.85256">
        <ele>108.2</ele>
        <time>2022-09-22T13:00:28Z</time>
      </trkpt>
      <trkpt lat="48.99647" lon="1.85249">
        <ele>107.1</ele>
        <time>2022-09-22T13:00:32Z</time>
      </trkpt>
      <trkpt lat="48.99645" lon="1.85242">
        <ele>106.8</ele>
        <time>2022-09-22T13:00:36Z</time>
      </trkpt>
      <trkpt lat="48.99643" lon="1.85235">
        <ele>106.2</ele>
        <time>2022-09-22T13:00:40Z</time>
      </trkpt>
      <trkpt lat="48.9964" lon="1.85228">
        <ele>105.9</ele>
        <time>2022-09-22T13:00:44Z</time>
      </trkpt>
      <trkpt lat="48.99638" lon="1.85222">
        <ele>104.8</ele>
        <time>2022-09-22T13:00:48Z</time>
      </trkpt>
      <trkpt lat="48.99636" lon="1.85215">
        <ele>104.2</ele>
        <time>2022-09-22T13:00:53Z</time>
      </trkpt>
      <trkpt lat="48.99634" lon="1.85206">
        <ele>104.2</ele>
        <time>2022-09-22T13:00:58Z</time>
      </trkpt>
      <trkpt lat="48.99633" lon="1.85197">
        <ele>103.3</ele>
        <time>2022-09-22T13:01:03Z</time>
      </trkpt>
      <trkpt lat="48.99633" lon="1.8519">
        <ele>103</ele>
        <time>2022-09-22T13:01:08Z</time>
      </trkpt>
      <trkpt lat="48.99631" lon="1.85183">
        <ele>102.2</ele>
        <time>2022-09-22T13:01:12Z</time>
      </trkpt>
      <trkpt lat="48.99631" lon="1.85175">
        <ele>101.4</ele>
        <time>2022-09-22T13:01:18Z</time>
      </trkpt>
      <trkpt lat="48.99631" lon="1.85167">
        <ele>100.7</ele>
        <time>2022-09-22T13:01:23Z</time>
      </trkpt>
      <trkpt lat="48.99628" lon="1.85161">
        <ele>99.6</ele>
        <time>2022-09-22T13:02:33Z</time>
      </trkpt>
      <trkpt lat="48.99623" lon="1.85159">
        <ele>98.7</ele>
        <time>2022-09-22T13:02:37Z</time>
      </trkpt>
      <trkpt lat="48.99618" lon="1.85159">
        <ele>97.4</ele>
        <time>2022-09-22T13:02:42Z</time>
      </trkpt>
      <trkpt lat="48.99613" lon="1.85157">
        <ele>97.1</ele>
        <time>2022-09-22T13:02:46Z</time>
      </trkpt>
      <trkpt lat="48.99608" lon="1.85156">
        <ele>96.3</ele>
        <time>2022-09-22T13:02:51Z</time>
      </trkpt>
      <trkpt lat="48.99604" lon="1.85153">
        <ele>95.8</ele>
        <time>2022-09-22T13:02:55Z</time>
      </trkpt>
      <trkpt lat="48.99599" lon="1.8515">
        <ele>95.3</ele>
        <time>2022-09-22T13:03:01Z</time>
      </trkpt>
      <trkpt lat="48.99594" lon="1.85148">
        <ele>94.8</ele>
        <time>2022-09-22T13:03:05Z</time>
      </trkpt>
      <trkpt lat="48.99588" lon="1.85146">
        <ele>93.7</ele>
        <time>2022-09-22T13:03:09Z</time>
      </trkpt>
      <trkpt lat="48.99583" lon="1.85143">
        <ele>92</ele>
        <time>2022-09-22T13:03:13Z</time>
      </trkpt>
      <trkpt lat="48.99579" lon="1.85141">
        <ele>91.2</ele>
        <time>2022-09-22T13:03:18Z</time>
      </trkpt>
      <trkpt lat="48.99573" lon="1.85139">
        <ele>90.6</ele>
        <time>2022-09-22T13:03:22Z</time>
      </trkpt>
      <trkpt lat="48.99569" lon="1.85136">
        <ele>90.2</ele>
        <time>2022-09-22T13:03:26Z</time>
      </trkpt>
      <trkpt lat="48.99564" lon="1.85135">
        <ele>90.2</ele>
        <time>2022-09-22T13:03:30Z</time>
      </trkpt>
      <trkpt lat="48.9956" lon="1.85132">
        <ele>90.2</ele>
        <time>2022-09-22T13:03:35Z</time>
      </trkpt>
      <trkpt lat="48.99555" lon="1.85129">
        <ele>90.1</ele>
        <time>2022-09-22T13:03:39Z</time>
      </trkpt>
      <trkpt lat="48.9955" lon="1.85127">
        <ele>90.2</ele>
        <time>2022-09-22T13:03:44Z</time>
      </trkpt>
      <trkpt lat="48.99546" lon="1.85126">
        <ele>90.2</ele>
        <time>2022-09-22T13:03:48Z</time>
      </trkpt>
      <trkpt lat="48.9954" lon="1.85125">
        <ele>90.1</ele>
        <time>2022-09-22T13:03:53Z</time>
      </trkpt>
      <trkpt lat="48.99536" lon="1.85124">
        <ele>89.7</ele>
        <time>2022-09-22T13:03:58Z</time>
      </trkpt>
      <trkpt lat="48.99525" lon="1.85123">
        <ele>89.7</ele>
        <time>2022-09-22T13:04:17Z</time>
      </trkpt>
      <trkpt lat="48.99521" lon="1.85122">
        <ele>89.1</ele>
        <time>2022-09-22T13:04:20Z</time>
      </trkpt>
      <trkpt lat="48.99515" lon="1.8512">
        <ele>88.8</ele>
        <time>2022-09-22T13:04:24Z</time>
      </trkpt>
      <trkpt lat="48.99509" lon="1.85119">
        <ele>87.9</ele>
        <time>2022-09-22T13:04:29Z</time>
      </trkpt>
      <trkpt lat="48.99504" lon="1.85118">
        <ele>86.8</ele>
        <time>2022-09-22T13:04:33Z</time>
      </trkpt>
      <trkpt lat="48.99498" lon="1.85119">
        <ele>85.9</ele>
        <time>2022-09-22T13:04:38Z</time>
      </trkpt>
      <trkpt lat="48.99493" lon="1.8512">
        <ele>85.2</ele>
        <time>2022-09-22T13:04:45Z</time>
      </trkpt>
      <trkpt lat="48.99488" lon="1.85118">
        <ele>85.3</ele>
        <time>2022-09-22T13:04:50Z</time>
      </trkpt>
      <trkpt lat="48.99483" lon="1.85117">
        <ele>84.6</ele>
        <time>2022-09-22T13:04:55Z</time>
      </trkpt>
      <trkpt lat="48.99478" lon="1.85116">
        <ele>83.5</ele>
        <time>2022-09-22T13:05:00Z</time>
      </trkpt>
      <trkpt lat="48.99474" lon="1.85116">
        <ele>82</ele>
        <time>2022-09-22T13:05:04Z</time>
      </trkpt>
      <trkpt lat="48.99468" lon="1.85116">
        <ele>80.1</ele>
        <time>2022-09-22T13:05:09Z</time>
      </trkpt>
      <trkpt lat="48.99464" lon="1.85118">
        <ele>78.2</ele>
        <time>2022-09-22T13:05:14Z</time>
      </trkpt>
      <trkpt lat="48.99458" lon="1.85119">
        <ele>77.9</ele>
        <time>2022-09-22T13:05:18Z</time>
      </trkpt>
      <trkpt lat="48.99453" lon="1.85119">
        <ele>77.1</ele>
        <time>2022-09-22T13:05:23Z</time>
      </trkpt>
      <trkpt lat="48.99448" lon="1.85118">
        <ele>75.9</ele>
        <time>2022-09-22T13:05:27Z</time>
      </trkpt>
      <trkpt lat="48.99443" lon="1.85118">
        <ele>75.9</ele>
        <time>2022-09-22T13:05:32Z</time>
      </trkpt>
      <trkpt lat="48.99437" lon="1.85119">
        <ele>75.6</ele>
        <time>2022-09-22T13:05:36Z</time>
      </trkpt>
      <trkpt lat="48.99432" lon="1.85121">
        <ele>75.7</ele>
        <time>2022-09-22T13:05:41Z</time>
      </trkpt>
      <trkpt lat="48.99427" lon="1.85119">
        <ele>75.9</ele>
        <time>2022-09-22T13:05:46Z</time>
      </trkpt>
      <trkpt lat="48.99422" lon="1.85117">
        <ele>75.9</ele>
        <time>2022-09-22T13:05:52Z</time>
      </trkpt>
      <trkpt lat="48.99418" lon="1.85121">
        <ele>75.6</ele>
        <time>2022-09-22T13:05:59Z</time>
      </trkpt>
      <trkpt lat="48.99412" lon="1.8512">
        <ele>75.4</ele>
        <time>2022-09-22T13:06:02Z</time>
      </trkpt>
      <trkpt lat="48.99407" lon="1.85123">
        <ele>75.5</ele>
        <time>2022-09-22T13:06:06Z</time>
      </trkpt>
      <trkpt lat="48.99402" lon="1.85127">
        <ele>75.8</ele>
        <time>2022-09-22T13:06:11Z</time>
      </trkpt>
      <trkpt lat="48.99397" lon="1.85127">
        <ele>75.9</ele>
        <time>2022-09-22T13:06:15Z</time>
      </trkpt>
      <trkpt lat="48.99392" lon="1.85127">
        <ele>76</ele>
        <time>2022-09-22T13:06:19Z</time>
      </trkpt>
      <trkpt lat="48.99387" lon="1.85127">
        <ele>76.2</ele>
        <time>2022-09-22T13:06:23Z</time>
      </trkpt>
      <trkpt lat="48.99382" lon="1.85126">
        <ele>76.4</ele>
        <time>2022-09-22T13:06:27Z</time>
      </trkpt>
      <trkpt lat="48.99378" lon="1.85127">
        <ele>75.8</ele>
        <time>2022-09-22T13:06:32Z</time>
      </trkpt>
      <trkpt lat="48.99372" lon="1.85127">
        <ele>75.7</ele>
        <time>2022-09-22T13:06:36Z</time>
      </trkpt>
      <trkpt lat="48.99366" lon="1.85126">
        <ele>75.7</ele>
        <time>2022-09-22T13:06:41Z</time>
      </trkpt>
      <trkpt lat="48.99361" lon="1.85126">
        <ele>75.2</ele>
        <time>2022-09-22T13:06:45Z</time>
      </trkpt>
      <trkpt lat="48.99356" lon="1.85125">
        <ele>75</ele>
        <time>2022-09-22T13:06:50Z</time>
      </trkpt>
      <trkpt lat="48.9935" lon="1.85121">
        <ele>73.8</ele>
        <time>2022-09-22T13:06:54Z</time>
      </trkpt>
      <trkpt lat="48.99345" lon="1.85118">
        <ele>74.4</ele>
        <time>2022-09-22T13:06:59Z</time>
      </trkpt>
      <trkpt lat="48.99341" lon="1.85113">
        <ele>73.7</ele>
        <time>2022-09-22T13:07:05Z</time>
      </trkpt>
      <trkpt lat="48.99339" lon="1.85105">
        <ele>73</ele>
        <time>2022-09-22T13:07:09Z</time>
      </trkpt>
      <trkpt lat="48.99338" lon="1.85096">
        <ele>72.3</ele>
        <time>2022-09-22T13:07:13Z</time>
      </trkpt>
      <trkpt lat="48.99338" lon="1.85089">
        <ele>71.9</ele>
        <time>2022-09-22T13:07:17Z</time>
      </trkpt>
      <trkpt lat="48.99337" lon="1.8508">
        <ele>71.5</ele>
        <time>2022-09-22T13:07:21Z</time>
      </trkpt>
      <trkpt lat="48.99335" lon="1.85073">
        <ele>71.2</ele>
        <time>2022-09-22T13:07:25Z</time>
      </trkpt>
      <trkpt lat="48.99332" lon="1.85066">
        <ele>70.9</ele>
        <time>2022-09-22T13:07:30Z</time>
      </trkpt>
      <trkpt lat="48.99328" lon="1.85062">
        <ele>70.3</ele>
        <time>2022-09-22T13:07:34Z</time>
      </trkpt>
      <trkpt lat="48.99322" lon="1.8506">
        <ele>68.5</ele>
        <time>2022-09-22T13:07:39Z</time>
      </trkpt>
      <trkpt lat="48.99317" lon="1.85058">
        <ele>67.9</ele>
        <time>2022-09-22T13:07:43Z</time>
      </trkpt>
      <trkpt lat="48.99312" lon="1.85054">
        <ele>67.3</ele>
        <time>2022-09-22T13:07:48Z</time>
      </trkpt>
      <trkpt lat="48.99308" lon="1.85049">
        <ele>66.4</ele>
        <time>2022-09-22T13:07:53Z</time>
      </trkpt>
      <trkpt lat="48.99305" lon="1.85045">
        <ele>64.6</ele>
        <time>2022-09-22T13:07:57Z</time>
      </trkpt>
      <trkpt lat="48.99301" lon="1.8504">
        <ele>63.6</ele>
        <time>2022-09-22T13:08:01Z</time>
      </trkpt>
      <trkpt lat="48.99299" lon="1.85032">
        <ele>62.2</ele>
        <time>2022-09-22T13:08:07Z</time>
      </trkpt>
      <trkpt lat="48.99299" lon="1.85024">
        <ele>62</ele>
        <time>2022-09-22T13:08:11Z</time>
      </trkpt>
      <trkpt lat="48.99299" lon="1.85017">
        <ele>61.4</ele>
        <time>2022-09-22T13:08:16Z</time>
      </trkpt>
      <trkpt lat="48.99299" lon="1.8501">
        <ele>58.9</ele>
        <time>2022-09-22T13:08:20Z</time>
      </trkpt>
      <trkpt lat="48.99299" lon="1.85003">
        <ele>58.3</ele>
        <time>2022-09-22T13:08:24Z</time>
      </trkpt>
      <trkpt lat="48.993" lon="1.84995">
        <ele>55.5</ele>
        <time>2022-09-22T13:08:28Z</time>
      </trkpt>
      <trkpt lat="48.99301" lon="1.84988">
        <ele>54.9</ele>
        <time>2022-09-22T13:08:32Z</time>
      </trkpt>
      <trkpt lat="48.99302" lon="1.8498">
        <ele>52.9</ele>
        <time>2022-09-22T13:08:37Z</time>
      </trkpt>
      <trkpt lat="48.99301" lon="1.84973">
        <ele>52.5</ele>
        <time>2022-09-22T13:08:41Z</time>
      </trkpt>
      <trkpt lat="48.993" lon="1.84966">
        <ele>51.7</ele>
        <time>2022-09-22T13:08:45Z</time>
      </trkpt>
      <trkpt lat="48.99299" lon="1.84958">
        <ele>50.6</ele>
        <time>2022-09-22T13:08:50Z</time>
      </trkpt>
      <trkpt lat="48.99299" lon="1.84951">
        <ele>50.3</ele>
        <time>2022-09-22T13:08:54Z</time>
      </trkpt>
      <trkpt lat="48.993" lon="1.84944">
        <ele>49.3</ele>
        <time>2022-09-22T13:08:58Z</time>
      </trkpt>
      <trkpt lat="48.99299" lon="1.84937">
        <ele>49.2</ele>
        <time>2022-09-22T13:09:03Z</time>
      </trkpt>
      <trkpt lat="48.99298" lon="1.84929">
        <ele>48.8</ele>
        <time>2022-09-22T13:09:08Z</time>
      </trkpt>
      <trkpt lat="48.99295" lon="1.84923">
        <ele>48</ele>
        <time>2022-09-22T13:09:22Z</time>
      </trkpt>
      <trkpt lat="48.99294" lon="1.84916">
        <ele>47.2</ele>
        <time>2022-09-22T13:09:27Z</time>
      </trkpt>
      <trkpt lat="48.99293" lon="1.84909">
        <ele>46.6</ele>
        <time>2022-09-22T13:09:31Z</time>
      </trkpt>
      <trkpt lat="48.99291" lon="1.84902">
        <ele>46.5</ele>
        <time>2022-09-22T13:09:36Z</time>
      </trkpt>
      <trkpt lat="48.99289" lon="1.84896">
        <ele>46</ele>
        <time>2022-09-22T13:09:40Z</time>
      </trkpt>
      <trkpt lat="48.99283" lon="1.84893">
        <ele>44.9</ele>
        <time>2022-09-22T13:09:55Z</time>
      </trkpt>
      <trkpt lat="48.99279" lon="1.84895">
        <ele>44.9</ele>
        <time>2022-09-22T13:10:08Z</time>
      </trkpt>
      <trkpt lat="48.99276" lon="1.84888">
        <ele>43.9</ele>
        <time>2022-09-22T13:10:15Z</time>
      </trkpt>
      <trkpt lat="48.99273" lon="1.84881">
        <ele>42.5</ele>
        <time>2022-09-22T13:10:19Z</time>
      </trkpt>
      <trkpt lat="48.9927" lon="1.84874">
        <ele>42.5</ele>
        <time>2022-09-22T13:10:23Z</time>
      </trkpt>
      <trkpt lat="48.99267" lon="1.84867">
        <ele>42.3</ele>
        <time>2022-09-22T13:10:28Z</time>
      </trkpt>
      <trkpt lat="48.99265" lon="1.84861">
        <ele>42.2</ele>
        <time>2022-09-22T13:10:32Z</time>
      </trkpt>
      <trkpt lat="48.99262" lon="1.84855">
        <ele>42</ele>
        <time>2022-09-22T13:10:36Z</time>
      </trkpt>
      <trkpt lat="48.99258" lon="1.8485">
        <ele>42.1</ele>
        <time>2022-09-22T13:10:40Z</time>
      </trkpt>
      <trkpt lat="48.99255" lon="1.84845">
        <ele>42</ele>
        <time>2022-09-22T13:10:44Z</time>
      </trkpt>
      <trkpt lat="48.99252" lon="1.84838">
        <ele>42.3</ele>
        <time>2022-09-22T13:10:48Z</time>
      </trkpt>
      <trkpt lat="48.99248" lon="1.84832">
        <ele>42.1</ele>
        <time>2022-09-22T13:10:52Z</time>
      </trkpt>
      <trkpt lat="48.99245" lon="1.84826">
        <ele>42.1</ele>
        <time>2022-09-22T13:10:56Z</time>
      </trkpt>
      <trkpt lat="48.99241" lon="1.8482">
        <ele>42.2</ele>
        <time>2022-09-22T13:11:00Z</time>
      </trkpt>
      <trkpt lat="48.99238" lon="1.84813">
        <ele>41.8</ele>
        <time>2022-09-22T13:11:04Z</time>
      </trkpt>
      <trkpt lat="48.99236" lon="1.84806">
        <ele>41.4</ele>
        <time>2022-09-22T13:11:08Z</time>
      </trkpt>
      <trkpt lat="48.99235" lon="1.84798">
        <ele>40.3</ele>
        <time>2022-09-22T13:11:12Z</time>
      </trkpt>
      <trkpt lat="48.99233" lon="1.84791">
        <ele>39.3</ele>
        <time>2022-09-22T13:11:16Z</time>
      </trkpt>
      <trkpt lat="48.99231" lon="1.84783">
        <ele>38.7</ele>
        <time>2022-09-22T13:11:20Z</time>
      </trkpt>
      <trkpt lat="48.9923" lon="1.84775">
        <ele>38.6</ele>
        <time>2022-09-22T13:11:24Z</time>
      </trkpt>
      <trkpt lat="48.99228" lon="1.84767">
        <ele>38</ele>
        <time>2022-09-22T13:11:28Z</time>
      </trkpt>
      <trkpt lat="48.99226" lon="1.84761">
        <ele>37.9</ele>
        <time>2022-09-22T13:11:32Z</time>
      </trkpt>
      <trkpt lat="48.99224" lon="1.84755">
        <ele>38.1</ele>
        <time>2022-09-22T13:11:35Z</time>
      </trkpt>
      <trkpt lat="48.99223" lon="1.84747">
        <ele>38.3</ele>
        <time>2022-09-22T13:11:39Z</time>
      </trkpt>
      <trkpt lat="48.99221" lon="1.8474">
        <ele>38.1</ele>
        <time>2022-09-22T13:11:44Z</time>
      </trkpt>
      <trkpt lat="48.99219" lon="1.84733">
        <ele>38.7</ele>
        <time>2022-09-22T13:11:48Z</time>
      </trkpt>
      <trkpt lat="48.9922" lon="1.84724">
        <ele>38.7</ele>
        <time>2022-09-22T13:11:53Z</time>
      </trkpt>
      <trkpt lat="48.99224" lon="1.84718">
        <ele>39.9</ele>
        <time>2022-09-22T13:11:57Z</time>
      </trkpt>
      <trkpt lat="48.99227" lon="1.84712">
        <ele>40.6</ele>
        <time>2022-09-22T13:12:01Z</time>
      </trkpt>
      <trkpt lat="48.9923" lon="1.84705">
        <ele>40.9</ele>
        <time>2022-09-22T13:12:05Z</time>
      </trkpt>
      <trkpt lat="48.99233" lon="1.84698">
        <ele>40.8</ele>
        <time>2022-09-22T13:12:09Z</time>
      </trkpt>
      <trkpt lat="48.99236" lon="1.84693">
        <ele>41</ele>
        <time>2022-09-22T13:12:13Z</time>
      </trkpt>
      <trkpt lat="48.9924" lon="1.84688">
        <ele>41.3</ele>
        <time>2022-09-22T13:12:19Z</time>
      </trkpt>
      <trkpt lat="48.99243" lon="1.84682">
        <ele>41.7</ele>
        <time>2022-09-22T13:12:24Z</time>
      </trkpt>
      <trkpt lat="48.99243" lon="1.84675">
        <ele>41.8</ele>
        <time>2022-09-22T13:12:28Z</time>
      </trkpt>
      <trkpt lat="48.99242" lon="1.84667">
        <ele>41.9</ele>
        <time>2022-09-22T13:12:33Z</time>
      </trkpt>
      <trkpt lat="48.9924" lon="1.8466">
        <ele>42.1</ele>
        <time>2022-09-22T13:12:38Z</time>
      </trkpt>
      <trkpt lat="48.99238" lon="1.84653">
        <ele>42.8</ele>
        <time>2022-09-22T13:12:44Z</time>
      </trkpt>
      <trkpt lat="48.99237" lon="1.84645">
        <ele>45.4</ele>
        <time>2022-09-22T13:12:48Z</time>
      </trkpt>
      <trkpt lat="48.99238" lon="1.84637">
        <ele>45.9</ele>
        <time>2022-09-22T13:12:53Z</time>
      </trkpt>
      <trkpt lat="48.9924" lon="1.8463">
        <ele>45.8</ele>
        <time>2022-09-22T13:12:57Z</time>
      </trkpt>
      <trkpt lat="48.9924" lon="1.84623">
        <ele>46.2</ele>
        <time>2022-09-22T13:13:01Z</time>
      </trkpt>
      <trkpt lat="48.9924" lon="1.84615">
        <ele>46.8</ele>
        <time>2022-09-22T13:13:06Z</time>
      </trkpt>
      <trkpt lat="48.99239" lon="1.84607">
        <ele>46.5</ele>
        <time>2022-09-22T13:13:10Z</time>
      </trkpt>
      <trkpt lat="48.99241" lon="1.846">
        <ele>46.3</ele>
        <time>2022-09-22T13:13:15Z</time>
      </trkpt>
      <trkpt lat="48.9924" lon="1.84593">
        <ele>46.5</ele>
        <time>2022-09-22T13:13:19Z</time>
      </trkpt>
    </trkseg>
  </trk>
</gpx>